<?xml version="1.0" encoding="UTF-8" standalone="no" ?>
<gpx xmlns="http://www.topografix.com/GPX/1/1" xmlns:xsi="http://www.w3.org/2001/XMLSchema-instance" xsi:schemaLocation="http://www.topografix.com/GPX/1/1 http://www.topografix.com/GPX/1/1/gpx.xsd" version="1.1" creator="VisuGPX - https://www.visugpx.com">
  <metadata>
    <name>J6-queyras-fontscervières chalparvieux-04sept2022</name>
    <desc><![CDATA[Tour du Queyras par les crêtes et les 3000 en boucle de Ceillac à Ceillac.
J6 : des Fonts de Cervières à la Chalp d'Arvieux par le col de Péas, Souliers, le lac de Souliers et le Pic Ouest de Côte Belle (AR depuis le lac de Souliers)]]></desc>
  </metadata>
  <trk>
    <name><![CDATA[J6-queyras-fontscervières chalparvieux-04sept2022]]></name>
    <trkseg>
      <trkpt lat="44.84416" lon="6.81651">
        <ele>1987.18</ele>
        <time>2022-09-04T06:00:15Z</time>
      </trkpt>
      <trkpt lat="44.84417" lon="6.8165">
        <ele>1987.18</ele>
        <time>2022-09-04T06:00:16Z</time>
      </trkpt>
      <trkpt lat="44.84415" lon="6.8165">
        <ele>1991.51</ele>
        <time>2022-09-04T06:00:23Z</time>
      </trkpt>
      <trkpt lat="44.84414" lon="6.8165">
        <ele>1995.83</ele>
        <time>2022-09-04T06:00:25Z</time>
      </trkpt>
      <trkpt lat="44.84414" lon="6.81651">
        <ele>1999.2</ele>
        <time>2022-09-04T06:00:27Z</time>
      </trkpt>
      <trkpt lat="44.84413" lon="6.81652">
        <ele>2003.04</ele>
        <time>2022-09-04T06:00:29Z</time>
      </trkpt>
      <trkpt lat="44.84413" lon="6.81652">
        <ele>2006.41</ele>
        <time>2022-09-04T06:00:31Z</time>
      </trkpt>
      <trkpt lat="44.84414" lon="6.81652">
        <ele>2009.29</ele>
        <time>2022-09-04T06:00:33Z</time>
      </trkpt>
      <trkpt lat="44.84414" lon="6.81651">
        <ele>2013.14</ele>
        <time>2022-09-04T06:00:36Z</time>
      </trkpt>
      <trkpt lat="44.84414" lon="6.8165">
        <ele>2016.5</ele>
        <time>2022-09-04T06:00:39Z</time>
      </trkpt>
      <trkpt lat="44.84413" lon="6.8165">
        <ele>2020.35</ele>
        <time>2022-09-04T06:00:43Z</time>
      </trkpt>
      <trkpt lat="44.84411" lon="6.81651">
        <ele>2023.71</ele>
        <time>2022-09-04T06:00:47Z</time>
      </trkpt>
      <trkpt lat="44.84408" lon="6.81652">
        <ele>2027.56</ele>
        <time>2022-09-04T06:00:52Z</time>
      </trkpt>
      <trkpt lat="44.84403" lon="6.81655">
        <ele>2030.92</ele>
        <time>2022-09-04T06:00:57Z</time>
      </trkpt>
      <trkpt lat="44.84401" lon="6.81657">
        <ele>2032.36</ele>
        <time>2022-09-04T06:00:59Z</time>
      </trkpt>
      <trkpt lat="44.84397" lon="6.81658">
        <ele>2035.25</ele>
        <time>2022-09-04T06:01:05Z</time>
      </trkpt>
      <trkpt lat="44.84395" lon="6.81659">
        <ele>2036.69</ele>
        <time>2022-09-04T06:01:08Z</time>
      </trkpt>
      <trkpt lat="44.84387" lon="6.81662">
        <ele>2040.05</ele>
        <time>2022-09-04T06:01:19Z</time>
      </trkpt>
      <trkpt lat="44.84385" lon="6.81663">
        <ele>2041.02</ele>
        <time>2022-09-04T06:01:24Z</time>
      </trkpt>
      <trkpt lat="44.84377" lon="6.81673">
        <ele>2042.46</ele>
        <time>2022-09-04T06:01:38Z</time>
      </trkpt>
      <trkpt lat="44.84377" lon="6.81671">
        <ele>2042.46</ele>
        <time>2022-09-04T06:01:42Z</time>
      </trkpt>
      <trkpt lat="44.84361" lon="6.81677">
        <ele>2043.9</ele>
        <time>2022-09-04T06:01:56Z</time>
      </trkpt>
      <trkpt lat="44.84358" lon="6.81679">
        <ele>2043.9</ele>
        <time>2022-09-04T06:01:59Z</time>
      </trkpt>
      <trkpt lat="44.84353" lon="6.81684">
        <ele>2044.38</ele>
        <time>2022-09-04T06:02:03Z</time>
      </trkpt>
      <trkpt lat="44.84337" lon="6.817">
        <ele>2045.34</ele>
        <time>2022-09-04T06:02:16Z</time>
      </trkpt>
      <trkpt lat="44.84318" lon="6.8171">
        <ele>2045.82</ele>
        <time>2022-09-04T06:02:29Z</time>
      </trkpt>
      <trkpt lat="44.84311" lon="6.81709">
        <ele>2046.3</ele>
        <time>2022-09-04T06:02:36Z</time>
      </trkpt>
      <trkpt lat="44.8431" lon="6.81709">
        <ele>2046.3</ele>
        <time>2022-09-04T06:02:37Z</time>
      </trkpt>
      <trkpt lat="44.84296" lon="6.8171">
        <ele>2046.3</ele>
        <time>2022-09-04T06:02:49Z</time>
      </trkpt>
      <trkpt lat="44.8429" lon="6.81711">
        <ele>2046.3</ele>
        <time>2022-09-04T06:02:59Z</time>
      </trkpt>
      <trkpt lat="44.84288" lon="6.81713">
        <ele>2046.3</ele>
        <time>2022-09-04T06:03:21Z</time>
      </trkpt>
      <trkpt lat="44.84287" lon="6.81712">
        <ele>2046.3</ele>
        <time>2022-09-04T06:03:34Z</time>
      </trkpt>
      <trkpt lat="44.84287" lon="6.81712">
        <ele>2046.3</ele>
        <time>2022-09-04T06:03:35Z</time>
      </trkpt>
      <trkpt lat="44.84271" lon="6.8171">
        <ele>2045.34</ele>
        <time>2022-09-04T06:03:49Z</time>
      </trkpt>
      <trkpt lat="44.84257" lon="6.81713">
        <ele>2045.34</ele>
        <time>2022-09-04T06:04:02Z</time>
      </trkpt>
      <trkpt lat="44.84256" lon="6.81711">
        <ele>2046.3</ele>
        <time>2022-09-04T06:04:04Z</time>
      </trkpt>
      <trkpt lat="44.84255" lon="6.8171">
        <ele>2046.3</ele>
        <time>2022-09-04T06:04:05Z</time>
      </trkpt>
      <trkpt lat="44.84252" lon="6.81706">
        <ele>2047.26</ele>
        <time>2022-09-04T06:04:10Z</time>
      </trkpt>
      <trkpt lat="44.8425" lon="6.81705">
        <ele>2047.26</ele>
        <time>2022-09-04T06:04:11Z</time>
      </trkpt>
      <trkpt lat="44.84235" lon="6.81699">
        <ele>2048.71</ele>
        <time>2022-09-04T06:04:24Z</time>
      </trkpt>
      <trkpt lat="44.8422" lon="6.817">
        <ele>2050.15</ele>
        <time>2022-09-04T06:04:35Z</time>
      </trkpt>
      <trkpt lat="44.84215" lon="6.81702">
        <ele>2051.11</ele>
        <time>2022-09-04T06:04:40Z</time>
      </trkpt>
      <trkpt lat="44.84212" lon="6.81703">
        <ele>2051.59</ele>
        <time>2022-09-04T06:04:43Z</time>
      </trkpt>
      <trkpt lat="44.84211" lon="6.81704">
        <ele>2051.59</ele>
        <time>2022-09-04T06:04:44Z</time>
      </trkpt>
      <trkpt lat="44.84204" lon="6.81705">
        <ele>2052.55</ele>
        <time>2022-09-04T06:04:51Z</time>
      </trkpt>
      <trkpt lat="44.84203" lon="6.81707">
        <ele>2053.03</ele>
        <time>2022-09-04T06:04:52Z</time>
      </trkpt>
      <trkpt lat="44.84193" lon="6.81713">
        <ele>2055.44</ele>
        <time>2022-09-04T06:05:04Z</time>
      </trkpt>
      <trkpt lat="44.8419" lon="6.81714">
        <ele>2055.44</ele>
        <time>2022-09-04T06:05:08Z</time>
      </trkpt>
      <trkpt lat="44.84179" lon="6.81717">
        <ele>2057.36</ele>
        <time>2022-09-04T06:05:19Z</time>
      </trkpt>
      <trkpt lat="44.84174" lon="6.81715">
        <ele>2058.8</ele>
        <time>2022-09-04T06:05:26Z</time>
      </trkpt>
      <trkpt lat="44.84169" lon="6.81714">
        <ele>2059.76</ele>
        <time>2022-09-04T06:05:39Z</time>
      </trkpt>
      <trkpt lat="44.84163" lon="6.81721">
        <ele>2062.17</ele>
        <time>2022-09-04T06:05:51Z</time>
      </trkpt>
      <trkpt lat="44.84158" lon="6.81731">
        <ele>2065.53</ele>
        <time>2022-09-04T06:06:06Z</time>
      </trkpt>
      <trkpt lat="44.84157" lon="6.81735">
        <ele>2066.01</ele>
        <time>2022-09-04T06:06:13Z</time>
      </trkpt>
      <trkpt lat="44.84155" lon="6.81746">
        <ele>2068.41</ele>
        <time>2022-09-04T06:06:24Z</time>
      </trkpt>
      <trkpt lat="44.8415" lon="6.81751">
        <ele>2070.34</ele>
        <time>2022-09-04T06:06:32Z</time>
      </trkpt>
      <trkpt lat="44.84149" lon="6.81751">
        <ele>2070.34</ele>
        <time>2022-09-04T06:06:33Z</time>
      </trkpt>
      <trkpt lat="44.84142" lon="6.81757">
        <ele>2072.26</ele>
        <time>2022-09-04T06:06:45Z</time>
      </trkpt>
      <trkpt lat="44.84139" lon="6.81769">
        <ele>2075.14</ele>
        <time>2022-09-04T06:06:59Z</time>
      </trkpt>
      <trkpt lat="44.84134" lon="6.81778">
        <ele>2077.55</ele>
        <time>2022-09-04T06:07:14Z</time>
      </trkpt>
      <trkpt lat="44.84129" lon="6.81782">
        <ele>2079.47</ele>
        <time>2022-09-04T06:07:25Z</time>
      </trkpt>
      <trkpt lat="44.84124" lon="6.81787">
        <ele>2081.87</ele>
        <time>2022-09-04T06:07:37Z</time>
      </trkpt>
      <trkpt lat="44.84121" lon="6.81795">
        <ele>2083.79</ele>
        <time>2022-09-04T06:07:48Z</time>
      </trkpt>
      <trkpt lat="44.84116" lon="6.81802">
        <ele>2085.72</ele>
        <time>2022-09-04T06:08:02Z</time>
      </trkpt>
      <trkpt lat="44.84112" lon="6.81803">
        <ele>2087.16</ele>
        <time>2022-09-04T06:08:11Z</time>
      </trkpt>
      <trkpt lat="44.84102" lon="6.81798">
        <ele>2090.04</ele>
        <time>2022-09-04T06:08:24Z</time>
      </trkpt>
      <trkpt lat="44.84096" lon="6.81794">
        <ele>2091.97</ele>
        <time>2022-09-04T06:08:38Z</time>
      </trkpt>
      <trkpt lat="44.84092" lon="6.81787">
        <ele>2093.41</ele>
        <time>2022-09-04T06:08:52Z</time>
      </trkpt>
      <trkpt lat="44.84084" lon="6.81778">
        <ele>2096.29</ele>
        <time>2022-09-04T06:09:07Z</time>
      </trkpt>
      <trkpt lat="44.84079" lon="6.81767">
        <ele>2099.18</ele>
        <time>2022-09-04T06:09:22Z</time>
      </trkpt>
      <trkpt lat="44.8407" lon="6.81767">
        <ele>2100.62</ele>
        <time>2022-09-04T06:09:33Z</time>
      </trkpt>
      <trkpt lat="44.84062" lon="6.81765">
        <ele>2102.06</ele>
        <time>2022-09-04T06:09:47Z</time>
      </trkpt>
      <trkpt lat="44.84059" lon="6.81766">
        <ele>2103.5</ele>
        <time>2022-09-04T06:09:51Z</time>
      </trkpt>
      <trkpt lat="44.84051" lon="6.81762">
        <ele>2104.94</ele>
        <time>2022-09-04T06:10:03Z</time>
      </trkpt>
      <trkpt lat="44.84046" lon="6.81761">
        <ele>2107.35</ele>
        <time>2022-09-04T06:10:16Z</time>
      </trkpt>
      <trkpt lat="44.84038" lon="6.81762">
        <ele>2108.31</ele>
        <time>2022-09-04T06:10:27Z</time>
      </trkpt>
      <trkpt lat="44.84029" lon="6.81766">
        <ele>2109.75</ele>
        <time>2022-09-04T06:10:42Z</time>
      </trkpt>
      <trkpt lat="44.8402" lon="6.81767">
        <ele>2111.19</ele>
        <time>2022-09-04T06:10:54Z</time>
      </trkpt>
      <trkpt lat="44.84012" lon="6.81768">
        <ele>2111.67</ele>
        <time>2022-09-04T06:11:07Z</time>
      </trkpt>
      <trkpt lat="44.84005" lon="6.81764">
        <ele>2112.15</ele>
        <time>2022-09-04T06:11:19Z</time>
      </trkpt>
      <trkpt lat="44.84004" lon="6.81764">
        <ele>2112.15</ele>
        <time>2022-09-04T06:11:20Z</time>
      </trkpt>
      <trkpt lat="44.83997" lon="6.81763">
        <ele>2113.6</ele>
        <time>2022-09-04T06:11:30Z</time>
      </trkpt>
      <trkpt lat="44.83995" lon="6.81761">
        <ele>2114.56</ele>
        <time>2022-09-04T06:11:36Z</time>
      </trkpt>
      <trkpt lat="44.83988" lon="6.81759">
        <ele>2116</ele>
        <time>2022-09-04T06:11:48Z</time>
      </trkpt>
      <trkpt lat="44.83984" lon="6.81757">
        <ele>2116.96</ele>
        <time>2022-09-04T06:11:56Z</time>
      </trkpt>
      <trkpt lat="44.83977" lon="6.81755">
        <ele>2118.4</ele>
        <time>2022-09-04T06:12:07Z</time>
      </trkpt>
      <trkpt lat="44.8397" lon="6.81753">
        <ele>2119.36</ele>
        <time>2022-09-04T06:12:18Z</time>
      </trkpt>
      <trkpt lat="44.83962" lon="6.81754">
        <ele>2120.81</ele>
        <time>2022-09-04T06:12:29Z</time>
      </trkpt>
      <trkpt lat="44.83954" lon="6.81751">
        <ele>2121.77</ele>
        <time>2022-09-04T06:12:41Z</time>
      </trkpt>
      <trkpt lat="44.83952" lon="6.81751">
        <ele>2122.25</ele>
        <time>2022-09-04T06:12:44Z</time>
      </trkpt>
      <trkpt lat="44.83947" lon="6.81749">
        <ele>2122.73</ele>
        <time>2022-09-04T06:12:51Z</time>
      </trkpt>
      <trkpt lat="44.83946" lon="6.81748">
        <ele>2122.73</ele>
        <time>2022-09-04T06:12:52Z</time>
      </trkpt>
      <trkpt lat="44.83944" lon="6.81746">
        <ele>2122.73</ele>
        <time>2022-09-04T06:12:55Z</time>
      </trkpt>
      <trkpt lat="44.83941" lon="6.81743">
        <ele>2123.69</ele>
        <time>2022-09-04T06:13:00Z</time>
      </trkpt>
      <trkpt lat="44.83938" lon="6.81741">
        <ele>2124.17</ele>
        <time>2022-09-04T06:13:05Z</time>
      </trkpt>
      <trkpt lat="44.83933" lon="6.81733">
        <ele>2126.09</ele>
        <time>2022-09-04T06:13:16Z</time>
      </trkpt>
      <trkpt lat="44.83929" lon="6.81726">
        <ele>2126.09</ele>
        <time>2022-09-04T06:13:24Z</time>
      </trkpt>
      <trkpt lat="44.83921" lon="6.81717">
        <ele>2127.53</ele>
        <time>2022-09-04T06:13:36Z</time>
      </trkpt>
      <trkpt lat="44.83914" lon="6.81713">
        <ele>2128.5</ele>
        <time>2022-09-04T06:13:48Z</time>
      </trkpt>
      <trkpt lat="44.83906" lon="6.8171">
        <ele>2129.46</ele>
        <time>2022-09-04T06:14:01Z</time>
      </trkpt>
      <trkpt lat="44.83906" lon="6.81708">
        <ele>2128.5</ele>
        <time>2022-09-04T06:14:19Z</time>
      </trkpt>
      <trkpt lat="44.83904" lon="6.81708">
        <ele>2128.5</ele>
        <time>2022-09-04T06:14:21Z</time>
      </trkpt>
      <trkpt lat="44.839" lon="6.81708">
        <ele>2128.02</ele>
        <time>2022-09-04T06:14:26Z</time>
      </trkpt>
      <trkpt lat="44.83897" lon="6.81708">
        <ele>2127.05</ele>
        <time>2022-09-04T06:14:30Z</time>
      </trkpt>
      <trkpt lat="44.83896" lon="6.81709">
        <ele>2127.05</ele>
        <time>2022-09-04T06:14:31Z</time>
      </trkpt>
      <trkpt lat="44.83894" lon="6.81709">
        <ele>2127.05</ele>
        <time>2022-09-04T06:14:32Z</time>
      </trkpt>
      <trkpt lat="44.83881" lon="6.81709">
        <ele>2124.65</ele>
        <time>2022-09-04T06:14:45Z</time>
      </trkpt>
      <trkpt lat="44.8388" lon="6.81709">
        <ele>2124.65</ele>
        <time>2022-09-04T06:14:46Z</time>
      </trkpt>
      <trkpt lat="44.83878" lon="6.81708">
        <ele>2124.65</ele>
        <time>2022-09-04T06:14:47Z</time>
      </trkpt>
      <trkpt lat="44.83871" lon="6.81705">
        <ele>2124.17</ele>
        <time>2022-09-04T06:14:55Z</time>
      </trkpt>
      <trkpt lat="44.8386" lon="6.81704">
        <ele>2122.25</ele>
        <time>2022-09-04T06:15:07Z</time>
      </trkpt>
      <trkpt lat="44.83848" lon="6.81707">
        <ele>2121.29</ele>
        <time>2022-09-04T06:15:19Z</time>
      </trkpt>
      <trkpt lat="44.83845" lon="6.81705">
        <ele>2121.29</ele>
        <time>2022-09-04T06:15:23Z</time>
      </trkpt>
      <trkpt lat="44.83839" lon="6.81705">
        <ele>2120.81</ele>
        <time>2022-09-04T06:15:32Z</time>
      </trkpt>
      <trkpt lat="44.83837" lon="6.81704">
        <ele>2120.81</ele>
        <time>2022-09-04T06:15:33Z</time>
      </trkpt>
      <trkpt lat="44.83836" lon="6.81703">
        <ele>2120.81</ele>
        <time>2022-09-04T06:15:34Z</time>
      </trkpt>
      <trkpt lat="44.83835" lon="6.81703">
        <ele>2120.32</ele>
        <time>2022-09-04T06:15:35Z</time>
      </trkpt>
      <trkpt lat="44.83822" lon="6.81698">
        <ele>2120.81</ele>
        <time>2022-09-04T06:15:48Z</time>
      </trkpt>
      <trkpt lat="44.83812" lon="6.81697">
        <ele>2121.77</ele>
        <time>2022-09-04T06:16:00Z</time>
      </trkpt>
      <trkpt lat="44.8381" lon="6.81691">
        <ele>2121.77</ele>
        <time>2022-09-04T06:16:05Z</time>
      </trkpt>
      <trkpt lat="44.83805" lon="6.81683">
        <ele>2122.25</ele>
        <time>2022-09-04T06:16:14Z</time>
      </trkpt>
      <trkpt lat="44.83803" lon="6.81678">
        <ele>2123.69</ele>
        <time>2022-09-04T06:16:19Z</time>
      </trkpt>
      <trkpt lat="44.83796" lon="6.81667">
        <ele>2124.65</ele>
        <time>2022-09-04T06:16:29Z</time>
      </trkpt>
      <trkpt lat="44.83795" lon="6.81666">
        <ele>2124.65</ele>
        <time>2022-09-04T06:16:30Z</time>
      </trkpt>
      <trkpt lat="44.83791" lon="6.81659">
        <ele>2124.65</ele>
        <time>2022-09-04T06:16:36Z</time>
      </trkpt>
      <trkpt lat="44.83787" lon="6.81652">
        <ele>2124.65</ele>
        <time>2022-09-04T06:16:43Z</time>
      </trkpt>
      <trkpt lat="44.83777" lon="6.81645">
        <ele>2125.61</ele>
        <time>2022-09-04T06:16:54Z</time>
      </trkpt>
      <trkpt lat="44.8377" lon="6.81636">
        <ele>2126.57</ele>
        <time>2022-09-04T06:17:05Z</time>
      </trkpt>
      <trkpt lat="44.83762" lon="6.81626">
        <ele>2127.53</ele>
        <time>2022-09-04T06:17:17Z</time>
      </trkpt>
      <trkpt lat="44.83754" lon="6.81613">
        <ele>2128.5</ele>
        <time>2022-09-04T06:17:29Z</time>
      </trkpt>
      <trkpt lat="44.83753" lon="6.81611">
        <ele>2128.5</ele>
        <time>2022-09-04T06:17:32Z</time>
      </trkpt>
      <trkpt lat="44.83752" lon="6.8161">
        <ele>2129.46</ele>
        <time>2022-09-04T06:17:33Z</time>
      </trkpt>
      <trkpt lat="44.83744" lon="6.816">
        <ele>2129.94</ele>
        <time>2022-09-04T06:17:44Z</time>
      </trkpt>
      <trkpt lat="44.83734" lon="6.81592">
        <ele>2130.42</ele>
        <time>2022-09-04T06:17:55Z</time>
      </trkpt>
      <trkpt lat="44.83726" lon="6.81583">
        <ele>2131.38</ele>
        <time>2022-09-04T06:18:07Z</time>
      </trkpt>
      <trkpt lat="44.8372" lon="6.81574">
        <ele>2132.34</ele>
        <time>2022-09-04T06:18:17Z</time>
      </trkpt>
      <trkpt lat="44.83713" lon="6.81565">
        <ele>2133.3</ele>
        <time>2022-09-04T06:18:29Z</time>
      </trkpt>
      <trkpt lat="44.83712" lon="6.81561">
        <ele>2133.78</ele>
        <time>2022-09-04T06:18:39Z</time>
      </trkpt>
      <trkpt lat="44.83704" lon="6.8155">
        <ele>2134.74</ele>
        <time>2022-09-04T06:18:51Z</time>
      </trkpt>
      <trkpt lat="44.83697" lon="6.81543">
        <ele>2136.67</ele>
        <time>2022-09-04T06:19:03Z</time>
      </trkpt>
      <trkpt lat="44.83689" lon="6.81533">
        <ele>2137.63</ele>
        <time>2022-09-04T06:19:17Z</time>
      </trkpt>
      <trkpt lat="44.83682" lon="6.81525">
        <ele>2140.03</ele>
        <time>2022-09-04T06:19:31Z</time>
      </trkpt>
      <trkpt lat="44.83675" lon="6.81518">
        <ele>2141.95</ele>
        <time>2022-09-04T06:19:44Z</time>
      </trkpt>
      <trkpt lat="44.83674" lon="6.81519">
        <ele>2141.95</ele>
        <time>2022-09-04T06:19:45Z</time>
      </trkpt>
      <trkpt lat="44.83668" lon="6.81515">
        <ele>2144.36</ele>
        <time>2022-09-04T06:19:57Z</time>
      </trkpt>
      <trkpt lat="44.83662" lon="6.8151">
        <ele>2145.8</ele>
        <time>2022-09-04T06:20:09Z</time>
      </trkpt>
      <trkpt lat="44.83661" lon="6.81509">
        <ele>2146.28</ele>
        <time>2022-09-04T06:20:10Z</time>
      </trkpt>
      <trkpt lat="44.83654" lon="6.81503">
        <ele>2147.72</ele>
        <time>2022-09-04T06:20:22Z</time>
      </trkpt>
      <trkpt lat="44.83648" lon="6.81496">
        <ele>2149.16</ele>
        <time>2022-09-04T06:20:33Z</time>
      </trkpt>
      <trkpt lat="44.83643" lon="6.81488">
        <ele>2149.65</ele>
        <time>2022-09-04T06:20:45Z</time>
      </trkpt>
      <trkpt lat="44.83634" lon="6.81486">
        <ele>2151.09</ele>
        <time>2022-09-04T06:20:56Z</time>
      </trkpt>
      <trkpt lat="44.83631" lon="6.81484">
        <ele>2151.57</ele>
        <time>2022-09-04T06:21:01Z</time>
      </trkpt>
      <trkpt lat="44.83626" lon="6.81479">
        <ele>2152.05</ele>
        <time>2022-09-04T06:21:08Z</time>
      </trkpt>
      <trkpt lat="44.83619" lon="6.81476">
        <ele>2154.45</ele>
        <time>2022-09-04T06:21:20Z</time>
      </trkpt>
      <trkpt lat="44.83615" lon="6.81473">
        <ele>2154.93</ele>
        <time>2022-09-04T06:21:27Z</time>
      </trkpt>
      <trkpt lat="44.83609" lon="6.81468">
        <ele>2156.86</ele>
        <time>2022-09-04T06:21:39Z</time>
      </trkpt>
      <trkpt lat="44.83603" lon="6.81462">
        <ele>2157.82</ele>
        <time>2022-09-04T06:21:50Z</time>
      </trkpt>
      <trkpt lat="44.83599" lon="6.81456">
        <ele>2159.26</ele>
        <time>2022-09-04T06:22:00Z</time>
      </trkpt>
      <trkpt lat="44.83598" lon="6.81453">
        <ele>2160.22</ele>
        <time>2022-09-04T06:22:03Z</time>
      </trkpt>
      <trkpt lat="44.83594" lon="6.81442">
        <ele>2160.7</ele>
        <time>2022-09-04T06:22:15Z</time>
      </trkpt>
      <trkpt lat="44.83588" lon="6.81432">
        <ele>2161.66</ele>
        <time>2022-09-04T06:22:28Z</time>
      </trkpt>
      <trkpt lat="44.83584" lon="6.81425">
        <ele>2163.58</ele>
        <time>2022-09-04T06:22:40Z</time>
      </trkpt>
      <trkpt lat="44.83575" lon="6.81421">
        <ele>2165.03</ele>
        <time>2022-09-04T06:22:52Z</time>
      </trkpt>
      <trkpt lat="44.83573" lon="6.81419">
        <ele>2165.03</ele>
        <time>2022-09-04T06:22:55Z</time>
      </trkpt>
      <trkpt lat="44.83566" lon="6.81408">
        <ele>2165.51</ele>
        <time>2022-09-04T06:23:08Z</time>
      </trkpt>
      <trkpt lat="44.83559" lon="6.81398">
        <ele>2165.51</ele>
        <time>2022-09-04T06:23:18Z</time>
      </trkpt>
      <trkpt lat="44.83554" lon="6.81392">
        <ele>2165.51</ele>
        <time>2022-09-04T06:23:25Z</time>
      </trkpt>
      <trkpt lat="44.83549" lon="6.81391">
        <ele>2165.51</ele>
        <time>2022-09-04T06:23:29Z</time>
      </trkpt>
      <trkpt lat="44.83541" lon="6.81388">
        <ele>2165.51</ele>
        <time>2022-09-04T06:23:38Z</time>
      </trkpt>
      <trkpt lat="44.8354" lon="6.81387">
        <ele>2165.51</ele>
        <time>2022-09-04T06:23:39Z</time>
      </trkpt>
      <trkpt lat="44.83538" lon="6.81384">
        <ele>2165.51</ele>
        <time>2022-09-04T06:23:43Z</time>
      </trkpt>
      <trkpt lat="44.83535" lon="6.81377">
        <ele>2164.55</ele>
        <time>2022-09-04T06:23:52Z</time>
      </trkpt>
      <trkpt lat="44.83534" lon="6.81375">
        <ele>2163.58</ele>
        <time>2022-09-04T06:23:54Z</time>
      </trkpt>
      <trkpt lat="44.83531" lon="6.81373">
        <ele>2163.1</ele>
        <time>2022-09-04T06:23:58Z</time>
      </trkpt>
      <trkpt lat="44.8353" lon="6.81372">
        <ele>2163.1</ele>
        <time>2022-09-04T06:23:59Z</time>
      </trkpt>
      <trkpt lat="44.83522" lon="6.81368">
        <ele>2162.62</ele>
        <time>2022-09-04T06:24:08Z</time>
      </trkpt>
      <trkpt lat="44.83514" lon="6.81366">
        <ele>2164.55</ele>
        <time>2022-09-04T06:24:18Z</time>
      </trkpt>
      <trkpt lat="44.8351" lon="6.81364">
        <ele>2164.55</ele>
        <time>2022-09-04T06:24:22Z</time>
      </trkpt>
      <trkpt lat="44.83505" lon="6.81361">
        <ele>2164.55</ele>
        <time>2022-09-04T06:24:29Z</time>
      </trkpt>
      <trkpt lat="44.83504" lon="6.81361">
        <ele>2164.55</ele>
        <time>2022-09-04T06:24:30Z</time>
      </trkpt>
      <trkpt lat="44.83497" lon="6.8136">
        <ele>2165.51</ele>
        <time>2022-09-04T06:24:38Z</time>
      </trkpt>
      <trkpt lat="44.83489" lon="6.81355">
        <ele>2167.91</ele>
        <time>2022-09-04T06:24:51Z</time>
      </trkpt>
      <trkpt lat="44.83484" lon="6.81352">
        <ele>2167.91</ele>
        <time>2022-09-04T06:24:57Z</time>
      </trkpt>
      <trkpt lat="44.83483" lon="6.81351">
        <ele>2168.39</ele>
        <time>2022-09-04T06:24:58Z</time>
      </trkpt>
      <trkpt lat="44.83473" lon="6.81345">
        <ele>2168.87</ele>
        <time>2022-09-04T06:25:09Z</time>
      </trkpt>
      <trkpt lat="44.83465" lon="6.81344">
        <ele>2169.35</ele>
        <time>2022-09-04T06:25:18Z</time>
      </trkpt>
      <trkpt lat="44.83463" lon="6.81345">
        <ele>2169.35</ele>
        <time>2022-09-04T06:25:21Z</time>
      </trkpt>
      <trkpt lat="44.83453" lon="6.81338">
        <ele>2170.31</ele>
        <time>2022-09-04T06:25:32Z</time>
      </trkpt>
      <trkpt lat="44.83446" lon="6.8133">
        <ele>2171.76</ele>
        <time>2022-09-04T06:25:42Z</time>
      </trkpt>
      <trkpt lat="44.83439" lon="6.81324">
        <ele>2171.76</ele>
        <time>2022-09-04T06:25:53Z</time>
      </trkpt>
      <trkpt lat="44.83435" lon="6.81319">
        <ele>2171.76</ele>
        <time>2022-09-04T06:25:59Z</time>
      </trkpt>
      <trkpt lat="44.83434" lon="6.81318">
        <ele>2171.76</ele>
        <time>2022-09-04T06:26:00Z</time>
      </trkpt>
      <trkpt lat="44.83425" lon="6.8131">
        <ele>2172.72</ele>
        <time>2022-09-04T06:26:12Z</time>
      </trkpt>
      <trkpt lat="44.83416" lon="6.81302">
        <ele>2173.68</ele>
        <time>2022-09-04T06:26:24Z</time>
      </trkpt>
      <trkpt lat="44.83414" lon="6.81301">
        <ele>2173.68</ele>
        <time>2022-09-04T06:26:28Z</time>
      </trkpt>
      <trkpt lat="44.83412" lon="6.81301">
        <ele>2174.64</ele>
        <time>2022-09-04T06:26:31Z</time>
      </trkpt>
      <trkpt lat="44.83402" lon="6.81293">
        <ele>2175.6</ele>
        <time>2022-09-04T06:26:43Z</time>
      </trkpt>
      <trkpt lat="44.8339" lon="6.81289">
        <ele>2176.08</ele>
        <time>2022-09-04T06:26:56Z</time>
      </trkpt>
      <trkpt lat="44.83381" lon="6.81282">
        <ele>2176.08</ele>
        <time>2022-09-04T06:27:07Z</time>
      </trkpt>
      <trkpt lat="44.83375" lon="6.8128">
        <ele>2176.08</ele>
        <time>2022-09-04T06:27:14Z</time>
      </trkpt>
      <trkpt lat="44.83372" lon="6.81277">
        <ele>2174.64</ele>
        <time>2022-09-04T06:27:17Z</time>
      </trkpt>
      <trkpt lat="44.83361" lon="6.81273">
        <ele>2173.68</ele>
        <time>2022-09-04T06:27:29Z</time>
      </trkpt>
      <trkpt lat="44.8335" lon="6.81267">
        <ele>2173.68</ele>
        <time>2022-09-04T06:27:40Z</time>
      </trkpt>
      <trkpt lat="44.83349" lon="6.81267">
        <ele>2173.68</ele>
        <time>2022-09-04T06:27:41Z</time>
      </trkpt>
      <trkpt lat="44.8334" lon="6.81258">
        <ele>2173.2</ele>
        <time>2022-09-04T06:27:52Z</time>
      </trkpt>
      <trkpt lat="44.83338" lon="6.81257">
        <ele>2173.2</ele>
        <time>2022-09-04T06:27:54Z</time>
      </trkpt>
      <trkpt lat="44.83337" lon="6.81257">
        <ele>2172.72</ele>
        <time>2022-09-04T06:27:55Z</time>
      </trkpt>
      <trkpt lat="44.83324" lon="6.81257">
        <ele>2171.76</ele>
        <time>2022-09-04T06:28:07Z</time>
      </trkpt>
      <trkpt lat="44.83324" lon="6.81256">
        <ele>2171.76</ele>
        <time>2022-09-04T06:28:08Z</time>
      </trkpt>
      <trkpt lat="44.83321" lon="6.81254">
        <ele>2171.27</ele>
        <time>2022-09-04T06:28:11Z</time>
      </trkpt>
      <trkpt lat="44.83319" lon="6.81253">
        <ele>2170.31</ele>
        <time>2022-09-04T06:28:13Z</time>
      </trkpt>
      <trkpt lat="44.83308" lon="6.81245">
        <ele>2169.83</ele>
        <time>2022-09-04T06:28:25Z</time>
      </trkpt>
      <trkpt lat="44.83299" lon="6.81241">
        <ele>2168.39</ele>
        <time>2022-09-04T06:28:34Z</time>
      </trkpt>
      <trkpt lat="44.83297" lon="6.8124">
        <ele>2168.39</ele>
        <time>2022-09-04T06:28:36Z</time>
      </trkpt>
      <trkpt lat="44.83294" lon="6.8124">
        <ele>2168.39</ele>
        <time>2022-09-04T06:28:40Z</time>
      </trkpt>
      <trkpt lat="44.8328" lon="6.81231">
        <ele>2168.39</ele>
        <time>2022-09-04T06:28:54Z</time>
      </trkpt>
      <trkpt lat="44.83278" lon="6.81229">
        <ele>2169.83</ele>
        <time>2022-09-04T06:28:58Z</time>
      </trkpt>
      <trkpt lat="44.83269" lon="6.81221">
        <ele>2170.79</ele>
        <time>2022-09-04T06:29:10Z</time>
      </trkpt>
      <trkpt lat="44.83266" lon="6.81219">
        <ele>2171.27</ele>
        <time>2022-09-04T06:29:14Z</time>
      </trkpt>
      <trkpt lat="44.83258" lon="6.81216">
        <ele>2172.24</ele>
        <time>2022-09-04T06:29:25Z</time>
      </trkpt>
      <trkpt lat="44.83257" lon="6.81215">
        <ele>2172.24</ele>
        <time>2022-09-04T06:29:26Z</time>
      </trkpt>
      <trkpt lat="44.83254" lon="6.81213">
        <ele>2172.24</ele>
        <time>2022-09-04T06:29:29Z</time>
      </trkpt>
      <trkpt lat="44.83248" lon="6.8121">
        <ele>2173.2</ele>
        <time>2022-09-04T06:29:36Z</time>
      </trkpt>
      <trkpt lat="44.83245" lon="6.81209">
        <ele>2173.68</ele>
        <time>2022-09-04T06:29:39Z</time>
      </trkpt>
      <trkpt lat="44.83243" lon="6.81202">
        <ele>2173.68</ele>
        <time>2022-09-04T06:29:46Z</time>
      </trkpt>
      <trkpt lat="44.83239" lon="6.81187">
        <ele>2172.72</ele>
        <time>2022-09-04T06:30:00Z</time>
      </trkpt>
      <trkpt lat="44.83237" lon="6.81184">
        <ele>2174.16</ele>
        <time>2022-09-04T06:30:05Z</time>
      </trkpt>
      <trkpt lat="44.83232" lon="6.81175">
        <ele>2175.6</ele>
        <time>2022-09-04T06:30:16Z</time>
      </trkpt>
      <trkpt lat="44.83229" lon="6.81172">
        <ele>2175.6</ele>
        <time>2022-09-04T06:30:20Z</time>
      </trkpt>
      <trkpt lat="44.83221" lon="6.81164">
        <ele>2177.52</ele>
        <time>2022-09-04T06:30:33Z</time>
      </trkpt>
      <trkpt lat="44.83217" lon="6.8116">
        <ele>2177.52</ele>
        <time>2022-09-04T06:30:39Z</time>
      </trkpt>
      <trkpt lat="44.83216" lon="6.81159">
        <ele>2178.48</ele>
        <time>2022-09-04T06:30:40Z</time>
      </trkpt>
      <trkpt lat="44.83213" lon="6.81154">
        <ele>2179.45</ele>
        <time>2022-09-04T06:30:52Z</time>
      </trkpt>
      <trkpt lat="44.83212" lon="6.81152">
        <ele>2179.45</ele>
        <time>2022-09-04T06:30:54Z</time>
      </trkpt>
      <trkpt lat="44.83204" lon="6.81146">
        <ele>2179.93</ele>
        <time>2022-09-04T06:31:04Z</time>
      </trkpt>
      <trkpt lat="44.83202" lon="6.81145">
        <ele>2180.41</ele>
        <time>2022-09-04T06:31:07Z</time>
      </trkpt>
      <trkpt lat="44.83193" lon="6.8114">
        <ele>2180.89</ele>
        <time>2022-09-04T06:31:18Z</time>
      </trkpt>
      <trkpt lat="44.83186" lon="6.81137">
        <ele>2181.85</ele>
        <time>2022-09-04T06:31:27Z</time>
      </trkpt>
      <trkpt lat="44.83181" lon="6.81134">
        <ele>2182.33</ele>
        <time>2022-09-04T06:31:33Z</time>
      </trkpt>
      <trkpt lat="44.83176" lon="6.81127">
        <ele>2183.29</ele>
        <time>2022-09-04T06:31:44Z</time>
      </trkpt>
      <trkpt lat="44.83168" lon="6.81123">
        <ele>2185.21</ele>
        <time>2022-09-04T06:31:57Z</time>
      </trkpt>
      <trkpt lat="44.83161" lon="6.81125">
        <ele>2185.69</ele>
        <time>2022-09-04T06:32:05Z</time>
      </trkpt>
      <trkpt lat="44.83154" lon="6.81124">
        <ele>2187.14</ele>
        <time>2022-09-04T06:32:17Z</time>
      </trkpt>
      <trkpt lat="44.83148" lon="6.8113">
        <ele>2189.54</ele>
        <time>2022-09-04T06:32:31Z</time>
      </trkpt>
      <trkpt lat="44.8314" lon="6.81127">
        <ele>2190.98</ele>
        <time>2022-09-04T06:32:43Z</time>
      </trkpt>
      <trkpt lat="44.83134" lon="6.81122">
        <ele>2192.9</ele>
        <time>2022-09-04T06:32:55Z</time>
      </trkpt>
      <trkpt lat="44.83128" lon="6.8112">
        <ele>2193.87</ele>
        <time>2022-09-04T06:33:08Z</time>
      </trkpt>
      <trkpt lat="44.83123" lon="6.81111">
        <ele>2195.79</ele>
        <time>2022-09-04T06:33:19Z</time>
      </trkpt>
      <trkpt lat="44.83117" lon="6.81106">
        <ele>2197.71</ele>
        <time>2022-09-04T06:33:31Z</time>
      </trkpt>
      <trkpt lat="44.83112" lon="6.81097">
        <ele>2199.63</ele>
        <time>2022-09-04T06:33:46Z</time>
      </trkpt>
      <trkpt lat="44.83106" lon="6.81094">
        <ele>2201.56</ele>
        <time>2022-09-04T06:33:58Z</time>
      </trkpt>
      <trkpt lat="44.831" lon="6.81093">
        <ele>2203.48</ele>
        <time>2022-09-04T06:34:10Z</time>
      </trkpt>
      <trkpt lat="44.83095" lon="6.81089">
        <ele>2204.92</ele>
        <time>2022-09-04T06:34:21Z</time>
      </trkpt>
      <trkpt lat="44.83089" lon="6.81085">
        <ele>2206.84</ele>
        <time>2022-09-04T06:34:34Z</time>
      </trkpt>
      <trkpt lat="44.83081" lon="6.81083">
        <ele>2208.29</ele>
        <time>2022-09-04T06:34:47Z</time>
      </trkpt>
      <trkpt lat="44.83073" lon="6.81081">
        <ele>2209.25</ele>
        <time>2022-09-04T06:34:59Z</time>
      </trkpt>
      <trkpt lat="44.83067" lon="6.81076">
        <ele>2210.21</ele>
        <time>2022-09-04T06:35:09Z</time>
      </trkpt>
      <trkpt lat="44.83065" lon="6.81075">
        <ele>2210.69</ele>
        <time>2022-09-04T06:35:12Z</time>
      </trkpt>
      <trkpt lat="44.83064" lon="6.81074">
        <ele>2210.69</ele>
        <time>2022-09-04T06:35:14Z</time>
      </trkpt>
      <trkpt lat="44.83056" lon="6.81065">
        <ele>2212.13</ele>
        <time>2022-09-04T06:35:27Z</time>
      </trkpt>
      <trkpt lat="44.83052" lon="6.81062">
        <ele>2212.61</ele>
        <time>2022-09-04T06:35:36Z</time>
      </trkpt>
      <trkpt lat="44.83049" lon="6.8106">
        <ele>2213.57</ele>
        <time>2022-09-04T06:35:41Z</time>
      </trkpt>
      <trkpt lat="44.83041" lon="6.81057">
        <ele>2215.5</ele>
        <time>2022-09-04T06:35:53Z</time>
      </trkpt>
      <trkpt lat="44.83037" lon="6.81056">
        <ele>2215.5</ele>
        <time>2022-09-04T06:35:58Z</time>
      </trkpt>
      <trkpt lat="44.83031" lon="6.81053">
        <ele>2216.94</ele>
        <time>2022-09-04T06:36:06Z</time>
      </trkpt>
      <trkpt lat="44.83029" lon="6.81052">
        <ele>2216.94</ele>
        <time>2022-09-04T06:36:09Z</time>
      </trkpt>
      <trkpt lat="44.83024" lon="6.8105">
        <ele>2217.42</ele>
        <time>2022-09-04T06:36:15Z</time>
      </trkpt>
      <trkpt lat="44.83023" lon="6.81048">
        <ele>2217.9</ele>
        <time>2022-09-04T06:36:33Z</time>
      </trkpt>
      <trkpt lat="44.83021" lon="6.81049">
        <ele>2218.38</ele>
        <time>2022-09-04T06:36:40Z</time>
      </trkpt>
      <trkpt lat="44.8301" lon="6.81048">
        <ele>2220.3</ele>
        <time>2022-09-04T06:36:58Z</time>
      </trkpt>
      <trkpt lat="44.83004" lon="6.81046">
        <ele>2221.26</ele>
        <time>2022-09-04T06:37:04Z</time>
      </trkpt>
      <trkpt lat="44.82993" lon="6.81042">
        <ele>2222.22</ele>
        <time>2022-09-04T06:37:17Z</time>
      </trkpt>
      <trkpt lat="44.82989" lon="6.8104">
        <ele>2223.67</ele>
        <time>2022-09-04T06:37:20Z</time>
      </trkpt>
      <trkpt lat="44.82984" lon="6.81032">
        <ele>2224.63</ele>
        <time>2022-09-04T06:37:31Z</time>
      </trkpt>
      <trkpt lat="44.82983" lon="6.81031">
        <ele>2225.11</ele>
        <time>2022-09-04T06:37:33Z</time>
      </trkpt>
      <trkpt lat="44.8298" lon="6.81029">
        <ele>2225.59</ele>
        <time>2022-09-04T06:37:36Z</time>
      </trkpt>
      <trkpt lat="44.82974" lon="6.81024">
        <ele>2226.55</ele>
        <time>2022-09-04T06:37:46Z</time>
      </trkpt>
      <trkpt lat="44.82969" lon="6.81024">
        <ele>2227.51</ele>
        <time>2022-09-04T06:37:52Z</time>
      </trkpt>
      <trkpt lat="44.8296" lon="6.81021">
        <ele>2229.43</ele>
        <time>2022-09-04T06:38:04Z</time>
      </trkpt>
      <trkpt lat="44.82959" lon="6.81021">
        <ele>2229.43</ele>
        <time>2022-09-04T06:38:05Z</time>
      </trkpt>
      <trkpt lat="44.82951" lon="6.81019">
        <ele>2230.4</ele>
        <time>2022-09-04T06:38:17Z</time>
      </trkpt>
      <trkpt lat="44.8295" lon="6.81019">
        <ele>2230.88</ele>
        <time>2022-09-04T06:38:19Z</time>
      </trkpt>
      <trkpt lat="44.82942" lon="6.81015">
        <ele>2231.84</ele>
        <time>2022-09-04T06:38:33Z</time>
      </trkpt>
      <trkpt lat="44.82934" lon="6.8102">
        <ele>2233.28</ele>
        <time>2022-09-04T06:38:45Z</time>
      </trkpt>
      <trkpt lat="44.82931" lon="6.81023">
        <ele>2233.76</ele>
        <time>2022-09-04T06:38:50Z</time>
      </trkpt>
      <trkpt lat="44.82927" lon="6.81022">
        <ele>2234.24</ele>
        <time>2022-09-04T06:38:53Z</time>
      </trkpt>
      <trkpt lat="44.82919" lon="6.81019">
        <ele>2235.2</ele>
        <time>2022-09-04T06:39:01Z</time>
      </trkpt>
      <trkpt lat="44.82911" lon="6.81022">
        <ele>2236.16</ele>
        <time>2022-09-04T06:39:12Z</time>
      </trkpt>
      <trkpt lat="44.82907" lon="6.81023">
        <ele>2236.64</ele>
        <time>2022-09-04T06:39:17Z</time>
      </trkpt>
      <trkpt lat="44.829" lon="6.81017">
        <ele>2237.61</ele>
        <time>2022-09-04T06:39:27Z</time>
      </trkpt>
      <trkpt lat="44.82893" lon="6.81015">
        <ele>2238.09</ele>
        <time>2022-09-04T06:39:36Z</time>
      </trkpt>
      <trkpt lat="44.82891" lon="6.81016">
        <ele>2238.09</ele>
        <time>2022-09-04T06:39:39Z</time>
      </trkpt>
      <trkpt lat="44.82884" lon="6.81017">
        <ele>2240.97</ele>
        <time>2022-09-04T06:39:53Z</time>
      </trkpt>
      <trkpt lat="44.82877" lon="6.81014">
        <ele>2242.41</ele>
        <time>2022-09-04T06:40:01Z</time>
      </trkpt>
      <trkpt lat="44.82872" lon="6.81006">
        <ele>2243.37</ele>
        <time>2022-09-04T06:40:12Z</time>
      </trkpt>
      <trkpt lat="44.82866" lon="6.81003">
        <ele>2244.33</ele>
        <time>2022-09-04T06:40:22Z</time>
      </trkpt>
      <trkpt lat="44.82861" lon="6.80997">
        <ele>2246.26</ele>
        <time>2022-09-04T06:40:30Z</time>
      </trkpt>
      <trkpt lat="44.82859" lon="6.8099">
        <ele>2246.74</ele>
        <time>2022-09-04T06:40:41Z</time>
      </trkpt>
      <trkpt lat="44.82855" lon="6.80981">
        <ele>2248.18</ele>
        <time>2022-09-04T06:40:53Z</time>
      </trkpt>
      <trkpt lat="44.82852" lon="6.80973">
        <ele>2250.1</ele>
        <time>2022-09-04T06:41:05Z</time>
      </trkpt>
      <trkpt lat="44.8285" lon="6.80971">
        <ele>2250.58</ele>
        <time>2022-09-04T06:41:09Z</time>
      </trkpt>
      <trkpt lat="44.82844" lon="6.80962">
        <ele>2252.03</ele>
        <time>2022-09-04T06:41:22Z</time>
      </trkpt>
      <trkpt lat="44.8284" lon="6.80955">
        <ele>2253.47</ele>
        <time>2022-09-04T06:41:33Z</time>
      </trkpt>
      <trkpt lat="44.82833" lon="6.8095">
        <ele>2254.43</ele>
        <time>2022-09-04T06:41:45Z</time>
      </trkpt>
      <trkpt lat="44.82827" lon="6.80944">
        <ele>2256.35</ele>
        <time>2022-09-04T06:41:56Z</time>
      </trkpt>
      <trkpt lat="44.82827" lon="6.80936">
        <ele>2256.83</ele>
        <time>2022-09-04T06:42:07Z</time>
      </trkpt>
      <trkpt lat="44.8283" lon="6.80932">
        <ele>2257.79</ele>
        <time>2022-09-04T06:42:28Z</time>
      </trkpt>
      <trkpt lat="44.82831" lon="6.80934">
        <ele>2257.79</ele>
        <time>2022-09-04T06:42:47Z</time>
      </trkpt>
      <trkpt lat="44.82835" lon="6.80935">
        <ele>2257.31</ele>
        <time>2022-09-04T06:43:18Z</time>
      </trkpt>
      <trkpt lat="44.82832" lon="6.80935">
        <ele>2257.31</ele>
        <time>2022-09-04T06:43:41Z</time>
      </trkpt>
      <trkpt lat="44.82826" lon="6.80928">
        <ele>2258.27</ele>
        <time>2022-09-04T06:43:56Z</time>
      </trkpt>
      <trkpt lat="44.82825" lon="6.80917">
        <ele>2259.24</ele>
        <time>2022-09-04T06:44:06Z</time>
      </trkpt>
      <trkpt lat="44.82825" lon="6.80914">
        <ele>2259.72</ele>
        <time>2022-09-04T06:44:09Z</time>
      </trkpt>
      <trkpt lat="44.82824" lon="6.80905">
        <ele>2261.16</ele>
        <time>2022-09-04T06:44:20Z</time>
      </trkpt>
      <trkpt lat="44.82819" lon="6.80896">
        <ele>2263.08</ele>
        <time>2022-09-04T06:44:34Z</time>
      </trkpt>
      <trkpt lat="44.82816" lon="6.80887">
        <ele>2265.48</ele>
        <time>2022-09-04T06:44:49Z</time>
      </trkpt>
      <trkpt lat="44.82809" lon="6.80885">
        <ele>2266.93</ele>
        <time>2022-09-04T06:45:07Z</time>
      </trkpt>
      <trkpt lat="44.82807" lon="6.80885">
        <ele>2266.93</ele>
        <time>2022-09-04T06:45:29Z</time>
      </trkpt>
      <trkpt lat="44.82807" lon="6.80886">
        <ele>2267.41</ele>
        <time>2022-09-04T06:45:50Z</time>
      </trkpt>
      <trkpt lat="44.82806" lon="6.80888">
        <ele>2267.41</ele>
        <time>2022-09-04T06:45:56Z</time>
      </trkpt>
      <trkpt lat="44.82803" lon="6.80882">
        <ele>2267.89</ele>
        <time>2022-09-04T06:46:13Z</time>
      </trkpt>
      <trkpt lat="44.82802" lon="6.80878">
        <ele>2267.89</ele>
        <time>2022-09-04T06:46:44Z</time>
      </trkpt>
      <trkpt lat="44.82806" lon="6.80881">
        <ele>2267.89</ele>
        <time>2022-09-04T06:46:58Z</time>
      </trkpt>
      <trkpt lat="44.82805" lon="6.80878">
        <ele>2268.37</ele>
        <time>2022-09-04T06:47:13Z</time>
      </trkpt>
      <trkpt lat="44.82802" lon="6.80875">
        <ele>2268.37</ele>
        <time>2022-09-04T06:47:45Z</time>
      </trkpt>
      <trkpt lat="44.82804" lon="6.80882">
        <ele>2269.33</ele>
        <time>2022-09-04T06:48:08Z</time>
      </trkpt>
      <trkpt lat="44.82805" lon="6.80878">
        <ele>2269.33</ele>
        <time>2022-09-04T06:48:25Z</time>
      </trkpt>
      <trkpt lat="44.82801" lon="6.80871">
        <ele>2270.29</ele>
        <time>2022-09-04T06:48:41Z</time>
      </trkpt>
      <trkpt lat="44.82796" lon="6.80861">
        <ele>2273.17</ele>
        <time>2022-09-04T06:48:58Z</time>
      </trkpt>
      <trkpt lat="44.82792" lon="6.80848">
        <ele>2275.58</ele>
        <time>2022-09-04T06:49:13Z</time>
      </trkpt>
      <trkpt lat="44.8279" lon="6.80838">
        <ele>2278.46</ele>
        <time>2022-09-04T06:49:31Z</time>
      </trkpt>
      <trkpt lat="44.82784" lon="6.80831">
        <ele>2281.35</ele>
        <time>2022-09-04T06:49:46Z</time>
      </trkpt>
      <trkpt lat="44.82779" lon="6.80821">
        <ele>2283.27</ele>
        <time>2022-09-04T06:50:02Z</time>
      </trkpt>
      <trkpt lat="44.82777" lon="6.80812">
        <ele>2285.19</ele>
        <time>2022-09-04T06:50:17Z</time>
      </trkpt>
      <trkpt lat="44.82771" lon="6.80812">
        <ele>2287.11</ele>
        <time>2022-09-04T06:50:32Z</time>
      </trkpt>
      <trkpt lat="44.82765" lon="6.80802">
        <ele>2289.52</ele>
        <time>2022-09-04T06:50:49Z</time>
      </trkpt>
      <trkpt lat="44.8276" lon="6.80799">
        <ele>2292.4</ele>
        <time>2022-09-04T06:51:04Z</time>
      </trkpt>
      <trkpt lat="44.82755" lon="6.80793">
        <ele>2294.8</ele>
        <time>2022-09-04T06:51:21Z</time>
      </trkpt>
      <trkpt lat="44.8275" lon="6.80791">
        <ele>2296.25</ele>
        <time>2022-09-04T06:51:37Z</time>
      </trkpt>
      <trkpt lat="44.82743" lon="6.80786">
        <ele>2298.65</ele>
        <time>2022-09-04T06:51:54Z</time>
      </trkpt>
      <trkpt lat="44.82737" lon="6.8079">
        <ele>2300.57</ele>
        <time>2022-09-04T06:52:08Z</time>
      </trkpt>
      <trkpt lat="44.82733" lon="6.80795">
        <ele>2302.98</ele>
        <time>2022-09-04T06:52:24Z</time>
      </trkpt>
      <trkpt lat="44.82726" lon="6.80798">
        <ele>2305.38</ele>
        <time>2022-09-04T06:52:40Z</time>
      </trkpt>
      <trkpt lat="44.82717" lon="6.80797">
        <ele>2307.78</ele>
        <time>2022-09-04T06:52:58Z</time>
      </trkpt>
      <trkpt lat="44.8272" lon="6.80787">
        <ele>2309.7</ele>
        <time>2022-09-04T06:53:14Z</time>
      </trkpt>
      <trkpt lat="44.82715" lon="6.80781">
        <ele>2311.63</ele>
        <time>2022-09-04T06:53:29Z</time>
      </trkpt>
      <trkpt lat="44.8271" lon="6.80784">
        <ele>2313.55</ele>
        <time>2022-09-04T06:53:42Z</time>
      </trkpt>
      <trkpt lat="44.82704" lon="6.80784">
        <ele>2315.47</ele>
        <time>2022-09-04T06:53:57Z</time>
      </trkpt>
      <trkpt lat="44.82699" lon="6.80778">
        <ele>2317.88</ele>
        <time>2022-09-04T06:54:11Z</time>
      </trkpt>
      <trkpt lat="44.82693" lon="6.80775">
        <ele>2320.28</ele>
        <time>2022-09-04T06:54:29Z</time>
      </trkpt>
      <trkpt lat="44.82692" lon="6.80772">
        <ele>2321.24</ele>
        <time>2022-09-04T06:54:43Z</time>
      </trkpt>
      <trkpt lat="44.82694" lon="6.80765">
        <ele>2323.16</ele>
        <time>2022-09-04T06:54:55Z</time>
      </trkpt>
      <trkpt lat="44.82692" lon="6.80761">
        <ele>2325.57</ele>
        <time>2022-09-04T06:55:11Z</time>
      </trkpt>
      <trkpt lat="44.82686" lon="6.80761">
        <ele>2327.49</ele>
        <time>2022-09-04T06:55:23Z</time>
      </trkpt>
      <trkpt lat="44.82681" lon="6.80758">
        <ele>2328.93</ele>
        <time>2022-09-04T06:55:37Z</time>
      </trkpt>
      <trkpt lat="44.82679" lon="6.80756">
        <ele>2330.37</ele>
        <time>2022-09-04T06:55:49Z</time>
      </trkpt>
      <trkpt lat="44.82681" lon="6.80751">
        <ele>2333.26</ele>
        <time>2022-09-04T06:56:03Z</time>
      </trkpt>
      <trkpt lat="44.82683" lon="6.80743">
        <ele>2335.18</ele>
        <time>2022-09-04T06:56:15Z</time>
      </trkpt>
      <trkpt lat="44.82682" lon="6.80738">
        <ele>2337.1</ele>
        <time>2022-09-04T06:56:28Z</time>
      </trkpt>
      <trkpt lat="44.82679" lon="6.80738">
        <ele>2338.54</ele>
        <time>2022-09-04T06:56:39Z</time>
      </trkpt>
      <trkpt lat="44.82675" lon="6.80738">
        <ele>2340.95</ele>
        <time>2022-09-04T06:56:51Z</time>
      </trkpt>
      <trkpt lat="44.82669" lon="6.80739">
        <ele>2342.87</ele>
        <time>2022-09-04T06:57:04Z</time>
      </trkpt>
      <trkpt lat="44.82671" lon="6.80735">
        <ele>2344.31</ele>
        <time>2022-09-04T06:57:17Z</time>
      </trkpt>
      <trkpt lat="44.82673" lon="6.80728">
        <ele>2346.72</ele>
        <time>2022-09-04T06:57:31Z</time>
      </trkpt>
      <trkpt lat="44.82671" lon="6.80723">
        <ele>2349.12</ele>
        <time>2022-09-04T06:57:43Z</time>
      </trkpt>
      <trkpt lat="44.82668" lon="6.80721">
        <ele>2350.56</ele>
        <time>2022-09-04T06:57:57Z</time>
      </trkpt>
      <trkpt lat="44.82663" lon="6.80722">
        <ele>2353.44</ele>
        <time>2022-09-04T06:58:11Z</time>
      </trkpt>
      <trkpt lat="44.82662" lon="6.80717">
        <ele>2354.89</ele>
        <time>2022-09-04T06:58:23Z</time>
      </trkpt>
      <trkpt lat="44.82659" lon="6.80717">
        <ele>2355.85</ele>
        <time>2022-09-04T06:58:33Z</time>
      </trkpt>
      <trkpt lat="44.82654" lon="6.80717">
        <ele>2357.29</ele>
        <time>2022-09-04T06:58:46Z</time>
      </trkpt>
      <trkpt lat="44.82649" lon="6.80717">
        <ele>2360.17</ele>
        <time>2022-09-04T06:59:02Z</time>
      </trkpt>
      <trkpt lat="44.82644" lon="6.80719">
        <ele>2361.62</ele>
        <time>2022-09-04T06:59:16Z</time>
      </trkpt>
      <trkpt lat="44.82638" lon="6.80721">
        <ele>2364.02</ele>
        <time>2022-09-04T06:59:29Z</time>
      </trkpt>
      <trkpt lat="44.82635" lon="6.80721">
        <ele>2365.46</ele>
        <time>2022-09-04T06:59:40Z</time>
      </trkpt>
      <trkpt lat="44.8263" lon="6.80724">
        <ele>2367.38</ele>
        <time>2022-09-04T06:59:53Z</time>
      </trkpt>
      <trkpt lat="44.82628" lon="6.80721">
        <ele>2368.35</ele>
        <time>2022-09-04T07:00:05Z</time>
      </trkpt>
      <trkpt lat="44.82623" lon="6.80722">
        <ele>2371.23</ele>
        <time>2022-09-04T07:00:19Z</time>
      </trkpt>
      <trkpt lat="44.82619" lon="6.80721">
        <ele>2372.67</ele>
        <time>2022-09-04T07:00:31Z</time>
      </trkpt>
      <trkpt lat="44.8262" lon="6.80719">
        <ele>2374.11</ele>
        <time>2022-09-04T07:00:42Z</time>
      </trkpt>
      <trkpt lat="44.82621" lon="6.80713">
        <ele>2375.55</ele>
        <time>2022-09-04T07:00:54Z</time>
      </trkpt>
      <trkpt lat="44.82619" lon="6.8071">
        <ele>2377.48</ele>
        <time>2022-09-04T07:01:09Z</time>
      </trkpt>
      <trkpt lat="44.82614" lon="6.80708">
        <ele>2379.4</ele>
        <time>2022-09-04T07:01:21Z</time>
      </trkpt>
      <trkpt lat="44.82612" lon="6.80703">
        <ele>2381.8</ele>
        <time>2022-09-04T07:01:37Z</time>
      </trkpt>
      <trkpt lat="44.82607" lon="6.80703">
        <ele>2383.25</ele>
        <time>2022-09-04T07:01:48Z</time>
      </trkpt>
      <trkpt lat="44.82604" lon="6.80701">
        <ele>2384.69</ele>
        <time>2022-09-04T07:01:57Z</time>
      </trkpt>
      <trkpt lat="44.82598" lon="6.80701">
        <ele>2386.13</ele>
        <time>2022-09-04T07:02:10Z</time>
      </trkpt>
      <trkpt lat="44.82595" lon="6.807">
        <ele>2388.05</ele>
        <time>2022-09-04T07:02:19Z</time>
      </trkpt>
      <trkpt lat="44.82592" lon="6.80699">
        <ele>2389.49</ele>
        <time>2022-09-04T07:02:30Z</time>
      </trkpt>
      <trkpt lat="44.82587" lon="6.80696">
        <ele>2390.46</ele>
        <time>2022-09-04T07:02:41Z</time>
      </trkpt>
      <trkpt lat="44.82584" lon="6.80693">
        <ele>2392.86</ele>
        <time>2022-09-04T07:02:53Z</time>
      </trkpt>
      <trkpt lat="44.8258" lon="6.8069">
        <ele>2394.3</ele>
        <time>2022-09-04T07:03:04Z</time>
      </trkpt>
      <trkpt lat="44.82577" lon="6.80683">
        <ele>2397.67</ele>
        <time>2022-09-04T07:03:21Z</time>
      </trkpt>
      <trkpt lat="44.82575" lon="6.80678">
        <ele>2398.63</ele>
        <time>2022-09-04T07:03:30Z</time>
      </trkpt>
      <trkpt lat="44.82571" lon="6.80671">
        <ele>2401.03</ele>
        <time>2022-09-04T07:03:44Z</time>
      </trkpt>
      <trkpt lat="44.82568" lon="6.80667">
        <ele>2402.95</ele>
        <time>2022-09-04T07:03:56Z</time>
      </trkpt>
      <trkpt lat="44.82563" lon="6.80667">
        <ele>2403.91</ele>
        <time>2022-09-04T07:04:07Z</time>
      </trkpt>
      <trkpt lat="44.82559" lon="6.80665">
        <ele>2405.84</ele>
        <time>2022-09-04T07:04:17Z</time>
      </trkpt>
      <trkpt lat="44.82554" lon="6.80661">
        <ele>2407.28</ele>
        <time>2022-09-04T07:04:30Z</time>
      </trkpt>
      <trkpt lat="44.82549" lon="6.80656">
        <ele>2409.2</ele>
        <time>2022-09-04T07:04:40Z</time>
      </trkpt>
      <trkpt lat="44.82542" lon="6.80654">
        <ele>2410.64</ele>
        <time>2022-09-04T07:04:55Z</time>
      </trkpt>
      <trkpt lat="44.82535" lon="6.80651">
        <ele>2412.57</ele>
        <time>2022-09-04T07:05:08Z</time>
      </trkpt>
      <trkpt lat="44.82529" lon="6.80647">
        <ele>2414.01</ele>
        <time>2022-09-04T07:05:18Z</time>
      </trkpt>
      <trkpt lat="44.82524" lon="6.80647">
        <ele>2415.45</ele>
        <time>2022-09-04T07:05:27Z</time>
      </trkpt>
      <trkpt lat="44.82516" lon="6.80646">
        <ele>2416.41</ele>
        <time>2022-09-04T07:05:38Z</time>
      </trkpt>
      <trkpt lat="44.82509" lon="6.8065">
        <ele>2417.85</ele>
        <time>2022-09-04T07:05:49Z</time>
      </trkpt>
      <trkpt lat="44.82502" lon="6.80652">
        <ele>2419.3</ele>
        <time>2022-09-04T07:06:01Z</time>
      </trkpt>
      <trkpt lat="44.82494" lon="6.80655">
        <ele>2421.22</ele>
        <time>2022-09-04T07:06:13Z</time>
      </trkpt>
      <trkpt lat="44.82486" lon="6.80656">
        <ele>2422.18</ele>
        <time>2022-09-04T07:06:24Z</time>
      </trkpt>
      <trkpt lat="44.82483" lon="6.80658">
        <ele>2423.14</ele>
        <time>2022-09-04T07:06:35Z</time>
      </trkpt>
      <trkpt lat="44.82482" lon="6.80659">
        <ele>2423.14</ele>
        <time>2022-09-04T07:06:36Z</time>
      </trkpt>
      <trkpt lat="44.82476" lon="6.80662">
        <ele>2424.1</ele>
        <time>2022-09-04T07:06:48Z</time>
      </trkpt>
      <trkpt lat="44.82469" lon="6.8066">
        <ele>2425.06</ele>
        <time>2022-09-04T07:06:57Z</time>
      </trkpt>
      <trkpt lat="44.82466" lon="6.80659">
        <ele>2425.54</ele>
        <time>2022-09-04T07:07:03Z</time>
      </trkpt>
      <trkpt lat="44.82461" lon="6.80659">
        <ele>2426.02</ele>
        <time>2022-09-04T07:07:11Z</time>
      </trkpt>
      <trkpt lat="44.82455" lon="6.80661">
        <ele>2426.99</ele>
        <time>2022-09-04T07:07:21Z</time>
      </trkpt>
      <trkpt lat="44.82453" lon="6.8066">
        <ele>2427.95</ele>
        <time>2022-09-04T07:07:23Z</time>
      </trkpt>
      <trkpt lat="44.82446" lon="6.8066">
        <ele>2428.43</ele>
        <time>2022-09-04T07:07:33Z</time>
      </trkpt>
      <trkpt lat="44.8244" lon="6.80659">
        <ele>2430.35</ele>
        <time>2022-09-04T07:07:44Z</time>
      </trkpt>
      <trkpt lat="44.82433" lon="6.80661">
        <ele>2431.79</ele>
        <time>2022-09-04T07:07:53Z</time>
      </trkpt>
      <trkpt lat="44.82432" lon="6.80661">
        <ele>2430.35</ele>
        <time>2022-09-04T07:07:54Z</time>
      </trkpt>
      <trkpt lat="44.82426" lon="6.8066">
        <ele>2431.79</ele>
        <time>2022-09-04T07:07:57Z</time>
      </trkpt>
      <trkpt lat="44.82419" lon="6.80659">
        <ele>2432.75</ele>
        <time>2022-09-04T07:08:02Z</time>
      </trkpt>
      <trkpt lat="44.82418" lon="6.80658">
        <ele>2432.75</ele>
        <time>2022-09-04T07:08:03Z</time>
      </trkpt>
      <trkpt lat="44.82419" lon="6.80656">
        <ele>2432.75</ele>
        <time>2022-09-04T07:08:15Z</time>
      </trkpt>
      <trkpt lat="44.82413" lon="6.8066">
        <ele>2433.23</ele>
        <time>2022-09-04T07:08:27Z</time>
      </trkpt>
      <trkpt lat="44.82412" lon="6.8066">
        <ele>2433.71</ele>
        <time>2022-09-04T07:08:29Z</time>
      </trkpt>
      <trkpt lat="44.82408" lon="6.8066">
        <ele>2433.71</ele>
        <time>2022-09-04T07:08:34Z</time>
      </trkpt>
      <trkpt lat="44.82406" lon="6.8066">
        <ele>2434.2</ele>
        <time>2022-09-04T07:08:37Z</time>
      </trkpt>
      <trkpt lat="44.82397" lon="6.8066">
        <ele>2435.16</ele>
        <time>2022-09-04T07:08:48Z</time>
      </trkpt>
      <trkpt lat="44.82396" lon="6.8066">
        <ele>2435.16</ele>
        <time>2022-09-04T07:08:50Z</time>
      </trkpt>
      <trkpt lat="44.82391" lon="6.80666">
        <ele>2436.6</ele>
        <time>2022-09-04T07:09:00Z</time>
      </trkpt>
      <trkpt lat="44.82387" lon="6.80673">
        <ele>2438.04</ele>
        <time>2022-09-04T07:09:10Z</time>
      </trkpt>
      <trkpt lat="44.82382" lon="6.80677">
        <ele>2439.96</ele>
        <time>2022-09-04T07:09:21Z</time>
      </trkpt>
      <trkpt lat="44.82377" lon="6.80679">
        <ele>2441.41</ele>
        <time>2022-09-04T07:09:32Z</time>
      </trkpt>
      <trkpt lat="44.82376" lon="6.80679">
        <ele>2441.89</ele>
        <time>2022-09-04T07:09:34Z</time>
      </trkpt>
      <trkpt lat="44.82373" lon="6.80681">
        <ele>2442.37</ele>
        <time>2022-09-04T07:09:39Z</time>
      </trkpt>
      <trkpt lat="44.82366" lon="6.80683">
        <ele>2442.85</ele>
        <time>2022-09-04T07:09:49Z</time>
      </trkpt>
      <trkpt lat="44.82362" lon="6.80684">
        <ele>2443.33</ele>
        <time>2022-09-04T07:09:55Z</time>
      </trkpt>
      <trkpt lat="44.82358" lon="6.80681">
        <ele>2443.81</ele>
        <time>2022-09-04T07:10:01Z</time>
      </trkpt>
      <trkpt lat="44.82356" lon="6.8068">
        <ele>2443.81</ele>
        <time>2022-09-04T07:10:03Z</time>
      </trkpt>
      <trkpt lat="44.82355" lon="6.80679">
        <ele>2443.81</ele>
        <time>2022-09-04T07:10:04Z</time>
      </trkpt>
      <trkpt lat="44.82349" lon="6.80677">
        <ele>2444.77</ele>
        <time>2022-09-04T07:10:14Z</time>
      </trkpt>
      <trkpt lat="44.8234" lon="6.80676">
        <ele>2445.73</ele>
        <time>2022-09-04T07:10:25Z</time>
      </trkpt>
      <trkpt lat="44.82333" lon="6.80671">
        <ele>2447.17</ele>
        <time>2022-09-04T07:10:36Z</time>
      </trkpt>
      <trkpt lat="44.82326" lon="6.8067">
        <ele>2448.62</ele>
        <time>2022-09-04T07:10:49Z</time>
      </trkpt>
      <trkpt lat="44.82322" lon="6.8067">
        <ele>2449.1</ele>
        <time>2022-09-04T07:10:55Z</time>
      </trkpt>
      <trkpt lat="44.8232" lon="6.80669">
        <ele>2449.58</ele>
        <time>2022-09-04T07:10:58Z</time>
      </trkpt>
      <trkpt lat="44.82315" lon="6.80663">
        <ele>2451.5</ele>
        <time>2022-09-04T07:11:09Z</time>
      </trkpt>
      <trkpt lat="44.82312" lon="6.80656">
        <ele>2451.98</ele>
        <time>2022-09-04T07:11:19Z</time>
      </trkpt>
      <trkpt lat="44.82307" lon="6.80648">
        <ele>2452.94</ele>
        <time>2022-09-04T07:11:30Z</time>
      </trkpt>
      <trkpt lat="44.82302" lon="6.80646">
        <ele>2454.86</ele>
        <time>2022-09-04T07:11:40Z</time>
      </trkpt>
      <trkpt lat="44.82293" lon="6.80644">
        <ele>2456.31</ele>
        <time>2022-09-04T07:11:53Z</time>
      </trkpt>
      <trkpt lat="44.82286" lon="6.80641">
        <ele>2457.27</ele>
        <time>2022-09-04T07:12:04Z</time>
      </trkpt>
      <trkpt lat="44.8228" lon="6.80639">
        <ele>2459.19</ele>
        <time>2022-09-04T07:12:16Z</time>
      </trkpt>
      <trkpt lat="44.82275" lon="6.80637">
        <ele>2461.59</ele>
        <time>2022-09-04T07:12:28Z</time>
      </trkpt>
      <trkpt lat="44.82268" lon="6.80633">
        <ele>2462.55</ele>
        <time>2022-09-04T07:12:41Z</time>
      </trkpt>
      <trkpt lat="44.82264" lon="6.80631">
        <ele>2464</ele>
        <time>2022-09-04T07:12:50Z</time>
      </trkpt>
      <trkpt lat="44.82257" lon="6.80627">
        <ele>2465.44</ele>
        <time>2022-09-04T07:13:02Z</time>
      </trkpt>
      <trkpt lat="44.8225" lon="6.80624">
        <ele>2467.36</ele>
        <time>2022-09-04T07:13:14Z</time>
      </trkpt>
      <trkpt lat="44.82245" lon="6.80621">
        <ele>2467.84</ele>
        <time>2022-09-04T07:13:20Z</time>
      </trkpt>
      <trkpt lat="44.82244" lon="6.80621">
        <ele>2467.84</ele>
        <time>2022-09-04T07:13:22Z</time>
      </trkpt>
      <trkpt lat="44.82237" lon="6.80614">
        <ele>2469.28</ele>
        <time>2022-09-04T07:13:33Z</time>
      </trkpt>
      <trkpt lat="44.82231" lon="6.80612">
        <ele>2470.73</ele>
        <time>2022-09-04T07:13:45Z</time>
      </trkpt>
      <trkpt lat="44.82227" lon="6.80611">
        <ele>2471.21</ele>
        <time>2022-09-04T07:13:50Z</time>
      </trkpt>
      <trkpt lat="44.8222" lon="6.8061">
        <ele>2472.17</ele>
        <time>2022-09-04T07:14:01Z</time>
      </trkpt>
      <trkpt lat="44.82213" lon="6.8061">
        <ele>2473.61</ele>
        <time>2022-09-04T07:14:12Z</time>
      </trkpt>
      <trkpt lat="44.82206" lon="6.80607">
        <ele>2474.57</ele>
        <time>2022-09-04T07:14:23Z</time>
      </trkpt>
      <trkpt lat="44.82198" lon="6.80606">
        <ele>2476.01</ele>
        <time>2022-09-04T07:14:36Z</time>
      </trkpt>
      <trkpt lat="44.82189" lon="6.80606">
        <ele>2477.45</ele>
        <time>2022-09-04T07:14:48Z</time>
      </trkpt>
      <trkpt lat="44.82183" lon="6.80609">
        <ele>2478.9</ele>
        <time>2022-09-04T07:15:00Z</time>
      </trkpt>
      <trkpt lat="44.82178" lon="6.80608">
        <ele>2479.38</ele>
        <time>2022-09-04T07:15:07Z</time>
      </trkpt>
      <trkpt lat="44.82176" lon="6.80608">
        <ele>2479.38</ele>
        <time>2022-09-04T07:15:09Z</time>
      </trkpt>
      <trkpt lat="44.82174" lon="6.80607">
        <ele>2479.38</ele>
        <time>2022-09-04T07:15:12Z</time>
      </trkpt>
      <trkpt lat="44.82171" lon="6.80605">
        <ele>2480.34</ele>
        <time>2022-09-04T07:15:15Z</time>
      </trkpt>
      <trkpt lat="44.82164" lon="6.80602">
        <ele>2480.82</ele>
        <time>2022-09-04T07:15:26Z</time>
      </trkpt>
      <trkpt lat="44.82161" lon="6.80602">
        <ele>2480.82</ele>
        <time>2022-09-04T07:15:29Z</time>
      </trkpt>
      <trkpt lat="44.82152" lon="6.80595">
        <ele>2481.78</ele>
        <time>2022-09-04T07:15:42Z</time>
      </trkpt>
      <trkpt lat="44.82145" lon="6.80592">
        <ele>2482.26</ele>
        <time>2022-09-04T07:15:52Z</time>
      </trkpt>
      <trkpt lat="44.82136" lon="6.80591">
        <ele>2484.18</ele>
        <time>2022-09-04T07:16:04Z</time>
      </trkpt>
      <trkpt lat="44.82136" lon="6.80591">
        <ele>2484.18</ele>
        <time>2022-09-04T07:16:05Z</time>
      </trkpt>
      <trkpt lat="44.82131" lon="6.8059">
        <ele>2484.66</ele>
        <time>2022-09-04T07:16:11Z</time>
      </trkpt>
      <trkpt lat="44.82124" lon="6.80587">
        <ele>2485.15</ele>
        <time>2022-09-04T07:16:21Z</time>
      </trkpt>
      <trkpt lat="44.8212" lon="6.80587">
        <ele>2485.63</ele>
        <time>2022-09-04T07:16:26Z</time>
      </trkpt>
      <trkpt lat="44.82112" lon="6.80583">
        <ele>2486.59</ele>
        <time>2022-09-04T07:16:38Z</time>
      </trkpt>
      <trkpt lat="44.82107" lon="6.8058">
        <ele>2487.07</ele>
        <time>2022-09-04T07:16:44Z</time>
      </trkpt>
      <trkpt lat="44.82106" lon="6.80578">
        <ele>2487.55</ele>
        <time>2022-09-04T07:16:47Z</time>
      </trkpt>
      <trkpt lat="44.82099" lon="6.80574">
        <ele>2488.99</ele>
        <time>2022-09-04T07:16:57Z</time>
      </trkpt>
      <trkpt lat="44.82094" lon="6.80569">
        <ele>2490.43</ele>
        <time>2022-09-04T07:17:09Z</time>
      </trkpt>
      <trkpt lat="44.8209" lon="6.80564">
        <ele>2492.36</ele>
        <time>2022-09-04T07:17:19Z</time>
      </trkpt>
      <trkpt lat="44.82085" lon="6.80557">
        <ele>2493.32</ele>
        <time>2022-09-04T07:17:30Z</time>
      </trkpt>
      <trkpt lat="44.82082" lon="6.80547">
        <ele>2494.28</ele>
        <time>2022-09-04T07:17:41Z</time>
      </trkpt>
      <trkpt lat="44.82079" lon="6.80536">
        <ele>2496.2</ele>
        <time>2022-09-04T07:17:53Z</time>
      </trkpt>
      <trkpt lat="44.82075" lon="6.80525">
        <ele>2497.64</ele>
        <time>2022-09-04T07:18:05Z</time>
      </trkpt>
      <trkpt lat="44.82074" lon="6.80525">
        <ele>2497.64</ele>
        <time>2022-09-04T07:18:06Z</time>
      </trkpt>
      <trkpt lat="44.82071" lon="6.80519">
        <ele>2498.6</ele>
        <time>2022-09-04T07:18:15Z</time>
      </trkpt>
      <trkpt lat="44.82067" lon="6.8051">
        <ele>2500.53</ele>
        <time>2022-09-04T07:18:27Z</time>
      </trkpt>
      <trkpt lat="44.82064" lon="6.80501">
        <ele>2501.49</ele>
        <time>2022-09-04T07:18:38Z</time>
      </trkpt>
      <trkpt lat="44.82058" lon="6.80494">
        <ele>2502.45</ele>
        <time>2022-09-04T07:18:49Z</time>
      </trkpt>
      <trkpt lat="44.82057" lon="6.80493">
        <ele>2502.45</ele>
        <time>2022-09-04T07:18:51Z</time>
      </trkpt>
      <trkpt lat="44.82053" lon="6.80485">
        <ele>2503.89</ele>
        <time>2022-09-04T07:19:02Z</time>
      </trkpt>
      <trkpt lat="44.82049" lon="6.80476">
        <ele>2505.81</ele>
        <time>2022-09-04T07:19:15Z</time>
      </trkpt>
      <trkpt lat="44.82046" lon="6.8047">
        <ele>2506.29</ele>
        <time>2022-09-04T07:19:21Z</time>
      </trkpt>
      <trkpt lat="44.82043" lon="6.80464">
        <ele>2507.26</ele>
        <time>2022-09-04T07:19:31Z</time>
      </trkpt>
      <trkpt lat="44.82038" lon="6.80455">
        <ele>2509.18</ele>
        <time>2022-09-04T07:19:42Z</time>
      </trkpt>
      <trkpt lat="44.82036" lon="6.80453">
        <ele>2509.18</ele>
        <time>2022-09-04T07:19:46Z</time>
      </trkpt>
      <trkpt lat="44.82032" lon="6.80448">
        <ele>2509.18</ele>
        <time>2022-09-04T07:19:51Z</time>
      </trkpt>
      <trkpt lat="44.82031" lon="6.80447">
        <ele>2509.18</ele>
        <time>2022-09-04T07:19:52Z</time>
      </trkpt>
      <trkpt lat="44.82029" lon="6.80442">
        <ele>2509.66</ele>
        <time>2022-09-04T07:19:57Z</time>
      </trkpt>
      <trkpt lat="44.82023" lon="6.80435">
        <ele>2511.1</ele>
        <time>2022-09-04T07:20:09Z</time>
      </trkpt>
      <trkpt lat="44.82015" lon="6.80428">
        <ele>2512.54</ele>
        <time>2022-09-04T07:20:22Z</time>
      </trkpt>
      <trkpt lat="44.82009" lon="6.8042">
        <ele>2514.47</ele>
        <time>2022-09-04T07:20:34Z</time>
      </trkpt>
      <trkpt lat="44.82009" lon="6.80419">
        <ele>2514.47</ele>
        <time>2022-09-04T07:20:35Z</time>
      </trkpt>
      <trkpt lat="44.82002" lon="6.80415">
        <ele>2515.91</ele>
        <time>2022-09-04T07:20:47Z</time>
      </trkpt>
      <trkpt lat="44.81995" lon="6.80413">
        <ele>2517.35</ele>
        <time>2022-09-04T07:20:59Z</time>
      </trkpt>
      <trkpt lat="44.81992" lon="6.8041">
        <ele>2517.83</ele>
        <time>2022-09-04T07:21:04Z</time>
      </trkpt>
      <trkpt lat="44.81987" lon="6.80406">
        <ele>2518.31</ele>
        <time>2022-09-04T07:21:13Z</time>
      </trkpt>
      <trkpt lat="44.81985" lon="6.80403">
        <ele>2519.27</ele>
        <time>2022-09-04T07:21:16Z</time>
      </trkpt>
      <trkpt lat="44.81979" lon="6.80396">
        <ele>2520.23</ele>
        <time>2022-09-04T07:21:27Z</time>
      </trkpt>
      <trkpt lat="44.81972" lon="6.80386">
        <ele>2521.19</ele>
        <time>2022-09-04T07:21:40Z</time>
      </trkpt>
      <trkpt lat="44.8197" lon="6.80384">
        <ele>2522.16</ele>
        <time>2022-09-04T07:21:46Z</time>
      </trkpt>
      <trkpt lat="44.81964" lon="6.80377">
        <ele>2523.6</ele>
        <time>2022-09-04T07:21:58Z</time>
      </trkpt>
      <trkpt lat="44.81961" lon="6.80375">
        <ele>2524.08</ele>
        <time>2022-09-04T07:22:03Z</time>
      </trkpt>
      <trkpt lat="44.81956" lon="6.80372">
        <ele>2525.04</ele>
        <time>2022-09-04T07:22:11Z</time>
      </trkpt>
      <trkpt lat="44.81951" lon="6.80369">
        <ele>2526</ele>
        <time>2022-09-04T07:22:19Z</time>
      </trkpt>
      <trkpt lat="44.81944" lon="6.80368">
        <ele>2526.96</ele>
        <time>2022-09-04T07:22:29Z</time>
      </trkpt>
      <trkpt lat="44.81939" lon="6.80367">
        <ele>2527.44</ele>
        <time>2022-09-04T07:22:36Z</time>
      </trkpt>
      <trkpt lat="44.81931" lon="6.80365">
        <ele>2528.89</ele>
        <time>2022-09-04T07:22:47Z</time>
      </trkpt>
      <trkpt lat="44.81923" lon="6.80366">
        <ele>2530.81</ele>
        <time>2022-09-04T07:23:00Z</time>
      </trkpt>
      <trkpt lat="44.81914" lon="6.80367">
        <ele>2532.25</ele>
        <time>2022-09-04T07:23:15Z</time>
      </trkpt>
      <trkpt lat="44.81907" lon="6.80371">
        <ele>2534.17</ele>
        <time>2022-09-04T07:23:29Z</time>
      </trkpt>
      <trkpt lat="44.81896" lon="6.8037">
        <ele>2535.13</ele>
        <time>2022-09-04T07:23:41Z</time>
      </trkpt>
      <trkpt lat="44.81887" lon="6.80358">
        <ele>2537.06</ele>
        <time>2022-09-04T07:23:58Z</time>
      </trkpt>
      <trkpt lat="44.81883" lon="6.80347">
        <ele>2539.94</ele>
        <time>2022-09-04T07:24:14Z</time>
      </trkpt>
      <trkpt lat="44.81875" lon="6.80343">
        <ele>2540.9</ele>
        <time>2022-09-04T07:24:29Z</time>
      </trkpt>
      <trkpt lat="44.81866" lon="6.80343">
        <ele>2542.82</ele>
        <time>2022-09-04T07:24:44Z</time>
      </trkpt>
      <trkpt lat="44.81855" lon="6.80344">
        <ele>2544.27</ele>
        <time>2022-09-04T07:24:59Z</time>
      </trkpt>
      <trkpt lat="44.81845" lon="6.80348">
        <ele>2545.23</ele>
        <time>2022-09-04T07:25:14Z</time>
      </trkpt>
      <trkpt lat="44.81837" lon="6.80353">
        <ele>2546.67</ele>
        <time>2022-09-04T07:25:28Z</time>
      </trkpt>
      <trkpt lat="44.8183" lon="6.8036">
        <ele>2549.07</ele>
        <time>2022-09-04T07:25:44Z</time>
      </trkpt>
      <trkpt lat="44.81824" lon="6.80361">
        <ele>2551</ele>
        <time>2022-09-04T07:25:58Z</time>
      </trkpt>
      <trkpt lat="44.81825" lon="6.80365">
        <ele>2553.4</ele>
        <time>2022-09-04T07:26:12Z</time>
      </trkpt>
      <trkpt lat="44.81823" lon="6.80375">
        <ele>2554.84</ele>
        <time>2022-09-04T07:26:22Z</time>
      </trkpt>
      <trkpt lat="44.81819" lon="6.80383">
        <ele>2555.8</ele>
        <time>2022-09-04T07:26:35Z</time>
      </trkpt>
      <trkpt lat="44.81818" lon="6.80394">
        <ele>2558.21</ele>
        <time>2022-09-04T07:26:49Z</time>
      </trkpt>
      <trkpt lat="44.81817" lon="6.80408">
        <ele>2559.65</ele>
        <time>2022-09-04T07:27:02Z</time>
      </trkpt>
      <trkpt lat="44.81815" lon="6.80415">
        <ele>2560.13</ele>
        <time>2022-09-04T07:27:10Z</time>
      </trkpt>
      <trkpt lat="44.81814" lon="6.80421">
        <ele>2561.57</ele>
        <time>2022-09-04T07:27:21Z</time>
      </trkpt>
      <trkpt lat="44.81811" lon="6.8043">
        <ele>2563.97</ele>
        <time>2022-09-04T07:27:33Z</time>
      </trkpt>
      <trkpt lat="44.81808" lon="6.80434">
        <ele>2566.38</ele>
        <time>2022-09-04T07:27:46Z</time>
      </trkpt>
      <trkpt lat="44.81805" lon="6.80436">
        <ele>2567.82</ele>
        <time>2022-09-04T07:27:59Z</time>
      </trkpt>
      <trkpt lat="44.81801" lon="6.80435">
        <ele>2569.26</ele>
        <time>2022-09-04T07:28:10Z</time>
      </trkpt>
      <trkpt lat="44.81799" lon="6.80434">
        <ele>2572.14</ele>
        <time>2022-09-04T07:28:25Z</time>
      </trkpt>
      <trkpt lat="44.81795" lon="6.80437">
        <ele>2573.59</ele>
        <time>2022-09-04T07:28:35Z</time>
      </trkpt>
      <trkpt lat="44.81788" lon="6.80441">
        <ele>2575.51</ele>
        <time>2022-09-04T07:28:50Z</time>
      </trkpt>
      <trkpt lat="44.81782" lon="6.80439">
        <ele>2576.47</ele>
        <time>2022-09-04T07:28:59Z</time>
      </trkpt>
      <trkpt lat="44.81776" lon="6.80438">
        <ele>2577.91</ele>
        <time>2022-09-04T07:29:10Z</time>
      </trkpt>
      <trkpt lat="44.81768" lon="6.80438">
        <ele>2579.35</ele>
        <time>2022-09-04T07:29:22Z</time>
      </trkpt>
      <trkpt lat="44.81762" lon="6.80439">
        <ele>2581.76</ele>
        <time>2022-09-04T07:29:37Z</time>
      </trkpt>
      <trkpt lat="44.81752" lon="6.80442">
        <ele>2583.68</ele>
        <time>2022-09-04T07:29:54Z</time>
      </trkpt>
      <trkpt lat="44.81744" lon="6.80442">
        <ele>2587.53</ele>
        <time>2022-09-04T07:30:09Z</time>
      </trkpt>
      <trkpt lat="44.81738" lon="6.80443">
        <ele>2587.04</ele>
        <time>2022-09-04T07:30:19Z</time>
      </trkpt>
      <trkpt lat="44.81734" lon="6.80439">
        <ele>2588.01</ele>
        <time>2022-09-04T07:30:28Z</time>
      </trkpt>
      <trkpt lat="44.8173" lon="6.80436">
        <ele>2588.01</ele>
        <time>2022-09-04T07:30:33Z</time>
      </trkpt>
      <trkpt lat="44.81725" lon="6.80434">
        <ele>2588.01</ele>
        <time>2022-09-04T07:30:39Z</time>
      </trkpt>
      <trkpt lat="44.81718" lon="6.80434">
        <ele>2588.49</ele>
        <time>2022-09-04T07:30:49Z</time>
      </trkpt>
      <trkpt lat="44.81711" lon="6.80433">
        <ele>2590.41</ele>
        <time>2022-09-04T07:31:00Z</time>
      </trkpt>
      <trkpt lat="44.81705" lon="6.80434">
        <ele>2590.89</ele>
        <time>2022-09-04T07:31:11Z</time>
      </trkpt>
      <trkpt lat="44.817" lon="6.80437">
        <ele>2591.85</ele>
        <time>2022-09-04T07:31:19Z</time>
      </trkpt>
      <trkpt lat="44.81693" lon="6.80441">
        <ele>2593.29</ele>
        <time>2022-09-04T07:31:30Z</time>
      </trkpt>
      <trkpt lat="44.81692" lon="6.80443">
        <ele>2593.29</ele>
        <time>2022-09-04T07:31:33Z</time>
      </trkpt>
      <trkpt lat="44.81688" lon="6.80445">
        <ele>2594.25</ele>
        <time>2022-09-04T07:31:38Z</time>
      </trkpt>
      <trkpt lat="44.81678" lon="6.8044">
        <ele>2594.74</ele>
        <time>2022-09-04T07:31:49Z</time>
      </trkpt>
      <trkpt lat="44.81673" lon="6.80439">
        <ele>2594.74</ele>
        <time>2022-09-04T07:31:55Z</time>
      </trkpt>
      <trkpt lat="44.81666" lon="6.80436">
        <ele>2595.7</ele>
        <time>2022-09-04T07:32:05Z</time>
      </trkpt>
      <trkpt lat="44.81665" lon="6.80436">
        <ele>2595.7</ele>
        <time>2022-09-04T07:32:06Z</time>
      </trkpt>
      <trkpt lat="44.81664" lon="6.80436">
        <ele>2595.7</ele>
        <time>2022-09-04T07:32:08Z</time>
      </trkpt>
      <trkpt lat="44.81661" lon="6.80436">
        <ele>2596.66</ele>
        <time>2022-09-04T07:32:11Z</time>
      </trkpt>
      <trkpt lat="44.81655" lon="6.80436">
        <ele>2597.14</ele>
        <time>2022-09-04T07:32:18Z</time>
      </trkpt>
      <trkpt lat="44.81653" lon="6.80435">
        <ele>2597.14</ele>
        <time>2022-09-04T07:32:21Z</time>
      </trkpt>
      <trkpt lat="44.81649" lon="6.80434">
        <ele>2598.1</ele>
        <time>2022-09-04T07:32:26Z</time>
      </trkpt>
      <trkpt lat="44.81648" lon="6.80433">
        <ele>2598.1</ele>
        <time>2022-09-04T07:32:27Z</time>
      </trkpt>
      <trkpt lat="44.81646" lon="6.80431">
        <ele>2598.1</ele>
        <time>2022-09-04T07:32:30Z</time>
      </trkpt>
      <trkpt lat="44.81638" lon="6.8043">
        <ele>2599.54</ele>
        <time>2022-09-04T07:32:42Z</time>
      </trkpt>
      <trkpt lat="44.81632" lon="6.80424">
        <ele>2600.98</ele>
        <time>2022-09-04T07:32:55Z</time>
      </trkpt>
      <trkpt lat="44.81629" lon="6.80421">
        <ele>2602.43</ele>
        <time>2022-09-04T07:33:01Z</time>
      </trkpt>
      <trkpt lat="44.81622" lon="6.80422">
        <ele>2604.35</ele>
        <time>2022-09-04T07:33:12Z</time>
      </trkpt>
      <trkpt lat="44.81618" lon="6.80424">
        <ele>2604.83</ele>
        <time>2022-09-04T07:33:18Z</time>
      </trkpt>
      <trkpt lat="44.81611" lon="6.80425">
        <ele>2606.27</ele>
        <time>2022-09-04T07:33:28Z</time>
      </trkpt>
      <trkpt lat="44.81604" lon="6.80425">
        <ele>2607.23</ele>
        <time>2022-09-04T07:33:38Z</time>
      </trkpt>
      <trkpt lat="44.81602" lon="6.80424">
        <ele>2607.71</ele>
        <time>2022-09-04T07:33:41Z</time>
      </trkpt>
      <trkpt lat="44.81594" lon="6.80425">
        <ele>2608.67</ele>
        <time>2022-09-04T07:33:51Z</time>
      </trkpt>
      <trkpt lat="44.81591" lon="6.80425">
        <ele>2609.16</ele>
        <time>2022-09-04T07:33:56Z</time>
      </trkpt>
      <trkpt lat="44.81588" lon="6.80425">
        <ele>2609.64</ele>
        <time>2022-09-04T07:33:59Z</time>
      </trkpt>
      <trkpt lat="44.8158" lon="6.80426">
        <ele>2610.12</ele>
        <time>2022-09-04T07:34:10Z</time>
      </trkpt>
      <trkpt lat="44.81579" lon="6.80425">
        <ele>2610.12</ele>
        <time>2022-09-04T07:34:12Z</time>
      </trkpt>
      <trkpt lat="44.81571" lon="6.80423">
        <ele>2612.04</ele>
        <time>2022-09-04T07:34:23Z</time>
      </trkpt>
      <trkpt lat="44.81569" lon="6.80423">
        <ele>2612.52</ele>
        <time>2022-09-04T07:34:27Z</time>
      </trkpt>
      <trkpt lat="44.81562" lon="6.80422">
        <ele>2613.96</ele>
        <time>2022-09-04T07:34:38Z</time>
      </trkpt>
      <trkpt lat="44.81554" lon="6.80419">
        <ele>2615.4</ele>
        <time>2022-09-04T07:34:50Z</time>
      </trkpt>
      <trkpt lat="44.81547" lon="6.80417">
        <ele>2616.37</ele>
        <time>2022-09-04T07:35:00Z</time>
      </trkpt>
      <trkpt lat="44.81545" lon="6.80417">
        <ele>2616.85</ele>
        <time>2022-09-04T07:35:01Z</time>
      </trkpt>
      <trkpt lat="44.81536" lon="6.80418">
        <ele>2617.81</ele>
        <time>2022-09-04T07:35:11Z</time>
      </trkpt>
      <trkpt lat="44.81535" lon="6.80417">
        <ele>2617.81</ele>
        <time>2022-09-04T07:35:28Z</time>
      </trkpt>
      <trkpt lat="44.81536" lon="6.80416">
        <ele>2617.81</ele>
        <time>2022-09-04T07:35:43Z</time>
      </trkpt>
      <trkpt lat="44.81535" lon="6.80419">
        <ele>2617.81</ele>
        <time>2022-09-04T07:35:57Z</time>
      </trkpt>
      <trkpt lat="44.81534" lon="6.80418">
        <ele>2618.29</ele>
        <time>2022-09-04T07:36:14Z</time>
      </trkpt>
      <trkpt lat="44.81533" lon="6.80421">
        <ele>2618.29</ele>
        <time>2022-09-04T07:36:29Z</time>
      </trkpt>
      <trkpt lat="44.81533" lon="6.80421">
        <ele>2618.29</ele>
        <time>2022-09-04T07:36:50Z</time>
      </trkpt>
      <trkpt lat="44.81533" lon="6.80416">
        <ele>2617.33</ele>
        <time>2022-09-04T07:37:10Z</time>
      </trkpt>
      <trkpt lat="44.81532" lon="6.8042">
        <ele>2617.33</ele>
        <time>2022-09-04T07:37:24Z</time>
      </trkpt>
      <trkpt lat="44.81529" lon="6.80426">
        <ele>2618.77</ele>
        <time>2022-09-04T07:37:31Z</time>
      </trkpt>
      <trkpt lat="44.81526" lon="6.80428">
        <ele>2618.77</ele>
        <time>2022-09-04T07:37:47Z</time>
      </trkpt>
      <trkpt lat="44.81524" lon="6.80426">
        <ele>2619.25</ele>
        <time>2022-09-04T07:38:15Z</time>
      </trkpt>
      <trkpt lat="44.81528" lon="6.80425">
        <ele>2619.25</ele>
        <time>2022-09-04T07:38:38Z</time>
      </trkpt>
      <trkpt lat="44.81529" lon="6.8042">
        <ele>2619.25</ele>
        <time>2022-09-04T07:39:00Z</time>
      </trkpt>
      <trkpt lat="44.81531" lon="6.80418">
        <ele>2619.25</ele>
        <time>2022-09-04T07:39:14Z</time>
      </trkpt>
      <trkpt lat="44.81531" lon="6.80415">
        <ele>2619.25</ele>
        <time>2022-09-04T07:39:20Z</time>
      </trkpt>
      <trkpt lat="44.81528" lon="6.80412">
        <ele>2619.73</ele>
        <time>2022-09-04T07:39:33Z</time>
      </trkpt>
      <trkpt lat="44.81521" lon="6.80405">
        <ele>2618.29</ele>
        <time>2022-09-04T07:39:52Z</time>
      </trkpt>
      <trkpt lat="44.8151" lon="6.80396">
        <ele>2618.29</ele>
        <time>2022-09-04T07:40:07Z</time>
      </trkpt>
      <trkpt lat="44.81505" lon="6.80393">
        <ele>2617.81</ele>
        <time>2022-09-04T07:40:14Z</time>
      </trkpt>
      <trkpt lat="44.81503" lon="6.80391">
        <ele>2617.33</ele>
        <time>2022-09-04T07:40:16Z</time>
      </trkpt>
      <trkpt lat="44.815" lon="6.80389">
        <ele>2617.33</ele>
        <time>2022-09-04T07:40:20Z</time>
      </trkpt>
      <trkpt lat="44.81496" lon="6.80387">
        <ele>2617.33</ele>
        <time>2022-09-04T07:40:24Z</time>
      </trkpt>
      <trkpt lat="44.81486" lon="6.80384">
        <ele>2616.37</ele>
        <time>2022-09-04T07:40:36Z</time>
      </trkpt>
      <trkpt lat="44.81477" lon="6.80378">
        <ele>2615.4</ele>
        <time>2022-09-04T07:40:47Z</time>
      </trkpt>
      <trkpt lat="44.81475" lon="6.80378">
        <ele>2615.4</ele>
        <time>2022-09-04T07:40:49Z</time>
      </trkpt>
      <trkpt lat="44.81468" lon="6.80371">
        <ele>2614.92</ele>
        <time>2022-09-04T07:40:59Z</time>
      </trkpt>
      <trkpt lat="44.81464" lon="6.80369">
        <ele>2614.92</ele>
        <time>2022-09-04T07:41:13Z</time>
      </trkpt>
      <trkpt lat="44.81463" lon="6.80361">
        <ele>2615.4</ele>
        <time>2022-09-04T07:41:29Z</time>
      </trkpt>
      <trkpt lat="44.81463" lon="6.80359">
        <ele>2615.4</ele>
        <time>2022-09-04T07:41:45Z</time>
      </trkpt>
      <trkpt lat="44.81461" lon="6.8036">
        <ele>2615.4</ele>
        <time>2022-09-04T07:42:07Z</time>
      </trkpt>
      <trkpt lat="44.81462" lon="6.80362">
        <ele>2615.4</ele>
        <time>2022-09-04T07:42:23Z</time>
      </trkpt>
      <trkpt lat="44.81461" lon="6.80357">
        <ele>2615.4</ele>
        <time>2022-09-04T07:42:55Z</time>
      </trkpt>
      <trkpt lat="44.8146" lon="6.80355">
        <ele>2615.4</ele>
        <time>2022-09-04T07:42:57Z</time>
      </trkpt>
      <trkpt lat="44.81457" lon="6.80351">
        <ele>2615.4</ele>
        <time>2022-09-04T07:43:01Z</time>
      </trkpt>
      <trkpt lat="44.81453" lon="6.80341">
        <ele>2615.4</ele>
        <time>2022-09-04T07:43:11Z</time>
      </trkpt>
      <trkpt lat="44.81451" lon="6.80337">
        <ele>2615.4</ele>
        <time>2022-09-04T07:43:15Z</time>
      </trkpt>
      <trkpt lat="44.81449" lon="6.80332">
        <ele>2614.92</ele>
        <time>2022-09-04T07:43:20Z</time>
      </trkpt>
      <trkpt lat="44.81447" lon="6.80327">
        <ele>2614.44</ele>
        <time>2022-09-04T07:43:25Z</time>
      </trkpt>
      <trkpt lat="44.81446" lon="6.80325">
        <ele>2613.96</ele>
        <time>2022-09-04T07:43:27Z</time>
      </trkpt>
      <trkpt lat="44.81445" lon="6.80319">
        <ele>2613</ele>
        <time>2022-09-04T07:43:38Z</time>
      </trkpt>
      <trkpt lat="44.81442" lon="6.80315">
        <ele>2613</ele>
        <time>2022-09-04T07:43:55Z</time>
      </trkpt>
      <trkpt lat="44.81441" lon="6.80313">
        <ele>2613</ele>
        <time>2022-09-04T07:43:56Z</time>
      </trkpt>
      <trkpt lat="44.81441" lon="6.80311">
        <ele>2613</ele>
        <time>2022-09-04T07:43:57Z</time>
      </trkpt>
      <trkpt lat="44.8144" lon="6.8031">
        <ele>2613</ele>
        <time>2022-09-04T07:43:58Z</time>
      </trkpt>
      <trkpt lat="44.81434" lon="6.80297">
        <ele>2612.52</ele>
        <time>2022-09-04T07:44:10Z</time>
      </trkpt>
      <trkpt lat="44.81434" lon="6.80295">
        <ele>2612.52</ele>
        <time>2022-09-04T07:44:11Z</time>
      </trkpt>
      <trkpt lat="44.81434" lon="6.80293">
        <ele>2612.52</ele>
        <time>2022-09-04T07:44:12Z</time>
      </trkpt>
      <trkpt lat="44.81431" lon="6.8029">
        <ele>2612.04</ele>
        <time>2022-09-04T07:44:16Z</time>
      </trkpt>
      <trkpt lat="44.81424" lon="6.80278">
        <ele>2612.04</ele>
        <time>2022-09-04T07:44:28Z</time>
      </trkpt>
      <trkpt lat="44.81422" lon="6.80275">
        <ele>2612.04</ele>
        <time>2022-09-04T07:44:32Z</time>
      </trkpt>
      <trkpt lat="44.81411" lon="6.80271">
        <ele>2611.08</ele>
        <time>2022-09-04T07:44:44Z</time>
      </trkpt>
      <trkpt lat="44.81403" lon="6.8027">
        <ele>2609.64</ele>
        <time>2022-09-04T07:44:53Z</time>
      </trkpt>
      <trkpt lat="44.81396" lon="6.80263">
        <ele>2607.71</ele>
        <time>2022-09-04T07:45:04Z</time>
      </trkpt>
      <trkpt lat="44.81392" lon="6.80257">
        <ele>2607.23</ele>
        <time>2022-09-04T07:45:15Z</time>
      </trkpt>
      <trkpt lat="44.81391" lon="6.80257">
        <ele>2607.23</ele>
        <time>2022-09-04T07:45:36Z</time>
      </trkpt>
      <trkpt lat="44.81392" lon="6.80256">
        <ele>2607.23</ele>
        <time>2022-09-04T07:45:55Z</time>
      </trkpt>
      <trkpt lat="44.81392" lon="6.80256">
        <ele>2607.23</ele>
        <time>2022-09-04T07:46:18Z</time>
      </trkpt>
      <trkpt lat="44.81392" lon="6.80259">
        <ele>2607.23</ele>
        <time>2022-09-04T07:46:55Z</time>
      </trkpt>
      <trkpt lat="44.81393" lon="6.80254">
        <ele>2607.23</ele>
        <time>2022-09-04T07:47:24Z</time>
      </trkpt>
      <trkpt lat="44.81391" lon="6.80254">
        <ele>2607.71</ele>
        <time>2022-09-04T07:47:55Z</time>
      </trkpt>
      <trkpt lat="44.81391" lon="6.80251">
        <ele>2607.71</ele>
        <time>2022-09-04T07:48:29Z</time>
      </trkpt>
      <trkpt lat="44.81393" lon="6.80253">
        <ele>2608.19</ele>
        <time>2022-09-04T07:49:13Z</time>
      </trkpt>
      <trkpt lat="44.81396" lon="6.80253">
        <ele>2608.19</ele>
        <time>2022-09-04T07:49:44Z</time>
      </trkpt>
      <trkpt lat="44.81396" lon="6.80251">
        <ele>2608.19</ele>
        <time>2022-09-04T07:50:17Z</time>
      </trkpt>
      <trkpt lat="44.81394" lon="6.80251">
        <ele>2608.19</ele>
        <time>2022-09-04T07:50:55Z</time>
      </trkpt>
      <trkpt lat="44.81393" lon="6.80253">
        <ele>2608.19</ele>
        <time>2022-09-04T07:51:29Z</time>
      </trkpt>
      <trkpt lat="44.81393" lon="6.80251">
        <ele>2608.67</ele>
        <time>2022-09-04T07:51:57Z</time>
      </trkpt>
      <trkpt lat="44.81392" lon="6.80252">
        <ele>2608.67</ele>
        <time>2022-09-04T07:52:28Z</time>
      </trkpt>
      <trkpt lat="44.81391" lon="6.80253">
        <ele>2608.67</ele>
        <time>2022-09-04T07:52:56Z</time>
      </trkpt>
      <trkpt lat="44.81391" lon="6.80255">
        <ele>2607.71</ele>
        <time>2022-09-04T07:53:09Z</time>
      </trkpt>
      <trkpt lat="44.81392" lon="6.80254">
        <ele>2607.71</ele>
        <time>2022-09-04T07:53:45Z</time>
      </trkpt>
      <trkpt lat="44.81393" lon="6.80255">
        <ele>2607.71</ele>
        <time>2022-09-04T07:54:21Z</time>
      </trkpt>
      <trkpt lat="44.81391" lon="6.80257">
        <ele>2607.71</ele>
        <time>2022-09-04T07:54:38Z</time>
      </trkpt>
      <trkpt lat="44.81392" lon="6.80263">
        <ele>2607.71</ele>
        <time>2022-09-04T07:54:54Z</time>
      </trkpt>
      <trkpt lat="44.81392" lon="6.80264">
        <ele>2607.71</ele>
        <time>2022-09-04T07:54:55Z</time>
      </trkpt>
      <trkpt lat="44.81393" lon="6.80267">
        <ele>2607.23</ele>
        <time>2022-09-04T07:55:07Z</time>
      </trkpt>
      <trkpt lat="44.81391" lon="6.80266">
        <ele>2607.23</ele>
        <time>2022-09-04T07:55:18Z</time>
      </trkpt>
      <trkpt lat="44.81392" lon="6.80265">
        <ele>2608.67</ele>
        <time>2022-09-04T07:55:20Z</time>
      </trkpt>
      <trkpt lat="44.81391" lon="6.80257">
        <ele>2608.67</ele>
        <time>2022-09-04T07:55:35Z</time>
      </trkpt>
      <trkpt lat="44.81392" lon="6.80256">
        <ele>2608.67</ele>
        <time>2022-09-04T07:56:04Z</time>
      </trkpt>
      <trkpt lat="44.8139" lon="6.80256">
        <ele>2608.67</ele>
        <time>2022-09-04T07:56:38Z</time>
      </trkpt>
      <trkpt lat="44.8139" lon="6.80255">
        <ele>2608.67</ele>
        <time>2022-09-04T07:57:10Z</time>
      </trkpt>
      <trkpt lat="44.81391" lon="6.80256">
        <ele>2608.67</ele>
        <time>2022-09-04T07:57:33Z</time>
      </trkpt>
      <trkpt lat="44.81392" lon="6.80256">
        <ele>2608.67</ele>
        <time>2022-09-04T07:57:54Z</time>
      </trkpt>
      <trkpt lat="44.81391" lon="6.80256">
        <ele>2609.16</ele>
        <time>2022-09-04T07:58:29Z</time>
      </trkpt>
      <trkpt lat="44.81392" lon="6.80257">
        <ele>2609.16</ele>
        <time>2022-09-04T07:59:09Z</time>
      </trkpt>
      <trkpt lat="44.81389" lon="6.80257">
        <ele>2607.71</ele>
        <time>2022-09-04T07:59:15Z</time>
      </trkpt>
      <trkpt lat="44.81387" lon="6.80254">
        <ele>2607.23</ele>
        <time>2022-09-04T07:59:19Z</time>
      </trkpt>
      <trkpt lat="44.81386" lon="6.80253">
        <ele>2606.75</ele>
        <time>2022-09-04T07:59:20Z</time>
      </trkpt>
      <trkpt lat="44.81385" lon="6.80252">
        <ele>2606.75</ele>
        <time>2022-09-04T07:59:21Z</time>
      </trkpt>
      <trkpt lat="44.81379" lon="6.80246">
        <ele>2604.83</ele>
        <time>2022-09-04T07:59:34Z</time>
      </trkpt>
      <trkpt lat="44.8137" lon="6.80239">
        <ele>2602.91</ele>
        <time>2022-09-04T07:59:45Z</time>
      </trkpt>
      <trkpt lat="44.81364" lon="6.80234">
        <ele>2600.98</ele>
        <time>2022-09-04T07:59:53Z</time>
      </trkpt>
      <trkpt lat="44.81349" lon="6.8022">
        <ele>2598.1</ele>
        <time>2022-09-04T08:00:08Z</time>
      </trkpt>
      <trkpt lat="44.81337" lon="6.80208">
        <ele>2595.22</ele>
        <time>2022-09-04T08:00:22Z</time>
      </trkpt>
      <trkpt lat="44.81336" lon="6.80207">
        <ele>2595.22</ele>
        <time>2022-09-04T08:00:23Z</time>
      </trkpt>
      <trkpt lat="44.81336" lon="6.80206">
        <ele>2594.74</ele>
        <time>2022-09-04T08:00:24Z</time>
      </trkpt>
      <trkpt lat="44.8133" lon="6.80197">
        <ele>2592.81</ele>
        <time>2022-09-04T08:00:32Z</time>
      </trkpt>
      <trkpt lat="44.81329" lon="6.80197">
        <ele>2592.81</ele>
        <time>2022-09-04T08:00:33Z</time>
      </trkpt>
      <trkpt lat="44.81324" lon="6.80192">
        <ele>2591.37</ele>
        <time>2022-09-04T08:00:40Z</time>
      </trkpt>
      <trkpt lat="44.81323" lon="6.80192">
        <ele>2591.37</ele>
        <time>2022-09-04T08:00:41Z</time>
      </trkpt>
      <trkpt lat="44.81314" lon="6.80185">
        <ele>2589.45</ele>
        <time>2022-09-04T08:00:50Z</time>
      </trkpt>
      <trkpt lat="44.81311" lon="6.80184">
        <ele>2588.97</ele>
        <time>2022-09-04T08:00:54Z</time>
      </trkpt>
      <trkpt lat="44.81303" lon="6.80179">
        <ele>2587.04</ele>
        <time>2022-09-04T08:01:03Z</time>
      </trkpt>
      <trkpt lat="44.813" lon="6.80179">
        <ele>2586.56</ele>
        <time>2022-09-04T08:01:06Z</time>
      </trkpt>
      <trkpt lat="44.81295" lon="6.80174">
        <ele>2585.12</ele>
        <time>2022-09-04T08:01:12Z</time>
      </trkpt>
      <trkpt lat="44.81283" lon="6.80163">
        <ele>2583.2</ele>
        <time>2022-09-04T08:01:25Z</time>
      </trkpt>
      <trkpt lat="44.8128" lon="6.80161">
        <ele>2581.76</ele>
        <time>2022-09-04T08:01:29Z</time>
      </trkpt>
      <trkpt lat="44.81275" lon="6.80158">
        <ele>2581.76</ele>
        <time>2022-09-04T08:01:42Z</time>
      </trkpt>
      <trkpt lat="44.81262" lon="6.80155">
        <ele>2579.84</ele>
        <time>2022-09-04T08:01:55Z</time>
      </trkpt>
      <trkpt lat="44.81247" lon="6.80153">
        <ele>2576.95</ele>
        <time>2022-09-04T08:02:07Z</time>
      </trkpt>
      <trkpt lat="44.81238" lon="6.80155">
        <ele>2575.51</ele>
        <time>2022-09-04T08:02:15Z</time>
      </trkpt>
      <trkpt lat="44.81236" lon="6.80156">
        <ele>2575.51</ele>
        <time>2022-09-04T08:02:16Z</time>
      </trkpt>
      <trkpt lat="44.81235" lon="6.80156">
        <ele>2575.51</ele>
        <time>2022-09-04T08:02:17Z</time>
      </trkpt>
      <trkpt lat="44.81233" lon="6.80156">
        <ele>2575.03</ele>
        <time>2022-09-04T08:02:19Z</time>
      </trkpt>
      <trkpt lat="44.81224" lon="6.80157">
        <ele>2573.59</ele>
        <time>2022-09-04T08:02:29Z</time>
      </trkpt>
      <trkpt lat="44.81223" lon="6.80158">
        <ele>2573.59</ele>
        <time>2022-09-04T08:02:30Z</time>
      </trkpt>
      <trkpt lat="44.8122" lon="6.80159">
        <ele>2573.11</ele>
        <time>2022-09-04T08:02:34Z</time>
      </trkpt>
      <trkpt lat="44.81218" lon="6.80159">
        <ele>2573.11</ele>
        <time>2022-09-04T08:02:36Z</time>
      </trkpt>
      <trkpt lat="44.81217" lon="6.80159">
        <ele>2573.11</ele>
        <time>2022-09-04T08:02:37Z</time>
      </trkpt>
      <trkpt lat="44.81213" lon="6.8016">
        <ele>2572.14</ele>
        <time>2022-09-04T08:02:41Z</time>
      </trkpt>
      <trkpt lat="44.81212" lon="6.80161">
        <ele>2572.14</ele>
        <time>2022-09-04T08:02:42Z</time>
      </trkpt>
      <trkpt lat="44.812" lon="6.80164">
        <ele>2570.7</ele>
        <time>2022-09-04T08:02:53Z</time>
      </trkpt>
      <trkpt lat="44.81191" lon="6.80163">
        <ele>2569.26</ele>
        <time>2022-09-04T08:03:01Z</time>
      </trkpt>
      <trkpt lat="44.8119" lon="6.80164">
        <ele>2569.26</ele>
        <time>2022-09-04T08:03:02Z</time>
      </trkpt>
      <trkpt lat="44.81188" lon="6.80165">
        <ele>2569.26</ele>
        <time>2022-09-04T08:03:03Z</time>
      </trkpt>
      <trkpt lat="44.8118" lon="6.80165">
        <ele>2567.82</ele>
        <time>2022-09-04T08:03:11Z</time>
      </trkpt>
      <trkpt lat="44.81179" lon="6.80164">
        <ele>2567.82</ele>
        <time>2022-09-04T08:03:12Z</time>
      </trkpt>
      <trkpt lat="44.81178" lon="6.80164">
        <ele>2567.82</ele>
        <time>2022-09-04T08:03:13Z</time>
      </trkpt>
      <trkpt lat="44.81176" lon="6.80164">
        <ele>2567.82</ele>
        <time>2022-09-04T08:03:14Z</time>
      </trkpt>
      <trkpt lat="44.8116" lon="6.80164">
        <ele>2565.9</ele>
        <time>2022-09-04T08:03:29Z</time>
      </trkpt>
      <trkpt lat="44.81151" lon="6.80163">
        <ele>2563.97</ele>
        <time>2022-09-04T08:03:39Z</time>
      </trkpt>
      <trkpt lat="44.8115" lon="6.80163">
        <ele>2563.97</ele>
        <time>2022-09-04T08:03:40Z</time>
      </trkpt>
      <trkpt lat="44.81149" lon="6.80164">
        <ele>2563.01</ele>
        <time>2022-09-04T08:03:41Z</time>
      </trkpt>
      <trkpt lat="44.81144" lon="6.80163">
        <ele>2562.05</ele>
        <time>2022-09-04T08:03:46Z</time>
      </trkpt>
      <trkpt lat="44.81143" lon="6.80163">
        <ele>2562.05</ele>
        <time>2022-09-04T08:03:47Z</time>
      </trkpt>
      <trkpt lat="44.81142" lon="6.80162">
        <ele>2561.57</ele>
        <time>2022-09-04T08:03:48Z</time>
      </trkpt>
      <trkpt lat="44.81141" lon="6.80161">
        <ele>2561.57</ele>
        <time>2022-09-04T08:03:49Z</time>
      </trkpt>
      <trkpt lat="44.81139" lon="6.8016">
        <ele>2561.09</ele>
        <time>2022-09-04T08:03:50Z</time>
      </trkpt>
      <trkpt lat="44.81128" lon="6.80154">
        <ele>2560.13</ele>
        <time>2022-09-04T08:04:02Z</time>
      </trkpt>
      <trkpt lat="44.81127" lon="6.80154">
        <ele>2560.13</ele>
        <time>2022-09-04T08:04:03Z</time>
      </trkpt>
      <trkpt lat="44.81126" lon="6.80153">
        <ele>2560.13</ele>
        <time>2022-09-04T08:04:04Z</time>
      </trkpt>
      <trkpt lat="44.81124" lon="6.80152">
        <ele>2559.65</ele>
        <time>2022-09-04T08:04:05Z</time>
      </trkpt>
      <trkpt lat="44.81117" lon="6.80149">
        <ele>2558.69</ele>
        <time>2022-09-04T08:04:17Z</time>
      </trkpt>
      <trkpt lat="44.81114" lon="6.80148">
        <ele>2558.21</ele>
        <time>2022-09-04T08:04:27Z</time>
      </trkpt>
      <trkpt lat="44.81113" lon="6.80149">
        <ele>2558.21</ele>
        <time>2022-09-04T08:04:28Z</time>
      </trkpt>
      <trkpt lat="44.811" lon="6.80149">
        <ele>2554.84</ele>
        <time>2022-09-04T08:04:38Z</time>
      </trkpt>
      <trkpt lat="44.81097" lon="6.80147">
        <ele>2554.84</ele>
        <time>2022-09-04T08:04:41Z</time>
      </trkpt>
      <trkpt lat="44.81096" lon="6.80146">
        <ele>2554.36</ele>
        <time>2022-09-04T08:04:42Z</time>
      </trkpt>
      <trkpt lat="44.81095" lon="6.80145">
        <ele>2554.36</ele>
        <time>2022-09-04T08:04:44Z</time>
      </trkpt>
      <trkpt lat="44.81093" lon="6.80144">
        <ele>2554.36</ele>
        <time>2022-09-04T08:04:45Z</time>
      </trkpt>
      <trkpt lat="44.81092" lon="6.80143">
        <ele>2554.36</ele>
        <time>2022-09-04T08:04:46Z</time>
      </trkpt>
      <trkpt lat="44.81091" lon="6.80141">
        <ele>2554.36</ele>
        <time>2022-09-04T08:04:47Z</time>
      </trkpt>
      <trkpt lat="44.8109" lon="6.8014">
        <ele>2553.88</ele>
        <time>2022-09-04T08:04:48Z</time>
      </trkpt>
      <trkpt lat="44.81089" lon="6.8014">
        <ele>2553.4</ele>
        <time>2022-09-04T08:04:49Z</time>
      </trkpt>
      <trkpt lat="44.81087" lon="6.80139">
        <ele>2553.4</ele>
        <time>2022-09-04T08:04:50Z</time>
      </trkpt>
      <trkpt lat="44.81083" lon="6.80134">
        <ele>2553.4</ele>
        <time>2022-09-04T08:04:55Z</time>
      </trkpt>
      <trkpt lat="44.81078" lon="6.80132">
        <ele>2551.96</ele>
        <time>2022-09-04T08:04:59Z</time>
      </trkpt>
      <trkpt lat="44.81064" lon="6.80125">
        <ele>2551.96</ele>
        <time>2022-09-04T08:05:11Z</time>
      </trkpt>
      <trkpt lat="44.81052" lon="6.80116">
        <ele>2551</ele>
        <time>2022-09-04T08:05:23Z</time>
      </trkpt>
      <trkpt lat="44.81049" lon="6.80115">
        <ele>2551</ele>
        <time>2022-09-04T08:05:25Z</time>
      </trkpt>
      <trkpt lat="44.81048" lon="6.80115">
        <ele>2551</ele>
        <time>2022-09-04T08:05:26Z</time>
      </trkpt>
      <trkpt lat="44.81047" lon="6.80114">
        <ele>2551</ele>
        <time>2022-09-04T08:05:27Z</time>
      </trkpt>
      <trkpt lat="44.81043" lon="6.80112">
        <ele>2551</ele>
        <time>2022-09-04T08:05:30Z</time>
      </trkpt>
      <trkpt lat="44.81033" lon="6.801">
        <ele>2550.03</ele>
        <time>2022-09-04T08:05:42Z</time>
      </trkpt>
      <trkpt lat="44.81031" lon="6.80099">
        <ele>2549.55</ele>
        <time>2022-09-04T08:05:43Z</time>
      </trkpt>
      <trkpt lat="44.8103" lon="6.80099">
        <ele>2549.55</ele>
        <time>2022-09-04T08:05:44Z</time>
      </trkpt>
      <trkpt lat="44.81029" lon="6.80099">
        <ele>2549.55</ele>
        <time>2022-09-04T08:05:45Z</time>
      </trkpt>
      <trkpt lat="44.81028" lon="6.80098">
        <ele>2549.07</ele>
        <time>2022-09-04T08:05:46Z</time>
      </trkpt>
      <trkpt lat="44.81027" lon="6.80097">
        <ele>2549.07</ele>
        <time>2022-09-04T08:05:47Z</time>
      </trkpt>
      <trkpt lat="44.81026" lon="6.80095">
        <ele>2549.07</ele>
        <time>2022-09-04T08:05:48Z</time>
      </trkpt>
      <trkpt lat="44.8102" lon="6.80088">
        <ele>2549.07</ele>
        <time>2022-09-04T08:05:57Z</time>
      </trkpt>
      <trkpt lat="44.81018" lon="6.80088">
        <ele>2549.07</ele>
        <time>2022-09-04T08:05:59Z</time>
      </trkpt>
      <trkpt lat="44.81011" lon="6.80087">
        <ele>2548.11</ele>
        <time>2022-09-04T08:06:06Z</time>
      </trkpt>
      <trkpt lat="44.8101" lon="6.80087">
        <ele>2548.11</ele>
        <time>2022-09-04T08:06:07Z</time>
      </trkpt>
      <trkpt lat="44.80994" lon="6.80083">
        <ele>2546.19</ele>
        <time>2022-09-04T08:06:21Z</time>
      </trkpt>
      <trkpt lat="44.8099" lon="6.80081">
        <ele>2545.71</ele>
        <time>2022-09-04T08:06:24Z</time>
      </trkpt>
      <trkpt lat="44.80989" lon="6.80079">
        <ele>2545.71</ele>
        <time>2022-09-04T08:06:25Z</time>
      </trkpt>
      <trkpt lat="44.80988" lon="6.80078">
        <ele>2545.71</ele>
        <time>2022-09-04T08:06:26Z</time>
      </trkpt>
      <trkpt lat="44.80987" lon="6.80077">
        <ele>2545.71</ele>
        <time>2022-09-04T08:06:27Z</time>
      </trkpt>
      <trkpt lat="44.80978" lon="6.80071">
        <ele>2545.23</ele>
        <time>2022-09-04T08:06:38Z</time>
      </trkpt>
      <trkpt lat="44.80962" lon="6.80064">
        <ele>2542.82</ele>
        <time>2022-09-04T08:06:51Z</time>
      </trkpt>
      <trkpt lat="44.8096" lon="6.80063">
        <ele>2542.82</ele>
        <time>2022-09-04T08:06:52Z</time>
      </trkpt>
      <trkpt lat="44.80959" lon="6.80062">
        <ele>2542.82</ele>
        <time>2022-09-04T08:06:53Z</time>
      </trkpt>
      <trkpt lat="44.80958" lon="6.80061">
        <ele>2542.82</ele>
        <time>2022-09-04T08:06:54Z</time>
      </trkpt>
      <trkpt lat="44.80957" lon="6.8006">
        <ele>2542.82</ele>
        <time>2022-09-04T08:06:55Z</time>
      </trkpt>
      <trkpt lat="44.80942" lon="6.80054">
        <ele>2540.42</ele>
        <time>2022-09-04T08:07:09Z</time>
      </trkpt>
      <trkpt lat="44.80928" lon="6.80045">
        <ele>2538.98</ele>
        <time>2022-09-04T08:07:22Z</time>
      </trkpt>
      <trkpt lat="44.80917" lon="6.80037">
        <ele>2538.02</ele>
        <time>2022-09-04T08:07:34Z</time>
      </trkpt>
      <trkpt lat="44.80909" lon="6.80033">
        <ele>2538.02</ele>
        <time>2022-09-04T08:07:41Z</time>
      </trkpt>
      <trkpt lat="44.80907" lon="6.80033">
        <ele>2538.02</ele>
        <time>2022-09-04T08:07:42Z</time>
      </trkpt>
      <trkpt lat="44.80906" lon="6.80033">
        <ele>2538.02</ele>
        <time>2022-09-04T08:07:43Z</time>
      </trkpt>
      <trkpt lat="44.80891" lon="6.80028">
        <ele>2537.06</ele>
        <time>2022-09-04T08:07:57Z</time>
      </trkpt>
      <trkpt lat="44.80876" lon="6.80025">
        <ele>2537.06</ele>
        <time>2022-09-04T08:08:10Z</time>
      </trkpt>
      <trkpt lat="44.80861" lon="6.80017">
        <ele>2534.65</ele>
        <time>2022-09-04T08:08:24Z</time>
      </trkpt>
      <trkpt lat="44.80856" lon="6.80016">
        <ele>2533.69</ele>
        <time>2022-09-04T08:08:29Z</time>
      </trkpt>
      <trkpt lat="44.80855" lon="6.80015">
        <ele>2533.69</ele>
        <time>2022-09-04T08:08:30Z</time>
      </trkpt>
      <trkpt lat="44.80843" lon="6.80003">
        <ele>2531.77</ele>
        <time>2022-09-04T08:08:42Z</time>
      </trkpt>
      <trkpt lat="44.80833" lon="6.79998">
        <ele>2528.89</ele>
        <time>2022-09-04T08:08:52Z</time>
      </trkpt>
      <trkpt lat="44.80823" lon="6.79995">
        <ele>2527.44</ele>
        <time>2022-09-04T08:09:01Z</time>
      </trkpt>
      <trkpt lat="44.80811" lon="6.79986">
        <ele>2525.52</ele>
        <time>2022-09-04T08:09:13Z</time>
      </trkpt>
      <trkpt lat="44.8081" lon="6.79984">
        <ele>2525.52</ele>
        <time>2022-09-04T08:09:14Z</time>
      </trkpt>
      <trkpt lat="44.80809" lon="6.79983">
        <ele>2525.04</ele>
        <time>2022-09-04T08:09:15Z</time>
      </trkpt>
      <trkpt lat="44.80808" lon="6.79982">
        <ele>2525.04</ele>
        <time>2022-09-04T08:09:16Z</time>
      </trkpt>
      <trkpt lat="44.80798" lon="6.79973">
        <ele>2521.68</ele>
        <time>2022-09-04T08:09:27Z</time>
      </trkpt>
      <trkpt lat="44.80797" lon="6.79972">
        <ele>2521.68</ele>
        <time>2022-09-04T08:09:28Z</time>
      </trkpt>
      <trkpt lat="44.80796" lon="6.79971">
        <ele>2521.68</ele>
        <time>2022-09-04T08:09:29Z</time>
      </trkpt>
      <trkpt lat="44.80787" lon="6.79962">
        <ele>2519.75</ele>
        <time>2022-09-04T08:09:39Z</time>
      </trkpt>
      <trkpt lat="44.80781" lon="6.79958">
        <ele>2517.83</ele>
        <time>2022-09-04T08:09:46Z</time>
      </trkpt>
      <trkpt lat="44.80781" lon="6.79956">
        <ele>2517.83</ele>
        <time>2022-09-04T08:09:47Z</time>
      </trkpt>
      <trkpt lat="44.80779" lon="6.79954">
        <ele>2517.35</ele>
        <time>2022-09-04T08:09:48Z</time>
      </trkpt>
      <trkpt lat="44.80767" lon="6.79943">
        <ele>2515.43</ele>
        <time>2022-09-04T08:10:02Z</time>
      </trkpt>
      <trkpt lat="44.80765" lon="6.79942">
        <ele>2515.43</ele>
        <time>2022-09-04T08:10:05Z</time>
      </trkpt>
      <trkpt lat="44.80751" lon="6.79931">
        <ele>2513.5</ele>
        <time>2022-09-04T08:10:18Z</time>
      </trkpt>
      <trkpt lat="44.80747" lon="6.79926">
        <ele>2512.54</ele>
        <time>2022-09-04T08:10:23Z</time>
      </trkpt>
      <trkpt lat="44.80746" lon="6.79926">
        <ele>2512.54</ele>
        <time>2022-09-04T08:10:24Z</time>
      </trkpt>
      <trkpt lat="44.80743" lon="6.79922">
        <ele>2512.06</ele>
        <time>2022-09-04T08:10:27Z</time>
      </trkpt>
      <trkpt lat="44.80734" lon="6.79915">
        <ele>2511.1</ele>
        <time>2022-09-04T08:10:36Z</time>
      </trkpt>
      <trkpt lat="44.80733" lon="6.79915">
        <ele>2510.62</ele>
        <time>2022-09-04T08:10:37Z</time>
      </trkpt>
      <trkpt lat="44.80732" lon="6.79914">
        <ele>2511.1</ele>
        <time>2022-09-04T08:10:38Z</time>
      </trkpt>
      <trkpt lat="44.80719" lon="6.79902">
        <ele>2509.66</ele>
        <time>2022-09-04T08:10:50Z</time>
      </trkpt>
      <trkpt lat="44.80711" lon="6.79894">
        <ele>2508.22</ele>
        <time>2022-09-04T08:10:59Z</time>
      </trkpt>
      <trkpt lat="44.8071" lon="6.79893">
        <ele>2508.7</ele>
        <time>2022-09-04T08:11:00Z</time>
      </trkpt>
      <trkpt lat="44.80709" lon="6.79891">
        <ele>2508.22</ele>
        <time>2022-09-04T08:11:01Z</time>
      </trkpt>
      <trkpt lat="44.80707" lon="6.79891">
        <ele>2507.74</ele>
        <time>2022-09-04T08:11:02Z</time>
      </trkpt>
      <trkpt lat="44.80706" lon="6.7989">
        <ele>2507.74</ele>
        <time>2022-09-04T08:11:03Z</time>
      </trkpt>
      <trkpt lat="44.80698" lon="6.79883">
        <ele>2505.81</ele>
        <time>2022-09-04T08:11:16Z</time>
      </trkpt>
      <trkpt lat="44.80686" lon="6.79869">
        <ele>2503.89</ele>
        <time>2022-09-04T08:11:30Z</time>
      </trkpt>
      <trkpt lat="44.80679" lon="6.7986">
        <ele>2500.53</ele>
        <time>2022-09-04T08:11:40Z</time>
      </trkpt>
      <trkpt lat="44.80672" lon="6.79853">
        <ele>2499.57</ele>
        <time>2022-09-04T08:11:48Z</time>
      </trkpt>
      <trkpt lat="44.80671" lon="6.79852">
        <ele>2499.57</ele>
        <time>2022-09-04T08:11:49Z</time>
      </trkpt>
      <trkpt lat="44.80669" lon="6.79851">
        <ele>2499.08</ele>
        <time>2022-09-04T08:11:50Z</time>
      </trkpt>
      <trkpt lat="44.80667" lon="6.7985">
        <ele>2498.12</ele>
        <time>2022-09-04T08:11:51Z</time>
      </trkpt>
      <trkpt lat="44.8066" lon="6.79848">
        <ele>2497.16</ele>
        <time>2022-09-04T08:11:58Z</time>
      </trkpt>
      <trkpt lat="44.80657" lon="6.79847">
        <ele>2496.68</ele>
        <time>2022-09-04T08:12:01Z</time>
      </trkpt>
      <trkpt lat="44.80655" lon="6.79847">
        <ele>2495.72</ele>
        <time>2022-09-04T08:12:02Z</time>
      </trkpt>
      <trkpt lat="44.80654" lon="6.79846">
        <ele>2494.76</ele>
        <time>2022-09-04T08:12:03Z</time>
      </trkpt>
      <trkpt lat="44.80653" lon="6.79846">
        <ele>2494.76</ele>
        <time>2022-09-04T08:12:04Z</time>
      </trkpt>
      <trkpt lat="44.80647" lon="6.79844">
        <ele>2493.8</ele>
        <time>2022-09-04T08:12:11Z</time>
      </trkpt>
      <trkpt lat="44.80646" lon="6.79843">
        <ele>2493.32</ele>
        <time>2022-09-04T08:12:12Z</time>
      </trkpt>
      <trkpt lat="44.80643" lon="6.79842">
        <ele>2492.36</ele>
        <time>2022-09-04T08:12:15Z</time>
      </trkpt>
      <trkpt lat="44.80637" lon="6.79837">
        <ele>2491.87</ele>
        <time>2022-09-04T08:12:20Z</time>
      </trkpt>
      <trkpt lat="44.80623" lon="6.79832">
        <ele>2488.51</ele>
        <time>2022-09-04T08:12:33Z</time>
      </trkpt>
      <trkpt lat="44.80617" lon="6.7983">
        <ele>2487.07</ele>
        <time>2022-09-04T08:12:39Z</time>
      </trkpt>
      <trkpt lat="44.80616" lon="6.79829">
        <ele>2486.59</ele>
        <time>2022-09-04T08:12:40Z</time>
      </trkpt>
      <trkpt lat="44.80615" lon="6.79828">
        <ele>2486.59</ele>
        <time>2022-09-04T08:12:41Z</time>
      </trkpt>
      <trkpt lat="44.80614" lon="6.79826">
        <ele>2486.59</ele>
        <time>2022-09-04T08:12:42Z</time>
      </trkpt>
      <trkpt lat="44.80611" lon="6.79817">
        <ele>2485.63</ele>
        <time>2022-09-04T08:12:50Z</time>
      </trkpt>
      <trkpt lat="44.80605" lon="6.79815">
        <ele>2483.7</ele>
        <time>2022-09-04T08:12:58Z</time>
      </trkpt>
      <trkpt lat="44.80604" lon="6.79816">
        <ele>2483.7</ele>
        <time>2022-09-04T08:12:59Z</time>
      </trkpt>
      <trkpt lat="44.80603" lon="6.79818">
        <ele>2483.7</ele>
        <time>2022-09-04T08:13:00Z</time>
      </trkpt>
      <trkpt lat="44.80602" lon="6.79819">
        <ele>2483.22</ele>
        <time>2022-09-04T08:13:01Z</time>
      </trkpt>
      <trkpt lat="44.80602" lon="6.79821">
        <ele>2482.74</ele>
        <time>2022-09-04T08:13:02Z</time>
      </trkpt>
      <trkpt lat="44.80602" lon="6.79828">
        <ele>2481.78</ele>
        <time>2022-09-04T08:13:08Z</time>
      </trkpt>
      <trkpt lat="44.80601" lon="6.79827">
        <ele>2481.3</ele>
        <time>2022-09-04T08:13:09Z</time>
      </trkpt>
      <trkpt lat="44.806" lon="6.79826">
        <ele>2481.3</ele>
        <time>2022-09-04T08:13:10Z</time>
      </trkpt>
      <trkpt lat="44.806" lon="6.79824">
        <ele>2481.3</ele>
        <time>2022-09-04T08:13:11Z</time>
      </trkpt>
      <trkpt lat="44.80599" lon="6.79822">
        <ele>2480.82</ele>
        <time>2022-09-04T08:13:12Z</time>
      </trkpt>
      <trkpt lat="44.80598" lon="6.7982">
        <ele>2480.82</ele>
        <time>2022-09-04T08:13:13Z</time>
      </trkpt>
      <trkpt lat="44.80596" lon="6.79817">
        <ele>2479.38</ele>
        <time>2022-09-04T08:13:18Z</time>
      </trkpt>
      <trkpt lat="44.80594" lon="6.79816">
        <ele>2479.38</ele>
        <time>2022-09-04T08:13:19Z</time>
      </trkpt>
      <trkpt lat="44.8059" lon="6.79813">
        <ele>2477.94</ele>
        <time>2022-09-04T08:13:23Z</time>
      </trkpt>
      <trkpt lat="44.80589" lon="6.79812">
        <ele>2477.94</ele>
        <time>2022-09-04T08:13:24Z</time>
      </trkpt>
      <trkpt lat="44.80584" lon="6.79811">
        <ele>2476.97</ele>
        <time>2022-09-04T08:13:29Z</time>
      </trkpt>
      <trkpt lat="44.80584" lon="6.79811">
        <ele>2476.49</ele>
        <time>2022-09-04T08:13:30Z</time>
      </trkpt>
      <trkpt lat="44.80583" lon="6.79809">
        <ele>2475.53</ele>
        <time>2022-09-04T08:13:31Z</time>
      </trkpt>
      <trkpt lat="44.80582" lon="6.79809">
        <ele>2476.01</ele>
        <time>2022-09-04T08:13:32Z</time>
      </trkpt>
      <trkpt lat="44.80581" lon="6.79808">
        <ele>2475.53</ele>
        <time>2022-09-04T08:13:33Z</time>
      </trkpt>
      <trkpt lat="44.8058" lon="6.79806">
        <ele>2475.05</ele>
        <time>2022-09-04T08:13:34Z</time>
      </trkpt>
      <trkpt lat="44.80579" lon="6.79805">
        <ele>2474.09</ele>
        <time>2022-09-04T08:13:35Z</time>
      </trkpt>
      <trkpt lat="44.80579" lon="6.79804">
        <ele>2474.09</ele>
        <time>2022-09-04T08:13:36Z</time>
      </trkpt>
      <trkpt lat="44.80571" lon="6.79796">
        <ele>2471.69</ele>
        <time>2022-09-04T08:13:47Z</time>
      </trkpt>
      <trkpt lat="44.8057" lon="6.79795">
        <ele>2470.73</ele>
        <time>2022-09-04T08:13:48Z</time>
      </trkpt>
      <trkpt lat="44.80569" lon="6.79793">
        <ele>2470.73</ele>
        <time>2022-09-04T08:13:49Z</time>
      </trkpt>
      <trkpt lat="44.80563" lon="6.79787">
        <ele>2468.32</ele>
        <time>2022-09-04T08:13:56Z</time>
      </trkpt>
      <trkpt lat="44.80557" lon="6.79786">
        <ele>2467.36</ele>
        <time>2022-09-04T08:14:02Z</time>
      </trkpt>
      <trkpt lat="44.80551" lon="6.79784">
        <ele>2466.4</ele>
        <time>2022-09-04T08:14:11Z</time>
      </trkpt>
      <trkpt lat="44.8055" lon="6.79783">
        <ele>2466.4</ele>
        <time>2022-09-04T08:14:12Z</time>
      </trkpt>
      <trkpt lat="44.80543" lon="6.79777">
        <ele>2463.52</ele>
        <time>2022-09-04T08:14:23Z</time>
      </trkpt>
      <trkpt lat="44.80533" lon="6.79772">
        <ele>2462.55</ele>
        <time>2022-09-04T08:14:33Z</time>
      </trkpt>
      <trkpt lat="44.80532" lon="6.79772">
        <ele>2462.55</ele>
        <time>2022-09-04T08:14:34Z</time>
      </trkpt>
      <trkpt lat="44.80531" lon="6.79772">
        <ele>2461.59</ele>
        <time>2022-09-04T08:14:35Z</time>
      </trkpt>
      <trkpt lat="44.80529" lon="6.7977">
        <ele>2461.11</ele>
        <time>2022-09-04T08:14:37Z</time>
      </trkpt>
      <trkpt lat="44.80515" lon="6.7977">
        <ele>2459.67</ele>
        <time>2022-09-04T08:14:49Z</time>
      </trkpt>
      <trkpt lat="44.80514" lon="6.7977">
        <ele>2459.19</ele>
        <time>2022-09-04T08:14:50Z</time>
      </trkpt>
      <trkpt lat="44.80503" lon="6.79771">
        <ele>2455.82</ele>
        <time>2022-09-04T08:15:01Z</time>
      </trkpt>
      <trkpt lat="44.80493" lon="6.79771">
        <ele>2454.38</ele>
        <time>2022-09-04T08:15:11Z</time>
      </trkpt>
      <trkpt lat="44.80492" lon="6.79771">
        <ele>2453.9</ele>
        <time>2022-09-04T08:15:12Z</time>
      </trkpt>
      <trkpt lat="44.8049" lon="6.7977">
        <ele>2453.9</ele>
        <time>2022-09-04T08:15:13Z</time>
      </trkpt>
      <trkpt lat="44.80488" lon="6.7977">
        <ele>2452.94</ele>
        <time>2022-09-04T08:15:15Z</time>
      </trkpt>
      <trkpt lat="44.80479" lon="6.79768">
        <ele>2451.02</ele>
        <time>2022-09-04T08:15:24Z</time>
      </trkpt>
      <trkpt lat="44.80473" lon="6.79766">
        <ele>2449.1</ele>
        <time>2022-09-04T08:15:31Z</time>
      </trkpt>
      <trkpt lat="44.80472" lon="6.79765">
        <ele>2449.1</ele>
        <time>2022-09-04T08:15:32Z</time>
      </trkpt>
      <trkpt lat="44.80471" lon="6.79765">
        <ele>2449.1</ele>
        <time>2022-09-04T08:15:33Z</time>
      </trkpt>
      <trkpt lat="44.80467" lon="6.79766">
        <ele>2448.13</ele>
        <time>2022-09-04T08:15:38Z</time>
      </trkpt>
      <trkpt lat="44.80465" lon="6.79766">
        <ele>2448.13</ele>
        <time>2022-09-04T08:15:40Z</time>
      </trkpt>
      <trkpt lat="44.80464" lon="6.79765">
        <ele>2447.17</ele>
        <time>2022-09-04T08:15:41Z</time>
      </trkpt>
      <trkpt lat="44.80459" lon="6.79766">
        <ele>2445.73</ele>
        <time>2022-09-04T08:15:46Z</time>
      </trkpt>
      <trkpt lat="44.80458" lon="6.79766">
        <ele>2445.73</ele>
        <time>2022-09-04T08:15:47Z</time>
      </trkpt>
      <trkpt lat="44.80452" lon="6.79766">
        <ele>2443.81</ele>
        <time>2022-09-04T08:15:53Z</time>
      </trkpt>
      <trkpt lat="44.80446" lon="6.79767">
        <ele>2442.85</ele>
        <time>2022-09-04T08:16:01Z</time>
      </trkpt>
      <trkpt lat="44.80445" lon="6.79766">
        <ele>2442.85</ele>
        <time>2022-09-04T08:16:02Z</time>
      </trkpt>
      <trkpt lat="44.80443" lon="6.79766">
        <ele>2441.89</ele>
        <time>2022-09-04T08:16:03Z</time>
      </trkpt>
      <trkpt lat="44.80441" lon="6.79766">
        <ele>2441.41</ele>
        <time>2022-09-04T08:16:05Z</time>
      </trkpt>
      <trkpt lat="44.80436" lon="6.79768">
        <ele>2439.48</ele>
        <time>2022-09-04T08:16:12Z</time>
      </trkpt>
      <trkpt lat="44.80433" lon="6.7977">
        <ele>2438.52</ele>
        <time>2022-09-04T08:16:15Z</time>
      </trkpt>
      <trkpt lat="44.80425" lon="6.79771">
        <ele>2435.64</ele>
        <time>2022-09-04T08:16:25Z</time>
      </trkpt>
      <trkpt lat="44.80418" lon="6.79772">
        <ele>2433.71</ele>
        <time>2022-09-04T08:16:32Z</time>
      </trkpt>
      <trkpt lat="44.80415" lon="6.79772">
        <ele>2433.23</ele>
        <time>2022-09-04T08:16:35Z</time>
      </trkpt>
      <trkpt lat="44.80413" lon="6.79772">
        <ele>2432.75</ele>
        <time>2022-09-04T08:16:36Z</time>
      </trkpt>
      <trkpt lat="44.80412" lon="6.79772">
        <ele>2432.27</ele>
        <time>2022-09-04T08:16:37Z</time>
      </trkpt>
      <trkpt lat="44.80405" lon="6.79773">
        <ele>2431.31</ele>
        <time>2022-09-04T08:16:45Z</time>
      </trkpt>
      <trkpt lat="44.80404" lon="6.79773">
        <ele>2430.83</ele>
        <time>2022-09-04T08:16:46Z</time>
      </trkpt>
      <trkpt lat="44.80403" lon="6.79773">
        <ele>2430.83</ele>
        <time>2022-09-04T08:16:47Z</time>
      </trkpt>
      <trkpt lat="44.80401" lon="6.79772">
        <ele>2429.87</ele>
        <time>2022-09-04T08:16:50Z</time>
      </trkpt>
      <trkpt lat="44.80397" lon="6.7977">
        <ele>2429.39</ele>
        <time>2022-09-04T08:16:54Z</time>
      </trkpt>
      <trkpt lat="44.80393" lon="6.79767">
        <ele>2427.47</ele>
        <time>2022-09-04T08:17:00Z</time>
      </trkpt>
      <trkpt lat="44.80392" lon="6.79766">
        <ele>2427.47</ele>
        <time>2022-09-04T08:17:05Z</time>
      </trkpt>
      <trkpt lat="44.80389" lon="6.79764">
        <ele>2427.47</ele>
        <time>2022-09-04T08:17:09Z</time>
      </trkpt>
      <trkpt lat="44.80381" lon="6.79763">
        <ele>2425.06</ele>
        <time>2022-09-04T08:17:20Z</time>
      </trkpt>
      <trkpt lat="44.8038" lon="6.79772">
        <ele>2423.14</ele>
        <time>2022-09-04T08:17:27Z</time>
      </trkpt>
      <trkpt lat="44.80373" lon="6.79772">
        <ele>2421.7</ele>
        <time>2022-09-04T08:17:36Z</time>
      </trkpt>
      <trkpt lat="44.80358" lon="6.79765">
        <ele>2418.81</ele>
        <time>2022-09-04T08:17:50Z</time>
      </trkpt>
      <trkpt lat="44.80353" lon="6.79765">
        <ele>2417.37</ele>
        <time>2022-09-04T08:18:03Z</time>
      </trkpt>
      <trkpt lat="44.80344" lon="6.79758">
        <ele>2415.45</ele>
        <time>2022-09-04T08:18:16Z</time>
      </trkpt>
      <trkpt lat="44.80342" lon="6.79756">
        <ele>2414.97</ele>
        <time>2022-09-04T08:18:20Z</time>
      </trkpt>
      <trkpt lat="44.80336" lon="6.79773">
        <ele>2412.09</ele>
        <time>2022-09-04T08:18:33Z</time>
      </trkpt>
      <trkpt lat="44.80336" lon="6.79773">
        <ele>2411.6</ele>
        <time>2022-09-04T08:18:34Z</time>
      </trkpt>
      <trkpt lat="44.80333" lon="6.79772">
        <ele>2411.12</ele>
        <time>2022-09-04T08:18:37Z</time>
      </trkpt>
      <trkpt lat="44.80329" lon="6.79765">
        <ele>2409.68</ele>
        <time>2022-09-04T08:18:44Z</time>
      </trkpt>
      <trkpt lat="44.80315" lon="6.79751">
        <ele>2406.8</ele>
        <time>2022-09-04T08:18:58Z</time>
      </trkpt>
      <trkpt lat="44.80308" lon="6.79742">
        <ele>2404.39</ele>
        <time>2022-09-04T08:19:06Z</time>
      </trkpt>
      <trkpt lat="44.80299" lon="6.79727">
        <ele>2402.47</ele>
        <time>2022-09-04T08:19:18Z</time>
      </trkpt>
      <trkpt lat="44.80297" lon="6.79723">
        <ele>2401.51</ele>
        <time>2022-09-04T08:19:21Z</time>
      </trkpt>
      <trkpt lat="44.80293" lon="6.79718">
        <ele>2401.51</ele>
        <time>2022-09-04T08:19:27Z</time>
      </trkpt>
      <trkpt lat="44.80287" lon="6.79719">
        <ele>2400.55</ele>
        <time>2022-09-04T08:19:32Z</time>
      </trkpt>
      <trkpt lat="44.80274" lon="6.79722">
        <ele>2396.7</ele>
        <time>2022-09-04T08:19:45Z</time>
      </trkpt>
      <trkpt lat="44.80269" lon="6.79723">
        <ele>2395.26</ele>
        <time>2022-09-04T08:19:52Z</time>
      </trkpt>
      <trkpt lat="44.80264" lon="6.79723">
        <ele>2394.3</ele>
        <time>2022-09-04T08:19:57Z</time>
      </trkpt>
      <trkpt lat="44.80248" lon="6.79715">
        <ele>2390.46</ele>
        <time>2022-09-04T08:20:13Z</time>
      </trkpt>
      <trkpt lat="44.80247" lon="6.79715">
        <ele>2389.97</ele>
        <time>2022-09-04T08:20:14Z</time>
      </trkpt>
      <trkpt lat="44.8024" lon="6.79718">
        <ele>2388.05</ele>
        <time>2022-09-04T08:20:21Z</time>
      </trkpt>
      <trkpt lat="44.80236" lon="6.79717">
        <ele>2387.09</ele>
        <time>2022-09-04T08:20:25Z</time>
      </trkpt>
      <trkpt lat="44.80224" lon="6.79706">
        <ele>2384.69</ele>
        <time>2022-09-04T08:20:38Z</time>
      </trkpt>
      <trkpt lat="44.8022" lon="6.79705">
        <ele>2383.73</ele>
        <time>2022-09-04T08:20:43Z</time>
      </trkpt>
      <trkpt lat="44.80218" lon="6.79697">
        <ele>2382.28</ele>
        <time>2022-09-04T08:20:48Z</time>
      </trkpt>
      <trkpt lat="44.80214" lon="6.79681">
        <ele>2379.88</ele>
        <time>2022-09-04T08:21:01Z</time>
      </trkpt>
      <trkpt lat="44.80211" lon="6.79662">
        <ele>2377</ele>
        <time>2022-09-04T08:21:14Z</time>
      </trkpt>
      <trkpt lat="44.80211" lon="6.79645">
        <ele>2374.59</ele>
        <time>2022-09-04T08:21:27Z</time>
      </trkpt>
      <trkpt lat="44.80207" lon="6.79623">
        <ele>2371.23</ele>
        <time>2022-09-04T08:21:42Z</time>
      </trkpt>
      <trkpt lat="44.80199" lon="6.79607">
        <ele>2368.83</ele>
        <time>2022-09-04T08:21:54Z</time>
      </trkpt>
      <trkpt lat="44.80197" lon="6.79598">
        <ele>2367.38</ele>
        <time>2022-09-04T08:22:00Z</time>
      </trkpt>
      <trkpt lat="44.80198" lon="6.79588">
        <ele>2365.94</ele>
        <time>2022-09-04T08:22:07Z</time>
      </trkpt>
      <trkpt lat="44.80188" lon="6.79589">
        <ele>2364.5</ele>
        <time>2022-09-04T08:22:17Z</time>
      </trkpt>
      <trkpt lat="44.80184" lon="6.79593">
        <ele>2363.54</ele>
        <time>2022-09-04T08:22:22Z</time>
      </trkpt>
      <trkpt lat="44.80179" lon="6.79591">
        <ele>2361.14</ele>
        <time>2022-09-04T08:22:27Z</time>
      </trkpt>
      <trkpt lat="44.80178" lon="6.79569">
        <ele>2359.21</ele>
        <time>2022-09-04T08:22:41Z</time>
      </trkpt>
      <trkpt lat="44.80177" lon="6.79569">
        <ele>2359.21</ele>
        <time>2022-09-04T08:22:42Z</time>
      </trkpt>
      <trkpt lat="44.80168" lon="6.79585">
        <ele>2356.81</ele>
        <time>2022-09-04T08:22:55Z</time>
      </trkpt>
      <trkpt lat="44.80167" lon="6.79587">
        <ele>2356.81</ele>
        <time>2022-09-04T08:22:57Z</time>
      </trkpt>
      <trkpt lat="44.8016" lon="6.79598">
        <ele>2354.41</ele>
        <time>2022-09-04T08:23:07Z</time>
      </trkpt>
      <trkpt lat="44.80157" lon="6.79595">
        <ele>2353.44</ele>
        <time>2022-09-04T08:23:11Z</time>
      </trkpt>
      <trkpt lat="44.80152" lon="6.79577">
        <ele>2351.52</ele>
        <time>2022-09-04T08:23:24Z</time>
      </trkpt>
      <trkpt lat="44.80151" lon="6.79576">
        <ele>2351.04</ele>
        <time>2022-09-04T08:23:26Z</time>
      </trkpt>
      <trkpt lat="44.80144" lon="6.79592">
        <ele>2349.12</ele>
        <time>2022-09-04T08:23:39Z</time>
      </trkpt>
      <trkpt lat="44.80138" lon="6.79612">
        <ele>2345.75</ele>
        <time>2022-09-04T08:23:53Z</time>
      </trkpt>
      <trkpt lat="44.80138" lon="6.79613">
        <ele>2345.75</ele>
        <time>2022-09-04T08:23:54Z</time>
      </trkpt>
      <trkpt lat="44.80137" lon="6.79617">
        <ele>2345.75</ele>
        <time>2022-09-04T08:23:57Z</time>
      </trkpt>
      <trkpt lat="44.80132" lon="6.79608">
        <ele>2343.83</ele>
        <time>2022-09-04T08:24:04Z</time>
      </trkpt>
      <trkpt lat="44.80128" lon="6.79597">
        <ele>2342.87</ele>
        <time>2022-09-04T08:24:12Z</time>
      </trkpt>
      <trkpt lat="44.80127" lon="6.79594">
        <ele>2342.39</ele>
        <time>2022-09-04T08:24:14Z</time>
      </trkpt>
      <trkpt lat="44.80126" lon="6.79588">
        <ele>2341.91</ele>
        <time>2022-09-04T08:24:18Z</time>
      </trkpt>
      <trkpt lat="44.80124" lon="6.7957">
        <ele>2339.51</ele>
        <time>2022-09-04T08:24:30Z</time>
      </trkpt>
      <trkpt lat="44.80122" lon="6.79557">
        <ele>2338.06</ele>
        <time>2022-09-04T08:24:41Z</time>
      </trkpt>
      <trkpt lat="44.80121" lon="6.79555">
        <ele>2337.1</ele>
        <time>2022-09-04T08:24:49Z</time>
      </trkpt>
      <trkpt lat="44.80126" lon="6.79535">
        <ele>2334.7</ele>
        <time>2022-09-04T08:25:03Z</time>
      </trkpt>
      <trkpt lat="44.80129" lon="6.79528">
        <ele>2334.7</ele>
        <time>2022-09-04T08:25:08Z</time>
      </trkpt>
      <trkpt lat="44.80136" lon="6.79511">
        <ele>2334.7</ele>
        <time>2022-09-04T08:25:22Z</time>
      </trkpt>
      <trkpt lat="44.80137" lon="6.7951">
        <ele>2334.7</ele>
        <time>2022-09-04T08:25:24Z</time>
      </trkpt>
      <trkpt lat="44.80139" lon="6.79504">
        <ele>2334.7</ele>
        <time>2022-09-04T08:25:28Z</time>
      </trkpt>
      <trkpt lat="44.80142" lon="6.79502">
        <ele>2334.7</ele>
        <time>2022-09-04T08:25:32Z</time>
      </trkpt>
      <trkpt lat="44.80143" lon="6.79489">
        <ele>2336.14</ele>
        <time>2022-09-04T08:25:44Z</time>
      </trkpt>
      <trkpt lat="44.80141" lon="6.79482">
        <ele>2336.14</ele>
        <time>2022-09-04T08:25:54Z</time>
      </trkpt>
      <trkpt lat="44.80136" lon="6.79479">
        <ele>2336.14</ele>
        <time>2022-09-04T08:26:02Z</time>
      </trkpt>
      <trkpt lat="44.80137" lon="6.79475">
        <ele>2336.14</ele>
        <time>2022-09-04T08:26:16Z</time>
      </trkpt>
      <trkpt lat="44.80139" lon="6.79478">
        <ele>2336.14</ele>
        <time>2022-09-04T08:26:37Z</time>
      </trkpt>
      <trkpt lat="44.80138" lon="6.79468">
        <ele>2336.14</ele>
        <time>2022-09-04T08:27:05Z</time>
      </trkpt>
      <trkpt lat="44.80138" lon="6.79474">
        <ele>2336.14</ele>
        <time>2022-09-04T08:27:31Z</time>
      </trkpt>
      <trkpt lat="44.80138" lon="6.79469">
        <ele>2336.14</ele>
        <time>2022-09-04T08:27:55Z</time>
      </trkpt>
      <trkpt lat="44.80137" lon="6.79475">
        <ele>2336.14</ele>
        <time>2022-09-04T08:28:29Z</time>
      </trkpt>
      <trkpt lat="44.80136" lon="6.79473">
        <ele>2336.62</ele>
        <time>2022-09-04T08:29:00Z</time>
      </trkpt>
      <trkpt lat="44.80137" lon="6.79473">
        <ele>2336.62</ele>
        <time>2022-09-04T08:29:38Z</time>
      </trkpt>
      <trkpt lat="44.80138" lon="6.79474">
        <ele>2336.62</ele>
        <time>2022-09-04T08:30:12Z</time>
      </trkpt>
      <trkpt lat="44.80137" lon="6.79475">
        <ele>2336.62</ele>
        <time>2022-09-04T08:30:45Z</time>
      </trkpt>
      <trkpt lat="44.80138" lon="6.79474">
        <ele>2336.62</ele>
        <time>2022-09-04T08:31:18Z</time>
      </trkpt>
      <trkpt lat="44.80138" lon="6.79476">
        <ele>2335.18</ele>
        <time>2022-09-04T08:31:56Z</time>
      </trkpt>
      <trkpt lat="44.80137" lon="6.79476">
        <ele>2335.18</ele>
        <time>2022-09-04T08:32:31Z</time>
      </trkpt>
      <trkpt lat="44.80137" lon="6.79472">
        <ele>2335.18</ele>
        <time>2022-09-04T08:33:07Z</time>
      </trkpt>
      <trkpt lat="44.80134" lon="6.7947">
        <ele>2335.66</ele>
        <time>2022-09-04T08:33:13Z</time>
      </trkpt>
      <trkpt lat="44.80128" lon="6.79468">
        <ele>2336.62</ele>
        <time>2022-09-04T08:33:22Z</time>
      </trkpt>
      <trkpt lat="44.80117" lon="6.79457">
        <ele>2337.1</ele>
        <time>2022-09-04T08:33:35Z</time>
      </trkpt>
      <trkpt lat="44.80113" lon="6.79452">
        <ele>2338.06</ele>
        <time>2022-09-04T08:33:40Z</time>
      </trkpt>
      <trkpt lat="44.8011" lon="6.79452">
        <ele>2338.06</ele>
        <time>2022-09-04T08:33:43Z</time>
      </trkpt>
      <trkpt lat="44.80104" lon="6.7945">
        <ele>2338.54</ele>
        <time>2022-09-04T08:33:48Z</time>
      </trkpt>
      <trkpt lat="44.80104" lon="6.79446">
        <ele>2338.54</ele>
        <time>2022-09-04T08:33:52Z</time>
      </trkpt>
      <trkpt lat="44.801" lon="6.79444">
        <ele>2339.02</ele>
        <time>2022-09-04T08:33:56Z</time>
      </trkpt>
      <trkpt lat="44.80095" lon="6.79439">
        <ele>2339.99</ele>
        <time>2022-09-04T08:34:02Z</time>
      </trkpt>
      <trkpt lat="44.80092" lon="6.79438">
        <ele>2340.47</ele>
        <time>2022-09-04T08:34:07Z</time>
      </trkpt>
      <trkpt lat="44.80081" lon="6.79441">
        <ele>2340.95</ele>
        <time>2022-09-04T08:34:18Z</time>
      </trkpt>
      <trkpt lat="44.80078" lon="6.7944">
        <ele>2341.43</ele>
        <time>2022-09-04T08:34:21Z</time>
      </trkpt>
      <trkpt lat="44.80065" lon="6.79436">
        <ele>2342.39</ele>
        <time>2022-09-04T08:34:34Z</time>
      </trkpt>
      <trkpt lat="44.80052" lon="6.79429">
        <ele>2341.91</ele>
        <time>2022-09-04T08:34:47Z</time>
      </trkpt>
      <trkpt lat="44.80051" lon="6.79429">
        <ele>2341.91</ele>
        <time>2022-09-04T08:34:48Z</time>
      </trkpt>
      <trkpt lat="44.80042" lon="6.79428">
        <ele>2341.91</ele>
        <time>2022-09-04T08:34:56Z</time>
      </trkpt>
      <trkpt lat="44.80036" lon="6.79425">
        <ele>2340.47</ele>
        <time>2022-09-04T08:35:02Z</time>
      </trkpt>
      <trkpt lat="44.80027" lon="6.79412">
        <ele>2340.47</ele>
        <time>2022-09-04T08:35:14Z</time>
      </trkpt>
      <trkpt lat="44.80026" lon="6.79411">
        <ele>2340.47</ele>
        <time>2022-09-04T08:35:16Z</time>
      </trkpt>
      <trkpt lat="44.80015" lon="6.79406">
        <ele>2339.51</ele>
        <time>2022-09-04T08:35:28Z</time>
      </trkpt>
      <trkpt lat="44.80011" lon="6.7941">
        <ele>2340.95</ele>
        <time>2022-09-04T08:35:34Z</time>
      </trkpt>
      <trkpt lat="44.80006" lon="6.79412">
        <ele>2341.91</ele>
        <time>2022-09-04T08:35:38Z</time>
      </trkpt>
      <trkpt lat="44.79993" lon="6.79409">
        <ele>2342.87</ele>
        <time>2022-09-04T08:35:51Z</time>
      </trkpt>
      <trkpt lat="44.79981" lon="6.79407">
        <ele>2343.35</ele>
        <time>2022-09-04T08:36:03Z</time>
      </trkpt>
      <trkpt lat="44.7997" lon="6.79402">
        <ele>2343.83</ele>
        <time>2022-09-04T08:36:14Z</time>
      </trkpt>
      <trkpt lat="44.79959" lon="6.79394">
        <ele>2344.31</ele>
        <time>2022-09-04T08:36:28Z</time>
      </trkpt>
      <trkpt lat="44.79953" lon="6.79389">
        <ele>2345.75</ele>
        <time>2022-09-04T08:36:36Z</time>
      </trkpt>
      <trkpt lat="44.79939" lon="6.79385">
        <ele>2345.75</ele>
        <time>2022-09-04T08:36:50Z</time>
      </trkpt>
      <trkpt lat="44.79931" lon="6.79383">
        <ele>2345.75</ele>
        <time>2022-09-04T08:36:57Z</time>
      </trkpt>
      <trkpt lat="44.79921" lon="6.79378">
        <ele>2345.75</ele>
        <time>2022-09-04T08:37:08Z</time>
      </trkpt>
      <trkpt lat="44.79916" lon="6.79368">
        <ele>2345.75</ele>
        <time>2022-09-04T08:37:17Z</time>
      </trkpt>
      <trkpt lat="44.79905" lon="6.79353">
        <ele>2343.83</ele>
        <time>2022-09-04T08:37:31Z</time>
      </trkpt>
      <trkpt lat="44.79901" lon="6.79347">
        <ele>2343.35</ele>
        <time>2022-09-04T08:37:36Z</time>
      </trkpt>
      <trkpt lat="44.79887" lon="6.79333">
        <ele>2341.91</ele>
        <time>2022-09-04T08:37:49Z</time>
      </trkpt>
      <trkpt lat="44.79884" lon="6.79332">
        <ele>2343.83</ele>
        <time>2022-09-04T08:37:52Z</time>
      </trkpt>
      <trkpt lat="44.79881" lon="6.79335">
        <ele>2343.83</ele>
        <time>2022-09-04T08:38:05Z</time>
      </trkpt>
      <trkpt lat="44.79882" lon="6.79336">
        <ele>2343.83</ele>
        <time>2022-09-04T08:38:14Z</time>
      </trkpt>
      <trkpt lat="44.7988" lon="6.79335">
        <ele>2343.83</ele>
        <time>2022-09-04T08:38:17Z</time>
      </trkpt>
      <trkpt lat="44.79866" lon="6.79326">
        <ele>2344.79</ele>
        <time>2022-09-04T08:38:30Z</time>
      </trkpt>
      <trkpt lat="44.79864" lon="6.79322">
        <ele>2345.27</ele>
        <time>2022-09-04T08:38:33Z</time>
      </trkpt>
      <trkpt lat="44.79863" lon="6.79321">
        <ele>2345.27</ele>
        <time>2022-09-04T08:38:35Z</time>
      </trkpt>
      <trkpt lat="44.79848" lon="6.79314">
        <ele>2345.75</ele>
        <time>2022-09-04T08:38:49Z</time>
      </trkpt>
      <trkpt lat="44.7984" lon="6.79314">
        <ele>2343.83</ele>
        <time>2022-09-04T08:38:54Z</time>
      </trkpt>
      <trkpt lat="44.79826" lon="6.7931">
        <ele>2343.83</ele>
        <time>2022-09-04T08:39:05Z</time>
      </trkpt>
      <trkpt lat="44.79819" lon="6.79307">
        <ele>2343.83</ele>
        <time>2022-09-04T08:39:11Z</time>
      </trkpt>
      <trkpt lat="44.79812" lon="6.79298">
        <ele>2343.83</ele>
        <time>2022-09-04T08:39:20Z</time>
      </trkpt>
      <trkpt lat="44.79801" lon="6.79293">
        <ele>2343.83</ele>
        <time>2022-09-04T08:39:31Z</time>
      </trkpt>
      <trkpt lat="44.79795" lon="6.79289">
        <ele>2345.27</ele>
        <time>2022-09-04T08:39:36Z</time>
      </trkpt>
      <trkpt lat="44.79783" lon="6.79281">
        <ele>2345.27</ele>
        <time>2022-09-04T08:39:49Z</time>
      </trkpt>
      <trkpt lat="44.79775" lon="6.79275">
        <ele>2345.75</ele>
        <time>2022-09-04T08:39:59Z</time>
      </trkpt>
      <trkpt lat="44.79762" lon="6.7928">
        <ele>2345.75</ele>
        <time>2022-09-04T08:40:11Z</time>
      </trkpt>
      <trkpt lat="44.79751" lon="6.79287">
        <ele>2347.2</ele>
        <time>2022-09-04T08:40:24Z</time>
      </trkpt>
      <trkpt lat="44.7975" lon="6.79289">
        <ele>2347.68</ele>
        <time>2022-09-04T08:40:26Z</time>
      </trkpt>
      <trkpt lat="44.79743" lon="6.79293">
        <ele>2348.16</ele>
        <time>2022-09-04T08:40:41Z</time>
      </trkpt>
      <trkpt lat="44.79728" lon="6.793">
        <ele>2348.16</ele>
        <time>2022-09-04T08:40:54Z</time>
      </trkpt>
      <trkpt lat="44.7972" lon="6.79301">
        <ele>2348.16</ele>
        <time>2022-09-04T08:41:03Z</time>
      </trkpt>
      <trkpt lat="44.79705" lon="6.79299">
        <ele>2348.64</ele>
        <time>2022-09-04T08:41:16Z</time>
      </trkpt>
      <trkpt lat="44.79704" lon="6.79298">
        <ele>2349.12</ele>
        <time>2022-09-04T08:41:17Z</time>
      </trkpt>
      <trkpt lat="44.79693" lon="6.79295">
        <ele>2350.56</ele>
        <time>2022-09-04T08:41:30Z</time>
      </trkpt>
      <trkpt lat="44.79692" lon="6.79292">
        <ele>2348.64</ele>
        <time>2022-09-04T08:41:38Z</time>
      </trkpt>
      <trkpt lat="44.79694" lon="6.79295">
        <ele>2350.56</ele>
        <time>2022-09-04T08:41:40Z</time>
      </trkpt>
      <trkpt lat="44.79699" lon="6.793">
        <ele>2350.56</ele>
        <time>2022-09-04T08:41:54Z</time>
      </trkpt>
      <trkpt lat="44.79696" lon="6.79297">
        <ele>2350.56</ele>
        <time>2022-09-04T08:41:59Z</time>
      </trkpt>
      <trkpt lat="44.79694" lon="6.79294">
        <ele>2348.64</ele>
        <time>2022-09-04T08:42:02Z</time>
      </trkpt>
      <trkpt lat="44.79689" lon="6.79278">
        <ele>2346.23</ele>
        <time>2022-09-04T08:42:15Z</time>
      </trkpt>
      <trkpt lat="44.79687" lon="6.79266">
        <ele>2345.75</ele>
        <time>2022-09-04T08:42:23Z</time>
      </trkpt>
      <trkpt lat="44.79685" lon="6.79256">
        <ele>2345.27</ele>
        <time>2022-09-04T08:42:30Z</time>
      </trkpt>
      <trkpt lat="44.79678" lon="6.79237">
        <ele>2342.39</ele>
        <time>2022-09-04T08:42:44Z</time>
      </trkpt>
      <trkpt lat="44.79674" lon="6.79218">
        <ele>2340.47</ele>
        <time>2022-09-04T08:42:56Z</time>
      </trkpt>
      <trkpt lat="44.79663" lon="6.79208">
        <ele>2339.99</ele>
        <time>2022-09-04T08:43:08Z</time>
      </trkpt>
      <trkpt lat="44.79661" lon="6.79206">
        <ele>2339.99</ele>
        <time>2022-09-04T08:43:10Z</time>
      </trkpt>
      <trkpt lat="44.79657" lon="6.79198">
        <ele>2338.54</ele>
        <time>2022-09-04T08:43:15Z</time>
      </trkpt>
      <trkpt lat="44.79648" lon="6.79179">
        <ele>2337.1</ele>
        <time>2022-09-04T08:43:30Z</time>
      </trkpt>
      <trkpt lat="44.79644" lon="6.79174">
        <ele>2337.1</ele>
        <time>2022-09-04T08:43:34Z</time>
      </trkpt>
      <trkpt lat="44.79634" lon="6.79156">
        <ele>2336.14</ele>
        <time>2022-09-04T08:43:48Z</time>
      </trkpt>
      <trkpt lat="44.79628" lon="6.79143">
        <ele>2337.58</ele>
        <time>2022-09-04T08:43:59Z</time>
      </trkpt>
      <trkpt lat="44.79626" lon="6.79143">
        <ele>2337.58</ele>
        <time>2022-09-04T08:44:00Z</time>
      </trkpt>
      <trkpt lat="44.79615" lon="6.79136">
        <ele>2338.54</ele>
        <time>2022-09-04T08:44:12Z</time>
      </trkpt>
      <trkpt lat="44.7961" lon="6.79125">
        <ele>2338.54</ele>
        <time>2022-09-04T08:44:21Z</time>
      </trkpt>
      <trkpt lat="44.796" lon="6.79112">
        <ele>2338.54</ele>
        <time>2022-09-04T08:44:32Z</time>
      </trkpt>
      <trkpt lat="44.79598" lon="6.7911">
        <ele>2339.51</ele>
        <time>2022-09-04T08:44:35Z</time>
      </trkpt>
      <trkpt lat="44.79585" lon="6.79106">
        <ele>2340.95</ele>
        <time>2022-09-04T08:44:47Z</time>
      </trkpt>
      <trkpt lat="44.79575" lon="6.79099">
        <ele>2340.95</ele>
        <time>2022-09-04T08:44:59Z</time>
      </trkpt>
      <trkpt lat="44.79564" lon="6.79097">
        <ele>2341.43</ele>
        <time>2022-09-04T08:45:10Z</time>
      </trkpt>
      <trkpt lat="44.7956" lon="6.79095">
        <ele>2341.91</ele>
        <time>2022-09-04T08:45:15Z</time>
      </trkpt>
      <trkpt lat="44.79556" lon="6.79094">
        <ele>2342.87</ele>
        <time>2022-09-04T08:45:19Z</time>
      </trkpt>
      <trkpt lat="44.79551" lon="6.79091">
        <ele>2343.35</ele>
        <time>2022-09-04T08:45:26Z</time>
      </trkpt>
      <trkpt lat="44.79541" lon="6.79082">
        <ele>2344.79</ele>
        <time>2022-09-04T08:45:39Z</time>
      </trkpt>
      <trkpt lat="44.79539" lon="6.79081">
        <ele>2345.75</ele>
        <time>2022-09-04T08:45:41Z</time>
      </trkpt>
      <trkpt lat="44.79533" lon="6.79075">
        <ele>2347.68</ele>
        <time>2022-09-04T08:45:52Z</time>
      </trkpt>
      <trkpt lat="44.79526" lon="6.7907">
        <ele>2348.64</ele>
        <time>2022-09-04T08:46:05Z</time>
      </trkpt>
      <trkpt lat="44.79513" lon="6.79065">
        <ele>2349.6</ele>
        <time>2022-09-04T08:46:17Z</time>
      </trkpt>
      <trkpt lat="44.79504" lon="6.79062">
        <ele>2350.08</ele>
        <time>2022-09-04T08:46:27Z</time>
      </trkpt>
      <trkpt lat="44.795" lon="6.7906">
        <ele>2351.52</ele>
        <time>2022-09-04T08:46:33Z</time>
      </trkpt>
      <trkpt lat="44.79496" lon="6.79059">
        <ele>2352</ele>
        <time>2022-09-04T08:46:37Z</time>
      </trkpt>
      <trkpt lat="44.79494" lon="6.79058">
        <ele>2352.48</ele>
        <time>2022-09-04T08:46:40Z</time>
      </trkpt>
      <trkpt lat="44.79481" lon="6.79052">
        <ele>2352.48</ele>
        <time>2022-09-04T08:46:53Z</time>
      </trkpt>
      <trkpt lat="44.79468" lon="6.79045">
        <ele>2352.48</ele>
        <time>2022-09-04T08:47:06Z</time>
      </trkpt>
      <trkpt lat="44.79461" lon="6.79035">
        <ele>2351.04</ele>
        <time>2022-09-04T08:47:14Z</time>
      </trkpt>
      <trkpt lat="44.79451" lon="6.79025">
        <ele>2351.04</ele>
        <time>2022-09-04T08:47:26Z</time>
      </trkpt>
      <trkpt lat="44.79448" lon="6.79022">
        <ele>2351.04</ele>
        <time>2022-09-04T08:47:29Z</time>
      </trkpt>
      <trkpt lat="44.79446" lon="6.79021">
        <ele>2351.04</ele>
        <time>2022-09-04T08:47:31Z</time>
      </trkpt>
      <trkpt lat="44.79439" lon="6.79014">
        <ele>2352.48</ele>
        <time>2022-09-04T08:47:40Z</time>
      </trkpt>
      <trkpt lat="44.79431" lon="6.79001">
        <ele>2352.96</ele>
        <time>2022-09-04T08:47:51Z</time>
      </trkpt>
      <trkpt lat="44.79421" lon="6.78988">
        <ele>2352.96</ele>
        <time>2022-09-04T08:48:03Z</time>
      </trkpt>
      <trkpt lat="44.79412" lon="6.78978">
        <ele>2352.96</ele>
        <time>2022-09-04T08:48:15Z</time>
      </trkpt>
      <trkpt lat="44.7941" lon="6.78975">
        <ele>2351.04</ele>
        <time>2022-09-04T08:48:18Z</time>
      </trkpt>
      <trkpt lat="44.79407" lon="6.78967">
        <ele>2350.56</ele>
        <time>2022-09-04T08:48:24Z</time>
      </trkpt>
      <trkpt lat="44.79405" lon="6.78964">
        <ele>2350.56</ele>
        <time>2022-09-04T08:48:27Z</time>
      </trkpt>
      <trkpt lat="44.79391" lon="6.78947">
        <ele>2349.6</ele>
        <time>2022-09-04T08:48:42Z</time>
      </trkpt>
      <trkpt lat="44.79391" lon="6.78947">
        <ele>2349.6</ele>
        <time>2022-09-04T08:48:43Z</time>
      </trkpt>
      <trkpt lat="44.79386" lon="6.78935">
        <ele>2347.68</ele>
        <time>2022-09-04T08:48:52Z</time>
      </trkpt>
      <trkpt lat="44.79377" lon="6.78924">
        <ele>2347.68</ele>
        <time>2022-09-04T08:49:05Z</time>
      </trkpt>
      <trkpt lat="44.79368" lon="6.78911">
        <ele>2345.75</ele>
        <time>2022-09-04T08:49:17Z</time>
      </trkpt>
      <trkpt lat="44.79364" lon="6.78902">
        <ele>2344.79</ele>
        <time>2022-09-04T08:49:24Z</time>
      </trkpt>
      <trkpt lat="44.79356" lon="6.78892">
        <ele>2342.87</ele>
        <time>2022-09-04T08:49:34Z</time>
      </trkpt>
      <trkpt lat="44.79344" lon="6.78878">
        <ele>2340.95</ele>
        <time>2022-09-04T08:49:46Z</time>
      </trkpt>
      <trkpt lat="44.79338" lon="6.78874">
        <ele>2339.99</ele>
        <time>2022-09-04T08:49:52Z</time>
      </trkpt>
      <trkpt lat="44.79332" lon="6.78867">
        <ele>2338.54</ele>
        <time>2022-09-04T08:49:59Z</time>
      </trkpt>
      <trkpt lat="44.79317" lon="6.78869">
        <ele>2338.06</ele>
        <time>2022-09-04T08:50:12Z</time>
      </trkpt>
      <trkpt lat="44.79312" lon="6.7887">
        <ele>2339.51</ele>
        <time>2022-09-04T08:50:16Z</time>
      </trkpt>
      <trkpt lat="44.7931" lon="6.78869">
        <ele>2340.47</ele>
        <time>2022-09-04T08:50:19Z</time>
      </trkpt>
      <trkpt lat="44.79295" lon="6.78869">
        <ele>2340.47</ele>
        <time>2022-09-04T08:50:32Z</time>
      </trkpt>
      <trkpt lat="44.79291" lon="6.78871">
        <ele>2340.47</ele>
        <time>2022-09-04T08:50:36Z</time>
      </trkpt>
      <trkpt lat="44.79287" lon="6.78872">
        <ele>2340.95</ele>
        <time>2022-09-04T08:50:40Z</time>
      </trkpt>
      <trkpt lat="44.79276" lon="6.78878">
        <ele>2340.95</ele>
        <time>2022-09-04T08:50:52Z</time>
      </trkpt>
      <trkpt lat="44.79262" lon="6.78884">
        <ele>2340.95</ele>
        <time>2022-09-04T08:51:05Z</time>
      </trkpt>
      <trkpt lat="44.79254" lon="6.78884">
        <ele>2339.99</ele>
        <time>2022-09-04T08:51:13Z</time>
      </trkpt>
      <trkpt lat="44.7924" lon="6.78889">
        <ele>2339.02</ele>
        <time>2022-09-04T08:51:26Z</time>
      </trkpt>
      <trkpt lat="44.79235" lon="6.78892">
        <ele>2339.02</ele>
        <time>2022-09-04T08:51:32Z</time>
      </trkpt>
      <trkpt lat="44.79231" lon="6.78893">
        <ele>2338.54</ele>
        <time>2022-09-04T08:51:35Z</time>
      </trkpt>
      <trkpt lat="44.79223" lon="6.7889">
        <ele>2338.06</ele>
        <time>2022-09-04T08:51:42Z</time>
      </trkpt>
      <trkpt lat="44.79219" lon="6.78891">
        <ele>2338.06</ele>
        <time>2022-09-04T08:51:45Z</time>
      </trkpt>
      <trkpt lat="44.79214" lon="6.78889">
        <ele>2337.58</ele>
        <time>2022-09-04T08:51:50Z</time>
      </trkpt>
      <trkpt lat="44.79204" lon="6.78878">
        <ele>2336.62</ele>
        <time>2022-09-04T08:52:03Z</time>
      </trkpt>
      <trkpt lat="44.79197" lon="6.78864">
        <ele>2335.66</ele>
        <time>2022-09-04T08:52:15Z</time>
      </trkpt>
      <trkpt lat="44.79193" lon="6.78857">
        <ele>2334.7</ele>
        <time>2022-09-04T08:52:21Z</time>
      </trkpt>
      <trkpt lat="44.79178" lon="6.78844">
        <ele>2333.74</ele>
        <time>2022-09-04T08:52:35Z</time>
      </trkpt>
      <trkpt lat="44.79168" lon="6.78827">
        <ele>2331.81</ele>
        <time>2022-09-04T08:52:49Z</time>
      </trkpt>
      <trkpt lat="44.79166" lon="6.78824">
        <ele>2331.81</ele>
        <time>2022-09-04T08:52:52Z</time>
      </trkpt>
      <trkpt lat="44.79157" lon="6.78809">
        <ele>2329.89</ele>
        <time>2022-09-04T08:53:05Z</time>
      </trkpt>
      <trkpt lat="44.79143" lon="6.78801">
        <ele>2328.93</ele>
        <time>2022-09-04T08:53:18Z</time>
      </trkpt>
      <trkpt lat="44.79131" lon="6.78791">
        <ele>2327.01</ele>
        <time>2022-09-04T08:53:30Z</time>
      </trkpt>
      <trkpt lat="44.79129" lon="6.78787">
        <ele>2326.53</ele>
        <time>2022-09-04T08:53:33Z</time>
      </trkpt>
      <trkpt lat="44.79117" lon="6.78782">
        <ele>2326.05</ele>
        <time>2022-09-04T08:53:44Z</time>
      </trkpt>
      <trkpt lat="44.79108" lon="6.78776">
        <ele>2324.12</ele>
        <time>2022-09-04T08:53:53Z</time>
      </trkpt>
      <trkpt lat="44.79104" lon="6.78767">
        <ele>2322.68</ele>
        <time>2022-09-04T08:54:00Z</time>
      </trkpt>
      <trkpt lat="44.79104" lon="6.78765">
        <ele>2321.72</ele>
        <time>2022-09-04T08:54:02Z</time>
      </trkpt>
      <trkpt lat="44.79099" lon="6.78748">
        <ele>2319.32</ele>
        <time>2022-09-04T08:54:14Z</time>
      </trkpt>
      <trkpt lat="44.79098" lon="6.78741">
        <ele>2317.88</ele>
        <time>2022-09-04T08:54:24Z</time>
      </trkpt>
      <trkpt lat="44.79097" lon="6.78737">
        <ele>2317.4</ele>
        <time>2022-09-04T08:54:35Z</time>
      </trkpt>
      <trkpt lat="44.79092" lon="6.78717">
        <ele>2314.03</ele>
        <time>2022-09-04T08:54:48Z</time>
      </trkpt>
      <trkpt lat="44.79085" lon="6.78697">
        <ele>2312.59</ele>
        <time>2022-09-04T08:55:01Z</time>
      </trkpt>
      <trkpt lat="44.79076" lon="6.78684">
        <ele>2310.19</ele>
        <time>2022-09-04T08:55:13Z</time>
      </trkpt>
      <trkpt lat="44.79068" lon="6.78675">
        <ele>2309.7</ele>
        <time>2022-09-04T08:55:22Z</time>
      </trkpt>
      <trkpt lat="44.79061" lon="6.78668">
        <ele>2308.26</ele>
        <time>2022-09-04T08:55:30Z</time>
      </trkpt>
      <trkpt lat="44.79049" lon="6.78663">
        <ele>2305.86</ele>
        <time>2022-09-04T08:55:41Z</time>
      </trkpt>
      <trkpt lat="44.79033" lon="6.78649">
        <ele>2303.46</ele>
        <time>2022-09-04T08:55:57Z</time>
      </trkpt>
      <trkpt lat="44.79031" lon="6.78646">
        <ele>2302.98</ele>
        <time>2022-09-04T08:56:00Z</time>
      </trkpt>
      <trkpt lat="44.7902" lon="6.78638">
        <ele>2301.05</ele>
        <time>2022-09-04T08:56:11Z</time>
      </trkpt>
      <trkpt lat="44.79007" lon="6.78631">
        <ele>2298.65</ele>
        <time>2022-09-04T08:56:23Z</time>
      </trkpt>
      <trkpt lat="44.79003" lon="6.78627">
        <ele>2298.17</ele>
        <time>2022-09-04T08:56:28Z</time>
      </trkpt>
      <trkpt lat="44.78998" lon="6.78625">
        <ele>2297.69</ele>
        <time>2022-09-04T08:56:32Z</time>
      </trkpt>
      <trkpt lat="44.78993" lon="6.78622">
        <ele>2297.21</ele>
        <time>2022-09-04T08:56:37Z</time>
      </trkpt>
      <trkpt lat="44.7899" lon="6.78624">
        <ele>2297.21</ele>
        <time>2022-09-04T08:56:40Z</time>
      </trkpt>
      <trkpt lat="44.7898" lon="6.78624">
        <ele>2293.84</ele>
        <time>2022-09-04T08:56:50Z</time>
      </trkpt>
      <trkpt lat="44.78969" lon="6.7862">
        <ele>2290.96</ele>
        <time>2022-09-04T08:57:01Z</time>
      </trkpt>
      <trkpt lat="44.78968" lon="6.78621">
        <ele>2290.96</ele>
        <time>2022-09-04T08:57:03Z</time>
      </trkpt>
      <trkpt lat="44.78962" lon="6.78625">
        <ele>2289.52</ele>
        <time>2022-09-04T08:57:11Z</time>
      </trkpt>
      <trkpt lat="44.78953" lon="6.78622">
        <ele>2287.59</ele>
        <time>2022-09-04T08:57:20Z</time>
      </trkpt>
      <trkpt lat="44.78946" lon="6.78619">
        <ele>2286.15</ele>
        <time>2022-09-04T08:57:29Z</time>
      </trkpt>
      <trkpt lat="44.78946" lon="6.78627">
        <ele>2284.23</ele>
        <time>2022-09-04T08:57:37Z</time>
      </trkpt>
      <trkpt lat="44.78947" lon="6.78629">
        <ele>2283.75</ele>
        <time>2022-09-04T08:57:39Z</time>
      </trkpt>
      <trkpt lat="44.78946" lon="6.78636">
        <ele>2281.83</ele>
        <time>2022-09-04T08:57:45Z</time>
      </trkpt>
      <trkpt lat="44.78948" lon="6.7864">
        <ele>2280.87</ele>
        <time>2022-09-04T08:57:49Z</time>
      </trkpt>
      <trkpt lat="44.78956" lon="6.78654">
        <ele>2277.98</ele>
        <time>2022-09-04T08:58:04Z</time>
      </trkpt>
      <trkpt lat="44.78962" lon="6.78667">
        <ele>2275.1</ele>
        <time>2022-09-04T08:58:16Z</time>
      </trkpt>
      <trkpt lat="44.78967" lon="6.78678">
        <ele>2272.21</ele>
        <time>2022-09-04T08:58:27Z</time>
      </trkpt>
      <trkpt lat="44.78964" lon="6.78676">
        <ele>2271.73</ele>
        <time>2022-09-04T08:58:39Z</time>
      </trkpt>
      <trkpt lat="44.78961" lon="6.78676">
        <ele>2271.73</ele>
        <time>2022-09-04T08:59:00Z</time>
      </trkpt>
      <trkpt lat="44.78959" lon="6.78677">
        <ele>2271.25</ele>
        <time>2022-09-04T08:59:25Z</time>
      </trkpt>
      <trkpt lat="44.78958" lon="6.78674">
        <ele>2270.77</ele>
        <time>2022-09-04T08:59:36Z</time>
      </trkpt>
      <trkpt lat="44.78945" lon="6.78665">
        <ele>2269.33</ele>
        <time>2022-09-04T08:59:49Z</time>
      </trkpt>
      <trkpt lat="44.78939" lon="6.7866">
        <ele>2269.33</ele>
        <time>2022-09-04T08:59:55Z</time>
      </trkpt>
      <trkpt lat="44.78929" lon="6.78656">
        <ele>2268.85</ele>
        <time>2022-09-04T09:00:04Z</time>
      </trkpt>
      <trkpt lat="44.78917" lon="6.78644">
        <ele>2268.37</ele>
        <time>2022-09-04T09:00:18Z</time>
      </trkpt>
      <trkpt lat="44.78906" lon="6.78632">
        <ele>2267.41</ele>
        <time>2022-09-04T09:00:30Z</time>
      </trkpt>
      <trkpt lat="44.78901" lon="6.78621">
        <ele>2266.93</ele>
        <time>2022-09-04T09:00:42Z</time>
      </trkpt>
      <trkpt lat="44.78896" lon="6.78608">
        <ele>2265.96</ele>
        <time>2022-09-04T09:00:52Z</time>
      </trkpt>
      <trkpt lat="44.78891" lon="6.78594">
        <ele>2265.96</ele>
        <time>2022-09-04T09:01:01Z</time>
      </trkpt>
      <trkpt lat="44.78883" lon="6.78575">
        <ele>2263.08</ele>
        <time>2022-09-04T09:01:14Z</time>
      </trkpt>
      <trkpt lat="44.78878" lon="6.78555">
        <ele>2262.6</ele>
        <time>2022-09-04T09:01:26Z</time>
      </trkpt>
      <trkpt lat="44.78875" lon="6.78539">
        <ele>2262.12</ele>
        <time>2022-09-04T09:01:36Z</time>
      </trkpt>
      <trkpt lat="44.78871" lon="6.78536">
        <ele>2262.6</ele>
        <time>2022-09-04T09:01:40Z</time>
      </trkpt>
      <trkpt lat="44.78866" lon="6.7853">
        <ele>2262.6</ele>
        <time>2022-09-04T09:01:45Z</time>
      </trkpt>
      <trkpt lat="44.7886" lon="6.78523">
        <ele>2262.6</ele>
        <time>2022-09-04T09:01:52Z</time>
      </trkpt>
      <trkpt lat="44.78852" lon="6.78511">
        <ele>2262.12</ele>
        <time>2022-09-04T09:02:02Z</time>
      </trkpt>
      <trkpt lat="44.78844" lon="6.78503">
        <ele>2262.12</ele>
        <time>2022-09-04T09:02:10Z</time>
      </trkpt>
      <trkpt lat="44.78832" lon="6.7849">
        <ele>2261.64</ele>
        <time>2022-09-04T09:02:23Z</time>
      </trkpt>
      <trkpt lat="44.78824" lon="6.78473">
        <ele>2261.64</ele>
        <time>2022-09-04T09:02:36Z</time>
      </trkpt>
      <trkpt lat="44.78817" lon="6.78453">
        <ele>2259.72</ele>
        <time>2022-09-04T09:02:49Z</time>
      </trkpt>
      <trkpt lat="44.78815" lon="6.78433">
        <ele>2257.79</ele>
        <time>2022-09-04T09:03:02Z</time>
      </trkpt>
      <trkpt lat="44.78808" lon="6.78416">
        <ele>2256.83</ele>
        <time>2022-09-04T09:03:14Z</time>
      </trkpt>
      <trkpt lat="44.788" lon="6.78402">
        <ele>2256.35</ele>
        <time>2022-09-04T09:03:27Z</time>
      </trkpt>
      <trkpt lat="44.78793" lon="6.78389">
        <ele>2253.47</ele>
        <time>2022-09-04T09:03:38Z</time>
      </trkpt>
      <trkpt lat="44.78785" lon="6.78375">
        <ele>2253.47</ele>
        <time>2022-09-04T09:03:49Z</time>
      </trkpt>
      <trkpt lat="44.78784" lon="6.78375">
        <ele>2253.47</ele>
        <time>2022-09-04T09:03:50Z</time>
      </trkpt>
      <trkpt lat="44.78771" lon="6.78371">
        <ele>2253.47</ele>
        <time>2022-09-04T09:04:02Z</time>
      </trkpt>
      <trkpt lat="44.78761" lon="6.78364">
        <ele>2253.47</ele>
        <time>2022-09-04T09:04:12Z</time>
      </trkpt>
      <trkpt lat="44.78756" lon="6.78358">
        <ele>2254.91</ele>
        <time>2022-09-04T09:04:18Z</time>
      </trkpt>
      <trkpt lat="44.78755" lon="6.78358">
        <ele>2255.39</ele>
        <time>2022-09-04T09:04:19Z</time>
      </trkpt>
      <trkpt lat="44.78743" lon="6.7835">
        <ele>2253.95</ele>
        <time>2022-09-04T09:04:31Z</time>
      </trkpt>
      <trkpt lat="44.78729" lon="6.78338">
        <ele>2252.99</ele>
        <time>2022-09-04T09:04:45Z</time>
      </trkpt>
      <trkpt lat="44.7872" lon="6.78331">
        <ele>2252.99</ele>
        <time>2022-09-04T09:04:54Z</time>
      </trkpt>
      <trkpt lat="44.78704" lon="6.78331">
        <ele>2252.99</ele>
        <time>2022-09-04T09:05:07Z</time>
      </trkpt>
      <trkpt lat="44.78697" lon="6.7833">
        <ele>2252.99</ele>
        <time>2022-09-04T09:05:14Z</time>
      </trkpt>
      <trkpt lat="44.78684" lon="6.78328">
        <ele>2252.99</ele>
        <time>2022-09-04T09:05:26Z</time>
      </trkpt>
      <trkpt lat="44.78673" lon="6.78323">
        <ele>2252.99</ele>
        <time>2022-09-04T09:05:38Z</time>
      </trkpt>
      <trkpt lat="44.78672" lon="6.78321">
        <ele>2251.06</ele>
        <time>2022-09-04T09:05:40Z</time>
      </trkpt>
      <trkpt lat="44.78665" lon="6.78311">
        <ele>2249.14</ele>
        <time>2022-09-04T09:05:51Z</time>
      </trkpt>
      <trkpt lat="44.78653" lon="6.78307">
        <ele>2246.74</ele>
        <time>2022-09-04T09:06:02Z</time>
      </trkpt>
      <trkpt lat="44.78651" lon="6.78306">
        <ele>2245.3</ele>
        <time>2022-09-04T09:06:06Z</time>
      </trkpt>
      <trkpt lat="44.78639" lon="6.78299">
        <ele>2241.93</ele>
        <time>2022-09-04T09:06:20Z</time>
      </trkpt>
      <trkpt lat="44.78638" lon="6.78298">
        <ele>2241.45</ele>
        <time>2022-09-04T09:06:22Z</time>
      </trkpt>
      <trkpt lat="44.78628" lon="6.78286">
        <ele>2240.01</ele>
        <time>2022-09-04T09:06:35Z</time>
      </trkpt>
      <trkpt lat="44.78625" lon="6.78277">
        <ele>2239.53</ele>
        <time>2022-09-04T09:06:43Z</time>
      </trkpt>
      <trkpt lat="44.78611" lon="6.78264">
        <ele>2238.09</ele>
        <time>2022-09-04T09:06:58Z</time>
      </trkpt>
      <trkpt lat="44.78604" lon="6.78263">
        <ele>2237.61</ele>
        <time>2022-09-04T09:07:05Z</time>
      </trkpt>
      <trkpt lat="44.78602" lon="6.78261">
        <ele>2236.16</ele>
        <time>2022-09-04T09:07:07Z</time>
      </trkpt>
      <trkpt lat="44.78602" lon="6.78261">
        <ele>2236.16</ele>
        <time>2022-09-04T09:07:09Z</time>
      </trkpt>
      <trkpt lat="44.78601" lon="6.7826">
        <ele>2236.16</ele>
        <time>2022-09-04T09:07:11Z</time>
      </trkpt>
      <trkpt lat="44.78598" lon="6.78259">
        <ele>2236.16</ele>
        <time>2022-09-04T09:07:14Z</time>
      </trkpt>
      <trkpt lat="44.78592" lon="6.78257">
        <ele>2235.68</ele>
        <time>2022-09-04T09:07:19Z</time>
      </trkpt>
      <trkpt lat="44.78588" lon="6.78253">
        <ele>2234.24</ele>
        <time>2022-09-04T09:07:24Z</time>
      </trkpt>
      <trkpt lat="44.78581" lon="6.78247">
        <ele>2232.8</ele>
        <time>2022-09-04T09:07:32Z</time>
      </trkpt>
      <trkpt lat="44.78571" lon="6.78237">
        <ele>2231.84</ele>
        <time>2022-09-04T09:07:44Z</time>
      </trkpt>
      <trkpt lat="44.78568" lon="6.78235">
        <ele>2230.88</ele>
        <time>2022-09-04T09:07:48Z</time>
      </trkpt>
      <trkpt lat="44.78554" lon="6.78232">
        <ele>2228.47</ele>
        <time>2022-09-04T09:08:01Z</time>
      </trkpt>
      <trkpt lat="44.78545" lon="6.78229">
        <ele>2228.47</ele>
        <time>2022-09-04T09:08:10Z</time>
      </trkpt>
      <trkpt lat="44.78542" lon="6.78221">
        <ele>2227.03</ele>
        <time>2022-09-04T09:08:17Z</time>
      </trkpt>
      <trkpt lat="44.78541" lon="6.78219">
        <ele>2226.07</ele>
        <time>2022-09-04T09:08:19Z</time>
      </trkpt>
      <trkpt lat="44.78538" lon="6.78213">
        <ele>2226.07</ele>
        <time>2022-09-04T09:08:24Z</time>
      </trkpt>
      <trkpt lat="44.78538" lon="6.78211">
        <ele>2225.11</ele>
        <time>2022-09-04T09:08:26Z</time>
      </trkpt>
      <trkpt lat="44.78528" lon="6.78198">
        <ele>2223.67</ele>
        <time>2022-09-04T09:08:38Z</time>
      </trkpt>
      <trkpt lat="44.78526" lon="6.78196">
        <ele>2223.67</ele>
        <time>2022-09-04T09:08:41Z</time>
      </trkpt>
      <trkpt lat="44.7852" lon="6.78184">
        <ele>2221.26</ele>
        <time>2022-09-04T09:08:53Z</time>
      </trkpt>
      <trkpt lat="44.78516" lon="6.78175">
        <ele>2220.78</ele>
        <time>2022-09-04T09:09:00Z</time>
      </trkpt>
      <trkpt lat="44.7851" lon="6.78171">
        <ele>2218.86</ele>
        <time>2022-09-04T09:09:08Z</time>
      </trkpt>
      <trkpt lat="44.785" lon="6.78159">
        <ele>2215.98</ele>
        <time>2022-09-04T09:09:21Z</time>
      </trkpt>
      <trkpt lat="44.78499" lon="6.78157">
        <ele>2215.98</ele>
        <time>2022-09-04T09:09:23Z</time>
      </trkpt>
      <trkpt lat="44.78495" lon="6.78149">
        <ele>2215.01</ele>
        <time>2022-09-04T09:09:30Z</time>
      </trkpt>
      <trkpt lat="44.78491" lon="6.78145">
        <ele>2214.05</ele>
        <time>2022-09-04T09:09:37Z</time>
      </trkpt>
      <trkpt lat="44.78477" lon="6.78144">
        <ele>2211.17</ele>
        <time>2022-09-04T09:09:50Z</time>
      </trkpt>
      <trkpt lat="44.7847" lon="6.78142">
        <ele>2209.73</ele>
        <time>2022-09-04T09:09:59Z</time>
      </trkpt>
      <trkpt lat="44.78458" lon="6.78144">
        <ele>2207.81</ele>
        <time>2022-09-04T09:10:10Z</time>
      </trkpt>
      <trkpt lat="44.78443" lon="6.78144">
        <ele>2206.36</ele>
        <time>2022-09-04T09:10:23Z</time>
      </trkpt>
      <trkpt lat="44.78431" lon="6.78144">
        <ele>2203.96</ele>
        <time>2022-09-04T09:10:35Z</time>
      </trkpt>
      <trkpt lat="44.78417" lon="6.78142">
        <ele>2203</ele>
        <time>2022-09-04T09:10:47Z</time>
      </trkpt>
      <trkpt lat="44.78402" lon="6.78141">
        <ele>2201.56</ele>
        <time>2022-09-04T09:11:00Z</time>
      </trkpt>
      <trkpt lat="44.78396" lon="6.78143">
        <ele>2201.08</ele>
        <time>2022-09-04T09:11:07Z</time>
      </trkpt>
      <trkpt lat="44.78392" lon="6.78142">
        <ele>2201.08</ele>
        <time>2022-09-04T09:11:10Z</time>
      </trkpt>
      <trkpt lat="44.78382" lon="6.78138">
        <ele>2199.63</ele>
        <time>2022-09-04T09:11:20Z</time>
      </trkpt>
      <trkpt lat="44.78369" lon="6.78135">
        <ele>2198.67</ele>
        <time>2022-09-04T09:11:32Z</time>
      </trkpt>
      <trkpt lat="44.78356" lon="6.78132">
        <ele>2196.27</ele>
        <time>2022-09-04T09:11:46Z</time>
      </trkpt>
      <trkpt lat="44.78345" lon="6.78125">
        <ele>2195.31</ele>
        <time>2022-09-04T09:11:57Z</time>
      </trkpt>
      <trkpt lat="44.78343" lon="6.78124">
        <ele>2195.31</ele>
        <time>2022-09-04T09:11:59Z</time>
      </trkpt>
      <trkpt lat="44.78334" lon="6.78118">
        <ele>2193.87</ele>
        <time>2022-09-04T09:12:11Z</time>
      </trkpt>
      <trkpt lat="44.78327" lon="6.78115">
        <ele>2191.94</ele>
        <time>2022-09-04T09:12:17Z</time>
      </trkpt>
      <trkpt lat="44.78313" lon="6.7811">
        <ele>2190.02</ele>
        <time>2022-09-04T09:12:29Z</time>
      </trkpt>
      <trkpt lat="44.7831" lon="6.78109">
        <ele>2190.02</ele>
        <time>2022-09-04T09:12:32Z</time>
      </trkpt>
      <trkpt lat="44.78294" lon="6.78104">
        <ele>2187.14</ele>
        <time>2022-09-04T09:12:46Z</time>
      </trkpt>
      <trkpt lat="44.78282" lon="6.78094">
        <ele>2185.21</ele>
        <time>2022-09-04T09:12:59Z</time>
      </trkpt>
      <trkpt lat="44.78277" lon="6.78091">
        <ele>2183.77</ele>
        <time>2022-09-04T09:13:04Z</time>
      </trkpt>
      <trkpt lat="44.78271" lon="6.78086">
        <ele>2183.29</ele>
        <time>2022-09-04T09:13:10Z</time>
      </trkpt>
      <trkpt lat="44.78257" lon="6.78075">
        <ele>2181.85</ele>
        <time>2022-09-04T09:13:26Z</time>
      </trkpt>
      <trkpt lat="44.7825" lon="6.78058">
        <ele>2181.37</ele>
        <time>2022-09-04T09:13:42Z</time>
      </trkpt>
      <trkpt lat="44.78239" lon="6.7805">
        <ele>2179.93</ele>
        <time>2022-09-04T09:13:56Z</time>
      </trkpt>
      <trkpt lat="44.78226" lon="6.78043">
        <ele>2178.97</ele>
        <time>2022-09-04T09:14:11Z</time>
      </trkpt>
      <trkpt lat="44.78222" lon="6.78029">
        <ele>2178</ele>
        <time>2022-09-04T09:14:18Z</time>
      </trkpt>
      <trkpt lat="44.78217" lon="6.78019">
        <ele>2177.52</ele>
        <time>2022-09-04T09:14:25Z</time>
      </trkpt>
      <trkpt lat="44.78213" lon="6.78014">
        <ele>2176.56</ele>
        <time>2022-09-04T09:14:43Z</time>
      </trkpt>
      <trkpt lat="44.78209" lon="6.78009">
        <ele>2176.08</ele>
        <time>2022-09-04T09:14:50Z</time>
      </trkpt>
      <trkpt lat="44.78202" lon="6.78003">
        <ele>2175.12</ele>
        <time>2022-09-04T09:14:59Z</time>
      </trkpt>
      <trkpt lat="44.78189" lon="6.77992">
        <ele>2172.24</ele>
        <time>2022-09-04T09:15:13Z</time>
      </trkpt>
      <trkpt lat="44.78177" lon="6.7799">
        <ele>2169.83</ele>
        <time>2022-09-04T09:15:26Z</time>
      </trkpt>
      <trkpt lat="44.78168" lon="6.77984">
        <ele>2169.35</ele>
        <time>2022-09-04T09:15:36Z</time>
      </trkpt>
      <trkpt lat="44.78161" lon="6.77983">
        <ele>2168.39</ele>
        <time>2022-09-04T09:15:42Z</time>
      </trkpt>
      <trkpt lat="44.7816" lon="6.77982">
        <ele>2167.91</ele>
        <time>2022-09-04T09:15:44Z</time>
      </trkpt>
      <trkpt lat="44.78147" lon="6.77967">
        <ele>2166.95</ele>
        <time>2022-09-04T09:15:58Z</time>
      </trkpt>
      <trkpt lat="44.78134" lon="6.77961">
        <ele>2165.51</ele>
        <time>2022-09-04T09:16:11Z</time>
      </trkpt>
      <trkpt lat="44.78124" lon="6.77957">
        <ele>2163.58</ele>
        <time>2022-09-04T09:16:21Z</time>
      </trkpt>
      <trkpt lat="44.78107" lon="6.77949">
        <ele>2163.1</ele>
        <time>2022-09-04T09:16:36Z</time>
      </trkpt>
      <trkpt lat="44.78094" lon="6.77945">
        <ele>2162.62</ele>
        <time>2022-09-04T09:16:49Z</time>
      </trkpt>
      <trkpt lat="44.78076" lon="6.77939">
        <ele>2161.66</ele>
        <time>2022-09-04T09:17:04Z</time>
      </trkpt>
      <trkpt lat="44.78061" lon="6.77933">
        <ele>2160.22</ele>
        <time>2022-09-04T09:17:17Z</time>
      </trkpt>
      <trkpt lat="44.78043" lon="6.77929">
        <ele>2158.78</ele>
        <time>2022-09-04T09:17:33Z</time>
      </trkpt>
      <trkpt lat="44.78042" lon="6.77928">
        <ele>2158.78</ele>
        <time>2022-09-04T09:17:34Z</time>
      </trkpt>
      <trkpt lat="44.7803" lon="6.7792">
        <ele>2156.86</ele>
        <time>2022-09-04T09:17:46Z</time>
      </trkpt>
      <trkpt lat="44.78025" lon="6.77918">
        <ele>2156.37</ele>
        <time>2022-09-04T09:17:51Z</time>
      </trkpt>
      <trkpt lat="44.78007" lon="6.7791">
        <ele>2154.93</ele>
        <time>2022-09-04T09:18:07Z</time>
      </trkpt>
      <trkpt lat="44.77994" lon="6.77903">
        <ele>2153.49</ele>
        <time>2022-09-04T09:18:20Z</time>
      </trkpt>
      <trkpt lat="44.77984" lon="6.77901">
        <ele>2152.53</ele>
        <time>2022-09-04T09:18:29Z</time>
      </trkpt>
      <trkpt lat="44.77967" lon="6.77893">
        <ele>2150.61</ele>
        <time>2022-09-04T09:18:46Z</time>
      </trkpt>
      <trkpt lat="44.7795" lon="6.77887">
        <ele>2148.68</ele>
        <time>2022-09-04T09:19:01Z</time>
      </trkpt>
      <trkpt lat="44.77943" lon="6.77886">
        <ele>2147.24</ele>
        <time>2022-09-04T09:19:07Z</time>
      </trkpt>
      <trkpt lat="44.77926" lon="6.77883">
        <ele>2146.76</ele>
        <time>2022-09-04T09:19:22Z</time>
      </trkpt>
      <trkpt lat="44.77917" lon="6.77876">
        <ele>2146.28</ele>
        <time>2022-09-04T09:19:33Z</time>
      </trkpt>
      <trkpt lat="44.77915" lon="6.77875">
        <ele>2146.28</ele>
        <time>2022-09-04T09:19:35Z</time>
      </trkpt>
      <trkpt lat="44.77899" lon="6.77869">
        <ele>2146.28</ele>
        <time>2022-09-04T09:19:50Z</time>
      </trkpt>
      <trkpt lat="44.77884" lon="6.77858">
        <ele>2145.8</ele>
        <time>2022-09-04T09:20:06Z</time>
      </trkpt>
      <trkpt lat="44.77878" lon="6.77854">
        <ele>2145.8</ele>
        <time>2022-09-04T09:20:22Z</time>
      </trkpt>
      <trkpt lat="44.77877" lon="6.77856">
        <ele>2145.8</ele>
        <time>2022-09-04T09:20:55Z</time>
      </trkpt>
      <trkpt lat="44.77879" lon="6.77852">
        <ele>2145.32</ele>
        <time>2022-09-04T09:21:22Z</time>
      </trkpt>
      <trkpt lat="44.77869" lon="6.77854">
        <ele>2145.32</ele>
        <time>2022-09-04T09:21:48Z</time>
      </trkpt>
      <trkpt lat="44.77861" lon="6.77852">
        <ele>2144.84</ele>
        <time>2022-09-04T09:21:56Z</time>
      </trkpt>
      <trkpt lat="44.77852" lon="6.77853">
        <ele>2144.36</ele>
        <time>2022-09-04T09:22:03Z</time>
      </trkpt>
      <trkpt lat="44.77839" lon="6.77847">
        <ele>2143.88</ele>
        <time>2022-09-04T09:22:15Z</time>
      </trkpt>
      <trkpt lat="44.77831" lon="6.77845">
        <ele>2143.88</ele>
        <time>2022-09-04T09:22:22Z</time>
      </trkpt>
      <trkpt lat="44.77817" lon="6.77842">
        <ele>2143.4</ele>
        <time>2022-09-04T09:22:36Z</time>
      </trkpt>
      <trkpt lat="44.77805" lon="6.77838">
        <ele>2141.95</ele>
        <time>2022-09-04T09:22:49Z</time>
      </trkpt>
      <trkpt lat="44.77795" lon="6.77835">
        <ele>2141.47</ele>
        <time>2022-09-04T09:22:57Z</time>
      </trkpt>
      <trkpt lat="44.77789" lon="6.77835">
        <ele>2141.47</ele>
        <time>2022-09-04T09:23:02Z</time>
      </trkpt>
      <trkpt lat="44.77785" lon="6.77833">
        <ele>2141.47</ele>
        <time>2022-09-04T09:23:06Z</time>
      </trkpt>
      <trkpt lat="44.77782" lon="6.7783">
        <ele>2141.47</ele>
        <time>2022-09-04T09:23:08Z</time>
      </trkpt>
      <trkpt lat="44.77766" lon="6.77822">
        <ele>2140.99</ele>
        <time>2022-09-04T09:23:22Z</time>
      </trkpt>
      <trkpt lat="44.77765" lon="6.77822">
        <ele>2140.99</ele>
        <time>2022-09-04T09:23:24Z</time>
      </trkpt>
      <trkpt lat="44.77763" lon="6.77819">
        <ele>2140.99</ele>
        <time>2022-09-04T09:23:27Z</time>
      </trkpt>
      <trkpt lat="44.77761" lon="6.77808">
        <ele>2140.51</ele>
        <time>2022-09-04T09:23:34Z</time>
      </trkpt>
      <trkpt lat="44.77757" lon="6.77793">
        <ele>2139.07</ele>
        <time>2022-09-04T09:23:44Z</time>
      </trkpt>
      <trkpt lat="44.77753" lon="6.77768">
        <ele>2137.63</ele>
        <time>2022-09-04T09:23:58Z</time>
      </trkpt>
      <trkpt lat="44.77746" lon="6.7775">
        <ele>2135.71</ele>
        <time>2022-09-04T09:24:14Z</time>
      </trkpt>
      <trkpt lat="44.77744" lon="6.77736">
        <ele>2135.23</ele>
        <time>2022-09-04T09:24:30Z</time>
      </trkpt>
      <trkpt lat="44.77737" lon="6.77717">
        <ele>2134.26</ele>
        <time>2022-09-04T09:24:42Z</time>
      </trkpt>
      <trkpt lat="44.77732" lon="6.77702">
        <ele>2133.3</ele>
        <time>2022-09-04T09:24:54Z</time>
      </trkpt>
      <trkpt lat="44.77724" lon="6.77684">
        <ele>2131.86</ele>
        <time>2022-09-04T09:25:08Z</time>
      </trkpt>
      <trkpt lat="44.7772" lon="6.77667">
        <ele>2130.9</ele>
        <time>2022-09-04T09:25:22Z</time>
      </trkpt>
      <trkpt lat="44.77718" lon="6.77663">
        <ele>2129.94</ele>
        <time>2022-09-04T09:25:26Z</time>
      </trkpt>
      <trkpt lat="44.77716" lon="6.77656">
        <ele>2128.5</ele>
        <time>2022-09-04T09:25:32Z</time>
      </trkpt>
      <trkpt lat="44.77711" lon="6.77644">
        <ele>2125.61</ele>
        <time>2022-09-04T09:25:43Z</time>
      </trkpt>
      <trkpt lat="44.7771" lon="6.7764">
        <ele>2125.61</ele>
        <time>2022-09-04T09:25:46Z</time>
      </trkpt>
      <trkpt lat="44.77706" lon="6.77623">
        <ele>2124.17</ele>
        <time>2022-09-04T09:26:00Z</time>
      </trkpt>
      <trkpt lat="44.77705" lon="6.77619">
        <ele>2123.69</ele>
        <time>2022-09-04T09:26:13Z</time>
      </trkpt>
      <trkpt lat="44.77707" lon="6.77617">
        <ele>2123.69</ele>
        <time>2022-09-04T09:26:39Z</time>
      </trkpt>
      <trkpt lat="44.77705" lon="6.77618">
        <ele>2123.21</ele>
        <time>2022-09-04T09:26:55Z</time>
      </trkpt>
      <trkpt lat="44.77706" lon="6.77617">
        <ele>2123.21</ele>
        <time>2022-09-04T09:27:17Z</time>
      </trkpt>
      <trkpt lat="44.77708" lon="6.77615">
        <ele>2123.21</ele>
        <time>2022-09-04T09:27:37Z</time>
      </trkpt>
      <trkpt lat="44.77701" lon="6.77604">
        <ele>2120.81</ele>
        <time>2022-09-04T09:27:58Z</time>
      </trkpt>
      <trkpt lat="44.777" lon="6.77601">
        <ele>2120.32</ele>
        <time>2022-09-04T09:28:00Z</time>
      </trkpt>
      <trkpt lat="44.77697" lon="6.77583">
        <ele>2117.92</ele>
        <time>2022-09-04T09:28:14Z</time>
      </trkpt>
      <trkpt lat="44.77697" lon="6.77571">
        <ele>2114.56</ele>
        <time>2022-09-04T09:28:27Z</time>
      </trkpt>
      <trkpt lat="44.77695" lon="6.77556">
        <ele>2111.67</ele>
        <time>2022-09-04T09:28:40Z</time>
      </trkpt>
      <trkpt lat="44.77694" lon="6.77542">
        <ele>2108.31</ele>
        <time>2022-09-04T09:28:53Z</time>
      </trkpt>
      <trkpt lat="44.77693" lon="6.77531">
        <ele>2104.94</ele>
        <time>2022-09-04T09:29:05Z</time>
      </trkpt>
      <trkpt lat="44.77693" lon="6.77521">
        <ele>2102.54</ele>
        <time>2022-09-04T09:29:15Z</time>
      </trkpt>
      <trkpt lat="44.77693" lon="6.7752">
        <ele>2102.54</ele>
        <time>2022-09-04T09:29:17Z</time>
      </trkpt>
      <trkpt lat="44.7769" lon="6.77515">
        <ele>2101.1</ele>
        <time>2022-09-04T09:29:32Z</time>
      </trkpt>
      <trkpt lat="44.77691" lon="6.77513">
        <ele>2100.62</ele>
        <time>2022-09-04T09:29:56Z</time>
      </trkpt>
      <trkpt lat="44.77689" lon="6.77509">
        <ele>2099.66</ele>
        <time>2022-09-04T09:30:17Z</time>
      </trkpt>
      <trkpt lat="44.77691" lon="6.77496">
        <ele>2096.77</ele>
        <time>2022-09-04T09:30:30Z</time>
      </trkpt>
      <trkpt lat="44.77712" lon="6.77486">
        <ele>2094.85</ele>
        <time>2022-09-04T09:30:47Z</time>
      </trkpt>
      <trkpt lat="44.77723" lon="6.77472">
        <ele>2091.97</ele>
        <time>2022-09-04T09:31:01Z</time>
      </trkpt>
      <trkpt lat="44.77723" lon="6.77468">
        <ele>2091.49</ele>
        <time>2022-09-04T09:31:05Z</time>
      </trkpt>
      <trkpt lat="44.77736" lon="6.77454">
        <ele>2090.04</ele>
        <time>2022-09-04T09:31:20Z</time>
      </trkpt>
      <trkpt lat="44.77749" lon="6.77447">
        <ele>2087.64</ele>
        <time>2022-09-04T09:31:32Z</time>
      </trkpt>
      <trkpt lat="44.77763" lon="6.77439">
        <ele>2085.72</ele>
        <time>2022-09-04T09:31:47Z</time>
      </trkpt>
      <trkpt lat="44.77773" lon="6.77423">
        <ele>2083.79</ele>
        <time>2022-09-04T09:32:01Z</time>
      </trkpt>
      <trkpt lat="44.77778" lon="6.77412">
        <ele>2080.43</ele>
        <time>2022-09-04T09:32:17Z</time>
      </trkpt>
      <trkpt lat="44.77766" lon="6.77417">
        <ele>2077.07</ele>
        <time>2022-09-04T09:32:33Z</time>
      </trkpt>
      <trkpt lat="44.77764" lon="6.77418">
        <ele>2076.59</ele>
        <time>2022-09-04T09:32:35Z</time>
      </trkpt>
      <trkpt lat="44.77749" lon="6.77421">
        <ele>2072.74</ele>
        <time>2022-09-04T09:32:51Z</time>
      </trkpt>
      <trkpt lat="44.77743" lon="6.77424">
        <ele>2072.74</ele>
        <time>2022-09-04T09:32:59Z</time>
      </trkpt>
      <trkpt lat="44.77741" lon="6.77423">
        <ele>2071.3</ele>
        <time>2022-09-04T09:33:01Z</time>
      </trkpt>
      <trkpt lat="44.77739" lon="6.77414">
        <ele>2069.38</ele>
        <time>2022-09-04T09:33:15Z</time>
      </trkpt>
      <trkpt lat="44.77753" lon="6.77399">
        <ele>2068.41</ele>
        <time>2022-09-04T09:33:31Z</time>
      </trkpt>
      <trkpt lat="44.77757" lon="6.77396">
        <ele>2067.93</ele>
        <time>2022-09-04T09:33:35Z</time>
      </trkpt>
      <trkpt lat="44.77765" lon="6.77383">
        <ele>2064.57</ele>
        <time>2022-09-04T09:33:51Z</time>
      </trkpt>
      <trkpt lat="44.77773" lon="6.77375">
        <ele>2064.09</ele>
        <time>2022-09-04T09:33:59Z</time>
      </trkpt>
      <trkpt lat="44.77777" lon="6.77369">
        <ele>2062.65</ele>
        <time>2022-09-04T09:34:06Z</time>
      </trkpt>
      <trkpt lat="44.77793" lon="6.77354">
        <ele>2061.2</ele>
        <time>2022-09-04T09:34:24Z</time>
      </trkpt>
      <trkpt lat="44.77802" lon="6.77343">
        <ele>2059.28</ele>
        <time>2022-09-04T09:34:37Z</time>
      </trkpt>
      <trkpt lat="44.77814" lon="6.77324">
        <ele>2055.44</ele>
        <time>2022-09-04T09:34:51Z</time>
      </trkpt>
      <trkpt lat="44.77822" lon="6.77304">
        <ele>2053.51</ele>
        <time>2022-09-04T09:35:09Z</time>
      </trkpt>
      <trkpt lat="44.77837" lon="6.7729">
        <ele>2050.63</ele>
        <time>2022-09-04T09:35:25Z</time>
      </trkpt>
      <trkpt lat="44.77838" lon="6.77288">
        <ele>2050.63</ele>
        <time>2022-09-04T09:35:26Z</time>
      </trkpt>
      <trkpt lat="44.7784" lon="6.77285">
        <ele>2050.15</ele>
        <time>2022-09-04T09:35:28Z</time>
      </trkpt>
      <trkpt lat="44.7784" lon="6.77278">
        <ele>2047.75</ele>
        <time>2022-09-04T09:35:43Z</time>
      </trkpt>
      <trkpt lat="44.77835" lon="6.77279">
        <ele>2046.3</ele>
        <time>2022-09-04T09:35:49Z</time>
      </trkpt>
      <trkpt lat="44.77832" lon="6.77281">
        <ele>2045.82</ele>
        <time>2022-09-04T09:35:52Z</time>
      </trkpt>
      <trkpt lat="44.77822" lon="6.77283">
        <ele>2041.98</ele>
        <time>2022-09-04T09:36:05Z</time>
      </trkpt>
      <trkpt lat="44.77809" lon="6.77292">
        <ele>2040.05</ele>
        <time>2022-09-04T09:36:21Z</time>
      </trkpt>
      <trkpt lat="44.77794" lon="6.77296">
        <ele>2037.17</ele>
        <time>2022-09-04T09:36:36Z</time>
      </trkpt>
      <trkpt lat="44.7778" lon="6.77298">
        <ele>2034.29</ele>
        <time>2022-09-04T09:36:50Z</time>
      </trkpt>
      <trkpt lat="44.77777" lon="6.77301">
        <ele>2032.84</ele>
        <time>2022-09-04T09:36:55Z</time>
      </trkpt>
      <trkpt lat="44.77767" lon="6.77306">
        <ele>2031.4</ele>
        <time>2022-09-04T09:37:08Z</time>
      </trkpt>
      <trkpt lat="44.77761" lon="6.77308">
        <ele>2030.92</ele>
        <time>2022-09-04T09:37:14Z</time>
      </trkpt>
      <trkpt lat="44.7775" lon="6.77308">
        <ele>2028.04</ele>
        <time>2022-09-04T09:37:28Z</time>
      </trkpt>
      <trkpt lat="44.77748" lon="6.77297">
        <ele>2025.64</ele>
        <time>2022-09-04T09:37:41Z</time>
      </trkpt>
      <trkpt lat="44.77751" lon="6.77291">
        <ele>2024.67</ele>
        <time>2022-09-04T09:37:47Z</time>
      </trkpt>
      <trkpt lat="44.77766" lon="6.77281">
        <ele>2023.71</ele>
        <time>2022-09-04T09:38:03Z</time>
      </trkpt>
      <trkpt lat="44.77769" lon="6.77276">
        <ele>2023.23</ele>
        <time>2022-09-04T09:38:07Z</time>
      </trkpt>
      <trkpt lat="44.77774" lon="6.77266">
        <ele>2022.27</ele>
        <time>2022-09-04T09:38:15Z</time>
      </trkpt>
      <trkpt lat="44.77786" lon="6.7725">
        <ele>2019.39</ele>
        <time>2022-09-04T09:38:33Z</time>
      </trkpt>
      <trkpt lat="44.77796" lon="6.77239">
        <ele>2016.98</ele>
        <time>2022-09-04T09:38:47Z</time>
      </trkpt>
      <trkpt lat="44.77808" lon="6.77222">
        <ele>2015.54</ele>
        <time>2022-09-04T09:39:01Z</time>
      </trkpt>
      <trkpt lat="44.77811" lon="6.77212">
        <ele>2012.18</ele>
        <time>2022-09-04T09:39:15Z</time>
      </trkpt>
      <trkpt lat="44.77799" lon="6.77218">
        <ele>2010.25</ele>
        <time>2022-09-04T09:39:27Z</time>
      </trkpt>
      <trkpt lat="44.77794" lon="6.7722">
        <ele>2007.85</ele>
        <time>2022-09-04T09:39:36Z</time>
      </trkpt>
      <trkpt lat="44.77782" lon="6.77225">
        <ele>2005.93</ele>
        <time>2022-09-04T09:39:49Z</time>
      </trkpt>
      <trkpt lat="44.77781" lon="6.77226">
        <ele>2005.93</ele>
        <time>2022-09-04T09:39:50Z</time>
      </trkpt>
      <trkpt lat="44.77773" lon="6.77228">
        <ele>2004.49</ele>
        <time>2022-09-04T09:39:57Z</time>
      </trkpt>
      <trkpt lat="44.77758" lon="6.77232">
        <ele>2001.6</ele>
        <time>2022-09-04T09:40:12Z</time>
      </trkpt>
      <trkpt lat="44.77742" lon="6.77234">
        <ele>1998.72</ele>
        <time>2022-09-04T09:40:28Z</time>
      </trkpt>
      <trkpt lat="44.77738" lon="6.77234">
        <ele>1998.24</ele>
        <time>2022-09-04T09:40:33Z</time>
      </trkpt>
      <trkpt lat="44.77724" lon="6.77238">
        <ele>1995.35</ele>
        <time>2022-09-04T09:40:47Z</time>
      </trkpt>
      <trkpt lat="44.7772" lon="6.77228">
        <ele>1993.43</ele>
        <time>2022-09-04T09:41:00Z</time>
      </trkpt>
      <trkpt lat="44.77731" lon="6.77216">
        <ele>1991.99</ele>
        <time>2022-09-04T09:41:14Z</time>
      </trkpt>
      <trkpt lat="44.77735" lon="6.77216">
        <ele>1991.51</ele>
        <time>2022-09-04T09:41:17Z</time>
      </trkpt>
      <trkpt lat="44.77747" lon="6.77207">
        <ele>1990.55</ele>
        <time>2022-09-04T09:41:30Z</time>
      </trkpt>
      <trkpt lat="44.77757" lon="6.77197">
        <ele>1988.62</ele>
        <time>2022-09-04T09:41:45Z</time>
      </trkpt>
      <trkpt lat="44.77767" lon="6.77183">
        <ele>1987.66</ele>
        <time>2022-09-04T09:41:59Z</time>
      </trkpt>
      <trkpt lat="44.77772" lon="6.77171">
        <ele>1986.22</ele>
        <time>2022-09-04T09:42:09Z</time>
      </trkpt>
      <trkpt lat="44.77777" lon="6.77152">
        <ele>1984.3</ele>
        <time>2022-09-04T09:42:21Z</time>
      </trkpt>
      <trkpt lat="44.77781" lon="6.77142">
        <ele>1984.3</ele>
        <time>2022-09-04T09:42:33Z</time>
      </trkpt>
      <trkpt lat="44.7778" lon="6.77153">
        <ele>1981.9</ele>
        <time>2022-09-04T09:42:47Z</time>
      </trkpt>
      <trkpt lat="44.77776" lon="6.77158">
        <ele>1980.45</ele>
        <time>2022-09-04T09:42:55Z</time>
      </trkpt>
      <trkpt lat="44.77761" lon="6.77165">
        <ele>1978.05</ele>
        <time>2022-09-04T09:43:10Z</time>
      </trkpt>
      <trkpt lat="44.7775" lon="6.7717">
        <ele>1976.61</ele>
        <time>2022-09-04T09:43:24Z</time>
      </trkpt>
      <trkpt lat="44.77737" lon="6.77167">
        <ele>1974.2</ele>
        <time>2022-09-04T09:43:40Z</time>
      </trkpt>
      <trkpt lat="44.77729" lon="6.77171">
        <ele>1972.76</ele>
        <time>2022-09-04T09:43:57Z</time>
      </trkpt>
      <trkpt lat="44.77729" lon="6.77173">
        <ele>1972.28</ele>
        <time>2022-09-04T09:44:33Z</time>
      </trkpt>
      <trkpt lat="44.77732" lon="6.77166">
        <ele>1972.28</ele>
        <time>2022-09-04T09:44:51Z</time>
      </trkpt>
      <trkpt lat="44.77733" lon="6.77162">
        <ele>1972.28</ele>
        <time>2022-09-04T09:45:12Z</time>
      </trkpt>
      <trkpt lat="44.77728" lon="6.77164">
        <ele>1971.8</ele>
        <time>2022-09-04T09:45:40Z</time>
      </trkpt>
      <trkpt lat="44.77724" lon="6.77159">
        <ele>1971.32</ele>
        <time>2022-09-04T09:46:17Z</time>
      </trkpt>
      <trkpt lat="44.77724" lon="6.7716">
        <ele>1971.32</ele>
        <time>2022-09-04T09:46:51Z</time>
      </trkpt>
      <trkpt lat="44.77732" lon="6.77162">
        <ele>1972.28</ele>
        <time>2022-09-04T09:47:25Z</time>
      </trkpt>
      <trkpt lat="44.77734" lon="6.77167">
        <ele>1972.76</ele>
        <time>2022-09-04T09:47:52Z</time>
      </trkpt>
      <trkpt lat="44.77731" lon="6.77169">
        <ele>1972.28</ele>
        <time>2022-09-04T09:48:14Z</time>
      </trkpt>
      <trkpt lat="44.77731" lon="6.77163">
        <ele>1972.76</ele>
        <time>2022-09-04T09:48:46Z</time>
      </trkpt>
      <trkpt lat="44.77729" lon="6.77165">
        <ele>1972.28</ele>
        <time>2022-09-04T09:49:21Z</time>
      </trkpt>
      <trkpt lat="44.77731" lon="6.77163">
        <ele>1972.28</ele>
        <time>2022-09-04T09:49:51Z</time>
      </trkpt>
      <trkpt lat="44.77735" lon="6.77156">
        <ele>1971.32</ele>
        <time>2022-09-04T09:50:09Z</time>
      </trkpt>
      <trkpt lat="44.77738" lon="6.77151">
        <ele>1969.4</ele>
        <time>2022-09-04T09:50:17Z</time>
      </trkpt>
      <trkpt lat="44.77743" lon="6.7714">
        <ele>1967.48</ele>
        <time>2022-09-04T09:50:29Z</time>
      </trkpt>
      <trkpt lat="44.77747" lon="6.77134">
        <ele>1966.03</ele>
        <time>2022-09-04T09:50:36Z</time>
      </trkpt>
      <trkpt lat="44.77754" lon="6.77126">
        <ele>1964.11</ele>
        <time>2022-09-04T09:50:48Z</time>
      </trkpt>
      <trkpt lat="44.77752" lon="6.77122">
        <ele>1961.71</ele>
        <time>2022-09-04T09:50:57Z</time>
      </trkpt>
      <trkpt lat="44.77741" lon="6.77131">
        <ele>1959.3</ele>
        <time>2022-09-04T09:51:11Z</time>
      </trkpt>
      <trkpt lat="44.77724" lon="6.77136">
        <ele>1956.9</ele>
        <time>2022-09-04T09:51:26Z</time>
      </trkpt>
      <trkpt lat="44.77711" lon="6.77138">
        <ele>1954.5</ele>
        <time>2022-09-04T09:51:41Z</time>
      </trkpt>
      <trkpt lat="44.77706" lon="6.77139">
        <ele>1954.02</ele>
        <time>2022-09-04T09:51:49Z</time>
      </trkpt>
      <trkpt lat="44.77699" lon="6.77136">
        <ele>1952.09</ele>
        <time>2022-09-04T09:51:56Z</time>
      </trkpt>
      <trkpt lat="44.77702" lon="6.7713">
        <ele>1950.65</ele>
        <time>2022-09-04T09:52:02Z</time>
      </trkpt>
      <trkpt lat="44.77708" lon="6.7711">
        <ele>1950.17</ele>
        <time>2022-09-04T09:52:14Z</time>
      </trkpt>
      <trkpt lat="44.7771" lon="6.77108">
        <ele>1949.69</ele>
        <time>2022-09-04T09:52:16Z</time>
      </trkpt>
      <trkpt lat="44.77723" lon="6.77092">
        <ele>1947.77</ele>
        <time>2022-09-04T09:52:30Z</time>
      </trkpt>
      <trkpt lat="44.77725" lon="6.7709">
        <ele>1947.29</ele>
        <time>2022-09-04T09:52:33Z</time>
      </trkpt>
      <trkpt lat="44.77727" lon="6.77088">
        <ele>1946.81</ele>
        <time>2022-09-04T09:52:35Z</time>
      </trkpt>
      <trkpt lat="44.77731" lon="6.77086">
        <ele>1946.81</ele>
        <time>2022-09-04T09:52:40Z</time>
      </trkpt>
      <trkpt lat="44.77735" lon="6.77082">
        <ele>1946.33</ele>
        <time>2022-09-04T09:52:46Z</time>
      </trkpt>
      <trkpt lat="44.7775" lon="6.77071">
        <ele>1946.33</ele>
        <time>2022-09-04T09:53:00Z</time>
      </trkpt>
      <trkpt lat="44.77748" lon="6.7707">
        <ele>1944.4</ele>
        <time>2022-09-04T09:53:12Z</time>
      </trkpt>
      <trkpt lat="44.77742" lon="6.77081">
        <ele>1942.48</ele>
        <time>2022-09-04T09:53:22Z</time>
      </trkpt>
      <trkpt lat="44.77729" lon="6.77087">
        <ele>1941.04</ele>
        <time>2022-09-04T09:53:35Z</time>
      </trkpt>
      <trkpt lat="44.77727" lon="6.77088">
        <ele>1941.04</ele>
        <time>2022-09-04T09:53:37Z</time>
      </trkpt>
      <trkpt lat="44.77717" lon="6.7709">
        <ele>1939.12</ele>
        <time>2022-09-04T09:53:46Z</time>
      </trkpt>
      <trkpt lat="44.77702" lon="6.77092">
        <ele>1937.67</ele>
        <time>2022-09-04T09:53:58Z</time>
      </trkpt>
      <trkpt lat="44.7769" lon="6.77093">
        <ele>1934.79</ele>
        <time>2022-09-04T09:54:10Z</time>
      </trkpt>
      <trkpt lat="44.77677" lon="6.77097">
        <ele>1933.35</ele>
        <time>2022-09-04T09:54:24Z</time>
      </trkpt>
      <trkpt lat="44.77665" lon="6.77101">
        <ele>1931.91</ele>
        <time>2022-09-04T09:54:36Z</time>
      </trkpt>
      <trkpt lat="44.77657" lon="6.77098">
        <ele>1929.98</ele>
        <time>2022-09-04T09:54:47Z</time>
      </trkpt>
      <trkpt lat="44.77658" lon="6.77091">
        <ele>1928.54</ele>
        <time>2022-09-04T09:54:52Z</time>
      </trkpt>
      <trkpt lat="44.77663" lon="6.77073">
        <ele>1925.66</ele>
        <time>2022-09-04T09:55:04Z</time>
      </trkpt>
      <trkpt lat="44.77668" lon="6.77056">
        <ele>1923.74</ele>
        <time>2022-09-04T09:55:15Z</time>
      </trkpt>
      <trkpt lat="44.77673" lon="6.77039">
        <ele>1921.33</ele>
        <time>2022-09-04T09:55:29Z</time>
      </trkpt>
      <trkpt lat="44.7768" lon="6.7703">
        <ele>1920.37</ele>
        <time>2022-09-04T09:55:40Z</time>
      </trkpt>
      <trkpt lat="44.7768" lon="6.77029">
        <ele>1919.89</ele>
        <time>2022-09-04T09:55:47Z</time>
      </trkpt>
      <trkpt lat="44.77693" lon="6.77022">
        <ele>1918.45</ele>
        <time>2022-09-04T09:55:58Z</time>
      </trkpt>
      <trkpt lat="44.77709" lon="6.77012">
        <ele>1917.01</ele>
        <time>2022-09-04T09:56:12Z</time>
      </trkpt>
      <trkpt lat="44.77718" lon="6.77007">
        <ele>1916.53</ele>
        <time>2022-09-04T09:56:20Z</time>
      </trkpt>
      <trkpt lat="44.77722" lon="6.77003">
        <ele>1915.56</ele>
        <time>2022-09-04T09:56:25Z</time>
      </trkpt>
      <trkpt lat="44.77731" lon="6.76996">
        <ele>1914.6</ele>
        <time>2022-09-04T09:56:35Z</time>
      </trkpt>
      <trkpt lat="44.77741" lon="6.7698">
        <ele>1912.68</ele>
        <time>2022-09-04T09:56:48Z</time>
      </trkpt>
      <trkpt lat="44.77739" lon="6.76984">
        <ele>1910.28</ele>
        <time>2022-09-04T09:56:59Z</time>
      </trkpt>
      <trkpt lat="44.77736" lon="6.76989">
        <ele>1909.8</ele>
        <time>2022-09-04T09:57:03Z</time>
      </trkpt>
      <trkpt lat="44.7772" lon="6.76989">
        <ele>1905.95</ele>
        <time>2022-09-04T09:57:17Z</time>
      </trkpt>
      <trkpt lat="44.77719" lon="6.76989">
        <ele>1905.95</ele>
        <time>2022-09-04T09:57:18Z</time>
      </trkpt>
      <trkpt lat="44.77706" lon="6.76988">
        <ele>1903.07</ele>
        <time>2022-09-04T09:57:31Z</time>
      </trkpt>
      <trkpt lat="44.77697" lon="6.76985">
        <ele>1901.63</ele>
        <time>2022-09-04T09:57:43Z</time>
      </trkpt>
      <trkpt lat="44.77684" lon="6.76983">
        <ele>1899.7</ele>
        <time>2022-09-04T09:57:55Z</time>
      </trkpt>
      <trkpt lat="44.77676" lon="6.76976">
        <ele>1897.78</ele>
        <time>2022-09-04T09:58:05Z</time>
      </trkpt>
      <trkpt lat="44.77671" lon="6.76971">
        <ele>1896.34</ele>
        <time>2022-09-04T09:58:11Z</time>
      </trkpt>
      <trkpt lat="44.77668" lon="6.76966">
        <ele>1894.9</ele>
        <time>2022-09-04T09:58:19Z</time>
      </trkpt>
      <trkpt lat="44.77665" lon="6.76966">
        <ele>1893.45</ele>
        <time>2022-09-04T09:58:24Z</time>
      </trkpt>
      <trkpt lat="44.77657" lon="6.76968">
        <ele>1890.57</ele>
        <time>2022-09-04T09:58:35Z</time>
      </trkpt>
      <trkpt lat="44.77648" lon="6.7697">
        <ele>1887.21</ele>
        <time>2022-09-04T09:58:47Z</time>
      </trkpt>
      <trkpt lat="44.77635" lon="6.76964">
        <ele>1884.32</ele>
        <time>2022-09-04T09:59:01Z</time>
      </trkpt>
      <trkpt lat="44.7763" lon="6.76961">
        <ele>1881.92</ele>
        <time>2022-09-04T09:59:09Z</time>
      </trkpt>
      <trkpt lat="44.77619" lon="6.76955">
        <ele>1880</ele>
        <time>2022-09-04T09:59:19Z</time>
      </trkpt>
      <trkpt lat="44.77609" lon="6.76947">
        <ele>1877.11</ele>
        <time>2022-09-04T09:59:31Z</time>
      </trkpt>
      <trkpt lat="44.77605" lon="6.76944">
        <ele>1875.67</ele>
        <time>2022-09-04T09:59:46Z</time>
      </trkpt>
      <trkpt lat="44.77605" lon="6.76941">
        <ele>1875.67</ele>
        <time>2022-09-04T10:00:06Z</time>
      </trkpt>
      <trkpt lat="44.77603" lon="6.76938">
        <ele>1874.23</ele>
        <time>2022-09-04T10:00:21Z</time>
      </trkpt>
      <trkpt lat="44.77604" lon="6.76936">
        <ele>1873.75</ele>
        <time>2022-09-04T10:00:23Z</time>
      </trkpt>
      <trkpt lat="44.77604" lon="6.76928">
        <ele>1871.82</ele>
        <time>2022-09-04T10:00:29Z</time>
      </trkpt>
      <trkpt lat="44.77608" lon="6.76917">
        <ele>1868.94</ele>
        <time>2022-09-04T10:00:39Z</time>
      </trkpt>
      <trkpt lat="44.77607" lon="6.76911">
        <ele>1867.02</ele>
        <time>2022-09-04T10:00:45Z</time>
      </trkpt>
      <trkpt lat="44.77607" lon="6.76909">
        <ele>1866.06</ele>
        <time>2022-09-04T10:00:47Z</time>
      </trkpt>
      <trkpt lat="44.77604" lon="6.76903">
        <ele>1864.13</ele>
        <time>2022-09-04T10:00:54Z</time>
      </trkpt>
      <trkpt lat="44.77599" lon="6.76899">
        <ele>1862.21</ele>
        <time>2022-09-04T10:01:00Z</time>
      </trkpt>
      <trkpt lat="44.77595" lon="6.76894">
        <ele>1860.77</ele>
        <time>2022-09-04T10:01:06Z</time>
      </trkpt>
      <trkpt lat="44.77589" lon="6.76892">
        <ele>1860.29</ele>
        <time>2022-09-04T10:01:11Z</time>
      </trkpt>
      <trkpt lat="44.77584" lon="6.76894">
        <ele>1857.89</ele>
        <time>2022-09-04T10:01:17Z</time>
      </trkpt>
      <trkpt lat="44.77568" lon="6.76905">
        <ele>1856.44</ele>
        <time>2022-09-04T10:01:31Z</time>
      </trkpt>
      <trkpt lat="44.77556" lon="6.76911">
        <ele>1855.48</ele>
        <time>2022-09-04T10:01:43Z</time>
      </trkpt>
      <trkpt lat="44.77551" lon="6.76914">
        <ele>1854.04</ele>
        <time>2022-09-04T10:01:50Z</time>
      </trkpt>
      <trkpt lat="44.77547" lon="6.76903">
        <ele>1852.12</ele>
        <time>2022-09-04T10:02:02Z</time>
      </trkpt>
      <trkpt lat="44.77547" lon="6.76901">
        <ele>1852.12</ele>
        <time>2022-09-04T10:02:04Z</time>
      </trkpt>
      <trkpt lat="44.77548" lon="6.76897">
        <ele>1851.16</ele>
        <time>2022-09-04T10:02:18Z</time>
      </trkpt>
      <trkpt lat="44.77549" lon="6.76899">
        <ele>1851.16</ele>
        <time>2022-09-04T10:02:35Z</time>
      </trkpt>
      <trkpt lat="44.77549" lon="6.76899">
        <ele>1851.16</ele>
        <time>2022-09-04T10:02:54Z</time>
      </trkpt>
      <trkpt lat="44.77549" lon="6.76899">
        <ele>1851.16</ele>
        <time>2022-09-04T10:03:12Z</time>
      </trkpt>
      <trkpt lat="44.7755" lon="6.76897">
        <ele>1850.68</ele>
        <time>2022-09-04T10:03:41Z</time>
      </trkpt>
      <trkpt lat="44.77548" lon="6.76897">
        <ele>1850.68</ele>
        <time>2022-09-04T10:04:03Z</time>
      </trkpt>
      <trkpt lat="44.77544" lon="6.76904">
        <ele>1850.68</ele>
        <time>2022-09-04T10:04:09Z</time>
      </trkpt>
      <trkpt lat="44.77541" lon="6.76915">
        <ele>1851.64</ele>
        <time>2022-09-04T10:04:17Z</time>
      </trkpt>
      <trkpt lat="44.77538" lon="6.76914">
        <ele>1850.19</ele>
        <time>2022-09-04T10:04:29Z</time>
      </trkpt>
      <trkpt lat="44.77539" lon="6.76914">
        <ele>1850.19</ele>
        <time>2022-09-04T10:04:45Z</time>
      </trkpt>
      <trkpt lat="44.77533" lon="6.76912">
        <ele>1849.23</ele>
        <time>2022-09-04T10:04:51Z</time>
      </trkpt>
      <trkpt lat="44.77528" lon="6.76912">
        <ele>1847.31</ele>
        <time>2022-09-04T10:04:59Z</time>
      </trkpt>
      <trkpt lat="44.77525" lon="6.76923">
        <ele>1846.83</ele>
        <time>2022-09-04T10:05:10Z</time>
      </trkpt>
      <trkpt lat="44.77522" lon="6.76926">
        <ele>1846.83</ele>
        <time>2022-09-04T10:05:24Z</time>
      </trkpt>
      <trkpt lat="44.77526" lon="6.76938">
        <ele>1846.83</ele>
        <time>2022-09-04T10:05:30Z</time>
      </trkpt>
      <trkpt lat="44.77528" lon="6.7694">
        <ele>1846.83</ele>
        <time>2022-09-04T10:05:41Z</time>
      </trkpt>
      <trkpt lat="44.77535" lon="6.76918">
        <ele>1846.83</ele>
        <time>2022-09-04T10:06:34Z</time>
      </trkpt>
      <trkpt lat="44.77536" lon="6.76931">
        <ele>1846.83</ele>
        <time>2022-09-04T10:06:38Z</time>
      </trkpt>
      <trkpt lat="44.77523" lon="6.76937">
        <ele>1847.31</ele>
        <time>2022-09-04T10:06:46Z</time>
      </trkpt>
      <trkpt lat="44.77523" lon="6.76926">
        <ele>1846.83</ele>
        <time>2022-09-04T10:07:01Z</time>
      </trkpt>
      <trkpt lat="44.77522" lon="6.7692">
        <ele>1846.83</ele>
        <time>2022-09-04T10:07:22Z</time>
      </trkpt>
      <trkpt lat="44.77525" lon="6.7692">
        <ele>1846.83</ele>
        <time>2022-09-04T10:07:45Z</time>
      </trkpt>
      <trkpt lat="44.77525" lon="6.7692">
        <ele>1846.83</ele>
        <time>2022-09-04T10:07:46Z</time>
      </trkpt>
      <trkpt lat="44.77526" lon="6.76911">
        <ele>1847.79</ele>
        <time>2022-09-04T10:07:52Z</time>
      </trkpt>
      <trkpt lat="44.77528" lon="6.76906">
        <ele>1848.75</ele>
        <time>2022-09-04T10:07:56Z</time>
      </trkpt>
      <trkpt lat="44.77531" lon="6.76908">
        <ele>1849.23</ele>
        <time>2022-09-04T10:08:00Z</time>
      </trkpt>
      <trkpt lat="44.77537" lon="6.76912">
        <ele>1850.68</ele>
        <time>2022-09-04T10:08:05Z</time>
      </trkpt>
      <trkpt lat="44.7754" lon="6.76911">
        <ele>1851.64</ele>
        <time>2022-09-04T10:08:09Z</time>
      </trkpt>
      <trkpt lat="44.77549" lon="6.76899">
        <ele>1850.68</ele>
        <time>2022-09-04T10:08:21Z</time>
      </trkpt>
      <trkpt lat="44.7755" lon="6.76901">
        <ele>1850.68</ele>
        <time>2022-09-04T10:08:44Z</time>
      </trkpt>
      <trkpt lat="44.77553" lon="6.76898">
        <ele>1850.19</ele>
        <time>2022-09-04T10:09:13Z</time>
      </trkpt>
      <trkpt lat="44.77554" lon="6.76898">
        <ele>1850.19</ele>
        <time>2022-09-04T10:09:55Z</time>
      </trkpt>
      <trkpt lat="44.77553" lon="6.76898">
        <ele>1850.19</ele>
        <time>2022-09-04T10:10:34Z</time>
      </trkpt>
      <trkpt lat="44.77552" lon="6.76897">
        <ele>1850.19</ele>
        <time>2022-09-04T10:11:15Z</time>
      </trkpt>
      <trkpt lat="44.77551" lon="6.76904">
        <ele>1849.71</ele>
        <time>2022-09-04T10:12:03Z</time>
      </trkpt>
      <trkpt lat="44.77551" lon="6.76903">
        <ele>1851.64</ele>
        <time>2022-09-04T10:12:14Z</time>
      </trkpt>
      <trkpt lat="44.77551" lon="6.76902">
        <ele>1850.19</ele>
        <time>2022-09-04T10:12:16Z</time>
      </trkpt>
      <trkpt lat="44.77552" lon="6.76899">
        <ele>1850.19</ele>
        <time>2022-09-04T10:12:46Z</time>
      </trkpt>
      <trkpt lat="44.77553" lon="6.76901">
        <ele>1849.71</ele>
        <time>2022-09-04T10:13:29Z</time>
      </trkpt>
      <trkpt lat="44.77551" lon="6.76898">
        <ele>1849.71</ele>
        <time>2022-09-04T10:14:15Z</time>
      </trkpt>
      <trkpt lat="44.77554" lon="6.76898">
        <ele>1849.71</ele>
        <time>2022-09-04T10:14:55Z</time>
      </trkpt>
      <trkpt lat="44.77553" lon="6.769">
        <ele>1849.23</ele>
        <time>2022-09-04T10:15:36Z</time>
      </trkpt>
      <trkpt lat="44.77552" lon="6.76901">
        <ele>1849.23</ele>
        <time>2022-09-04T10:15:55Z</time>
      </trkpt>
      <trkpt lat="44.77554" lon="6.76904">
        <ele>1849.23</ele>
        <time>2022-09-04T10:16:30Z</time>
      </trkpt>
      <trkpt lat="44.77553" lon="6.76899">
        <ele>1848.75</ele>
        <time>2022-09-04T10:17:06Z</time>
      </trkpt>
      <trkpt lat="44.7755" lon="6.76898">
        <ele>1848.75</ele>
        <time>2022-09-04T10:17:32Z</time>
      </trkpt>
      <trkpt lat="44.77551" lon="6.76899">
        <ele>1848.75</ele>
        <time>2022-09-04T10:17:57Z</time>
      </trkpt>
      <trkpt lat="44.77551" lon="6.76898">
        <ele>1848.75</ele>
        <time>2022-09-04T10:18:15Z</time>
      </trkpt>
      <trkpt lat="44.7755" lon="6.769">
        <ele>1848.27</ele>
        <time>2022-09-04T10:18:35Z</time>
      </trkpt>
      <trkpt lat="44.77549" lon="6.769">
        <ele>1848.27</ele>
        <time>2022-09-04T10:19:01Z</time>
      </trkpt>
      <trkpt lat="44.77551" lon="6.76885">
        <ele>1847.31</ele>
        <time>2022-09-04T10:19:16Z</time>
      </trkpt>
      <trkpt lat="44.77552" lon="6.76872">
        <ele>1844.43</ele>
        <time>2022-09-04T10:19:31Z</time>
      </trkpt>
      <trkpt lat="44.7755" lon="6.7687">
        <ele>1844.43</ele>
        <time>2022-09-04T10:19:40Z</time>
      </trkpt>
      <trkpt lat="44.77549" lon="6.76862">
        <ele>1843.47</ele>
        <time>2022-09-04T10:19:46Z</time>
      </trkpt>
      <trkpt lat="44.77555" lon="6.76846">
        <ele>1842.02</ele>
        <time>2022-09-04T10:19:58Z</time>
      </trkpt>
      <trkpt lat="44.7756" lon="6.76834">
        <ele>1840.58</ele>
        <time>2022-09-04T10:20:10Z</time>
      </trkpt>
      <trkpt lat="44.77574" lon="6.76821">
        <ele>1839.14</ele>
        <time>2022-09-04T10:20:24Z</time>
      </trkpt>
      <trkpt lat="44.77582" lon="6.76802">
        <ele>1838.18</ele>
        <time>2022-09-04T10:20:38Z</time>
      </trkpt>
      <trkpt lat="44.77583" lon="6.76798">
        <ele>1837.7</ele>
        <time>2022-09-04T10:20:41Z</time>
      </trkpt>
      <trkpt lat="44.77593" lon="6.76789">
        <ele>1837.22</ele>
        <time>2022-09-04T10:20:53Z</time>
      </trkpt>
      <trkpt lat="44.77599" lon="6.76785">
        <ele>1837.22</ele>
        <time>2022-09-04T10:21:08Z</time>
      </trkpt>
      <trkpt lat="44.77604" lon="6.76777">
        <ele>1837.22</ele>
        <time>2022-09-04T10:21:24Z</time>
      </trkpt>
      <trkpt lat="44.77616" lon="6.76768">
        <ele>1837.22</ele>
        <time>2022-09-04T10:21:38Z</time>
      </trkpt>
      <trkpt lat="44.77618" lon="6.76766">
        <ele>1837.22</ele>
        <time>2022-09-04T10:21:40Z</time>
      </trkpt>
      <trkpt lat="44.77623" lon="6.7676">
        <ele>1837.22</ele>
        <time>2022-09-04T10:21:47Z</time>
      </trkpt>
      <trkpt lat="44.77629" lon="6.76755">
        <ele>1838.18</ele>
        <time>2022-09-04T10:21:53Z</time>
      </trkpt>
      <trkpt lat="44.77636" lon="6.76744">
        <ele>1839.14</ele>
        <time>2022-09-04T10:22:05Z</time>
      </trkpt>
      <trkpt lat="44.77646" lon="6.76736">
        <ele>1840.58</ele>
        <time>2022-09-04T10:22:17Z</time>
      </trkpt>
      <trkpt lat="44.77647" lon="6.76734">
        <ele>1840.58</ele>
        <time>2022-09-04T10:22:21Z</time>
      </trkpt>
      <trkpt lat="44.77659" lon="6.76724">
        <ele>1841.06</ele>
        <time>2022-09-04T10:22:35Z</time>
      </trkpt>
      <trkpt lat="44.77673" lon="6.76715">
        <ele>1840.58</ele>
        <time>2022-09-04T10:22:51Z</time>
      </trkpt>
      <trkpt lat="44.77687" lon="6.76711">
        <ele>1841.54</ele>
        <time>2022-09-04T10:23:04Z</time>
      </trkpt>
      <trkpt lat="44.77698" lon="6.76709">
        <ele>1841.06</ele>
        <time>2022-09-04T10:23:17Z</time>
      </trkpt>
      <trkpt lat="44.77709" lon="6.76707">
        <ele>1841.06</ele>
        <time>2022-09-04T10:23:28Z</time>
      </trkpt>
      <trkpt lat="44.77717" lon="6.76705">
        <ele>1841.06</ele>
        <time>2022-09-04T10:23:36Z</time>
      </trkpt>
      <trkpt lat="44.77731" lon="6.76698">
        <ele>1842.02</ele>
        <time>2022-09-04T10:23:50Z</time>
      </trkpt>
      <trkpt lat="44.77745" lon="6.76688">
        <ele>1842.02</ele>
        <time>2022-09-04T10:24:04Z</time>
      </trkpt>
      <trkpt lat="44.77758" lon="6.76682">
        <ele>1841.54</ele>
        <time>2022-09-04T10:24:17Z</time>
      </trkpt>
      <trkpt lat="44.77771" lon="6.76676">
        <ele>1842.02</ele>
        <time>2022-09-04T10:24:30Z</time>
      </trkpt>
      <trkpt lat="44.77776" lon="6.76674">
        <ele>1842.02</ele>
        <time>2022-09-04T10:24:35Z</time>
      </trkpt>
      <trkpt lat="44.77789" lon="6.76672">
        <ele>1842.98</ele>
        <time>2022-09-04T10:24:49Z</time>
      </trkpt>
      <trkpt lat="44.77804" lon="6.76664">
        <ele>1843.95</ele>
        <time>2022-09-04T10:25:04Z</time>
      </trkpt>
      <trkpt lat="44.77816" lon="6.76656">
        <ele>1844.43</ele>
        <time>2022-09-04T10:25:16Z</time>
      </trkpt>
      <trkpt lat="44.77827" lon="6.76649">
        <ele>1844.43</ele>
        <time>2022-09-04T10:25:27Z</time>
      </trkpt>
      <trkpt lat="44.77834" lon="6.76647">
        <ele>1844.43</ele>
        <time>2022-09-04T10:25:35Z</time>
      </trkpt>
      <trkpt lat="44.77842" lon="6.76645">
        <ele>1845.39</ele>
        <time>2022-09-04T10:25:44Z</time>
      </trkpt>
      <trkpt lat="44.77851" lon="6.76644">
        <ele>1844.91</ele>
        <time>2022-09-04T10:26:00Z</time>
      </trkpt>
      <trkpt lat="44.77854" lon="6.76644">
        <ele>1844.91</ele>
        <time>2022-09-04T10:26:10Z</time>
      </trkpt>
      <trkpt lat="44.77871" lon="6.76638">
        <ele>1845.39</ele>
        <time>2022-09-04T10:26:24Z</time>
      </trkpt>
      <trkpt lat="44.77886" lon="6.76635">
        <ele>1845.39</ele>
        <time>2022-09-04T10:26:37Z</time>
      </trkpt>
      <trkpt lat="44.7789" lon="6.76631">
        <ele>1845.39</ele>
        <time>2022-09-04T10:26:41Z</time>
      </trkpt>
      <trkpt lat="44.77911" lon="6.76632">
        <ele>1846.35</ele>
        <time>2022-09-04T10:27:00Z</time>
      </trkpt>
      <trkpt lat="44.77925" lon="6.76631">
        <ele>1848.27</ele>
        <time>2022-09-04T10:27:15Z</time>
      </trkpt>
      <trkpt lat="44.77937" lon="6.76627">
        <ele>1849.23</ele>
        <time>2022-09-04T10:27:30Z</time>
      </trkpt>
      <trkpt lat="44.77946" lon="6.76625">
        <ele>1850.68</ele>
        <time>2022-09-04T10:27:42Z</time>
      </trkpt>
      <trkpt lat="44.7795" lon="6.76625">
        <ele>1850.68</ele>
        <time>2022-09-04T10:27:47Z</time>
      </trkpt>
      <trkpt lat="44.7796" lon="6.76621">
        <ele>1852.12</ele>
        <time>2022-09-04T10:27:59Z</time>
      </trkpt>
      <trkpt lat="44.7796" lon="6.7662">
        <ele>1852.12</ele>
        <time>2022-09-04T10:28:00Z</time>
      </trkpt>
      <trkpt lat="44.77972" lon="6.76618">
        <ele>1853.56</ele>
        <time>2022-09-04T10:28:13Z</time>
      </trkpt>
      <trkpt lat="44.77976" lon="6.76615">
        <ele>1854.52</ele>
        <time>2022-09-04T10:28:19Z</time>
      </trkpt>
      <trkpt lat="44.77987" lon="6.7661">
        <ele>1856.44</ele>
        <time>2022-09-04T10:28:34Z</time>
      </trkpt>
      <trkpt lat="44.77988" lon="6.7661">
        <ele>1856.92</ele>
        <time>2022-09-04T10:28:35Z</time>
      </trkpt>
      <trkpt lat="44.78002" lon="6.76604">
        <ele>1858.37</ele>
        <time>2022-09-04T10:28:50Z</time>
      </trkpt>
      <trkpt lat="44.78015" lon="6.76598">
        <ele>1860.29</ele>
        <time>2022-09-04T10:29:04Z</time>
      </trkpt>
      <trkpt lat="44.78016" lon="6.76597">
        <ele>1860.29</ele>
        <time>2022-09-04T10:29:07Z</time>
      </trkpt>
      <trkpt lat="44.78025" lon="6.76589">
        <ele>1861.25</ele>
        <time>2022-09-04T10:29:19Z</time>
      </trkpt>
      <trkpt lat="44.78028" lon="6.76585">
        <ele>1861.73</ele>
        <time>2022-09-04T10:29:24Z</time>
      </trkpt>
      <trkpt lat="44.7804" lon="6.76578">
        <ele>1862.21</ele>
        <time>2022-09-04T10:29:37Z</time>
      </trkpt>
      <trkpt lat="44.78046" lon="6.76571">
        <ele>1863.17</ele>
        <time>2022-09-04T10:29:47Z</time>
      </trkpt>
      <trkpt lat="44.78058" lon="6.76564">
        <ele>1863.17</ele>
        <time>2022-09-04T10:30:02Z</time>
      </trkpt>
      <trkpt lat="44.78069" lon="6.76559">
        <ele>1864.61</ele>
        <time>2022-09-04T10:30:16Z</time>
      </trkpt>
      <trkpt lat="44.7807" lon="6.76559">
        <ele>1864.61</ele>
        <time>2022-09-04T10:30:17Z</time>
      </trkpt>
      <trkpt lat="44.78075" lon="6.76558">
        <ele>1865.09</ele>
        <time>2022-09-04T10:30:23Z</time>
      </trkpt>
      <trkpt lat="44.78086" lon="6.76552">
        <ele>1867.02</ele>
        <time>2022-09-04T10:30:36Z</time>
      </trkpt>
      <trkpt lat="44.78093" lon="6.76548">
        <ele>1867.5</ele>
        <time>2022-09-04T10:30:47Z</time>
      </trkpt>
      <trkpt lat="44.78104" lon="6.76542">
        <ele>1868.46</ele>
        <time>2022-09-04T10:31:00Z</time>
      </trkpt>
      <trkpt lat="44.78116" lon="6.76535">
        <ele>1869.9</ele>
        <time>2022-09-04T10:31:13Z</time>
      </trkpt>
      <trkpt lat="44.78122" lon="6.76532">
        <ele>1869.42</ele>
        <time>2022-09-04T10:31:19Z</time>
      </trkpt>
      <trkpt lat="44.78136" lon="6.76525">
        <ele>1869.9</ele>
        <time>2022-09-04T10:31:32Z</time>
      </trkpt>
      <trkpt lat="44.78145" lon="6.76516">
        <ele>1870.86</ele>
        <time>2022-09-04T10:31:43Z</time>
      </trkpt>
      <trkpt lat="44.78149" lon="6.76511">
        <ele>1870.86</ele>
        <time>2022-09-04T10:31:49Z</time>
      </trkpt>
      <trkpt lat="44.78151" lon="6.76508">
        <ele>1871.34</ele>
        <time>2022-09-04T10:31:51Z</time>
      </trkpt>
      <trkpt lat="44.78162" lon="6.765">
        <ele>1871.34</ele>
        <time>2022-09-04T10:32:04Z</time>
      </trkpt>
      <trkpt lat="44.7817" lon="6.76492">
        <ele>1872.3</ele>
        <time>2022-09-04T10:32:15Z</time>
      </trkpt>
      <trkpt lat="44.78179" lon="6.76484">
        <ele>1872.79</ele>
        <time>2022-09-04T10:32:25Z</time>
      </trkpt>
      <trkpt lat="44.78191" lon="6.7648">
        <ele>1873.27</ele>
        <time>2022-09-04T10:32:38Z</time>
      </trkpt>
      <trkpt lat="44.78196" lon="6.76479">
        <ele>1874.71</ele>
        <time>2022-09-04T10:32:44Z</time>
      </trkpt>
      <trkpt lat="44.7821" lon="6.76481">
        <ele>1875.67</ele>
        <time>2022-09-04T10:32:58Z</time>
      </trkpt>
      <trkpt lat="44.78218" lon="6.76478">
        <ele>1876.15</ele>
        <time>2022-09-04T10:33:07Z</time>
      </trkpt>
      <trkpt lat="44.78232" lon="6.76476">
        <ele>1878.07</ele>
        <time>2022-09-04T10:33:22Z</time>
      </trkpt>
      <trkpt lat="44.78238" lon="6.76477">
        <ele>1878.55</ele>
        <time>2022-09-04T10:33:29Z</time>
      </trkpt>
      <trkpt lat="44.78253" lon="6.76476">
        <ele>1880</ele>
        <time>2022-09-04T10:33:43Z</time>
      </trkpt>
      <trkpt lat="44.78254" lon="6.76477">
        <ele>1880</ele>
        <time>2022-09-04T10:33:44Z</time>
      </trkpt>
      <trkpt lat="44.7826" lon="6.76478">
        <ele>1880.96</ele>
        <time>2022-09-04T10:33:50Z</time>
      </trkpt>
      <trkpt lat="44.7827" lon="6.76479">
        <ele>1881.92</ele>
        <time>2022-09-04T10:34:01Z</time>
      </trkpt>
      <trkpt lat="44.7828" lon="6.76479">
        <ele>1882.88</ele>
        <time>2022-09-04T10:34:13Z</time>
      </trkpt>
      <trkpt lat="44.78282" lon="6.76479">
        <ele>1883.36</ele>
        <time>2022-09-04T10:34:16Z</time>
      </trkpt>
      <trkpt lat="44.78292" lon="6.7648">
        <ele>1884.8</ele>
        <time>2022-09-04T10:34:26Z</time>
      </trkpt>
      <trkpt lat="44.78303" lon="6.76483">
        <ele>1886.24</ele>
        <time>2022-09-04T10:34:39Z</time>
      </trkpt>
      <trkpt lat="44.78311" lon="6.7649">
        <ele>1887.21</ele>
        <time>2022-09-04T10:34:51Z</time>
      </trkpt>
      <trkpt lat="44.78312" lon="6.76492">
        <ele>1887.69</ele>
        <time>2022-09-04T10:34:53Z</time>
      </trkpt>
      <trkpt lat="44.78324" lon="6.76505">
        <ele>1889.61</ele>
        <time>2022-09-04T10:35:09Z</time>
      </trkpt>
      <trkpt lat="44.78332" lon="6.76515">
        <ele>1890.57</ele>
        <time>2022-09-04T10:35:21Z</time>
      </trkpt>
      <trkpt lat="44.78342" lon="6.76524">
        <ele>1892.01</ele>
        <time>2022-09-04T10:35:34Z</time>
      </trkpt>
      <trkpt lat="44.78352" lon="6.76525">
        <ele>1892.49</ele>
        <time>2022-09-04T10:35:46Z</time>
      </trkpt>
      <trkpt lat="44.78354" lon="6.76524">
        <ele>1892.49</ele>
        <time>2022-09-04T10:35:49Z</time>
      </trkpt>
      <trkpt lat="44.78357" lon="6.76523">
        <ele>1892.97</ele>
        <time>2022-09-04T10:35:52Z</time>
      </trkpt>
      <trkpt lat="44.78362" lon="6.76521">
        <ele>1893.45</ele>
        <time>2022-09-04T10:35:59Z</time>
      </trkpt>
      <trkpt lat="44.78374" lon="6.7652">
        <ele>1894.9</ele>
        <time>2022-09-04T10:36:14Z</time>
      </trkpt>
      <trkpt lat="44.78383" lon="6.76523">
        <ele>1895.86</ele>
        <time>2022-09-04T10:36:26Z</time>
      </trkpt>
      <trkpt lat="44.78394" lon="6.76521">
        <ele>1898.26</ele>
        <time>2022-09-04T10:36:41Z</time>
      </trkpt>
      <trkpt lat="44.78403" lon="6.76524">
        <ele>1899.22</ele>
        <time>2022-09-04T10:36:50Z</time>
      </trkpt>
      <trkpt lat="44.78413" lon="6.7653">
        <ele>1900.66</ele>
        <time>2022-09-04T10:37:04Z</time>
      </trkpt>
      <trkpt lat="44.78424" lon="6.76533">
        <ele>1901.63</ele>
        <time>2022-09-04T10:37:17Z</time>
      </trkpt>
      <trkpt lat="44.78437" lon="6.76528">
        <ele>1902.59</ele>
        <time>2022-09-04T10:37:31Z</time>
      </trkpt>
      <trkpt lat="44.78441" lon="6.76526">
        <ele>1903.07</ele>
        <time>2022-09-04T10:37:34Z</time>
      </trkpt>
      <trkpt lat="44.78456" lon="6.76524">
        <ele>1904.51</ele>
        <time>2022-09-04T10:37:51Z</time>
      </trkpt>
      <trkpt lat="44.78468" lon="6.76514">
        <ele>1905.95</ele>
        <time>2022-09-04T10:38:05Z</time>
      </trkpt>
      <trkpt lat="44.78483" lon="6.76508">
        <ele>1907.87</ele>
        <time>2022-09-04T10:38:19Z</time>
      </trkpt>
      <trkpt lat="44.78484" lon="6.76506">
        <ele>1907.87</ele>
        <time>2022-09-04T10:38:21Z</time>
      </trkpt>
      <trkpt lat="44.78492" lon="6.765">
        <ele>1907.87</ele>
        <time>2022-09-04T10:38:31Z</time>
      </trkpt>
      <trkpt lat="44.78501" lon="6.76498">
        <ele>1909.32</ele>
        <time>2022-09-04T10:38:45Z</time>
      </trkpt>
      <trkpt lat="44.78514" lon="6.76504">
        <ele>1911.24</ele>
        <time>2022-09-04T10:39:01Z</time>
      </trkpt>
      <trkpt lat="44.78516" lon="6.76505">
        <ele>1911.72</ele>
        <time>2022-09-04T10:39:04Z</time>
      </trkpt>
      <trkpt lat="44.78526" lon="6.76511">
        <ele>1913.16</ele>
        <time>2022-09-04T10:39:16Z</time>
      </trkpt>
      <trkpt lat="44.78539" lon="6.76517">
        <ele>1914.12</ele>
        <time>2022-09-04T10:39:31Z</time>
      </trkpt>
      <trkpt lat="44.78543" lon="6.7652">
        <ele>1914.6</ele>
        <time>2022-09-04T10:39:36Z</time>
      </trkpt>
      <trkpt lat="44.78553" lon="6.76529">
        <ele>1916.04</ele>
        <time>2022-09-04T10:39:49Z</time>
      </trkpt>
      <trkpt lat="44.78563" lon="6.76539">
        <ele>1917.49</ele>
        <time>2022-09-04T10:40:03Z</time>
      </trkpt>
      <trkpt lat="44.78573" lon="6.76549">
        <ele>1918.45</ele>
        <time>2022-09-04T10:40:17Z</time>
      </trkpt>
      <trkpt lat="44.78583" lon="6.76555">
        <ele>1919.89</ele>
        <time>2022-09-04T10:40:30Z</time>
      </trkpt>
      <trkpt lat="44.78593" lon="6.76553">
        <ele>1920.85</ele>
        <time>2022-09-04T10:40:44Z</time>
      </trkpt>
      <trkpt lat="44.78604" lon="6.76558">
        <ele>1922.29</ele>
        <time>2022-09-04T10:40:59Z</time>
      </trkpt>
      <trkpt lat="44.78614" lon="6.76563">
        <ele>1924.22</ele>
        <time>2022-09-04T10:41:14Z</time>
      </trkpt>
      <trkpt lat="44.78625" lon="6.76564">
        <ele>1925.66</ele>
        <time>2022-09-04T10:41:29Z</time>
      </trkpt>
      <trkpt lat="44.78638" lon="6.76565">
        <ele>1927.1</ele>
        <time>2022-09-04T10:41:44Z</time>
      </trkpt>
      <trkpt lat="44.78646" lon="6.76567">
        <ele>1927.58</ele>
        <time>2022-09-04T10:42:00Z</time>
      </trkpt>
      <trkpt lat="44.78655" lon="6.76568">
        <ele>1929.5</ele>
        <time>2022-09-04T10:42:14Z</time>
      </trkpt>
      <trkpt lat="44.78667" lon="6.76568">
        <ele>1930.95</ele>
        <time>2022-09-04T10:42:29Z</time>
      </trkpt>
      <trkpt lat="44.78675" lon="6.76574">
        <ele>1932.39</ele>
        <time>2022-09-04T10:42:38Z</time>
      </trkpt>
      <trkpt lat="44.78688" lon="6.76564">
        <ele>1933.35</ele>
        <time>2022-09-04T10:42:52Z</time>
      </trkpt>
      <trkpt lat="44.78702" lon="6.76557">
        <ele>1934.31</ele>
        <time>2022-09-04T10:43:06Z</time>
      </trkpt>
      <trkpt lat="44.78715" lon="6.76549">
        <ele>1935.27</ele>
        <time>2022-09-04T10:43:20Z</time>
      </trkpt>
      <trkpt lat="44.78727" lon="6.76541">
        <ele>1937.19</ele>
        <time>2022-09-04T10:43:36Z</time>
      </trkpt>
      <trkpt lat="44.78739" lon="6.76537">
        <ele>1938.64</ele>
        <time>2022-09-04T10:43:51Z</time>
      </trkpt>
      <trkpt lat="44.78748" lon="6.76526">
        <ele>1939.6</ele>
        <time>2022-09-04T10:44:06Z</time>
      </trkpt>
      <trkpt lat="44.78757" lon="6.76518">
        <ele>1940.56</ele>
        <time>2022-09-04T10:44:18Z</time>
      </trkpt>
      <trkpt lat="44.78762" lon="6.76509">
        <ele>1942</ele>
        <time>2022-09-04T10:44:31Z</time>
      </trkpt>
      <trkpt lat="44.78769" lon="6.765">
        <ele>1943.92</ele>
        <time>2022-09-04T10:44:46Z</time>
      </trkpt>
      <trkpt lat="44.78776" lon="6.76492">
        <ele>1946.33</ele>
        <time>2022-09-04T10:45:01Z</time>
      </trkpt>
      <trkpt lat="44.78785" lon="6.7649">
        <ele>1948.73</ele>
        <time>2022-09-04T10:45:18Z</time>
      </trkpt>
      <trkpt lat="44.78797" lon="6.76489">
        <ele>1950.65</ele>
        <time>2022-09-04T10:45:35Z</time>
      </trkpt>
      <trkpt lat="44.7881" lon="6.76483">
        <ele>1953.54</ele>
        <time>2022-09-04T10:45:53Z</time>
      </trkpt>
      <trkpt lat="44.78816" lon="6.76478">
        <ele>1956.42</ele>
        <time>2022-09-04T10:46:07Z</time>
      </trkpt>
      <trkpt lat="44.78822" lon="6.76474">
        <ele>1957.86</ele>
        <time>2022-09-04T10:46:22Z</time>
      </trkpt>
      <trkpt lat="44.78835" lon="6.76472">
        <ele>1960.27</ele>
        <time>2022-09-04T10:46:39Z</time>
      </trkpt>
      <trkpt lat="44.78851" lon="6.76474">
        <ele>1963.15</ele>
        <time>2022-09-04T10:46:57Z</time>
      </trkpt>
      <trkpt lat="44.78859" lon="6.76475">
        <ele>1965.07</ele>
        <time>2022-09-04T10:47:10Z</time>
      </trkpt>
      <trkpt lat="44.78864" lon="6.76479">
        <ele>1966.51</ele>
        <time>2022-09-04T10:47:21Z</time>
      </trkpt>
      <trkpt lat="44.78872" lon="6.76491">
        <ele>1968.44</ele>
        <time>2022-09-04T10:47:36Z</time>
      </trkpt>
      <trkpt lat="44.78879" lon="6.76498">
        <ele>1970.84</ele>
        <time>2022-09-04T10:47:51Z</time>
      </trkpt>
      <trkpt lat="44.78885" lon="6.76508">
        <ele>1973.72</ele>
        <time>2022-09-04T10:48:07Z</time>
      </trkpt>
      <trkpt lat="44.78889" lon="6.76512">
        <ele>1975.65</ele>
        <time>2022-09-04T10:48:19Z</time>
      </trkpt>
      <trkpt lat="44.78895" lon="6.76512">
        <ele>1977.09</ele>
        <time>2022-09-04T10:48:32Z</time>
      </trkpt>
      <trkpt lat="44.78903" lon="6.76513">
        <ele>1979.49</ele>
        <time>2022-09-04T10:48:44Z</time>
      </trkpt>
      <trkpt lat="44.7891" lon="6.76512">
        <ele>1981.41</ele>
        <time>2022-09-04T10:48:58Z</time>
      </trkpt>
      <trkpt lat="44.78918" lon="6.76515">
        <ele>1983.82</ele>
        <time>2022-09-04T10:49:11Z</time>
      </trkpt>
      <trkpt lat="44.78924" lon="6.76516">
        <ele>1985.74</ele>
        <time>2022-09-04T10:49:24Z</time>
      </trkpt>
      <trkpt lat="44.78932" lon="6.76518">
        <ele>1987.18</ele>
        <time>2022-09-04T10:49:37Z</time>
      </trkpt>
      <trkpt lat="44.78937" lon="6.76519">
        <ele>1987.66</ele>
        <time>2022-09-04T10:49:54Z</time>
      </trkpt>
      <trkpt lat="44.78941" lon="6.76518">
        <ele>1987.18</ele>
        <time>2022-09-04T10:50:19Z</time>
      </trkpt>
      <trkpt lat="44.78944" lon="6.76511">
        <ele>1988.62</ele>
        <time>2022-09-04T10:50:41Z</time>
      </trkpt>
      <trkpt lat="44.78943" lon="6.76509">
        <ele>1989.1</ele>
        <time>2022-09-04T10:50:57Z</time>
      </trkpt>
      <trkpt lat="44.78945" lon="6.76509">
        <ele>1989.1</ele>
        <time>2022-09-04T10:51:00Z</time>
      </trkpt>
      <trkpt lat="44.78947" lon="6.76508">
        <ele>1989.59</ele>
        <time>2022-09-04T10:51:03Z</time>
      </trkpt>
      <trkpt lat="44.78955" lon="6.76508">
        <ele>1991.03</ele>
        <time>2022-09-04T10:51:14Z</time>
      </trkpt>
      <trkpt lat="44.78964" lon="6.76509">
        <ele>1992.95</ele>
        <time>2022-09-04T10:51:27Z</time>
      </trkpt>
      <trkpt lat="44.78975" lon="6.76515">
        <ele>1994.87</ele>
        <time>2022-09-04T10:51:42Z</time>
      </trkpt>
      <trkpt lat="44.78983" lon="6.76519">
        <ele>1997.28</ele>
        <time>2022-09-04T10:51:59Z</time>
      </trkpt>
      <trkpt lat="44.78992" lon="6.76521">
        <ele>2000.64</ele>
        <time>2022-09-04T10:52:16Z</time>
      </trkpt>
      <trkpt lat="44.79001" lon="6.76525">
        <ele>2002.56</ele>
        <time>2022-09-04T10:52:31Z</time>
      </trkpt>
      <trkpt lat="44.7901" lon="6.76531">
        <ele>2004.49</ele>
        <time>2022-09-04T10:52:47Z</time>
      </trkpt>
      <trkpt lat="44.79017" lon="6.76541">
        <ele>2007.85</ele>
        <time>2022-09-04T10:53:03Z</time>
      </trkpt>
      <trkpt lat="44.79028" lon="6.76536">
        <ele>2009.29</ele>
        <time>2022-09-04T10:53:18Z</time>
      </trkpt>
      <trkpt lat="44.7904" lon="6.76534">
        <ele>2010.73</ele>
        <time>2022-09-04T10:53:33Z</time>
      </trkpt>
      <trkpt lat="44.79054" lon="6.76533">
        <ele>2012.18</ele>
        <time>2022-09-04T10:53:48Z</time>
      </trkpt>
      <trkpt lat="44.79069" lon="6.76534">
        <ele>2013.62</ele>
        <time>2022-09-04T10:54:08Z</time>
      </trkpt>
      <trkpt lat="44.79082" lon="6.76541">
        <ele>2016.5</ele>
        <time>2022-09-04T10:54:29Z</time>
      </trkpt>
      <trkpt lat="44.79089" lon="6.7655">
        <ele>2018.91</ele>
        <time>2022-09-04T10:54:41Z</time>
      </trkpt>
      <trkpt lat="44.79095" lon="6.76551">
        <ele>2020.83</ele>
        <time>2022-09-04T10:54:54Z</time>
      </trkpt>
      <trkpt lat="44.79104" lon="6.76552">
        <ele>2023.23</ele>
        <time>2022-09-04T10:55:09Z</time>
      </trkpt>
      <trkpt lat="44.79114" lon="6.76559">
        <ele>2024.67</ele>
        <time>2022-09-04T10:55:24Z</time>
      </trkpt>
      <trkpt lat="44.79115" lon="6.7656">
        <ele>2024.67</ele>
        <time>2022-09-04T10:55:25Z</time>
      </trkpt>
      <trkpt lat="44.79125" lon="6.7656">
        <ele>2026.12</ele>
        <time>2022-09-04T10:55:39Z</time>
      </trkpt>
      <trkpt lat="44.7913" lon="6.76551">
        <ele>2028.04</ele>
        <time>2022-09-04T10:55:54Z</time>
      </trkpt>
      <trkpt lat="44.79137" lon="6.7654">
        <ele>2028.52</ele>
        <time>2022-09-04T10:56:07Z</time>
      </trkpt>
      <trkpt lat="44.79138" lon="6.76539">
        <ele>2029</ele>
        <time>2022-09-04T10:56:22Z</time>
      </trkpt>
      <trkpt lat="44.79139" lon="6.76537">
        <ele>2029</ele>
        <time>2022-09-04T10:56:39Z</time>
      </trkpt>
      <trkpt lat="44.79141" lon="6.76531">
        <ele>2029</ele>
        <time>2022-09-04T10:57:05Z</time>
      </trkpt>
      <trkpt lat="44.79146" lon="6.76527">
        <ele>2030.92</ele>
        <time>2022-09-04T10:57:19Z</time>
      </trkpt>
      <trkpt lat="44.79152" lon="6.76518">
        <ele>2032.84</ele>
        <time>2022-09-04T10:57:33Z</time>
      </trkpt>
      <trkpt lat="44.79162" lon="6.76511">
        <ele>2034.77</ele>
        <time>2022-09-04T10:57:46Z</time>
      </trkpt>
      <trkpt lat="44.79172" lon="6.76512">
        <ele>2036.21</ele>
        <time>2022-09-04T10:57:58Z</time>
      </trkpt>
      <trkpt lat="44.79184" lon="6.76517">
        <ele>2036.21</ele>
        <time>2022-09-04T10:58:11Z</time>
      </trkpt>
      <trkpt lat="44.79187" lon="6.76519">
        <ele>2036.69</ele>
        <time>2022-09-04T10:58:16Z</time>
      </trkpt>
      <trkpt lat="44.79191" lon="6.76521">
        <ele>2037.17</ele>
        <time>2022-09-04T10:58:22Z</time>
      </trkpt>
      <trkpt lat="44.79194" lon="6.76521">
        <ele>2037.17</ele>
        <time>2022-09-04T10:58:26Z</time>
      </trkpt>
      <trkpt lat="44.79206" lon="6.76527">
        <ele>2037.17</ele>
        <time>2022-09-04T10:58:41Z</time>
      </trkpt>
      <trkpt lat="44.79215" lon="6.7653">
        <ele>2037.17</ele>
        <time>2022-09-04T10:58:52Z</time>
      </trkpt>
      <trkpt lat="44.79226" lon="6.76537">
        <ele>2038.61</ele>
        <time>2022-09-04T10:59:06Z</time>
      </trkpt>
      <trkpt lat="44.79233" lon="6.76536">
        <ele>2039.09</ele>
        <time>2022-09-04T10:59:17Z</time>
      </trkpt>
      <trkpt lat="44.79255" lon="6.76535">
        <ele>2040.05</ele>
        <time>2022-09-04T10:59:35Z</time>
      </trkpt>
      <trkpt lat="44.79272" lon="6.76529">
        <ele>2042.46</ele>
        <time>2022-09-04T10:59:51Z</time>
      </trkpt>
      <trkpt lat="44.79279" lon="6.76522">
        <ele>2045.34</ele>
        <time>2022-09-04T11:00:09Z</time>
      </trkpt>
      <trkpt lat="44.7929" lon="6.76514">
        <ele>2047.75</ele>
        <time>2022-09-04T11:00:23Z</time>
      </trkpt>
      <trkpt lat="44.79299" lon="6.76515">
        <ele>2049.19</ele>
        <time>2022-09-04T11:00:36Z</time>
      </trkpt>
      <trkpt lat="44.79313" lon="6.76522">
        <ele>2050.63</ele>
        <time>2022-09-04T11:00:49Z</time>
      </trkpt>
      <trkpt lat="44.7932" lon="6.76528">
        <ele>2053.03</ele>
        <time>2022-09-04T11:01:04Z</time>
      </trkpt>
      <trkpt lat="44.79325" lon="6.76529">
        <ele>2054.96</ele>
        <time>2022-09-04T11:01:17Z</time>
      </trkpt>
      <trkpt lat="44.79332" lon="6.76536">
        <ele>2058.32</ele>
        <time>2022-09-04T11:01:32Z</time>
      </trkpt>
      <trkpt lat="44.79336" lon="6.76537">
        <ele>2060.24</ele>
        <time>2022-09-04T11:01:47Z</time>
      </trkpt>
      <trkpt lat="44.79347" lon="6.76536">
        <ele>2063.13</ele>
        <time>2022-09-04T11:02:03Z</time>
      </trkpt>
      <trkpt lat="44.79352" lon="6.76537">
        <ele>2064.57</ele>
        <time>2022-09-04T11:02:19Z</time>
      </trkpt>
      <trkpt lat="44.79354" lon="6.76539">
        <ele>2065.05</ele>
        <time>2022-09-04T11:02:39Z</time>
      </trkpt>
      <trkpt lat="44.79357" lon="6.76541">
        <ele>2065.53</ele>
        <time>2022-09-04T11:02:52Z</time>
      </trkpt>
      <trkpt lat="44.79357" lon="6.76539">
        <ele>2065.53</ele>
        <time>2022-09-04T11:03:09Z</time>
      </trkpt>
      <trkpt lat="44.79355" lon="6.76537">
        <ele>2065.53</ele>
        <time>2022-09-04T11:03:28Z</time>
      </trkpt>
      <trkpt lat="44.79359" lon="6.76539">
        <ele>2065.53</ele>
        <time>2022-09-04T11:03:44Z</time>
      </trkpt>
      <trkpt lat="44.79354" lon="6.76534">
        <ele>2066.01</ele>
        <time>2022-09-04T11:04:06Z</time>
      </trkpt>
      <trkpt lat="44.79352" lon="6.76535">
        <ele>2066.01</ele>
        <time>2022-09-04T11:04:19Z</time>
      </trkpt>
      <trkpt lat="44.79351" lon="6.76536">
        <ele>2066.01</ele>
        <time>2022-09-04T11:04:44Z</time>
      </trkpt>
      <trkpt lat="44.79351" lon="6.76534">
        <ele>2066.01</ele>
        <time>2022-09-04T11:05:06Z</time>
      </trkpt>
      <trkpt lat="44.79355" lon="6.76535">
        <ele>2066.01</ele>
        <time>2022-09-04T11:05:36Z</time>
      </trkpt>
      <trkpt lat="44.79353" lon="6.76534">
        <ele>2066.01</ele>
        <time>2022-09-04T11:06:13Z</time>
      </trkpt>
      <trkpt lat="44.79353" lon="6.76528">
        <ele>2066.49</ele>
        <time>2022-09-04T11:06:26Z</time>
      </trkpt>
      <trkpt lat="44.79351" lon="6.7653">
        <ele>2066.49</ele>
        <time>2022-09-04T11:06:40Z</time>
      </trkpt>
      <trkpt lat="44.79352" lon="6.76528">
        <ele>2066.49</ele>
        <time>2022-09-04T11:07:13Z</time>
      </trkpt>
      <trkpt lat="44.79355" lon="6.76526">
        <ele>2066.49</ele>
        <time>2022-09-04T11:07:42Z</time>
      </trkpt>
      <trkpt lat="44.79355" lon="6.76523">
        <ele>2066.97</ele>
        <time>2022-09-04T11:08:07Z</time>
      </trkpt>
      <trkpt lat="44.79355" lon="6.76523">
        <ele>2066.97</ele>
        <time>2022-09-04T11:08:40Z</time>
      </trkpt>
      <trkpt lat="44.79353" lon="6.76523">
        <ele>2067.45</ele>
        <time>2022-09-04T11:09:11Z</time>
      </trkpt>
      <trkpt lat="44.79356" lon="6.76522">
        <ele>2067.45</ele>
        <time>2022-09-04T11:09:43Z</time>
      </trkpt>
      <trkpt lat="44.79352" lon="6.76524">
        <ele>2067.93</ele>
        <time>2022-09-04T11:10:13Z</time>
      </trkpt>
      <trkpt lat="44.79359" lon="6.76518">
        <ele>2067.93</ele>
        <time>2022-09-04T11:10:44Z</time>
      </trkpt>
      <trkpt lat="44.79356" lon="6.76523">
        <ele>2067.93</ele>
        <time>2022-09-04T11:11:17Z</time>
      </trkpt>
      <trkpt lat="44.79355" lon="6.76522">
        <ele>2067.93</ele>
        <time>2022-09-04T11:11:47Z</time>
      </trkpt>
      <trkpt lat="44.79356" lon="6.76524">
        <ele>2066.97</ele>
        <time>2022-09-04T11:12:14Z</time>
      </trkpt>
      <trkpt lat="44.7936" lon="6.76522">
        <ele>2067.45</ele>
        <time>2022-09-04T11:12:45Z</time>
      </trkpt>
      <trkpt lat="44.79358" lon="6.76521">
        <ele>2067.45</ele>
        <time>2022-09-04T11:13:19Z</time>
      </trkpt>
      <trkpt lat="44.79349" lon="6.76525">
        <ele>2067.45</ele>
        <time>2022-09-04T11:13:48Z</time>
      </trkpt>
      <trkpt lat="44.79354" lon="6.76524">
        <ele>2067.93</ele>
        <time>2022-09-04T11:14:19Z</time>
      </trkpt>
      <trkpt lat="44.79356" lon="6.76524">
        <ele>2067.93</ele>
        <time>2022-09-04T11:14:47Z</time>
      </trkpt>
      <trkpt lat="44.79354" lon="6.76525">
        <ele>2067.93</ele>
        <time>2022-09-04T11:15:17Z</time>
      </trkpt>
      <trkpt lat="44.79355" lon="6.76526">
        <ele>2067.93</ele>
        <time>2022-09-04T11:15:45Z</time>
      </trkpt>
      <trkpt lat="44.79352" lon="6.7653">
        <ele>2068.41</ele>
        <time>2022-09-04T11:16:17Z</time>
      </trkpt>
      <trkpt lat="44.79349" lon="6.76527">
        <ele>2068.41</ele>
        <time>2022-09-04T11:16:52Z</time>
      </trkpt>
      <trkpt lat="44.7935" lon="6.76528">
        <ele>2068.89</ele>
        <time>2022-09-04T11:17:33Z</time>
      </trkpt>
      <trkpt lat="44.79349" lon="6.76531">
        <ele>2068.89</ele>
        <time>2022-09-04T11:18:07Z</time>
      </trkpt>
      <trkpt lat="44.79351" lon="6.76528">
        <ele>2068.89</ele>
        <time>2022-09-04T11:18:41Z</time>
      </trkpt>
      <trkpt lat="44.79352" lon="6.76527">
        <ele>2069.38</ele>
        <time>2022-09-04T11:19:12Z</time>
      </trkpt>
      <trkpt lat="44.79352" lon="6.76527">
        <ele>2069.38</ele>
        <time>2022-09-04T11:19:46Z</time>
      </trkpt>
      <trkpt lat="44.79357" lon="6.76525">
        <ele>2069.38</ele>
        <time>2022-09-04T11:20:14Z</time>
      </trkpt>
      <trkpt lat="44.79357" lon="6.76526">
        <ele>2069.86</ele>
        <time>2022-09-04T11:20:46Z</time>
      </trkpt>
      <trkpt lat="44.79353" lon="6.76533">
        <ele>2069.86</ele>
        <time>2022-09-04T11:21:20Z</time>
      </trkpt>
      <trkpt lat="44.79345" lon="6.76526">
        <ele>2070.34</ele>
        <time>2022-09-04T11:21:52Z</time>
      </trkpt>
      <trkpt lat="44.79352" lon="6.76528">
        <ele>2070.34</ele>
        <time>2022-09-04T11:22:23Z</time>
      </trkpt>
      <trkpt lat="44.7935" lon="6.76526">
        <ele>2070.34</ele>
        <time>2022-09-04T11:22:51Z</time>
      </trkpt>
      <trkpt lat="44.79354" lon="6.76525">
        <ele>2070.34</ele>
        <time>2022-09-04T11:23:20Z</time>
      </trkpt>
      <trkpt lat="44.79352" lon="6.76533">
        <ele>2070.34</ele>
        <time>2022-09-04T11:23:56Z</time>
      </trkpt>
      <trkpt lat="44.79353" lon="6.76529">
        <ele>2070.34</ele>
        <time>2022-09-04T11:24:26Z</time>
      </trkpt>
      <trkpt lat="44.79354" lon="6.76529">
        <ele>2070.34</ele>
        <time>2022-09-04T11:24:58Z</time>
      </trkpt>
      <trkpt lat="44.79355" lon="6.76524">
        <ele>2070.34</ele>
        <time>2022-09-04T11:25:23Z</time>
      </trkpt>
      <trkpt lat="44.79354" lon="6.76529">
        <ele>2070.34</ele>
        <time>2022-09-04T11:25:53Z</time>
      </trkpt>
      <trkpt lat="44.79353" lon="6.76531">
        <ele>2070.34</ele>
        <time>2022-09-04T11:26:16Z</time>
      </trkpt>
      <trkpt lat="44.79353" lon="6.76532">
        <ele>2070.34</ele>
        <time>2022-09-04T11:26:39Z</time>
      </trkpt>
      <trkpt lat="44.79356" lon="6.76527">
        <ele>2070.34</ele>
        <time>2022-09-04T11:27:03Z</time>
      </trkpt>
      <trkpt lat="44.79355" lon="6.76532">
        <ele>2070.82</ele>
        <time>2022-09-04T11:27:26Z</time>
      </trkpt>
      <trkpt lat="44.79354" lon="6.76526">
        <ele>2070.82</ele>
        <time>2022-09-04T11:27:48Z</time>
      </trkpt>
      <trkpt lat="44.79355" lon="6.76527">
        <ele>2070.82</ele>
        <time>2022-09-04T11:28:16Z</time>
      </trkpt>
      <trkpt lat="44.79354" lon="6.76534">
        <ele>2070.82</ele>
        <time>2022-09-04T11:28:44Z</time>
      </trkpt>
      <trkpt lat="44.79354" lon="6.76529">
        <ele>2070.82</ele>
        <time>2022-09-04T11:29:06Z</time>
      </trkpt>
      <trkpt lat="44.79355" lon="6.76529">
        <ele>2070.82</ele>
        <time>2022-09-04T11:29:33Z</time>
      </trkpt>
      <trkpt lat="44.79353" lon="6.76528">
        <ele>2070.82</ele>
        <time>2022-09-04T11:29:54Z</time>
      </trkpt>
      <trkpt lat="44.79353" lon="6.76526">
        <ele>2070.82</ele>
        <time>2022-09-04T11:30:26Z</time>
      </trkpt>
      <trkpt lat="44.79354" lon="6.76529">
        <ele>2070.82</ele>
        <time>2022-09-04T11:30:50Z</time>
      </trkpt>
      <trkpt lat="44.79355" lon="6.7653">
        <ele>2070.82</ele>
        <time>2022-09-04T11:31:12Z</time>
      </trkpt>
      <trkpt lat="44.79356" lon="6.76524">
        <ele>2070.82</ele>
        <time>2022-09-04T11:31:36Z</time>
      </trkpt>
      <trkpt lat="44.79354" lon="6.76529">
        <ele>2070.82</ele>
        <time>2022-09-04T11:31:57Z</time>
      </trkpt>
      <trkpt lat="44.79355" lon="6.76527">
        <ele>2070.82</ele>
        <time>2022-09-04T11:32:25Z</time>
      </trkpt>
      <trkpt lat="44.79352" lon="6.76531">
        <ele>2070.82</ele>
        <time>2022-09-04T11:32:50Z</time>
      </trkpt>
      <trkpt lat="44.79356" lon="6.76524">
        <ele>2070.82</ele>
        <time>2022-09-04T11:33:14Z</time>
      </trkpt>
      <trkpt lat="44.79355" lon="6.76528">
        <ele>2070.82</ele>
        <time>2022-09-04T11:33:33Z</time>
      </trkpt>
      <trkpt lat="44.79356" lon="6.76527">
        <ele>2070.82</ele>
        <time>2022-09-04T11:33:55Z</time>
      </trkpt>
      <trkpt lat="44.79354" lon="6.76525">
        <ele>2070.82</ele>
        <time>2022-09-04T11:34:10Z</time>
      </trkpt>
      <trkpt lat="44.79357" lon="6.76527">
        <ele>2072.26</ele>
        <time>2022-09-04T11:34:31Z</time>
      </trkpt>
      <trkpt lat="44.79355" lon="6.76528">
        <ele>2072.26</ele>
        <time>2022-09-04T11:34:52Z</time>
      </trkpt>
      <trkpt lat="44.79357" lon="6.7653">
        <ele>2072.26</ele>
        <time>2022-09-04T11:35:09Z</time>
      </trkpt>
      <trkpt lat="44.79357" lon="6.7653">
        <ele>2072.26</ele>
        <time>2022-09-04T11:35:11Z</time>
      </trkpt>
      <trkpt lat="44.79354" lon="6.76536">
        <ele>2072.26</ele>
        <time>2022-09-04T11:35:23Z</time>
      </trkpt>
      <trkpt lat="44.79354" lon="6.76539">
        <ele>2072.74</ele>
        <time>2022-09-04T11:35:55Z</time>
      </trkpt>
      <trkpt lat="44.79353" lon="6.76537">
        <ele>2072.74</ele>
        <time>2022-09-04T11:36:20Z</time>
      </trkpt>
      <trkpt lat="44.79352" lon="6.76534">
        <ele>2072.74</ele>
        <time>2022-09-04T11:36:50Z</time>
      </trkpt>
      <trkpt lat="44.79351" lon="6.76535">
        <ele>2072.74</ele>
        <time>2022-09-04T11:37:29Z</time>
      </trkpt>
      <trkpt lat="44.79349" lon="6.76537">
        <ele>2072.74</ele>
        <time>2022-09-04T11:37:55Z</time>
      </trkpt>
      <trkpt lat="44.79351" lon="6.7654">
        <ele>2072.74</ele>
        <time>2022-09-04T11:38:26Z</time>
      </trkpt>
      <trkpt lat="44.79353" lon="6.76534">
        <ele>2072.74</ele>
        <time>2022-09-04T11:38:40Z</time>
      </trkpt>
      <trkpt lat="44.79352" lon="6.76531">
        <ele>2072.74</ele>
        <time>2022-09-04T11:39:10Z</time>
      </trkpt>
      <trkpt lat="44.79354" lon="6.76536">
        <ele>2072.74</ele>
        <time>2022-09-04T11:39:34Z</time>
      </trkpt>
      <trkpt lat="44.79354" lon="6.76531">
        <ele>2073.22</ele>
        <time>2022-09-04T11:40:03Z</time>
      </trkpt>
      <trkpt lat="44.79354" lon="6.76534">
        <ele>2073.22</ele>
        <time>2022-09-04T11:40:15Z</time>
      </trkpt>
      <trkpt lat="44.79354" lon="6.76537">
        <ele>2073.22</ele>
        <time>2022-09-04T11:40:19Z</time>
      </trkpt>
      <trkpt lat="44.79353" lon="6.76539">
        <ele>2073.22</ele>
        <time>2022-09-04T11:40:33Z</time>
      </trkpt>
      <trkpt lat="44.79355" lon="6.76535">
        <ele>2073.22</ele>
        <time>2022-09-04T11:40:48Z</time>
      </trkpt>
      <trkpt lat="44.79359" lon="6.76541">
        <ele>2073.22</ele>
        <time>2022-09-04T11:41:01Z</time>
      </trkpt>
      <trkpt lat="44.7936" lon="6.7654">
        <ele>2073.22</ele>
        <time>2022-09-04T11:41:12Z</time>
      </trkpt>
      <trkpt lat="44.79361" lon="6.7654">
        <ele>2073.22</ele>
        <time>2022-09-04T11:41:26Z</time>
      </trkpt>
      <trkpt lat="44.79361" lon="6.76543">
        <ele>2073.22</ele>
        <time>2022-09-04T11:41:36Z</time>
      </trkpt>
      <trkpt lat="44.79372" lon="6.76543">
        <ele>2075.14</ele>
        <time>2022-09-04T11:41:49Z</time>
      </trkpt>
      <trkpt lat="44.79379" lon="6.7654">
        <ele>2076.59</ele>
        <time>2022-09-04T11:42:02Z</time>
      </trkpt>
      <trkpt lat="44.79385" lon="6.76538">
        <ele>2078.03</ele>
        <time>2022-09-04T11:42:14Z</time>
      </trkpt>
      <trkpt lat="44.79384" lon="6.76535">
        <ele>2078.51</ele>
        <time>2022-09-04T11:42:40Z</time>
      </trkpt>
      <trkpt lat="44.7939" lon="6.76536">
        <ele>2079.95</ele>
        <time>2022-09-04T11:43:02Z</time>
      </trkpt>
      <trkpt lat="44.7939" lon="6.76537">
        <ele>2079.95</ele>
        <time>2022-09-04T11:43:14Z</time>
      </trkpt>
      <trkpt lat="44.79385" lon="6.76539">
        <ele>2078.51</ele>
        <time>2022-09-04T11:43:19Z</time>
      </trkpt>
      <trkpt lat="44.79374" lon="6.76543">
        <ele>2075.14</ele>
        <time>2022-09-04T11:43:31Z</time>
      </trkpt>
      <trkpt lat="44.7936" lon="6.76547">
        <ele>2072.74</ele>
        <time>2022-09-04T11:43:44Z</time>
      </trkpt>
      <trkpt lat="44.79358" lon="6.76546">
        <ele>2072.74</ele>
        <time>2022-09-04T11:44:01Z</time>
      </trkpt>
      <trkpt lat="44.79358" lon="6.76542">
        <ele>2072.26</ele>
        <time>2022-09-04T11:44:25Z</time>
      </trkpt>
      <trkpt lat="44.79358" lon="6.76542">
        <ele>2072.26</ele>
        <time>2022-09-04T11:44:43Z</time>
      </trkpt>
      <trkpt lat="44.79359" lon="6.76547">
        <ele>2072.26</ele>
        <time>2022-09-04T11:45:11Z</time>
      </trkpt>
      <trkpt lat="44.79364" lon="6.76547">
        <ele>2073.22</ele>
        <time>2022-09-04T11:45:16Z</time>
      </trkpt>
      <trkpt lat="44.79376" lon="6.76541">
        <ele>2075.62</ele>
        <time>2022-09-04T11:45:28Z</time>
      </trkpt>
      <trkpt lat="44.79385" lon="6.76538">
        <ele>2078.51</ele>
        <time>2022-09-04T11:45:40Z</time>
      </trkpt>
      <trkpt lat="44.79386" lon="6.76538">
        <ele>2078.51</ele>
        <time>2022-09-04T11:45:41Z</time>
      </trkpt>
      <trkpt lat="44.79397" lon="6.76538">
        <ele>2080.91</ele>
        <time>2022-09-04T11:45:55Z</time>
      </trkpt>
      <trkpt lat="44.79401" lon="6.76538">
        <ele>2082.35</ele>
        <time>2022-09-04T11:46:02Z</time>
      </trkpt>
      <trkpt lat="44.79411" lon="6.76537">
        <ele>2084.76</ele>
        <time>2022-09-04T11:46:15Z</time>
      </trkpt>
      <trkpt lat="44.7942" lon="6.76533">
        <ele>2086.2</ele>
        <time>2022-09-04T11:46:26Z</time>
      </trkpt>
      <trkpt lat="44.7943" lon="6.76531">
        <ele>2087.64</ele>
        <time>2022-09-04T11:46:39Z</time>
      </trkpt>
      <trkpt lat="44.7943" lon="6.76531">
        <ele>2087.64</ele>
        <time>2022-09-04T11:46:58Z</time>
      </trkpt>
      <trkpt lat="44.7943" lon="6.76531">
        <ele>2088.12</ele>
        <time>2022-09-04T11:47:21Z</time>
      </trkpt>
      <trkpt lat="44.79429" lon="6.76529">
        <ele>2088.12</ele>
        <time>2022-09-04T11:47:49Z</time>
      </trkpt>
      <trkpt lat="44.7943" lon="6.76531">
        <ele>2088.12</ele>
        <time>2022-09-04T11:48:11Z</time>
      </trkpt>
      <trkpt lat="44.79431" lon="6.76529">
        <ele>2088.12</ele>
        <time>2022-09-04T11:48:42Z</time>
      </trkpt>
      <trkpt lat="44.79431" lon="6.76528">
        <ele>2088.12</ele>
        <time>2022-09-04T11:49:10Z</time>
      </trkpt>
      <trkpt lat="44.7943" lon="6.76529">
        <ele>2088.12</ele>
        <time>2022-09-04T11:49:32Z</time>
      </trkpt>
      <trkpt lat="44.7943" lon="6.76529">
        <ele>2088.12</ele>
        <time>2022-09-04T11:49:36Z</time>
      </trkpt>
      <trkpt lat="44.79442" lon="6.76529">
        <ele>2088.6</ele>
        <time>2022-09-04T11:49:47Z</time>
      </trkpt>
      <trkpt lat="44.79445" lon="6.76529">
        <ele>2089.56</ele>
        <time>2022-09-04T11:49:51Z</time>
      </trkpt>
      <trkpt lat="44.79448" lon="6.7653">
        <ele>2089.56</ele>
        <time>2022-09-04T11:49:54Z</time>
      </trkpt>
      <trkpt lat="44.7946" lon="6.76533">
        <ele>2091.49</ele>
        <time>2022-09-04T11:50:07Z</time>
      </trkpt>
      <trkpt lat="44.7947" lon="6.76537">
        <ele>2092.93</ele>
        <time>2022-09-04T11:50:20Z</time>
      </trkpt>
      <trkpt lat="44.79481" lon="6.76537">
        <ele>2092.93</ele>
        <time>2022-09-04T11:50:30Z</time>
      </trkpt>
      <trkpt lat="44.79489" lon="6.76538">
        <ele>2092.93</ele>
        <time>2022-09-04T11:50:38Z</time>
      </trkpt>
      <trkpt lat="44.79505" lon="6.76532">
        <ele>2092.93</ele>
        <time>2022-09-04T11:50:52Z</time>
      </trkpt>
      <trkpt lat="44.79521" lon="6.76522">
        <ele>2092.93</ele>
        <time>2022-09-04T11:51:08Z</time>
      </trkpt>
      <trkpt lat="44.79525" lon="6.76519">
        <ele>2091.49</ele>
        <time>2022-09-04T11:51:12Z</time>
      </trkpt>
      <trkpt lat="44.79533" lon="6.7652">
        <ele>2091.49</ele>
        <time>2022-09-04T11:51:19Z</time>
      </trkpt>
      <trkpt lat="44.79536" lon="6.7652">
        <ele>2092.93</ele>
        <time>2022-09-04T11:51:23Z</time>
      </trkpt>
      <trkpt lat="44.79549" lon="6.76525">
        <ele>2093.89</ele>
        <time>2022-09-04T11:51:36Z</time>
      </trkpt>
      <trkpt lat="44.79556" lon="6.76524">
        <ele>2094.85</ele>
        <time>2022-09-04T11:51:46Z</time>
      </trkpt>
      <trkpt lat="44.79577" lon="6.76527">
        <ele>2094.85</ele>
        <time>2022-09-04T11:52:02Z</time>
      </trkpt>
      <trkpt lat="44.79587" lon="6.76527">
        <ele>2095.33</ele>
        <time>2022-09-04T11:52:14Z</time>
      </trkpt>
      <trkpt lat="44.7959" lon="6.76527">
        <ele>2095.81</ele>
        <time>2022-09-04T11:52:18Z</time>
      </trkpt>
      <trkpt lat="44.79594" lon="6.76529">
        <ele>2096.77</ele>
        <time>2022-09-04T11:52:22Z</time>
      </trkpt>
      <trkpt lat="44.79608" lon="6.76533">
        <ele>2097.73</ele>
        <time>2022-09-04T11:52:35Z</time>
      </trkpt>
      <trkpt lat="44.79613" lon="6.76534">
        <ele>2098.7</ele>
        <time>2022-09-04T11:52:41Z</time>
      </trkpt>
      <trkpt lat="44.79616" lon="6.76533">
        <ele>2098.7</ele>
        <time>2022-09-04T11:52:44Z</time>
      </trkpt>
      <trkpt lat="44.79632" lon="6.76537">
        <ele>2100.14</ele>
        <time>2022-09-04T11:52:58Z</time>
      </trkpt>
      <trkpt lat="44.79638" lon="6.76536">
        <ele>2100.62</ele>
        <time>2022-09-04T11:53:10Z</time>
      </trkpt>
      <trkpt lat="44.79639" lon="6.76533">
        <ele>2101.1</ele>
        <time>2022-09-04T11:53:29Z</time>
      </trkpt>
      <trkpt lat="44.79649" lon="6.76535">
        <ele>2101.1</ele>
        <time>2022-09-04T11:53:39Z</time>
      </trkpt>
      <trkpt lat="44.7966" lon="6.76536">
        <ele>2102.54</ele>
        <time>2022-09-04T11:53:54Z</time>
      </trkpt>
      <trkpt lat="44.79672" lon="6.76532">
        <ele>2105.42</ele>
        <time>2022-09-04T11:54:08Z</time>
      </trkpt>
      <trkpt lat="44.79682" lon="6.76539">
        <ele>2105.91</ele>
        <time>2022-09-04T11:54:26Z</time>
      </trkpt>
      <trkpt lat="44.79693" lon="6.76549">
        <ele>2107.35</ele>
        <time>2022-09-04T11:54:42Z</time>
      </trkpt>
      <trkpt lat="44.79705" lon="6.76552">
        <ele>2109.75</ele>
        <time>2022-09-04T11:54:58Z</time>
      </trkpt>
      <trkpt lat="44.79712" lon="6.76544">
        <ele>2112.15</ele>
        <time>2022-09-04T11:55:10Z</time>
      </trkpt>
      <trkpt lat="44.79723" lon="6.76537">
        <ele>2114.08</ele>
        <time>2022-09-04T11:55:26Z</time>
      </trkpt>
      <trkpt lat="44.79732" lon="6.76528">
        <ele>2116.48</ele>
        <time>2022-09-04T11:55:44Z</time>
      </trkpt>
      <trkpt lat="44.79737" lon="6.76522">
        <ele>2117.92</ele>
        <time>2022-09-04T11:55:55Z</time>
      </trkpt>
      <trkpt lat="44.79746" lon="6.76513">
        <ele>2120.32</ele>
        <time>2022-09-04T11:56:10Z</time>
      </trkpt>
      <trkpt lat="44.79756" lon="6.76513">
        <ele>2122.73</ele>
        <time>2022-09-04T11:56:25Z</time>
      </trkpt>
      <trkpt lat="44.79764" lon="6.7651">
        <ele>2124.65</ele>
        <time>2022-09-04T11:56:40Z</time>
      </trkpt>
      <trkpt lat="44.79773" lon="6.76512">
        <ele>2126.57</ele>
        <time>2022-09-04T11:56:53Z</time>
      </trkpt>
      <trkpt lat="44.79781" lon="6.76509">
        <ele>2128.02</ele>
        <time>2022-09-04T11:57:07Z</time>
      </trkpt>
      <trkpt lat="44.79792" lon="6.76508">
        <ele>2129.46</ele>
        <time>2022-09-04T11:57:23Z</time>
      </trkpt>
      <trkpt lat="44.79792" lon="6.76508">
        <ele>2129.94</ele>
        <time>2022-09-04T11:57:24Z</time>
      </trkpt>
      <trkpt lat="44.79804" lon="6.76507">
        <ele>2131.38</ele>
        <time>2022-09-04T11:57:40Z</time>
      </trkpt>
      <trkpt lat="44.79816" lon="6.76503">
        <ele>2133.78</ele>
        <time>2022-09-04T11:57:55Z</time>
      </trkpt>
      <trkpt lat="44.79827" lon="6.76498">
        <ele>2135.71</ele>
        <time>2022-09-04T11:58:12Z</time>
      </trkpt>
      <trkpt lat="44.79833" lon="6.76499">
        <ele>2137.63</ele>
        <time>2022-09-04T11:58:29Z</time>
      </trkpt>
      <trkpt lat="44.79844" lon="6.76496">
        <ele>2140.03</ele>
        <time>2022-09-04T11:58:46Z</time>
      </trkpt>
      <trkpt lat="44.79858" lon="6.76497">
        <ele>2140.99</ele>
        <time>2022-09-04T11:59:01Z</time>
      </trkpt>
      <trkpt lat="44.7987" lon="6.76505">
        <ele>2143.4</ele>
        <time>2022-09-04T11:59:18Z</time>
      </trkpt>
      <trkpt lat="44.79873" lon="6.76504">
        <ele>2144.36</ele>
        <time>2022-09-04T11:59:38Z</time>
      </trkpt>
      <trkpt lat="44.79885" lon="6.76508">
        <ele>2147.24</ele>
        <time>2022-09-04T11:59:58Z</time>
      </trkpt>
      <trkpt lat="44.79896" lon="6.76504">
        <ele>2149.16</ele>
        <time>2022-09-04T12:00:15Z</time>
      </trkpt>
      <trkpt lat="44.79904" lon="6.76498">
        <ele>2151.57</ele>
        <time>2022-09-04T12:00:32Z</time>
      </trkpt>
      <trkpt lat="44.79913" lon="6.76488">
        <ele>2153.97</ele>
        <time>2022-09-04T12:00:50Z</time>
      </trkpt>
      <trkpt lat="44.79922" lon="6.76486">
        <ele>2156.86</ele>
        <time>2022-09-04T12:01:08Z</time>
      </trkpt>
      <trkpt lat="44.79932" lon="6.76484">
        <ele>2159.74</ele>
        <time>2022-09-04T12:01:25Z</time>
      </trkpt>
      <trkpt lat="44.7994" lon="6.7648">
        <ele>2161.18</ele>
        <time>2022-09-04T12:01:40Z</time>
      </trkpt>
      <trkpt lat="44.7995" lon="6.76483">
        <ele>2164.06</ele>
        <time>2022-09-04T12:01:58Z</time>
      </trkpt>
      <trkpt lat="44.79963" lon="6.76487">
        <ele>2166.95</ele>
        <time>2022-09-04T12:02:17Z</time>
      </trkpt>
      <trkpt lat="44.79971" lon="6.76485">
        <ele>2168.87</ele>
        <time>2022-09-04T12:02:31Z</time>
      </trkpt>
      <trkpt lat="44.79977" lon="6.76481">
        <ele>2170.79</ele>
        <time>2022-09-04T12:02:44Z</time>
      </trkpt>
      <trkpt lat="44.79983" lon="6.76479">
        <ele>2173.2</ele>
        <time>2022-09-04T12:02:57Z</time>
      </trkpt>
      <trkpt lat="44.7999" lon="6.76476">
        <ele>2175.12</ele>
        <time>2022-09-04T12:03:12Z</time>
      </trkpt>
      <trkpt lat="44.79996" lon="6.76476">
        <ele>2176.56</ele>
        <time>2022-09-04T12:03:23Z</time>
      </trkpt>
      <trkpt lat="44.80004" lon="6.76482">
        <ele>2178.48</ele>
        <time>2022-09-04T12:03:39Z</time>
      </trkpt>
      <trkpt lat="44.80012" lon="6.76483">
        <ele>2180.41</ele>
        <time>2022-09-04T12:03:52Z</time>
      </trkpt>
      <trkpt lat="44.80019" lon="6.76485">
        <ele>2182.33</ele>
        <time>2022-09-04T12:04:05Z</time>
      </trkpt>
      <trkpt lat="44.80027" lon="6.76486">
        <ele>2184.25</ele>
        <time>2022-09-04T12:04:19Z</time>
      </trkpt>
      <trkpt lat="44.80037" lon="6.76485">
        <ele>2185.69</ele>
        <time>2022-09-04T12:04:35Z</time>
      </trkpt>
      <trkpt lat="44.80043" lon="6.76485">
        <ele>2188.1</ele>
        <time>2022-09-04T12:04:50Z</time>
      </trkpt>
      <trkpt lat="44.80052" lon="6.76484">
        <ele>2190.02</ele>
        <time>2022-09-04T12:05:05Z</time>
      </trkpt>
      <trkpt lat="44.80056" lon="6.7648">
        <ele>2192.42</ele>
        <time>2022-09-04T12:05:19Z</time>
      </trkpt>
      <trkpt lat="44.80064" lon="6.76482">
        <ele>2194.83</ele>
        <time>2022-09-04T12:05:37Z</time>
      </trkpt>
      <trkpt lat="44.80074" lon="6.76478">
        <ele>2197.71</ele>
        <time>2022-09-04T12:05:54Z</time>
      </trkpt>
      <trkpt lat="44.80079" lon="6.76478">
        <ele>2199.63</ele>
        <time>2022-09-04T12:06:06Z</time>
      </trkpt>
      <trkpt lat="44.80086" lon="6.76477">
        <ele>2201.56</ele>
        <time>2022-09-04T12:06:19Z</time>
      </trkpt>
      <trkpt lat="44.80092" lon="6.76475">
        <ele>2203.48</ele>
        <time>2022-09-04T12:06:33Z</time>
      </trkpt>
      <trkpt lat="44.80098" lon="6.76472">
        <ele>2204.92</ele>
        <time>2022-09-04T12:06:46Z</time>
      </trkpt>
      <trkpt lat="44.80104" lon="6.76467">
        <ele>2206.84</ele>
        <time>2022-09-04T12:06:58Z</time>
      </trkpt>
      <trkpt lat="44.80111" lon="6.76464">
        <ele>2207.81</ele>
        <time>2022-09-04T12:07:10Z</time>
      </trkpt>
      <trkpt lat="44.80122" lon="6.76466">
        <ele>2210.21</ele>
        <time>2022-09-04T12:07:25Z</time>
      </trkpt>
      <trkpt lat="44.80127" lon="6.76462">
        <ele>2212.13</ele>
        <time>2022-09-04T12:07:37Z</time>
      </trkpt>
      <trkpt lat="44.80131" lon="6.76462">
        <ele>2212.61</ele>
        <time>2022-09-04T12:07:58Z</time>
      </trkpt>
      <trkpt lat="44.80128" lon="6.7646">
        <ele>2212.61</ele>
        <time>2022-09-04T12:08:22Z</time>
      </trkpt>
      <trkpt lat="44.80127" lon="6.7646">
        <ele>2213.09</ele>
        <time>2022-09-04T12:08:49Z</time>
      </trkpt>
      <trkpt lat="44.80128" lon="6.76461">
        <ele>2213.09</ele>
        <time>2022-09-04T12:09:14Z</time>
      </trkpt>
      <trkpt lat="44.80127" lon="6.76461">
        <ele>2213.09</ele>
        <time>2022-09-04T12:09:38Z</time>
      </trkpt>
      <trkpt lat="44.8013" lon="6.76461">
        <ele>2213.09</ele>
        <time>2022-09-04T12:10:05Z</time>
      </trkpt>
      <trkpt lat="44.80131" lon="6.76458">
        <ele>2214.53</ele>
        <time>2022-09-04T12:10:10Z</time>
      </trkpt>
      <trkpt lat="44.80134" lon="6.76453">
        <ele>2215.01</ele>
        <time>2022-09-04T12:10:14Z</time>
      </trkpt>
      <trkpt lat="44.80142" lon="6.7645">
        <ele>2217.9</ele>
        <time>2022-09-04T12:10:24Z</time>
      </trkpt>
      <trkpt lat="44.80149" lon="6.76445">
        <ele>2219.34</ele>
        <time>2022-09-04T12:10:36Z</time>
      </trkpt>
      <trkpt lat="44.80154" lon="6.76441">
        <ele>2221.26</ele>
        <time>2022-09-04T12:10:48Z</time>
      </trkpt>
      <trkpt lat="44.8016" lon="6.76437">
        <ele>2224.15</ele>
        <time>2022-09-04T12:11:02Z</time>
      </trkpt>
      <trkpt lat="44.80169" lon="6.76437">
        <ele>2225.59</ele>
        <time>2022-09-04T12:11:15Z</time>
      </trkpt>
      <trkpt lat="44.80177" lon="6.76432">
        <ele>2228.47</ele>
        <time>2022-09-04T12:11:28Z</time>
      </trkpt>
      <trkpt lat="44.80184" lon="6.76427">
        <ele>2229.92</ele>
        <time>2022-09-04T12:11:41Z</time>
      </trkpt>
      <trkpt lat="44.80191" lon="6.76422">
        <ele>2232.8</ele>
        <time>2022-09-04T12:11:57Z</time>
      </trkpt>
      <trkpt lat="44.80201" lon="6.7642">
        <ele>2235.2</ele>
        <time>2022-09-04T12:12:11Z</time>
      </trkpt>
      <trkpt lat="44.80208" lon="6.7642">
        <ele>2237.13</ele>
        <time>2022-09-04T12:12:23Z</time>
      </trkpt>
      <trkpt lat="44.80209" lon="6.76421">
        <ele>2237.61</ele>
        <time>2022-09-04T12:12:25Z</time>
      </trkpt>
      <trkpt lat="44.80218" lon="6.76417">
        <ele>2240.01</ele>
        <time>2022-09-04T12:12:39Z</time>
      </trkpt>
      <trkpt lat="44.80222" lon="6.76413">
        <ele>2240.97</ele>
        <time>2022-09-04T12:12:48Z</time>
      </trkpt>
      <trkpt lat="44.80224" lon="6.76413">
        <ele>2241.93</ele>
        <time>2022-09-04T12:12:50Z</time>
      </trkpt>
      <trkpt lat="44.80229" lon="6.76408">
        <ele>2243.37</ele>
        <time>2022-09-04T12:13:00Z</time>
      </trkpt>
      <trkpt lat="44.8023" lon="6.76407">
        <ele>2243.85</ele>
        <time>2022-09-04T12:13:03Z</time>
      </trkpt>
      <trkpt lat="44.80238" lon="6.76402">
        <ele>2245.78</ele>
        <time>2022-09-04T12:13:15Z</time>
      </trkpt>
      <trkpt lat="44.80245" lon="6.76398">
        <ele>2248.18</ele>
        <time>2022-09-04T12:13:27Z</time>
      </trkpt>
      <trkpt lat="44.8025" lon="6.76393">
        <ele>2249.62</ele>
        <time>2022-09-04T12:13:38Z</time>
      </trkpt>
      <trkpt lat="44.80258" lon="6.7639">
        <ele>2252.51</ele>
        <time>2022-09-04T12:13:51Z</time>
      </trkpt>
      <trkpt lat="44.80265" lon="6.76388">
        <ele>2254.91</ele>
        <time>2022-09-04T12:14:04Z</time>
      </trkpt>
      <trkpt lat="44.80272" lon="6.76388">
        <ele>2256.83</ele>
        <time>2022-09-04T12:14:17Z</time>
      </trkpt>
      <trkpt lat="44.8028" lon="6.76385">
        <ele>2259.72</ele>
        <time>2022-09-04T12:14:30Z</time>
      </trkpt>
      <trkpt lat="44.80286" lon="6.76384">
        <ele>2261.16</ele>
        <time>2022-09-04T12:14:41Z</time>
      </trkpt>
      <trkpt lat="44.8029" lon="6.76378">
        <ele>2262.6</ele>
        <time>2022-09-04T12:14:52Z</time>
      </trkpt>
      <trkpt lat="44.80298" lon="6.76377">
        <ele>2264.04</ele>
        <time>2022-09-04T12:15:04Z</time>
      </trkpt>
      <trkpt lat="44.80305" lon="6.76374">
        <ele>2265.48</ele>
        <time>2022-09-04T12:15:15Z</time>
      </trkpt>
      <trkpt lat="44.8031" lon="6.7637">
        <ele>2267.89</ele>
        <time>2022-09-04T12:15:26Z</time>
      </trkpt>
      <trkpt lat="44.80317" lon="6.76368">
        <ele>2269.33</ele>
        <time>2022-09-04T12:15:37Z</time>
      </trkpt>
      <trkpt lat="44.80325" lon="6.76366">
        <ele>2272.21</ele>
        <time>2022-09-04T12:15:50Z</time>
      </trkpt>
      <trkpt lat="44.80331" lon="6.76362">
        <ele>2274.14</ele>
        <time>2022-09-04T12:16:00Z</time>
      </trkpt>
      <trkpt lat="44.80336" lon="6.76355">
        <ele>2276.06</ele>
        <time>2022-09-04T12:16:11Z</time>
      </trkpt>
      <trkpt lat="44.80342" lon="6.76349">
        <ele>2278.94</ele>
        <time>2022-09-04T12:16:23Z</time>
      </trkpt>
      <trkpt lat="44.80344" lon="6.76348">
        <ele>2278.46</ele>
        <time>2022-09-04T12:16:26Z</time>
      </trkpt>
      <trkpt lat="44.80354" lon="6.76345">
        <ele>2280.87</ele>
        <time>2022-09-04T12:16:40Z</time>
      </trkpt>
      <trkpt lat="44.80361" lon="6.76343">
        <ele>2282.79</ele>
        <time>2022-09-04T12:16:52Z</time>
      </trkpt>
      <trkpt lat="44.80366" lon="6.76339">
        <ele>2285.19</ele>
        <time>2022-09-04T12:17:05Z</time>
      </trkpt>
      <trkpt lat="44.80373" lon="6.76332">
        <ele>2287.59</ele>
        <time>2022-09-04T12:17:20Z</time>
      </trkpt>
      <trkpt lat="44.80377" lon="6.76338">
        <ele>2288.56</ele>
        <time>2022-09-04T12:17:29Z</time>
      </trkpt>
      <trkpt lat="44.80385" lon="6.76335">
        <ele>2291.44</ele>
        <time>2022-09-04T12:17:43Z</time>
      </trkpt>
      <trkpt lat="44.80389" lon="6.76328">
        <ele>2294.32</ele>
        <time>2022-09-04T12:17:57Z</time>
      </trkpt>
      <trkpt lat="44.80393" lon="6.76324">
        <ele>2295.77</ele>
        <time>2022-09-04T12:18:04Z</time>
      </trkpt>
      <trkpt lat="44.80396" lon="6.76321">
        <ele>2297.69</ele>
        <time>2022-09-04T12:18:13Z</time>
      </trkpt>
      <trkpt lat="44.804" lon="6.76317">
        <ele>2300.09</ele>
        <time>2022-09-04T12:18:24Z</time>
      </trkpt>
      <trkpt lat="44.80402" lon="6.76314">
        <ele>2301.53</ele>
        <time>2022-09-04T12:18:30Z</time>
      </trkpt>
      <trkpt lat="44.80404" lon="6.76311">
        <ele>2302.98</ele>
        <time>2022-09-04T12:18:39Z</time>
      </trkpt>
      <trkpt lat="44.80407" lon="6.76307">
        <ele>2304.42</ele>
        <time>2022-09-04T12:18:46Z</time>
      </trkpt>
      <trkpt lat="44.80412" lon="6.76304">
        <ele>2306.82</ele>
        <time>2022-09-04T12:18:58Z</time>
      </trkpt>
      <trkpt lat="44.80417" lon="6.76299">
        <ele>2308.26</ele>
        <time>2022-09-04T12:19:09Z</time>
      </trkpt>
      <trkpt lat="44.80421" lon="6.76297">
        <ele>2310.67</ele>
        <time>2022-09-04T12:19:19Z</time>
      </trkpt>
      <trkpt lat="44.80428" lon="6.76292">
        <ele>2312.11</ele>
        <time>2022-09-04T12:19:30Z</time>
      </trkpt>
      <trkpt lat="44.80431" lon="6.76287">
        <ele>2313.55</ele>
        <time>2022-09-04T12:19:39Z</time>
      </trkpt>
      <trkpt lat="44.80436" lon="6.76286">
        <ele>2315.95</ele>
        <time>2022-09-04T12:19:51Z</time>
      </trkpt>
      <trkpt lat="44.80439" lon="6.76283">
        <ele>2317.88</ele>
        <time>2022-09-04T12:20:00Z</time>
      </trkpt>
      <trkpt lat="44.80444" lon="6.76277">
        <ele>2319.8</ele>
        <time>2022-09-04T12:20:12Z</time>
      </trkpt>
      <trkpt lat="44.80449" lon="6.76271">
        <ele>2321.72</ele>
        <time>2022-09-04T12:20:23Z</time>
      </trkpt>
      <trkpt lat="44.80452" lon="6.76265">
        <ele>2323.64</ele>
        <time>2022-09-04T12:20:32Z</time>
      </trkpt>
      <trkpt lat="44.80456" lon="6.76261">
        <ele>2325.09</ele>
        <time>2022-09-04T12:20:42Z</time>
      </trkpt>
      <trkpt lat="44.8046" lon="6.76263">
        <ele>2327.01</ele>
        <time>2022-09-04T12:20:54Z</time>
      </trkpt>
      <trkpt lat="44.80464" lon="6.76277">
        <ele>2329.41</ele>
        <time>2022-09-04T12:21:06Z</time>
      </trkpt>
      <trkpt lat="44.80464" lon="6.76281">
        <ele>2330.37</ele>
        <time>2022-09-04T12:21:14Z</time>
      </trkpt>
      <trkpt lat="44.80466" lon="6.76288">
        <ele>2332.3</ele>
        <time>2022-09-04T12:21:26Z</time>
      </trkpt>
      <trkpt lat="44.8047" lon="6.76289">
        <ele>2335.18</ele>
        <time>2022-09-04T12:21:38Z</time>
      </trkpt>
      <trkpt lat="44.80472" lon="6.76282">
        <ele>2336.62</ele>
        <time>2022-09-04T12:21:48Z</time>
      </trkpt>
      <trkpt lat="44.80476" lon="6.76279">
        <ele>2338.54</ele>
        <time>2022-09-04T12:21:59Z</time>
      </trkpt>
      <trkpt lat="44.80477" lon="6.76278">
        <ele>2339.99</ele>
        <time>2022-09-04T12:22:14Z</time>
      </trkpt>
      <trkpt lat="44.80481" lon="6.76272">
        <ele>2341.43</ele>
        <time>2022-09-04T12:22:26Z</time>
      </trkpt>
      <trkpt lat="44.80485" lon="6.76265">
        <ele>2344.31</ele>
        <time>2022-09-04T12:22:39Z</time>
      </trkpt>
      <trkpt lat="44.80486" lon="6.76263">
        <ele>2345.75</ele>
        <time>2022-09-04T12:22:42Z</time>
      </trkpt>
      <trkpt lat="44.8049" lon="6.76259">
        <ele>2348.16</ele>
        <time>2022-09-04T12:22:54Z</time>
      </trkpt>
      <trkpt lat="44.80495" lon="6.76257">
        <ele>2350.56</ele>
        <time>2022-09-04T12:23:03Z</time>
      </trkpt>
      <trkpt lat="44.80504" lon="6.76265">
        <ele>2352.96</ele>
        <time>2022-09-04T12:23:14Z</time>
      </trkpt>
      <trkpt lat="44.80505" lon="6.76263">
        <ele>2353.44</ele>
        <time>2022-09-04T12:23:17Z</time>
      </trkpt>
      <trkpt lat="44.80509" lon="6.76255">
        <ele>2354.89</ele>
        <time>2022-09-04T12:23:29Z</time>
      </trkpt>
      <trkpt lat="44.80514" lon="6.7625">
        <ele>2356.81</ele>
        <time>2022-09-04T12:23:39Z</time>
      </trkpt>
      <trkpt lat="44.80518" lon="6.76246">
        <ele>2358.25</ele>
        <time>2022-09-04T12:23:46Z</time>
      </trkpt>
      <trkpt lat="44.80522" lon="6.76242">
        <ele>2360.17</ele>
        <time>2022-09-04T12:23:58Z</time>
      </trkpt>
      <trkpt lat="44.80528" lon="6.76242">
        <ele>2361.14</ele>
        <time>2022-09-04T12:24:06Z</time>
      </trkpt>
      <trkpt lat="44.80534" lon="6.76238">
        <ele>2364.02</ele>
        <time>2022-09-04T12:24:19Z</time>
      </trkpt>
      <trkpt lat="44.80538" lon="6.76231">
        <ele>2364.98</ele>
        <time>2022-09-04T12:24:30Z</time>
      </trkpt>
      <trkpt lat="44.80544" lon="6.76225">
        <ele>2365.94</ele>
        <time>2022-09-04T12:24:36Z</time>
      </trkpt>
      <trkpt lat="44.8055" lon="6.76215">
        <ele>2368.83</ele>
        <time>2022-09-04T12:24:49Z</time>
      </trkpt>
      <trkpt lat="44.80554" lon="6.76212">
        <ele>2369.79</ele>
        <time>2022-09-04T12:24:56Z</time>
      </trkpt>
      <trkpt lat="44.80557" lon="6.76209">
        <ele>2370.75</ele>
        <time>2022-09-04T12:25:01Z</time>
      </trkpt>
      <trkpt lat="44.80559" lon="6.76206">
        <ele>2371.23</ele>
        <time>2022-09-04T12:25:04Z</time>
      </trkpt>
      <trkpt lat="44.80563" lon="6.76204">
        <ele>2371.23</ele>
        <time>2022-09-04T12:25:08Z</time>
      </trkpt>
      <trkpt lat="44.80568" lon="6.76196">
        <ele>2373.15</ele>
        <time>2022-09-04T12:25:16Z</time>
      </trkpt>
      <trkpt lat="44.80577" lon="6.76186">
        <ele>2374.11</ele>
        <time>2022-09-04T12:25:28Z</time>
      </trkpt>
      <trkpt lat="44.80578" lon="6.76185">
        <ele>2374.11</ele>
        <time>2022-09-04T12:25:29Z</time>
      </trkpt>
      <trkpt lat="44.8058" lon="6.76183">
        <ele>2374.59</ele>
        <time>2022-09-04T12:25:32Z</time>
      </trkpt>
      <trkpt lat="44.80588" lon="6.76177">
        <ele>2376.04</ele>
        <time>2022-09-04T12:25:42Z</time>
      </trkpt>
      <trkpt lat="44.80591" lon="6.76176">
        <ele>2377</ele>
        <time>2022-09-04T12:25:45Z</time>
      </trkpt>
      <trkpt lat="44.80601" lon="6.76171">
        <ele>2378.92</ele>
        <time>2022-09-04T12:25:57Z</time>
      </trkpt>
      <trkpt lat="44.80606" lon="6.76169">
        <ele>2379.88</ele>
        <time>2022-09-04T12:26:04Z</time>
      </trkpt>
      <trkpt lat="44.80613" lon="6.76164">
        <ele>2381.32</ele>
        <time>2022-09-04T12:26:15Z</time>
      </trkpt>
      <trkpt lat="44.8062" lon="6.76158">
        <ele>2383.73</ele>
        <time>2022-09-04T12:26:26Z</time>
      </trkpt>
      <trkpt lat="44.80622" lon="6.76156">
        <ele>2383.73</ele>
        <time>2022-09-04T12:26:29Z</time>
      </trkpt>
      <trkpt lat="44.80631" lon="6.7615">
        <ele>2385.65</ele>
        <time>2022-09-04T12:26:42Z</time>
      </trkpt>
      <trkpt lat="44.80639" lon="6.76141">
        <ele>2387.09</ele>
        <time>2022-09-04T12:26:53Z</time>
      </trkpt>
      <trkpt lat="44.8064" lon="6.76138">
        <ele>2387.57</ele>
        <time>2022-09-04T12:26:56Z</time>
      </trkpt>
      <trkpt lat="44.80642" lon="6.76132">
        <ele>2388.05</ele>
        <time>2022-09-04T12:27:01Z</time>
      </trkpt>
      <trkpt lat="44.80649" lon="6.76125">
        <ele>2389.49</ele>
        <time>2022-09-04T12:27:12Z</time>
      </trkpt>
      <trkpt lat="44.80655" lon="6.76121">
        <ele>2390.94</ele>
        <time>2022-09-04T12:27:22Z</time>
      </trkpt>
      <trkpt lat="44.80662" lon="6.76116">
        <ele>2392.86</ele>
        <time>2022-09-04T12:27:33Z</time>
      </trkpt>
      <trkpt lat="44.80669" lon="6.76113">
        <ele>2394.3</ele>
        <time>2022-09-04T12:27:44Z</time>
      </trkpt>
      <trkpt lat="44.80674" lon="6.76111">
        <ele>2396.22</ele>
        <time>2022-09-04T12:27:53Z</time>
      </trkpt>
      <trkpt lat="44.80675" lon="6.76108">
        <ele>2396.22</ele>
        <time>2022-09-04T12:27:56Z</time>
      </trkpt>
      <trkpt lat="44.8068" lon="6.76107">
        <ele>2397.67</ele>
        <time>2022-09-04T12:28:01Z</time>
      </trkpt>
      <trkpt lat="44.80685" lon="6.761">
        <ele>2399.59</ele>
        <time>2022-09-04T12:28:11Z</time>
      </trkpt>
      <trkpt lat="44.80692" lon="6.76093">
        <ele>2401.99</ele>
        <time>2022-09-04T12:28:23Z</time>
      </trkpt>
      <trkpt lat="44.80695" lon="6.76088">
        <ele>2403.91</ele>
        <time>2022-09-04T12:28:32Z</time>
      </trkpt>
      <trkpt lat="44.807" lon="6.7608">
        <ele>2405.36</ele>
        <time>2022-09-04T12:28:43Z</time>
      </trkpt>
      <trkpt lat="44.80703" lon="6.76073">
        <ele>2407.28</ele>
        <time>2022-09-04T12:28:52Z</time>
      </trkpt>
      <trkpt lat="44.80704" lon="6.76069">
        <ele>2407.76</ele>
        <time>2022-09-04T12:28:57Z</time>
      </trkpt>
      <trkpt lat="44.80707" lon="6.76059">
        <ele>2409.68</ele>
        <time>2022-09-04T12:29:09Z</time>
      </trkpt>
      <trkpt lat="44.80711" lon="6.76056">
        <ele>2411.12</ele>
        <time>2022-09-04T12:29:15Z</time>
      </trkpt>
      <trkpt lat="44.80717" lon="6.76051">
        <ele>2412.09</ele>
        <time>2022-09-04T12:29:25Z</time>
      </trkpt>
      <trkpt lat="44.80722" lon="6.76043">
        <ele>2414.01</ele>
        <time>2022-09-04T12:29:35Z</time>
      </trkpt>
      <trkpt lat="44.80724" lon="6.7604">
        <ele>2414.97</ele>
        <time>2022-09-04T12:29:40Z</time>
      </trkpt>
      <trkpt lat="44.80729" lon="6.76034">
        <ele>2416.41</ele>
        <time>2022-09-04T12:29:51Z</time>
      </trkpt>
      <trkpt lat="44.80734" lon="6.76026">
        <ele>2418.33</ele>
        <time>2022-09-04T12:30:01Z</time>
      </trkpt>
      <trkpt lat="44.80738" lon="6.76015">
        <ele>2420.26</ele>
        <time>2022-09-04T12:30:11Z</time>
      </trkpt>
      <trkpt lat="44.80738" lon="6.76014">
        <ele>2420.26</ele>
        <time>2022-09-04T12:30:12Z</time>
      </trkpt>
      <trkpt lat="44.80739" lon="6.76013">
        <ele>2420.74</ele>
        <time>2022-09-04T12:30:14Z</time>
      </trkpt>
      <trkpt lat="44.80744" lon="6.76005">
        <ele>2422.66</ele>
        <time>2022-09-04T12:30:25Z</time>
      </trkpt>
      <trkpt lat="44.80753" lon="6.75997">
        <ele>2424.1</ele>
        <time>2022-09-04T12:30:37Z</time>
      </trkpt>
      <trkpt lat="44.80753" lon="6.75996">
        <ele>2424.1</ele>
        <time>2022-09-04T12:30:38Z</time>
      </trkpt>
      <trkpt lat="44.80755" lon="6.75995">
        <ele>2424.58</ele>
        <time>2022-09-04T12:30:41Z</time>
      </trkpt>
      <trkpt lat="44.80756" lon="6.75993">
        <ele>2424.58</ele>
        <time>2022-09-04T12:30:43Z</time>
      </trkpt>
      <trkpt lat="44.8076" lon="6.75984">
        <ele>2426.5</ele>
        <time>2022-09-04T12:30:54Z</time>
      </trkpt>
      <trkpt lat="44.80764" lon="6.75978">
        <ele>2427.47</ele>
        <time>2022-09-04T12:31:02Z</time>
      </trkpt>
      <trkpt lat="44.80764" lon="6.75974">
        <ele>2428.43</ele>
        <time>2022-09-04T12:31:05Z</time>
      </trkpt>
      <trkpt lat="44.80768" lon="6.75964">
        <ele>2430.35</ele>
        <time>2022-09-04T12:31:16Z</time>
      </trkpt>
      <trkpt lat="44.80773" lon="6.75952">
        <ele>2431.79</ele>
        <time>2022-09-04T12:31:28Z</time>
      </trkpt>
      <trkpt lat="44.80774" lon="6.75951">
        <ele>2431.79</ele>
        <time>2022-09-04T12:31:29Z</time>
      </trkpt>
      <trkpt lat="44.80778" lon="6.75942">
        <ele>2434.2</ele>
        <time>2022-09-04T12:31:40Z</time>
      </trkpt>
      <trkpt lat="44.8078" lon="6.75932">
        <ele>2435.16</ele>
        <time>2022-09-04T12:31:50Z</time>
      </trkpt>
      <trkpt lat="44.80781" lon="6.75922">
        <ele>2437.56</ele>
        <time>2022-09-04T12:32:00Z</time>
      </trkpt>
      <trkpt lat="44.80781" lon="6.75917">
        <ele>2438.52</ele>
        <time>2022-09-04T12:32:05Z</time>
      </trkpt>
      <trkpt lat="44.80782" lon="6.75907">
        <ele>2439.96</ele>
        <time>2022-09-04T12:32:17Z</time>
      </trkpt>
      <trkpt lat="44.80782" lon="6.75896">
        <ele>2441.89</ele>
        <time>2022-09-04T12:32:27Z</time>
      </trkpt>
      <trkpt lat="44.8078" lon="6.75882">
        <ele>2443.33</ele>
        <time>2022-09-04T12:32:38Z</time>
      </trkpt>
      <trkpt lat="44.80778" lon="6.75869">
        <ele>2444.77</ele>
        <time>2022-09-04T12:32:48Z</time>
      </trkpt>
      <trkpt lat="44.80778" lon="6.75855">
        <ele>2445.25</ele>
        <time>2022-09-04T12:32:59Z</time>
      </trkpt>
      <trkpt lat="44.80778" lon="6.75852">
        <ele>2446.21</ele>
        <time>2022-09-04T12:33:01Z</time>
      </trkpt>
      <trkpt lat="44.80777" lon="6.75845">
        <ele>2446.21</ele>
        <time>2022-09-04T12:33:06Z</time>
      </trkpt>
      <trkpt lat="44.80777" lon="6.75838">
        <ele>2446.69</ele>
        <time>2022-09-04T12:33:12Z</time>
      </trkpt>
      <trkpt lat="44.80777" lon="6.75833">
        <ele>2447.65</ele>
        <time>2022-09-04T12:33:17Z</time>
      </trkpt>
      <trkpt lat="44.80777" lon="6.75829">
        <ele>2448.62</ele>
        <time>2022-09-04T12:33:20Z</time>
      </trkpt>
      <trkpt lat="44.80781" lon="6.75819">
        <ele>2451.02</ele>
        <time>2022-09-04T12:33:32Z</time>
      </trkpt>
      <trkpt lat="44.80781" lon="6.75816">
        <ele>2451.02</ele>
        <time>2022-09-04T12:33:35Z</time>
      </trkpt>
      <trkpt lat="44.80783" lon="6.75813">
        <ele>2451.98</ele>
        <time>2022-09-04T12:33:38Z</time>
      </trkpt>
      <trkpt lat="44.80785" lon="6.75809">
        <ele>2451.98</ele>
        <time>2022-09-04T12:33:43Z</time>
      </trkpt>
      <trkpt lat="44.80786" lon="6.75806">
        <ele>2452.46</ele>
        <time>2022-09-04T12:33:45Z</time>
      </trkpt>
      <trkpt lat="44.80793" lon="6.75798">
        <ele>2454.86</ele>
        <time>2022-09-04T12:33:58Z</time>
      </trkpt>
      <trkpt lat="44.80797" lon="6.7579">
        <ele>2457.27</ele>
        <time>2022-09-04T12:34:11Z</time>
      </trkpt>
      <trkpt lat="44.80798" lon="6.7578">
        <ele>2459.67</ele>
        <time>2022-09-04T12:34:24Z</time>
      </trkpt>
      <trkpt lat="44.80798" lon="6.75777">
        <ele>2460.15</ele>
        <time>2022-09-04T12:34:27Z</time>
      </trkpt>
      <trkpt lat="44.80793" lon="6.75767">
        <ele>2462.55</ele>
        <time>2022-09-04T12:34:37Z</time>
      </trkpt>
      <trkpt lat="44.80791" lon="6.75761">
        <ele>2464.96</ele>
        <time>2022-09-04T12:34:47Z</time>
      </trkpt>
      <trkpt lat="44.8079" lon="6.75755">
        <ele>2465.44</ele>
        <time>2022-09-04T12:34:53Z</time>
      </trkpt>
      <trkpt lat="44.8079" lon="6.75749">
        <ele>2466.4</ele>
        <time>2022-09-04T12:34:59Z</time>
      </trkpt>
      <trkpt lat="44.8079" lon="6.75744">
        <ele>2467.36</ele>
        <time>2022-09-04T12:35:04Z</time>
      </trkpt>
      <trkpt lat="44.80787" lon="6.75734">
        <ele>2468.8</ele>
        <time>2022-09-04T12:35:15Z</time>
      </trkpt>
      <trkpt lat="44.80787" lon="6.75728">
        <ele>2470.73</ele>
        <time>2022-09-04T12:35:23Z</time>
      </trkpt>
      <trkpt lat="44.80786" lon="6.75722">
        <ele>2471.69</ele>
        <time>2022-09-04T12:35:30Z</time>
      </trkpt>
      <trkpt lat="44.80783" lon="6.75712">
        <ele>2472.17</ele>
        <time>2022-09-04T12:35:38Z</time>
      </trkpt>
      <trkpt lat="44.80781" lon="6.75705">
        <ele>2472.65</ele>
        <time>2022-09-04T12:35:45Z</time>
      </trkpt>
      <trkpt lat="44.8078" lon="6.75701">
        <ele>2473.13</ele>
        <time>2022-09-04T12:35:48Z</time>
      </trkpt>
      <trkpt lat="44.80779" lon="6.75698">
        <ele>2473.13</ele>
        <time>2022-09-04T12:35:50Z</time>
      </trkpt>
      <trkpt lat="44.80774" lon="6.75687">
        <ele>2473.61</ele>
        <time>2022-09-04T12:36:00Z</time>
      </trkpt>
      <trkpt lat="44.8077" lon="6.75684">
        <ele>2474.57</ele>
        <time>2022-09-04T12:36:05Z</time>
      </trkpt>
      <trkpt lat="44.80762" lon="6.75679">
        <ele>2474.57</ele>
        <time>2022-09-04T12:36:13Z</time>
      </trkpt>
      <trkpt lat="44.80752" lon="6.75677">
        <ele>2474.57</ele>
        <time>2022-09-04T12:36:23Z</time>
      </trkpt>
      <trkpt lat="44.8075" lon="6.75676">
        <ele>2473.13</ele>
        <time>2022-09-04T12:36:25Z</time>
      </trkpt>
      <trkpt lat="44.80748" lon="6.75676">
        <ele>2473.13</ele>
        <time>2022-09-04T12:36:28Z</time>
      </trkpt>
      <trkpt lat="44.80738" lon="6.75682">
        <ele>2473.61</ele>
        <time>2022-09-04T12:36:40Z</time>
      </trkpt>
      <trkpt lat="44.80727" lon="6.75689">
        <ele>2473.61</ele>
        <time>2022-09-04T12:36:52Z</time>
      </trkpt>
      <trkpt lat="44.80726" lon="6.75687">
        <ele>2473.61</ele>
        <time>2022-09-04T12:36:54Z</time>
      </trkpt>
      <trkpt lat="44.80721" lon="6.75686">
        <ele>2473.61</ele>
        <time>2022-09-04T12:37:07Z</time>
      </trkpt>
      <trkpt lat="44.80721" lon="6.75688">
        <ele>2474.09</ele>
        <time>2022-09-04T12:37:29Z</time>
      </trkpt>
      <trkpt lat="44.80719" lon="6.75684">
        <ele>2474.09</ele>
        <time>2022-09-04T12:37:44Z</time>
      </trkpt>
      <trkpt lat="44.8072" lon="6.7569">
        <ele>2474.57</ele>
        <time>2022-09-04T12:38:03Z</time>
      </trkpt>
      <trkpt lat="44.80717" lon="6.75693">
        <ele>2474.57</ele>
        <time>2022-09-04T12:38:22Z</time>
      </trkpt>
      <trkpt lat="44.80714" lon="6.75691">
        <ele>2475.05</ele>
        <time>2022-09-04T12:38:43Z</time>
      </trkpt>
      <trkpt lat="44.80722" lon="6.7569">
        <ele>2475.05</ele>
        <time>2022-09-04T12:39:10Z</time>
      </trkpt>
      <trkpt lat="44.80718" lon="6.75688">
        <ele>2475.53</ele>
        <time>2022-09-04T12:39:43Z</time>
      </trkpt>
      <trkpt lat="44.80722" lon="6.75686">
        <ele>2476.01</ele>
        <time>2022-09-04T12:40:09Z</time>
      </trkpt>
      <trkpt lat="44.80722" lon="6.75688">
        <ele>2476.01</ele>
        <time>2022-09-04T12:40:34Z</time>
      </trkpt>
      <trkpt lat="44.80719" lon="6.75688">
        <ele>2476.49</ele>
        <time>2022-09-04T12:41:08Z</time>
      </trkpt>
      <trkpt lat="44.80713" lon="6.75692">
        <ele>2476.49</ele>
        <time>2022-09-04T12:41:39Z</time>
      </trkpt>
      <trkpt lat="44.80719" lon="6.75685">
        <ele>2476.49</ele>
        <time>2022-09-04T12:41:59Z</time>
      </trkpt>
      <trkpt lat="44.80717" lon="6.75684">
        <ele>2476.97</ele>
        <time>2022-09-04T12:42:07Z</time>
      </trkpt>
      <trkpt lat="44.80716" lon="6.75683">
        <ele>2476.97</ele>
        <time>2022-09-04T12:42:10Z</time>
      </trkpt>
      <trkpt lat="44.80714" lon="6.7568">
        <ele>2476.97</ele>
        <time>2022-09-04T12:42:25Z</time>
      </trkpt>
      <trkpt lat="44.80715" lon="6.75679">
        <ele>2476.97</ele>
        <time>2022-09-04T12:42:38Z</time>
      </trkpt>
      <trkpt lat="44.80722" lon="6.75676">
        <ele>2476.49</ele>
        <time>2022-09-04T12:42:50Z</time>
      </trkpt>
      <trkpt lat="44.80722" lon="6.75683">
        <ele>2477.94</ele>
        <time>2022-09-04T12:43:04Z</time>
      </trkpt>
      <trkpt lat="44.80721" lon="6.75685">
        <ele>2478.9</ele>
        <time>2022-09-04T12:43:20Z</time>
      </trkpt>
      <trkpt lat="44.80723" lon="6.75683">
        <ele>2478.9</ele>
        <time>2022-09-04T12:43:35Z</time>
      </trkpt>
      <trkpt lat="44.80724" lon="6.75683">
        <ele>2478.9</ele>
        <time>2022-09-04T12:43:57Z</time>
      </trkpt>
      <trkpt lat="44.80726" lon="6.75681">
        <ele>2479.38</ele>
        <time>2022-09-04T12:44:19Z</time>
      </trkpt>
      <trkpt lat="44.80727" lon="6.75681">
        <ele>2479.38</ele>
        <time>2022-09-04T12:44:45Z</time>
      </trkpt>
      <trkpt lat="44.80726" lon="6.75683">
        <ele>2479.38</ele>
        <time>2022-09-04T12:45:13Z</time>
      </trkpt>
      <trkpt lat="44.80726" lon="6.75684">
        <ele>2478.42</ele>
        <time>2022-09-04T12:45:27Z</time>
      </trkpt>
      <trkpt lat="44.80724" lon="6.75683">
        <ele>2478.42</ele>
        <time>2022-09-04T12:45:42Z</time>
      </trkpt>
      <trkpt lat="44.80722" lon="6.75685">
        <ele>2478.9</ele>
        <time>2022-09-04T12:45:59Z</time>
      </trkpt>
      <trkpt lat="44.80724" lon="6.75679">
        <ele>2478.42</ele>
        <time>2022-09-04T12:46:17Z</time>
      </trkpt>
      <trkpt lat="44.8072" lon="6.75684">
        <ele>2478.42</ele>
        <time>2022-09-04T12:46:40Z</time>
      </trkpt>
      <trkpt lat="44.80722" lon="6.75685">
        <ele>2478.9</ele>
        <time>2022-09-04T12:47:09Z</time>
      </trkpt>
      <trkpt lat="44.8072" lon="6.75685">
        <ele>2478.9</ele>
        <time>2022-09-04T12:47:39Z</time>
      </trkpt>
      <trkpt lat="44.8072" lon="6.75685">
        <ele>2478.9</ele>
        <time>2022-09-04T12:48:11Z</time>
      </trkpt>
      <trkpt lat="44.80723" lon="6.75685">
        <ele>2478.9</ele>
        <time>2022-09-04T12:48:39Z</time>
      </trkpt>
      <trkpt lat="44.80725" lon="6.75684">
        <ele>2478.9</ele>
        <time>2022-09-04T12:49:13Z</time>
      </trkpt>
      <trkpt lat="44.80722" lon="6.75682">
        <ele>2479.38</ele>
        <time>2022-09-04T12:49:42Z</time>
      </trkpt>
      <trkpt lat="44.80724" lon="6.75683">
        <ele>2479.86</ele>
        <time>2022-09-04T12:50:17Z</time>
      </trkpt>
      <trkpt lat="44.80725" lon="6.75685">
        <ele>2479.86</ele>
        <time>2022-09-04T12:50:43Z</time>
      </trkpt>
      <trkpt lat="44.80722" lon="6.75686">
        <ele>2479.86</ele>
        <time>2022-09-04T12:51:10Z</time>
      </trkpt>
      <trkpt lat="44.80722" lon="6.75685">
        <ele>2480.34</ele>
        <time>2022-09-04T12:51:26Z</time>
      </trkpt>
      <trkpt lat="44.80721" lon="6.75683">
        <ele>2480.34</ele>
        <time>2022-09-04T12:51:53Z</time>
      </trkpt>
      <trkpt lat="44.80722" lon="6.75684">
        <ele>2480.82</ele>
        <time>2022-09-04T12:52:26Z</time>
      </trkpt>
      <trkpt lat="44.8072" lon="6.75686">
        <ele>2480.82</ele>
        <time>2022-09-04T12:52:59Z</time>
      </trkpt>
      <trkpt lat="44.80717" lon="6.75686">
        <ele>2481.3</ele>
        <time>2022-09-04T12:53:35Z</time>
      </trkpt>
      <trkpt lat="44.80719" lon="6.75687">
        <ele>2481.3</ele>
        <time>2022-09-04T12:54:12Z</time>
      </trkpt>
      <trkpt lat="44.80723" lon="6.75686">
        <ele>2481.78</ele>
        <time>2022-09-04T12:54:47Z</time>
      </trkpt>
      <trkpt lat="44.80721" lon="6.75688">
        <ele>2481.78</ele>
        <time>2022-09-04T12:55:19Z</time>
      </trkpt>
      <trkpt lat="44.80723" lon="6.75687">
        <ele>2482.26</ele>
        <time>2022-09-04T12:55:51Z</time>
      </trkpt>
      <trkpt lat="44.80725" lon="6.75684">
        <ele>2482.74</ele>
        <time>2022-09-04T12:56:30Z</time>
      </trkpt>
      <trkpt lat="44.8072" lon="6.75681">
        <ele>2482.74</ele>
        <time>2022-09-04T12:57:10Z</time>
      </trkpt>
      <trkpt lat="44.80722" lon="6.7568">
        <ele>2483.22</ele>
        <time>2022-09-04T12:57:48Z</time>
      </trkpt>
      <trkpt lat="44.80711" lon="6.7569">
        <ele>2483.7</ele>
        <time>2022-09-04T12:58:23Z</time>
      </trkpt>
      <trkpt lat="44.80719" lon="6.75681">
        <ele>2483.7</ele>
        <time>2022-09-04T12:58:58Z</time>
      </trkpt>
      <trkpt lat="44.80715" lon="6.75684">
        <ele>2484.18</ele>
        <time>2022-09-04T12:59:37Z</time>
      </trkpt>
      <trkpt lat="44.80723" lon="6.75683">
        <ele>2484.18</ele>
        <time>2022-09-04T13:00:15Z</time>
      </trkpt>
      <trkpt lat="44.80723" lon="6.75682">
        <ele>2484.66</ele>
        <time>2022-09-04T13:00:55Z</time>
      </trkpt>
      <trkpt lat="44.80724" lon="6.75682">
        <ele>2484.66</ele>
        <time>2022-09-04T13:01:29Z</time>
      </trkpt>
      <trkpt lat="44.80725" lon="6.75682">
        <ele>2484.66</ele>
        <time>2022-09-04T13:01:54Z</time>
      </trkpt>
      <trkpt lat="44.80726" lon="6.75681">
        <ele>2484.66</ele>
        <time>2022-09-04T13:02:16Z</time>
      </trkpt>
      <trkpt lat="44.80713" lon="6.75681">
        <ele>2485.15</ele>
        <time>2022-09-04T13:02:47Z</time>
      </trkpt>
      <trkpt lat="44.80709" lon="6.75682">
        <ele>2485.15</ele>
        <time>2022-09-04T13:03:18Z</time>
      </trkpt>
      <trkpt lat="44.80717" lon="6.75679">
        <ele>2485.15</ele>
        <time>2022-09-04T13:03:34Z</time>
      </trkpt>
      <trkpt lat="44.80718" lon="6.75686">
        <ele>2485.15</ele>
        <time>2022-09-04T13:03:52Z</time>
      </trkpt>
      <trkpt lat="44.80717" lon="6.75689">
        <ele>2486.59</ele>
        <time>2022-09-04T13:04:05Z</time>
      </trkpt>
      <trkpt lat="44.80716" lon="6.75689">
        <ele>2486.59</ele>
        <time>2022-09-04T13:04:06Z</time>
      </trkpt>
      <trkpt lat="44.80707" lon="6.75683">
        <ele>2488.03</ele>
        <time>2022-09-04T13:04:17Z</time>
      </trkpt>
      <trkpt lat="44.80704" lon="6.75681">
        <ele>2488.03</ele>
        <time>2022-09-04T13:04:21Z</time>
      </trkpt>
      <trkpt lat="44.80698" lon="6.75677">
        <ele>2488.99</ele>
        <time>2022-09-04T13:04:29Z</time>
      </trkpt>
      <trkpt lat="44.80689" lon="6.75678">
        <ele>2489.47</ele>
        <time>2022-09-04T13:04:38Z</time>
      </trkpt>
      <trkpt lat="44.80687" lon="6.75676">
        <ele>2489.47</ele>
        <time>2022-09-04T13:04:44Z</time>
      </trkpt>
      <trkpt lat="44.80685" lon="6.75674">
        <ele>2489.47</ele>
        <time>2022-09-04T13:04:47Z</time>
      </trkpt>
      <trkpt lat="44.80674" lon="6.75671">
        <ele>2489.47</ele>
        <time>2022-09-04T13:04:58Z</time>
      </trkpt>
      <trkpt lat="44.80667" lon="6.75669">
        <ele>2488.03</ele>
        <time>2022-09-04T13:05:04Z</time>
      </trkpt>
      <trkpt lat="44.8066" lon="6.75668">
        <ele>2486.59</ele>
        <time>2022-09-04T13:05:12Z</time>
      </trkpt>
      <trkpt lat="44.80659" lon="6.75667">
        <ele>2486.59</ele>
        <time>2022-09-04T13:05:14Z</time>
      </trkpt>
      <trkpt lat="44.80649" lon="6.75665">
        <ele>2487.07</ele>
        <time>2022-09-04T13:05:27Z</time>
      </trkpt>
      <trkpt lat="44.80647" lon="6.75664">
        <ele>2486.11</ele>
        <time>2022-09-04T13:05:48Z</time>
      </trkpt>
      <trkpt lat="44.80648" lon="6.75662">
        <ele>2486.59</ele>
        <time>2022-09-04T13:06:21Z</time>
      </trkpt>
      <trkpt lat="44.80648" lon="6.75661">
        <ele>2486.11</ele>
        <time>2022-09-04T13:06:52Z</time>
      </trkpt>
      <trkpt lat="44.80648" lon="6.75662">
        <ele>2486.11</ele>
        <time>2022-09-04T13:07:26Z</time>
      </trkpt>
      <trkpt lat="44.80649" lon="6.75662">
        <ele>2486.11</ele>
        <time>2022-09-04T13:07:39Z</time>
      </trkpt>
      <trkpt lat="44.80652" lon="6.75663">
        <ele>2486.11</ele>
        <time>2022-09-04T13:07:42Z</time>
      </trkpt>
      <trkpt lat="44.80659" lon="6.75666">
        <ele>2486.59</ele>
        <time>2022-09-04T13:07:56Z</time>
      </trkpt>
      <trkpt lat="44.80654" lon="6.75663">
        <ele>2487.07</ele>
        <time>2022-09-04T13:08:13Z</time>
      </trkpt>
      <trkpt lat="44.80653" lon="6.75664">
        <ele>2487.07</ele>
        <time>2022-09-04T13:08:36Z</time>
      </trkpt>
      <trkpt lat="44.80651" lon="6.75662">
        <ele>2487.07</ele>
        <time>2022-09-04T13:09:09Z</time>
      </trkpt>
      <trkpt lat="44.80654" lon="6.75665">
        <ele>2487.07</ele>
        <time>2022-09-04T13:09:37Z</time>
      </trkpt>
      <trkpt lat="44.8066" lon="6.75668">
        <ele>2487.07</ele>
        <time>2022-09-04T13:09:44Z</time>
      </trkpt>
      <trkpt lat="44.80664" lon="6.75668">
        <ele>2487.55</ele>
        <time>2022-09-04T13:09:48Z</time>
      </trkpt>
      <trkpt lat="44.80674" lon="6.75672">
        <ele>2488.99</ele>
        <time>2022-09-04T13:10:00Z</time>
      </trkpt>
      <trkpt lat="44.80679" lon="6.75674">
        <ele>2488.99</ele>
        <time>2022-09-04T13:10:05Z</time>
      </trkpt>
      <trkpt lat="44.80682" lon="6.75673">
        <ele>2489.47</ele>
        <time>2022-09-04T13:10:08Z</time>
      </trkpt>
      <trkpt lat="44.8069" lon="6.75672">
        <ele>2489.47</ele>
        <time>2022-09-04T13:10:20Z</time>
      </trkpt>
      <trkpt lat="44.80694" lon="6.7567">
        <ele>2488.03</ele>
        <time>2022-09-04T13:10:26Z</time>
      </trkpt>
      <trkpt lat="44.80699" lon="6.75666">
        <ele>2486.59</ele>
        <time>2022-09-04T13:10:32Z</time>
      </trkpt>
      <trkpt lat="44.80705" lon="6.75666">
        <ele>2487.07</ele>
        <time>2022-09-04T13:10:43Z</time>
      </trkpt>
      <trkpt lat="44.80706" lon="6.75667">
        <ele>2487.07</ele>
        <time>2022-09-04T13:10:49Z</time>
      </trkpt>
      <trkpt lat="44.80707" lon="6.75668">
        <ele>2487.07</ele>
        <time>2022-09-04T13:10:51Z</time>
      </trkpt>
      <trkpt lat="44.80708" lon="6.75669">
        <ele>2487.07</ele>
        <time>2022-09-04T13:10:53Z</time>
      </trkpt>
      <trkpt lat="44.80711" lon="6.75673">
        <ele>2486.59</ele>
        <time>2022-09-04T13:10:58Z</time>
      </trkpt>
      <trkpt lat="44.80719" lon="6.75681">
        <ele>2486.11</ele>
        <time>2022-09-04T13:11:09Z</time>
      </trkpt>
      <trkpt lat="44.8072" lon="6.75682">
        <ele>2486.11</ele>
        <time>2022-09-04T13:11:12Z</time>
      </trkpt>
      <trkpt lat="44.8072" lon="6.75685">
        <ele>2486.11</ele>
        <time>2022-09-04T13:11:29Z</time>
      </trkpt>
      <trkpt lat="44.8072" lon="6.75683">
        <ele>2486.11</ele>
        <time>2022-09-04T13:12:06Z</time>
      </trkpt>
      <trkpt lat="44.80721" lon="6.75681">
        <ele>2486.11</ele>
        <time>2022-09-04T13:12:42Z</time>
      </trkpt>
      <trkpt lat="44.80724" lon="6.75684">
        <ele>2486.11</ele>
        <time>2022-09-04T13:13:16Z</time>
      </trkpt>
      <trkpt lat="44.8072" lon="6.7568">
        <ele>2486.11</ele>
        <time>2022-09-04T13:13:54Z</time>
      </trkpt>
      <trkpt lat="44.80719" lon="6.75679">
        <ele>2486.11</ele>
        <time>2022-09-04T13:14:36Z</time>
      </trkpt>
      <trkpt lat="44.80722" lon="6.75681">
        <ele>2486.11</ele>
        <time>2022-09-04T13:15:15Z</time>
      </trkpt>
      <trkpt lat="44.80718" lon="6.75687">
        <ele>2486.11</ele>
        <time>2022-09-04T13:15:56Z</time>
      </trkpt>
      <trkpt lat="44.80719" lon="6.75686">
        <ele>2486.11</ele>
        <time>2022-09-04T13:16:32Z</time>
      </trkpt>
      <trkpt lat="44.80716" lon="6.75686">
        <ele>2486.11</ele>
        <time>2022-09-04T13:17:09Z</time>
      </trkpt>
      <trkpt lat="44.80718" lon="6.75686">
        <ele>2486.59</ele>
        <time>2022-09-04T13:17:46Z</time>
      </trkpt>
      <trkpt lat="44.80712" lon="6.75687">
        <ele>2486.59</ele>
        <time>2022-09-04T13:18:20Z</time>
      </trkpt>
      <trkpt lat="44.80714" lon="6.75689">
        <ele>2486.59</ele>
        <time>2022-09-04T13:18:57Z</time>
      </trkpt>
      <trkpt lat="44.80721" lon="6.75685">
        <ele>2486.59</ele>
        <time>2022-09-04T13:19:30Z</time>
      </trkpt>
      <trkpt lat="44.80723" lon="6.75687">
        <ele>2486.59</ele>
        <time>2022-09-04T13:20:08Z</time>
      </trkpt>
      <trkpt lat="44.80724" lon="6.75687">
        <ele>2486.59</ele>
        <time>2022-09-04T13:20:37Z</time>
      </trkpt>
      <trkpt lat="44.80724" lon="6.75686">
        <ele>2487.07</ele>
        <time>2022-09-04T13:21:06Z</time>
      </trkpt>
      <trkpt lat="44.80723" lon="6.75684">
        <ele>2487.07</ele>
        <time>2022-09-04T13:21:21Z</time>
      </trkpt>
      <trkpt lat="44.80722" lon="6.75683">
        <ele>2487.07</ele>
        <time>2022-09-04T13:21:58Z</time>
      </trkpt>
      <trkpt lat="44.80724" lon="6.75683">
        <ele>2486.59</ele>
        <time>2022-09-04T13:22:40Z</time>
      </trkpt>
      <trkpt lat="44.80725" lon="6.75683">
        <ele>2487.07</ele>
        <time>2022-09-04T13:23:24Z</time>
      </trkpt>
      <trkpt lat="44.80726" lon="6.75682">
        <ele>2486.59</ele>
        <time>2022-09-04T13:24:02Z</time>
      </trkpt>
      <trkpt lat="44.80726" lon="6.75682">
        <ele>2486.59</ele>
        <time>2022-09-04T13:24:47Z</time>
      </trkpt>
      <trkpt lat="44.80725" lon="6.75682">
        <ele>2486.59</ele>
        <time>2022-09-04T13:25:34Z</time>
      </trkpt>
      <trkpt lat="44.80724" lon="6.75681">
        <ele>2486.59</ele>
        <time>2022-09-04T13:26:18Z</time>
      </trkpt>
      <trkpt lat="44.80725" lon="6.75681">
        <ele>2486.59</ele>
        <time>2022-09-04T13:27:03Z</time>
      </trkpt>
      <trkpt lat="44.80725" lon="6.75681">
        <ele>2486.59</ele>
        <time>2022-09-04T13:27:43Z</time>
      </trkpt>
      <trkpt lat="44.80725" lon="6.75682">
        <ele>2486.59</ele>
        <time>2022-09-04T13:28:26Z</time>
      </trkpt>
      <trkpt lat="44.80725" lon="6.75682">
        <ele>2486.59</ele>
        <time>2022-09-04T13:29:10Z</time>
      </trkpt>
      <trkpt lat="44.80725" lon="6.75681">
        <ele>2486.59</ele>
        <time>2022-09-04T13:30:00Z</time>
      </trkpt>
      <trkpt lat="44.80725" lon="6.75682">
        <ele>2486.59</ele>
        <time>2022-09-04T13:30:50Z</time>
      </trkpt>
      <trkpt lat="44.80725" lon="6.75682">
        <ele>2486.59</ele>
        <time>2022-09-04T13:31:39Z</time>
      </trkpt>
      <trkpt lat="44.80725" lon="6.75682">
        <ele>2486.59</ele>
        <time>2022-09-04T13:32:19Z</time>
      </trkpt>
      <trkpt lat="44.80726" lon="6.75682">
        <ele>2486.59</ele>
        <time>2022-09-04T13:33:02Z</time>
      </trkpt>
      <trkpt lat="44.80725" lon="6.75682">
        <ele>2488.03</ele>
        <time>2022-09-04T13:33:49Z</time>
      </trkpt>
      <trkpt lat="44.80725" lon="6.75682">
        <ele>2488.03</ele>
        <time>2022-09-04T13:34:31Z</time>
      </trkpt>
      <trkpt lat="44.80724" lon="6.75682">
        <ele>2488.03</ele>
        <time>2022-09-04T13:35:09Z</time>
      </trkpt>
      <trkpt lat="44.80725" lon="6.75682">
        <ele>2488.03</ele>
        <time>2022-09-04T13:35:44Z</time>
      </trkpt>
      <trkpt lat="44.80725" lon="6.75682">
        <ele>2488.03</ele>
        <time>2022-09-04T13:36:25Z</time>
      </trkpt>
      <trkpt lat="44.80724" lon="6.75682">
        <ele>2488.03</ele>
        <time>2022-09-04T13:37:05Z</time>
      </trkpt>
      <trkpt lat="44.80724" lon="6.75683">
        <ele>2488.03</ele>
        <time>2022-09-04T13:37:40Z</time>
      </trkpt>
      <trkpt lat="44.80724" lon="6.75682">
        <ele>2488.03</ele>
        <time>2022-09-04T13:38:20Z</time>
      </trkpt>
      <trkpt lat="44.80724" lon="6.75681">
        <ele>2488.03</ele>
        <time>2022-09-04T13:38:54Z</time>
      </trkpt>
      <trkpt lat="44.80724" lon="6.75683">
        <ele>2488.03</ele>
        <time>2022-09-04T13:39:31Z</time>
      </trkpt>
      <trkpt lat="44.80723" lon="6.75681">
        <ele>2488.03</ele>
        <time>2022-09-04T13:40:03Z</time>
      </trkpt>
      <trkpt lat="44.80724" lon="6.75682">
        <ele>2488.03</ele>
        <time>2022-09-04T13:40:40Z</time>
      </trkpt>
      <trkpt lat="44.80723" lon="6.75684">
        <ele>2488.03</ele>
        <time>2022-09-04T13:41:16Z</time>
      </trkpt>
      <trkpt lat="44.80723" lon="6.75682">
        <ele>2488.03</ele>
        <time>2022-09-04T13:41:52Z</time>
      </trkpt>
      <trkpt lat="44.80724" lon="6.75683">
        <ele>2488.03</ele>
        <time>2022-09-04T13:42:21Z</time>
      </trkpt>
      <trkpt lat="44.80721" lon="6.75683">
        <ele>2488.03</ele>
        <time>2022-09-04T13:42:52Z</time>
      </trkpt>
      <trkpt lat="44.80724" lon="6.75682">
        <ele>2488.03</ele>
        <time>2022-09-04T13:43:23Z</time>
      </trkpt>
      <trkpt lat="44.80723" lon="6.75682">
        <ele>2488.03</ele>
        <time>2022-09-04T13:43:59Z</time>
      </trkpt>
      <trkpt lat="44.80724" lon="6.75682">
        <ele>2488.03</ele>
        <time>2022-09-04T13:44:36Z</time>
      </trkpt>
      <trkpt lat="44.80725" lon="6.75681">
        <ele>2488.03</ele>
        <time>2022-09-04T13:45:18Z</time>
      </trkpt>
      <trkpt lat="44.80725" lon="6.75681">
        <ele>2488.03</ele>
        <time>2022-09-04T13:45:58Z</time>
      </trkpt>
      <trkpt lat="44.80723" lon="6.75681">
        <ele>2488.03</ele>
        <time>2022-09-04T13:46:41Z</time>
      </trkpt>
      <trkpt lat="44.80723" lon="6.75681">
        <ele>2488.03</ele>
        <time>2022-09-04T13:47:19Z</time>
      </trkpt>
      <trkpt lat="44.80724" lon="6.75681">
        <ele>2488.03</ele>
        <time>2022-09-04T13:47:57Z</time>
      </trkpt>
      <trkpt lat="44.80723" lon="6.75681">
        <ele>2488.03</ele>
        <time>2022-09-04T13:48:34Z</time>
      </trkpt>
      <trkpt lat="44.80723" lon="6.75681">
        <ele>2488.03</ele>
        <time>2022-09-04T13:49:10Z</time>
      </trkpt>
      <trkpt lat="44.80723" lon="6.7568">
        <ele>2488.03</ele>
        <time>2022-09-04T13:49:42Z</time>
      </trkpt>
      <trkpt lat="44.80724" lon="6.75679">
        <ele>2488.03</ele>
        <time>2022-09-04T13:50:15Z</time>
      </trkpt>
      <trkpt lat="44.80724" lon="6.75679">
        <ele>2488.03</ele>
        <time>2022-09-04T13:50:46Z</time>
      </trkpt>
      <trkpt lat="44.80724" lon="6.7568">
        <ele>2488.03</ele>
        <time>2022-09-04T13:51:17Z</time>
      </trkpt>
      <trkpt lat="44.80723" lon="6.75682">
        <ele>2488.03</ele>
        <time>2022-09-04T13:51:49Z</time>
      </trkpt>
      <trkpt lat="44.80725" lon="6.75682">
        <ele>2488.03</ele>
        <time>2022-09-04T13:52:25Z</time>
      </trkpt>
      <trkpt lat="44.80726" lon="6.75681">
        <ele>2488.03</ele>
        <time>2022-09-04T13:53:07Z</time>
      </trkpt>
      <trkpt lat="44.80724" lon="6.75683">
        <ele>2488.03</ele>
        <time>2022-09-04T13:53:46Z</time>
      </trkpt>
      <trkpt lat="44.80726" lon="6.75679">
        <ele>2488.03</ele>
        <time>2022-09-04T13:54:22Z</time>
      </trkpt>
      <trkpt lat="44.80726" lon="6.75681">
        <ele>2488.03</ele>
        <time>2022-09-04T13:55:06Z</time>
      </trkpt>
      <trkpt lat="44.80722" lon="6.75683">
        <ele>2488.03</ele>
        <time>2022-09-04T13:55:44Z</time>
      </trkpt>
      <trkpt lat="44.80718" lon="6.75686">
        <ele>2487.07</ele>
        <time>2022-09-04T13:56:24Z</time>
      </trkpt>
      <trkpt lat="44.80721" lon="6.75684">
        <ele>2487.07</ele>
        <time>2022-09-04T13:57:08Z</time>
      </trkpt>
      <trkpt lat="44.80722" lon="6.75684">
        <ele>2488.51</ele>
        <time>2022-09-04T13:57:35Z</time>
      </trkpt>
      <trkpt lat="44.80722" lon="6.75683">
        <ele>2488.51</ele>
        <time>2022-09-04T13:57:54Z</time>
      </trkpt>
      <trkpt lat="44.80723" lon="6.75689">
        <ele>2488.51</ele>
        <time>2022-09-04T13:58:16Z</time>
      </trkpt>
      <trkpt lat="44.80723" lon="6.75687">
        <ele>2488.51</ele>
        <time>2022-09-04T13:58:41Z</time>
      </trkpt>
      <trkpt lat="44.80721" lon="6.75683">
        <ele>2488.03</ele>
        <time>2022-09-04T13:59:05Z</time>
      </trkpt>
      <trkpt lat="44.80721" lon="6.75682">
        <ele>2486.59</ele>
        <time>2022-09-04T13:59:19Z</time>
      </trkpt>
      <trkpt lat="44.80722" lon="6.75681">
        <ele>2486.59</ele>
        <time>2022-09-04T13:59:40Z</time>
      </trkpt>
      <trkpt lat="44.80719" lon="6.75685">
        <ele>2486.59</ele>
        <time>2022-09-04T14:00:08Z</time>
      </trkpt>
      <trkpt lat="44.8072" lon="6.75685">
        <ele>2486.59</ele>
        <time>2022-09-04T14:00:24Z</time>
      </trkpt>
      <trkpt lat="44.80719" lon="6.7569">
        <ele>2488.03</ele>
        <time>2022-09-04T14:00:27Z</time>
      </trkpt>
      <trkpt lat="44.8072" lon="6.75691">
        <ele>2488.51</ele>
        <time>2022-09-04T14:00:34Z</time>
      </trkpt>
      <trkpt lat="44.8072" lon="6.7569">
        <ele>2488.51</ele>
        <time>2022-09-04T14:00:47Z</time>
      </trkpt>
      <trkpt lat="44.8072" lon="6.75689">
        <ele>2488.51</ele>
        <time>2022-09-04T14:01:04Z</time>
      </trkpt>
      <trkpt lat="44.80721" lon="6.75681">
        <ele>2488.51</ele>
        <time>2022-09-04T14:01:32Z</time>
      </trkpt>
      <trkpt lat="44.80721" lon="6.75681">
        <ele>2487.55</ele>
        <time>2022-09-04T14:01:35Z</time>
      </trkpt>
      <trkpt lat="44.80719" lon="6.75685">
        <ele>2487.55</ele>
        <time>2022-09-04T14:01:48Z</time>
      </trkpt>
      <trkpt lat="44.80718" lon="6.75684">
        <ele>2487.55</ele>
        <time>2022-09-04T14:01:56Z</time>
      </trkpt>
      <trkpt lat="44.8072" lon="6.75684">
        <ele>2487.55</ele>
        <time>2022-09-04T14:01:59Z</time>
      </trkpt>
      <trkpt lat="44.80741" lon="6.75681">
        <ele>2487.07</ele>
        <time>2022-09-04T14:02:08Z</time>
      </trkpt>
      <trkpt lat="44.8076" lon="6.75664">
        <ele>2486.59</ele>
        <time>2022-09-04T14:02:15Z</time>
      </trkpt>
      <trkpt lat="44.80774" lon="6.7564">
        <ele>2487.55</ele>
        <time>2022-09-04T14:02:23Z</time>
      </trkpt>
      <trkpt lat="44.80784" lon="6.75615">
        <ele>2489.47</ele>
        <time>2022-09-04T14:02:32Z</time>
      </trkpt>
      <trkpt lat="44.80797" lon="6.75595">
        <ele>2490.43</ele>
        <time>2022-09-04T14:02:43Z</time>
      </trkpt>
      <trkpt lat="44.80797" lon="6.75595">
        <ele>2490.43</ele>
        <time>2022-09-04T14:02:44Z</time>
      </trkpt>
      <trkpt lat="44.80804" lon="6.75589">
        <ele>2491.87</ele>
        <time>2022-09-04T14:02:50Z</time>
      </trkpt>
      <trkpt lat="44.80807" lon="6.75581">
        <ele>2493.32</ele>
        <time>2022-09-04T14:02:56Z</time>
      </trkpt>
      <trkpt lat="44.80812" lon="6.75574">
        <ele>2494.76</ele>
        <time>2022-09-04T14:03:02Z</time>
      </trkpt>
      <trkpt lat="44.80819" lon="6.7556">
        <ele>2497.16</ele>
        <time>2022-09-04T14:03:13Z</time>
      </trkpt>
      <trkpt lat="44.80826" lon="6.75552">
        <ele>2498.12</ele>
        <time>2022-09-04T14:03:20Z</time>
      </trkpt>
      <trkpt lat="44.80829" lon="6.75541">
        <ele>2500.05</ele>
        <time>2022-09-04T14:03:29Z</time>
      </trkpt>
      <trkpt lat="44.80829" lon="6.75532">
        <ele>2503.41</ele>
        <time>2022-09-04T14:03:36Z</time>
      </trkpt>
      <trkpt lat="44.80829" lon="6.75531">
        <ele>2503.41</ele>
        <time>2022-09-04T14:03:37Z</time>
      </trkpt>
      <trkpt lat="44.80829" lon="6.75529">
        <ele>2503.41</ele>
        <time>2022-09-04T14:03:39Z</time>
      </trkpt>
      <trkpt lat="44.80835" lon="6.75521">
        <ele>2503.89</ele>
        <time>2022-09-04T14:03:45Z</time>
      </trkpt>
      <trkpt lat="44.80836" lon="6.75515">
        <ele>2504.37</ele>
        <time>2022-09-04T14:03:49Z</time>
      </trkpt>
      <trkpt lat="44.80838" lon="6.75512">
        <ele>2505.81</ele>
        <time>2022-09-04T14:03:54Z</time>
      </trkpt>
      <trkpt lat="44.80841" lon="6.75509">
        <ele>2506.29</ele>
        <time>2022-09-04T14:03:58Z</time>
      </trkpt>
      <trkpt lat="44.80844" lon="6.755">
        <ele>2508.7</ele>
        <time>2022-09-04T14:04:05Z</time>
      </trkpt>
      <trkpt lat="44.80846" lon="6.75492">
        <ele>2509.66</ele>
        <time>2022-09-04T14:04:12Z</time>
      </trkpt>
      <trkpt lat="44.80852" lon="6.75486">
        <ele>2511.58</ele>
        <time>2022-09-04T14:04:20Z</time>
      </trkpt>
      <trkpt lat="44.80855" lon="6.75484">
        <ele>2512.06</ele>
        <time>2022-09-04T14:04:24Z</time>
      </trkpt>
      <trkpt lat="44.8086" lon="6.75473">
        <ele>2514.47</ele>
        <time>2022-09-04T14:04:35Z</time>
      </trkpt>
      <trkpt lat="44.80861" lon="6.7547">
        <ele>2515.43</ele>
        <time>2022-09-04T14:04:39Z</time>
      </trkpt>
      <trkpt lat="44.80864" lon="6.75465">
        <ele>2516.39</ele>
        <time>2022-09-04T14:04:44Z</time>
      </trkpt>
      <trkpt lat="44.80866" lon="6.75461">
        <ele>2518.31</ele>
        <time>2022-09-04T14:04:48Z</time>
      </trkpt>
      <trkpt lat="44.80867" lon="6.75458">
        <ele>2518.79</ele>
        <time>2022-09-04T14:04:51Z</time>
      </trkpt>
      <trkpt lat="44.80872" lon="6.75452">
        <ele>2521.19</ele>
        <time>2022-09-04T14:05:00Z</time>
      </trkpt>
      <trkpt lat="44.80873" lon="6.75447">
        <ele>2522.64</ele>
        <time>2022-09-04T14:05:06Z</time>
      </trkpt>
      <trkpt lat="44.8088" lon="6.75442">
        <ele>2526.96</ele>
        <time>2022-09-04T14:05:18Z</time>
      </trkpt>
      <trkpt lat="44.8088" lon="6.75441">
        <ele>2526.48</ele>
        <time>2022-09-04T14:05:19Z</time>
      </trkpt>
      <trkpt lat="44.80885" lon="6.75441">
        <ele>2528.4</ele>
        <time>2022-09-04T14:05:26Z</time>
      </trkpt>
      <trkpt lat="44.80888" lon="6.7544">
        <ele>2529.37</ele>
        <time>2022-09-04T14:05:29Z</time>
      </trkpt>
      <trkpt lat="44.80891" lon="6.75434">
        <ele>2530.33</ele>
        <time>2022-09-04T14:05:35Z</time>
      </trkpt>
      <trkpt lat="44.80892" lon="6.75429">
        <ele>2531.77</ele>
        <time>2022-09-04T14:05:38Z</time>
      </trkpt>
      <trkpt lat="44.80891" lon="6.75426">
        <ele>2531.29</ele>
        <time>2022-09-04T14:05:41Z</time>
      </trkpt>
      <trkpt lat="44.80894" lon="6.75417">
        <ele>2534.65</ele>
        <time>2022-09-04T14:05:50Z</time>
      </trkpt>
      <trkpt lat="44.80895" lon="6.75415">
        <ele>2534.65</ele>
        <time>2022-09-04T14:05:51Z</time>
      </trkpt>
      <trkpt lat="44.80898" lon="6.75409">
        <ele>2536.1</ele>
        <time>2022-09-04T14:05:59Z</time>
      </trkpt>
      <trkpt lat="44.80901" lon="6.75402">
        <ele>2538.98</ele>
        <time>2022-09-04T14:06:11Z</time>
      </trkpt>
      <trkpt lat="44.80905" lon="6.75395">
        <ele>2540.42</ele>
        <time>2022-09-04T14:06:19Z</time>
      </trkpt>
      <trkpt lat="44.80907" lon="6.75392">
        <ele>2541.38</ele>
        <time>2022-09-04T14:06:22Z</time>
      </trkpt>
      <trkpt lat="44.80913" lon="6.75386">
        <ele>2542.82</ele>
        <time>2022-09-04T14:06:31Z</time>
      </trkpt>
      <trkpt lat="44.80917" lon="6.75377">
        <ele>2545.71</ele>
        <time>2022-09-04T14:06:40Z</time>
      </trkpt>
      <trkpt lat="44.80919" lon="6.75367">
        <ele>2549.07</ele>
        <time>2022-09-04T14:06:50Z</time>
      </trkpt>
      <trkpt lat="44.80923" lon="6.7536">
        <ele>2550.51</ele>
        <time>2022-09-04T14:06:58Z</time>
      </trkpt>
      <trkpt lat="44.80924" lon="6.75358">
        <ele>2551.48</ele>
        <time>2022-09-04T14:07:02Z</time>
      </trkpt>
      <trkpt lat="44.80928" lon="6.75353">
        <ele>2552.44</ele>
        <time>2022-09-04T14:07:08Z</time>
      </trkpt>
      <trkpt lat="44.80935" lon="6.75346">
        <ele>2555.8</ele>
        <time>2022-09-04T14:07:20Z</time>
      </trkpt>
      <trkpt lat="44.80936" lon="6.75346">
        <ele>2556.76</ele>
        <time>2022-09-04T14:07:22Z</time>
      </trkpt>
      <trkpt lat="44.80939" lon="6.75342">
        <ele>2558.21</ele>
        <time>2022-09-04T14:07:28Z</time>
      </trkpt>
      <trkpt lat="44.80943" lon="6.7534">
        <ele>2559.17</ele>
        <time>2022-09-04T14:07:34Z</time>
      </trkpt>
      <trkpt lat="44.80946" lon="6.75339">
        <ele>2560.13</ele>
        <time>2022-09-04T14:07:37Z</time>
      </trkpt>
      <trkpt lat="44.80951" lon="6.75339">
        <ele>2561.09</ele>
        <time>2022-09-04T14:07:42Z</time>
      </trkpt>
      <trkpt lat="44.80958" lon="6.75331">
        <ele>2562.53</ele>
        <time>2022-09-04T14:07:52Z</time>
      </trkpt>
      <trkpt lat="44.80966" lon="6.75329">
        <ele>2564.93</ele>
        <time>2022-09-04T14:08:00Z</time>
      </trkpt>
      <trkpt lat="44.8097" lon="6.75326">
        <ele>2565.42</ele>
        <time>2022-09-04T14:08:04Z</time>
      </trkpt>
      <trkpt lat="44.80976" lon="6.75323">
        <ele>2565.9</ele>
        <time>2022-09-04T14:08:10Z</time>
      </trkpt>
      <trkpt lat="44.80984" lon="6.75314">
        <ele>2567.82</ele>
        <time>2022-09-04T14:08:21Z</time>
      </trkpt>
      <trkpt lat="44.80996" lon="6.75308">
        <ele>2568.78</ele>
        <time>2022-09-04T14:08:31Z</time>
      </trkpt>
      <trkpt lat="44.81001" lon="6.75306">
        <ele>2569.74</ele>
        <time>2022-09-04T14:08:36Z</time>
      </trkpt>
      <trkpt lat="44.81006" lon="6.75306">
        <ele>2571.66</ele>
        <time>2022-09-04T14:08:42Z</time>
      </trkpt>
      <trkpt lat="44.81014" lon="6.75302">
        <ele>2573.59</ele>
        <time>2022-09-04T14:08:50Z</time>
      </trkpt>
      <trkpt lat="44.81017" lon="6.75302">
        <ele>2574.55</ele>
        <time>2022-09-04T14:08:54Z</time>
      </trkpt>
      <trkpt lat="44.8102" lon="6.75302">
        <ele>2575.99</ele>
        <time>2022-09-04T14:08:57Z</time>
      </trkpt>
      <trkpt lat="44.81031" lon="6.75302">
        <ele>2578.39</ele>
        <time>2022-09-04T14:09:08Z</time>
      </trkpt>
      <trkpt lat="44.81033" lon="6.75302">
        <ele>2579.84</ele>
        <time>2022-09-04T14:09:11Z</time>
      </trkpt>
      <trkpt lat="44.81038" lon="6.753">
        <ele>2581.28</ele>
        <time>2022-09-04T14:09:19Z</time>
      </trkpt>
      <trkpt lat="44.8104" lon="6.75301">
        <ele>2581.28</ele>
        <time>2022-09-04T14:09:21Z</time>
      </trkpt>
      <trkpt lat="44.81044" lon="6.75306">
        <ele>2584.64</ele>
        <time>2022-09-04T14:09:26Z</time>
      </trkpt>
      <trkpt lat="44.81045" lon="6.75308">
        <ele>2583.2</ele>
        <time>2022-09-04T14:09:28Z</time>
      </trkpt>
      <trkpt lat="44.81046" lon="6.7531">
        <ele>2584.16</ele>
        <time>2022-09-04T14:09:30Z</time>
      </trkpt>
      <trkpt lat="44.81048" lon="6.75311">
        <ele>2585.12</ele>
        <time>2022-09-04T14:09:35Z</time>
      </trkpt>
      <trkpt lat="44.81053" lon="6.75311">
        <ele>2587.04</ele>
        <time>2022-09-04T14:09:44Z</time>
      </trkpt>
      <trkpt lat="44.81059" lon="6.75311">
        <ele>2588.49</ele>
        <time>2022-09-04T14:09:53Z</time>
      </trkpt>
      <trkpt lat="44.81061" lon="6.7531">
        <ele>2588.49</ele>
        <time>2022-09-04T14:09:56Z</time>
      </trkpt>
      <trkpt lat="44.81063" lon="6.7531">
        <ele>2590.41</ele>
        <time>2022-09-04T14:09:59Z</time>
      </trkpt>
      <trkpt lat="44.81065" lon="6.75309">
        <ele>2590.89</ele>
        <time>2022-09-04T14:10:02Z</time>
      </trkpt>
      <trkpt lat="44.81067" lon="6.75309">
        <ele>2591.37</ele>
        <time>2022-09-04T14:10:05Z</time>
      </trkpt>
      <trkpt lat="44.8107" lon="6.75309">
        <ele>2592.81</ele>
        <time>2022-09-04T14:10:08Z</time>
      </trkpt>
      <trkpt lat="44.81076" lon="6.75303">
        <ele>2594.25</ele>
        <time>2022-09-04T14:10:18Z</time>
      </trkpt>
      <trkpt lat="44.81077" lon="6.75302">
        <ele>2595.22</ele>
        <time>2022-09-04T14:10:21Z</time>
      </trkpt>
      <trkpt lat="44.81082" lon="6.75299">
        <ele>2597.62</ele>
        <time>2022-09-04T14:10:29Z</time>
      </trkpt>
      <trkpt lat="44.81085" lon="6.75296">
        <ele>2599.54</ele>
        <time>2022-09-04T14:10:36Z</time>
      </trkpt>
      <trkpt lat="44.81086" lon="6.75295">
        <ele>2600.02</ele>
        <time>2022-09-04T14:10:39Z</time>
      </trkpt>
      <trkpt lat="44.81092" lon="6.75294">
        <ele>2602.43</ele>
        <time>2022-09-04T14:10:49Z</time>
      </trkpt>
      <trkpt lat="44.81098" lon="6.75292">
        <ele>2604.35</ele>
        <time>2022-09-04T14:11:00Z</time>
      </trkpt>
      <trkpt lat="44.81107" lon="6.75294">
        <ele>2607.23</ele>
        <time>2022-09-04T14:11:12Z</time>
      </trkpt>
      <trkpt lat="44.81113" lon="6.75297">
        <ele>2610.12</ele>
        <time>2022-09-04T14:11:24Z</time>
      </trkpt>
      <trkpt lat="44.81115" lon="6.75301">
        <ele>2612.52</ele>
        <time>2022-09-04T14:11:33Z</time>
      </trkpt>
      <trkpt lat="44.81123" lon="6.75301">
        <ele>2614.92</ele>
        <time>2022-09-04T14:11:45Z</time>
      </trkpt>
      <trkpt lat="44.81127" lon="6.75304">
        <ele>2617.81</ele>
        <time>2022-09-04T14:11:55Z</time>
      </trkpt>
      <trkpt lat="44.81132" lon="6.75305">
        <ele>2620.21</ele>
        <time>2022-09-04T14:12:07Z</time>
      </trkpt>
      <trkpt lat="44.81135" lon="6.75313">
        <ele>2623.09</ele>
        <time>2022-09-04T14:12:17Z</time>
      </trkpt>
      <trkpt lat="44.81136" lon="6.75314">
        <ele>2623.58</ele>
        <time>2022-09-04T14:12:20Z</time>
      </trkpt>
      <trkpt lat="44.81138" lon="6.75323">
        <ele>2625.5</ele>
        <time>2022-09-04T14:12:31Z</time>
      </trkpt>
      <trkpt lat="44.81143" lon="6.75326">
        <ele>2628.38</ele>
        <time>2022-09-04T14:12:42Z</time>
      </trkpt>
      <trkpt lat="44.81144" lon="6.75327">
        <ele>2628.86</ele>
        <time>2022-09-04T14:12:45Z</time>
      </trkpt>
      <trkpt lat="44.81147" lon="6.75327">
        <ele>2630.79</ele>
        <time>2022-09-04T14:12:51Z</time>
      </trkpt>
      <trkpt lat="44.81154" lon="6.75324">
        <ele>2633.19</ele>
        <time>2022-09-04T14:13:03Z</time>
      </trkpt>
      <trkpt lat="44.81155" lon="6.75323">
        <ele>2634.63</ele>
        <time>2022-09-04T14:13:07Z</time>
      </trkpt>
      <trkpt lat="44.81157" lon="6.7532">
        <ele>2635.59</ele>
        <time>2022-09-04T14:13:12Z</time>
      </trkpt>
      <trkpt lat="44.81161" lon="6.75315">
        <ele>2637.99</ele>
        <time>2022-09-04T14:13:23Z</time>
      </trkpt>
      <trkpt lat="44.81162" lon="6.75314">
        <ele>2638.48</ele>
        <time>2022-09-04T14:13:25Z</time>
      </trkpt>
      <trkpt lat="44.81163" lon="6.75311">
        <ele>2638.48</ele>
        <time>2022-09-04T14:13:28Z</time>
      </trkpt>
      <trkpt lat="44.81169" lon="6.75304">
        <ele>2641.84</ele>
        <time>2022-09-04T14:13:39Z</time>
      </trkpt>
      <trkpt lat="44.81171" lon="6.75302">
        <ele>2642.8</ele>
        <time>2022-09-04T14:13:43Z</time>
      </trkpt>
      <trkpt lat="44.81173" lon="6.75299">
        <ele>2643.76</ele>
        <time>2022-09-04T14:13:48Z</time>
      </trkpt>
      <trkpt lat="44.81176" lon="6.75292">
        <ele>2646.65</ele>
        <time>2022-09-04T14:13:59Z</time>
      </trkpt>
      <trkpt lat="44.8118" lon="6.75284">
        <ele>2649.53</ele>
        <time>2022-09-04T14:14:11Z</time>
      </trkpt>
      <trkpt lat="44.81182" lon="6.75282">
        <ele>2650.49</ele>
        <time>2022-09-04T14:14:18Z</time>
      </trkpt>
      <trkpt lat="44.81187" lon="6.75278">
        <ele>2652.42</ele>
        <time>2022-09-04T14:14:27Z</time>
      </trkpt>
      <trkpt lat="44.8119" lon="6.75276">
        <ele>2655.3</ele>
        <time>2022-09-04T14:14:35Z</time>
      </trkpt>
      <trkpt lat="44.81194" lon="6.75272">
        <ele>2656.74</ele>
        <time>2022-09-04T14:14:45Z</time>
      </trkpt>
      <trkpt lat="44.81196" lon="6.7527">
        <ele>2657.7</ele>
        <time>2022-09-04T14:14:50Z</time>
      </trkpt>
      <trkpt lat="44.81198" lon="6.75267">
        <ele>2658.18</ele>
        <time>2022-09-04T14:14:53Z</time>
      </trkpt>
      <trkpt lat="44.812" lon="6.7526">
        <ele>2661.07</ele>
        <time>2022-09-04T14:15:04Z</time>
      </trkpt>
      <trkpt lat="44.81201" lon="6.75259">
        <ele>2661.07</ele>
        <time>2022-09-04T14:15:05Z</time>
      </trkpt>
      <trkpt lat="44.81202" lon="6.75257">
        <ele>2661.55</ele>
        <time>2022-09-04T14:15:09Z</time>
      </trkpt>
      <trkpt lat="44.81204" lon="6.75248">
        <ele>2664.43</ele>
        <time>2022-09-04T14:15:19Z</time>
      </trkpt>
      <trkpt lat="44.81206" lon="6.75242">
        <ele>2666.35</ele>
        <time>2022-09-04T14:15:29Z</time>
      </trkpt>
      <trkpt lat="44.81208" lon="6.7524">
        <ele>2667.8</ele>
        <time>2022-09-04T14:15:31Z</time>
      </trkpt>
      <trkpt lat="44.81212" lon="6.75233">
        <ele>2670.2</ele>
        <time>2022-09-04T14:15:42Z</time>
      </trkpt>
      <trkpt lat="44.81212" lon="6.75231">
        <ele>2671.16</ele>
        <time>2022-09-04T14:15:44Z</time>
      </trkpt>
      <trkpt lat="44.81212" lon="6.75229">
        <ele>2672.12</ele>
        <time>2022-09-04T14:15:47Z</time>
      </trkpt>
      <trkpt lat="44.81215" lon="6.75221">
        <ele>2673.56</ele>
        <time>2022-09-04T14:15:58Z</time>
      </trkpt>
      <trkpt lat="44.81216" lon="6.75216">
        <ele>2676.45</ele>
        <time>2022-09-04T14:16:10Z</time>
      </trkpt>
      <trkpt lat="44.81219" lon="6.75214">
        <ele>2677.89</ele>
        <time>2022-09-04T14:16:17Z</time>
      </trkpt>
      <trkpt lat="44.81218" lon="6.75211">
        <ele>2678.85</ele>
        <time>2022-09-04T14:16:20Z</time>
      </trkpt>
      <trkpt lat="44.81219" lon="6.75208">
        <ele>2679.81</ele>
        <time>2022-09-04T14:16:23Z</time>
      </trkpt>
      <trkpt lat="44.81225" lon="6.75207">
        <ele>2682.22</ele>
        <time>2022-09-04T14:16:34Z</time>
      </trkpt>
      <trkpt lat="44.81228" lon="6.75207">
        <ele>2683.66</ele>
        <time>2022-09-04T14:16:38Z</time>
      </trkpt>
      <trkpt lat="44.81228" lon="6.75204">
        <ele>2683.66</ele>
        <time>2022-09-04T14:16:42Z</time>
      </trkpt>
      <trkpt lat="44.81231" lon="6.75203">
        <ele>2685.58</ele>
        <time>2022-09-04T14:16:48Z</time>
      </trkpt>
      <trkpt lat="44.81236" lon="6.75201">
        <ele>2687.98</ele>
        <time>2022-09-04T14:16:59Z</time>
      </trkpt>
      <trkpt lat="44.81238" lon="6.752">
        <ele>2688.94</ele>
        <time>2022-09-04T14:17:02Z</time>
      </trkpt>
      <trkpt lat="44.81237" lon="6.75196">
        <ele>2689.43</ele>
        <time>2022-09-04T14:17:06Z</time>
      </trkpt>
      <trkpt lat="44.81241" lon="6.75193">
        <ele>2691.35</ele>
        <time>2022-09-04T14:17:13Z</time>
      </trkpt>
      <trkpt lat="44.81245" lon="6.75193">
        <ele>2692.79</ele>
        <time>2022-09-04T14:17:19Z</time>
      </trkpt>
      <trkpt lat="44.81248" lon="6.75192">
        <ele>2693.75</ele>
        <time>2022-09-04T14:17:22Z</time>
      </trkpt>
      <trkpt lat="44.81252" lon="6.75189">
        <ele>2696.15</ele>
        <time>2022-09-04T14:17:31Z</time>
      </trkpt>
      <trkpt lat="44.81253" lon="6.75188">
        <ele>2696.15</ele>
        <time>2022-09-04T14:17:32Z</time>
      </trkpt>
      <trkpt lat="44.81253" lon="6.75182">
        <ele>2698.56</ele>
        <time>2022-09-04T14:17:39Z</time>
      </trkpt>
      <trkpt lat="44.81256" lon="6.7518">
        <ele>2699.52</ele>
        <time>2022-09-04T14:17:44Z</time>
      </trkpt>
      <trkpt lat="44.81257" lon="6.75177">
        <ele>2700.96</ele>
        <time>2022-09-04T14:17:49Z</time>
      </trkpt>
      <trkpt lat="44.81259" lon="6.75176">
        <ele>2701.92</ele>
        <time>2022-09-04T14:17:52Z</time>
      </trkpt>
      <trkpt lat="44.81264" lon="6.75171">
        <ele>2704.33</ele>
        <time>2022-09-04T14:18:03Z</time>
      </trkpt>
      <trkpt lat="44.81264" lon="6.75171">
        <ele>2704.33</ele>
        <time>2022-09-04T14:18:04Z</time>
      </trkpt>
      <trkpt lat="44.81264" lon="6.75168">
        <ele>2704.81</ele>
        <time>2022-09-04T14:18:07Z</time>
      </trkpt>
      <trkpt lat="44.81265" lon="6.75167">
        <ele>2705.77</ele>
        <time>2022-09-04T14:18:09Z</time>
      </trkpt>
      <trkpt lat="44.81267" lon="6.75166">
        <ele>2706.73</ele>
        <time>2022-09-04T14:18:12Z</time>
      </trkpt>
      <trkpt lat="44.81269" lon="6.75164">
        <ele>2706.73</ele>
        <time>2022-09-04T14:18:15Z</time>
      </trkpt>
      <trkpt lat="44.81268" lon="6.75161">
        <ele>2707.69</ele>
        <time>2022-09-04T14:18:19Z</time>
      </trkpt>
      <trkpt lat="44.8127" lon="6.7516">
        <ele>2708.65</ele>
        <time>2022-09-04T14:18:21Z</time>
      </trkpt>
      <trkpt lat="44.81273" lon="6.75158">
        <ele>2709.61</ele>
        <time>2022-09-04T14:18:27Z</time>
      </trkpt>
      <trkpt lat="44.81272" lon="6.75154">
        <ele>2711.54</ele>
        <time>2022-09-04T14:18:33Z</time>
      </trkpt>
      <trkpt lat="44.81273" lon="6.75151">
        <ele>2712.02</ele>
        <time>2022-09-04T14:18:35Z</time>
      </trkpt>
      <trkpt lat="44.81277" lon="6.75143">
        <ele>2714.9</ele>
        <time>2022-09-04T14:18:46Z</time>
      </trkpt>
      <trkpt lat="44.81278" lon="6.75142">
        <ele>2716.34</ele>
        <time>2022-09-04T14:18:52Z</time>
      </trkpt>
      <trkpt lat="44.8128" lon="6.75137">
        <ele>2718.27</ele>
        <time>2022-09-04T14:19:01Z</time>
      </trkpt>
      <trkpt lat="44.81284" lon="6.75131">
        <ele>2721.15</ele>
        <time>2022-09-04T14:19:12Z</time>
      </trkpt>
      <trkpt lat="44.81287" lon="6.75134">
        <ele>2723.07</ele>
        <time>2022-09-04T14:19:19Z</time>
      </trkpt>
      <trkpt lat="44.81288" lon="6.75133">
        <ele>2722.59</ele>
        <time>2022-09-04T14:19:22Z</time>
      </trkpt>
      <trkpt lat="44.81289" lon="6.75123">
        <ele>2725.96</ele>
        <time>2022-09-04T14:19:34Z</time>
      </trkpt>
      <trkpt lat="44.81289" lon="6.7512">
        <ele>2726.92</ele>
        <time>2022-09-04T14:19:38Z</time>
      </trkpt>
      <trkpt lat="44.81291" lon="6.75112">
        <ele>2729.8</ele>
        <time>2022-09-04T14:19:49Z</time>
      </trkpt>
      <trkpt lat="44.81291" lon="6.75111">
        <ele>2729.8</ele>
        <time>2022-09-04T14:19:50Z</time>
      </trkpt>
      <trkpt lat="44.81292" lon="6.75108">
        <ele>2730.76</ele>
        <time>2022-09-04T14:19:52Z</time>
      </trkpt>
      <trkpt lat="44.8129" lon="6.75103">
        <ele>2733.17</ele>
        <time>2022-09-04T14:19:59Z</time>
      </trkpt>
      <trkpt lat="44.81288" lon="6.75098">
        <ele>2734.61</ele>
        <time>2022-09-04T14:20:05Z</time>
      </trkpt>
      <trkpt lat="44.81288" lon="6.75096">
        <ele>2735.57</ele>
        <time>2022-09-04T14:20:07Z</time>
      </trkpt>
      <trkpt lat="44.81289" lon="6.75094">
        <ele>2736.05</ele>
        <time>2022-09-04T14:20:10Z</time>
      </trkpt>
      <trkpt lat="44.81298" lon="6.75093">
        <ele>2737.97</ele>
        <time>2022-09-04T14:20:21Z</time>
      </trkpt>
      <trkpt lat="44.81299" lon="6.75092">
        <ele>2738.45</ele>
        <time>2022-09-04T14:20:23Z</time>
      </trkpt>
      <trkpt lat="44.81302" lon="6.75094">
        <ele>2738.93</ele>
        <time>2022-09-04T14:20:27Z</time>
      </trkpt>
      <trkpt lat="44.81308" lon="6.75097">
        <ele>2741.34</ele>
        <time>2022-09-04T14:20:37Z</time>
      </trkpt>
      <trkpt lat="44.81316" lon="6.75095">
        <ele>2745.18</ele>
        <time>2022-09-04T14:20:49Z</time>
      </trkpt>
      <trkpt lat="44.81317" lon="6.75095">
        <ele>2745.18</ele>
        <time>2022-09-04T14:20:51Z</time>
      </trkpt>
      <trkpt lat="44.81322" lon="6.75098">
        <ele>2746.62</ele>
        <time>2022-09-04T14:20:57Z</time>
      </trkpt>
      <trkpt lat="44.81331" lon="6.75103">
        <ele>2749.99</ele>
        <time>2022-09-04T14:21:08Z</time>
      </trkpt>
      <trkpt lat="44.81337" lon="6.75106">
        <ele>2751.91</ele>
        <time>2022-09-04T14:21:18Z</time>
      </trkpt>
      <trkpt lat="44.81345" lon="6.75111">
        <ele>2753.83</ele>
        <time>2022-09-04T14:21:29Z</time>
      </trkpt>
      <trkpt lat="44.81351" lon="6.75118">
        <ele>2756.72</ele>
        <time>2022-09-04T14:21:39Z</time>
      </trkpt>
      <trkpt lat="44.81359" lon="6.75121">
        <ele>2759.12</ele>
        <time>2022-09-04T14:21:51Z</time>
      </trkpt>
      <trkpt lat="44.8136" lon="6.75123">
        <ele>2760.08</ele>
        <time>2022-09-04T14:21:53Z</time>
      </trkpt>
      <trkpt lat="44.81365" lon="6.75133">
        <ele>2762</ele>
        <time>2022-09-04T14:22:04Z</time>
      </trkpt>
      <trkpt lat="44.8137" lon="6.75141">
        <ele>2764.41</ele>
        <time>2022-09-04T14:22:15Z</time>
      </trkpt>
      <trkpt lat="44.81373" lon="6.75143">
        <ele>2765.85</ele>
        <time>2022-09-04T14:22:21Z</time>
      </trkpt>
      <trkpt lat="44.81376" lon="6.75144">
        <ele>2767.29</ele>
        <time>2022-09-04T14:22:27Z</time>
      </trkpt>
      <trkpt lat="44.81377" lon="6.7514">
        <ele>2768.25</ele>
        <time>2022-09-04T14:22:31Z</time>
      </trkpt>
      <trkpt lat="44.81378" lon="6.75136">
        <ele>2768.73</ele>
        <time>2022-09-04T14:22:34Z</time>
      </trkpt>
      <trkpt lat="44.81382" lon="6.75122">
        <ele>2772.1</ele>
        <time>2022-09-04T14:22:46Z</time>
      </trkpt>
      <trkpt lat="44.81383" lon="6.75116">
        <ele>2773.54</ele>
        <time>2022-09-04T14:22:51Z</time>
      </trkpt>
      <trkpt lat="44.81385" lon="6.75104">
        <ele>2776.91</ele>
        <time>2022-09-04T14:23:03Z</time>
      </trkpt>
      <trkpt lat="44.81385" lon="6.75103">
        <ele>2776.91</ele>
        <time>2022-09-04T14:23:04Z</time>
      </trkpt>
      <trkpt lat="44.81388" lon="6.75097">
        <ele>2779.79</ele>
        <time>2022-09-04T14:23:13Z</time>
      </trkpt>
      <trkpt lat="44.81391" lon="6.75088">
        <ele>2782.19</ele>
        <time>2022-09-04T14:23:24Z</time>
      </trkpt>
      <trkpt lat="44.81393" lon="6.75082">
        <ele>2783.63</ele>
        <time>2022-09-04T14:23:30Z</time>
      </trkpt>
      <trkpt lat="44.81393" lon="6.7508">
        <ele>2783.63</ele>
        <time>2022-09-04T14:23:32Z</time>
      </trkpt>
      <trkpt lat="44.81395" lon="6.75076">
        <ele>2785.08</ele>
        <time>2022-09-04T14:23:37Z</time>
      </trkpt>
      <trkpt lat="44.81395" lon="6.75074">
        <ele>2786.04</ele>
        <time>2022-09-04T14:23:40Z</time>
      </trkpt>
      <trkpt lat="44.81394" lon="6.7507">
        <ele>2786.52</ele>
        <time>2022-09-04T14:23:43Z</time>
      </trkpt>
      <trkpt lat="44.81394" lon="6.75067">
        <ele>2787</ele>
        <time>2022-09-04T14:23:46Z</time>
      </trkpt>
      <trkpt lat="44.81393" lon="6.75061">
        <ele>2787.96</ele>
        <time>2022-09-04T14:23:52Z</time>
      </trkpt>
      <trkpt lat="44.81394" lon="6.75058">
        <ele>2788.44</ele>
        <time>2022-09-04T14:23:55Z</time>
      </trkpt>
      <trkpt lat="44.81394" lon="6.75054">
        <ele>2788.92</ele>
        <time>2022-09-04T14:23:58Z</time>
      </trkpt>
      <trkpt lat="44.81395" lon="6.75048">
        <ele>2790.84</ele>
        <time>2022-09-04T14:24:04Z</time>
      </trkpt>
      <trkpt lat="44.81397" lon="6.75041">
        <ele>2792.29</ele>
        <time>2022-09-04T14:24:11Z</time>
      </trkpt>
      <trkpt lat="44.81397" lon="6.75037">
        <ele>2793.25</ele>
        <time>2022-09-04T14:24:14Z</time>
      </trkpt>
      <trkpt lat="44.81397" lon="6.75034">
        <ele>2794.21</ele>
        <time>2022-09-04T14:24:17Z</time>
      </trkpt>
      <trkpt lat="44.81398" lon="6.75022">
        <ele>2796.61</ele>
        <time>2022-09-04T14:24:29Z</time>
      </trkpt>
      <trkpt lat="44.81398" lon="6.75021">
        <ele>2797.57</ele>
        <time>2022-09-04T14:24:31Z</time>
      </trkpt>
      <trkpt lat="44.81402" lon="6.75015">
        <ele>2799.98</ele>
        <time>2022-09-04T14:24:42Z</time>
      </trkpt>
      <trkpt lat="44.81401" lon="6.75013">
        <ele>2800.46</ele>
        <time>2022-09-04T14:24:45Z</time>
      </trkpt>
      <trkpt lat="44.81404" lon="6.75006">
        <ele>2803.34</ele>
        <time>2022-09-04T14:24:56Z</time>
      </trkpt>
      <trkpt lat="44.81405" lon="6.75005">
        <ele>2803.82</ele>
        <time>2022-09-04T14:24:57Z</time>
      </trkpt>
      <trkpt lat="44.81407" lon="6.74999">
        <ele>2806.23</ele>
        <time>2022-09-04T14:25:08Z</time>
      </trkpt>
      <trkpt lat="44.81406" lon="6.74994">
        <ele>2807.67</ele>
        <time>2022-09-04T14:25:14Z</time>
      </trkpt>
      <trkpt lat="44.81409" lon="6.74987">
        <ele>2810.07</ele>
        <time>2022-09-04T14:25:25Z</time>
      </trkpt>
      <trkpt lat="44.81408" lon="6.74983">
        <ele>2811.03</ele>
        <time>2022-09-04T14:25:29Z</time>
      </trkpt>
      <trkpt lat="44.81407" lon="6.74979">
        <ele>2811.51</ele>
        <time>2022-09-04T14:25:32Z</time>
      </trkpt>
      <trkpt lat="44.81404" lon="6.74965">
        <ele>2813.92</ele>
        <time>2022-09-04T14:25:44Z</time>
      </trkpt>
      <trkpt lat="44.81404" lon="6.74961">
        <ele>2814.88</ele>
        <time>2022-09-04T14:25:47Z</time>
      </trkpt>
      <trkpt lat="44.81403" lon="6.74954">
        <ele>2816.32</ele>
        <time>2022-09-04T14:25:54Z</time>
      </trkpt>
      <trkpt lat="44.814" lon="6.74944">
        <ele>2818.72</ele>
        <time>2022-09-04T14:26:03Z</time>
      </trkpt>
      <trkpt lat="44.81398" lon="6.74942">
        <ele>2818.72</ele>
        <time>2022-09-04T14:26:06Z</time>
      </trkpt>
      <trkpt lat="44.81396" lon="6.74938">
        <ele>2820.16</ele>
        <time>2022-09-04T14:26:10Z</time>
      </trkpt>
      <trkpt lat="44.81392" lon="6.74927">
        <ele>2822.09</ele>
        <time>2022-09-04T14:26:18Z</time>
      </trkpt>
      <trkpt lat="44.81392" lon="6.74923">
        <ele>2822.57</ele>
        <time>2022-09-04T14:26:21Z</time>
      </trkpt>
      <trkpt lat="44.81391" lon="6.7492">
        <ele>2823.05</ele>
        <time>2022-09-04T14:26:24Z</time>
      </trkpt>
      <trkpt lat="44.81382" lon="6.7491">
        <ele>2824.49</ele>
        <time>2022-09-04T14:26:36Z</time>
      </trkpt>
      <trkpt lat="44.81379" lon="6.74907">
        <ele>2825.45</ele>
        <time>2022-09-04T14:26:40Z</time>
      </trkpt>
      <trkpt lat="44.81377" lon="6.74903">
        <ele>2826.41</ele>
        <time>2022-09-04T14:26:44Z</time>
      </trkpt>
      <trkpt lat="44.81374" lon="6.74897">
        <ele>2826.89</ele>
        <time>2022-09-04T14:26:49Z</time>
      </trkpt>
      <trkpt lat="44.81373" lon="6.74892">
        <ele>2827.85</ele>
        <time>2022-09-04T14:26:53Z</time>
      </trkpt>
      <trkpt lat="44.81371" lon="6.74887">
        <ele>2828.82</ele>
        <time>2022-09-04T14:26:57Z</time>
      </trkpt>
      <trkpt lat="44.81369" lon="6.74883">
        <ele>2829.3</ele>
        <time>2022-09-04T14:27:01Z</time>
      </trkpt>
      <trkpt lat="44.81367" lon="6.74875">
        <ele>2830.26</ele>
        <time>2022-09-04T14:27:08Z</time>
      </trkpt>
      <trkpt lat="44.81364" lon="6.74869">
        <ele>2831.7</ele>
        <time>2022-09-04T14:27:15Z</time>
      </trkpt>
      <trkpt lat="44.8136" lon="6.74858">
        <ele>2833.62</ele>
        <time>2022-09-04T14:27:26Z</time>
      </trkpt>
      <trkpt lat="44.8136" lon="6.74857">
        <ele>2834.58</ele>
        <time>2022-09-04T14:27:27Z</time>
      </trkpt>
      <trkpt lat="44.8136" lon="6.74854">
        <ele>2834.58</ele>
        <time>2022-09-04T14:27:30Z</time>
      </trkpt>
      <trkpt lat="44.81361" lon="6.7485">
        <ele>2836.51</ele>
        <time>2022-09-04T14:27:43Z</time>
      </trkpt>
      <trkpt lat="44.81361" lon="6.74848">
        <ele>2836.99</ele>
        <time>2022-09-04T14:27:58Z</time>
      </trkpt>
      <trkpt lat="44.8136" lon="6.74849">
        <ele>2836.99</ele>
        <time>2022-09-04T14:28:06Z</time>
      </trkpt>
      <trkpt lat="44.8136" lon="6.74846">
        <ele>2836.99</ele>
        <time>2022-09-04T14:28:18Z</time>
      </trkpt>
      <trkpt lat="44.8136" lon="6.74849">
        <ele>2837.47</ele>
        <time>2022-09-04T14:28:48Z</time>
      </trkpt>
      <trkpt lat="44.81362" lon="6.7485">
        <ele>2837.47</ele>
        <time>2022-09-04T14:29:13Z</time>
      </trkpt>
      <trkpt lat="44.81361" lon="6.74851">
        <ele>2837.95</ele>
        <time>2022-09-04T14:29:47Z</time>
      </trkpt>
      <trkpt lat="44.81362" lon="6.74853">
        <ele>2837.95</ele>
        <time>2022-09-04T14:30:06Z</time>
      </trkpt>
      <trkpt lat="44.81362" lon="6.74853">
        <ele>2837.95</ele>
        <time>2022-09-04T14:30:24Z</time>
      </trkpt>
      <trkpt lat="44.81363" lon="6.74854">
        <ele>2838.43</ele>
        <time>2022-09-04T14:31:01Z</time>
      </trkpt>
      <trkpt lat="44.81361" lon="6.74852">
        <ele>2838.43</ele>
        <time>2022-09-04T14:31:19Z</time>
      </trkpt>
      <trkpt lat="44.81361" lon="6.74853">
        <ele>2838.43</ele>
        <time>2022-09-04T14:31:41Z</time>
      </trkpt>
      <trkpt lat="44.81363" lon="6.74853">
        <ele>2838.91</ele>
        <time>2022-09-04T14:32:18Z</time>
      </trkpt>
      <trkpt lat="44.81362" lon="6.74855">
        <ele>2838.91</ele>
        <time>2022-09-04T14:32:49Z</time>
      </trkpt>
      <trkpt lat="44.81361" lon="6.74855">
        <ele>2839.39</ele>
        <time>2022-09-04T14:33:21Z</time>
      </trkpt>
      <trkpt lat="44.81358" lon="6.74858">
        <ele>2837.95</ele>
        <time>2022-09-04T14:33:31Z</time>
      </trkpt>
      <trkpt lat="44.81359" lon="6.74861">
        <ele>2836.99</ele>
        <time>2022-09-04T14:33:36Z</time>
      </trkpt>
      <trkpt lat="44.81361" lon="6.74867">
        <ele>2835.06</ele>
        <time>2022-09-04T14:33:42Z</time>
      </trkpt>
      <trkpt lat="44.81367" lon="6.74882">
        <ele>2832.18</ele>
        <time>2022-09-04T14:33:52Z</time>
      </trkpt>
      <trkpt lat="44.81369" lon="6.74887">
        <ele>2832.18</ele>
        <time>2022-09-04T14:34:09Z</time>
      </trkpt>
      <trkpt lat="44.81377" lon="6.74905">
        <ele>2830.26</ele>
        <time>2022-09-04T14:34:21Z</time>
      </trkpt>
      <trkpt lat="44.81381" lon="6.74913">
        <ele>2828.82</ele>
        <time>2022-09-04T14:34:25Z</time>
      </trkpt>
      <trkpt lat="44.81383" lon="6.74914">
        <ele>2828.34</ele>
        <time>2022-09-04T14:34:26Z</time>
      </trkpt>
      <trkpt lat="44.81391" lon="6.74925">
        <ele>2828.34</ele>
        <time>2022-09-04T14:34:34Z</time>
      </trkpt>
      <trkpt lat="44.81392" lon="6.74931">
        <ele>2825.93</ele>
        <time>2022-09-04T14:34:37Z</time>
      </trkpt>
      <trkpt lat="44.81396" lon="6.74939">
        <ele>2824.01</ele>
        <time>2022-09-04T14:34:42Z</time>
      </trkpt>
      <trkpt lat="44.81399" lon="6.74946">
        <ele>2822.09</ele>
        <time>2022-09-04T14:34:46Z</time>
      </trkpt>
      <trkpt lat="44.81403" lon="6.7496">
        <ele>2819.2</ele>
        <time>2022-09-04T14:34:53Z</time>
      </trkpt>
      <trkpt lat="44.81406" lon="6.74978">
        <ele>2816.32</ele>
        <time>2022-09-04T14:35:02Z</time>
      </trkpt>
      <trkpt lat="44.81407" lon="6.74982">
        <ele>2815.36</ele>
        <time>2022-09-04T14:35:04Z</time>
      </trkpt>
      <trkpt lat="44.81409" lon="6.74989">
        <ele>2813.44</ele>
        <time>2022-09-04T14:35:08Z</time>
      </trkpt>
      <trkpt lat="44.81408" lon="6.7499">
        <ele>2813.44</ele>
        <time>2022-09-04T14:35:09Z</time>
      </trkpt>
      <trkpt lat="44.81406" lon="6.74993">
        <ele>2811.99</ele>
        <time>2022-09-04T14:35:12Z</time>
      </trkpt>
      <trkpt lat="44.81407" lon="6.74994">
        <ele>2812.47</ele>
        <time>2022-09-04T14:35:13Z</time>
      </trkpt>
      <trkpt lat="44.81408" lon="6.75001">
        <ele>2810.07</ele>
        <time>2022-09-04T14:35:17Z</time>
      </trkpt>
      <trkpt lat="44.81407" lon="6.75003">
        <ele>2809.11</ele>
        <time>2022-09-04T14:35:18Z</time>
      </trkpt>
      <trkpt lat="44.81406" lon="6.75004">
        <ele>2809.11</ele>
        <time>2022-09-04T14:35:19Z</time>
      </trkpt>
      <trkpt lat="44.81405" lon="6.75005">
        <ele>2808.15</ele>
        <time>2022-09-04T14:35:20Z</time>
      </trkpt>
      <trkpt lat="44.81401" lon="6.75008">
        <ele>2806.71</ele>
        <time>2022-09-04T14:35:24Z</time>
      </trkpt>
      <trkpt lat="44.81402" lon="6.75012">
        <ele>2806.23</ele>
        <time>2022-09-04T14:35:27Z</time>
      </trkpt>
      <trkpt lat="44.81402" lon="6.75014">
        <ele>2805.26</ele>
        <time>2022-09-04T14:35:28Z</time>
      </trkpt>
      <trkpt lat="44.81402" lon="6.75016">
        <ele>2804.3</ele>
        <time>2022-09-04T14:35:30Z</time>
      </trkpt>
      <trkpt lat="44.81398" lon="6.7502">
        <ele>2802.38</ele>
        <time>2022-09-04T14:35:34Z</time>
      </trkpt>
      <trkpt lat="44.81397" lon="6.75023">
        <ele>2801.42</ele>
        <time>2022-09-04T14:35:37Z</time>
      </trkpt>
      <trkpt lat="44.81397" lon="6.75024">
        <ele>2800.46</ele>
        <time>2022-09-04T14:35:38Z</time>
      </trkpt>
      <trkpt lat="44.81397" lon="6.75031">
        <ele>2799.98</ele>
        <time>2022-09-04T14:35:51Z</time>
      </trkpt>
      <trkpt lat="44.81397" lon="6.75033">
        <ele>2799.02</ele>
        <time>2022-09-04T14:35:52Z</time>
      </trkpt>
      <trkpt lat="44.81397" lon="6.75037">
        <ele>2798.54</ele>
        <time>2022-09-04T14:35:54Z</time>
      </trkpt>
      <trkpt lat="44.81396" lon="6.75039">
        <ele>2798.05</ele>
        <time>2022-09-04T14:35:55Z</time>
      </trkpt>
      <trkpt lat="44.81396" lon="6.7504">
        <ele>2797.09</ele>
        <time>2022-09-04T14:35:56Z</time>
      </trkpt>
      <trkpt lat="44.81395" lon="6.75042">
        <ele>2797.09</ele>
        <time>2022-09-04T14:35:57Z</time>
      </trkpt>
      <trkpt lat="44.81394" lon="6.75044">
        <ele>2796.61</ele>
        <time>2022-09-04T14:35:58Z</time>
      </trkpt>
      <trkpt lat="44.81394" lon="6.75045">
        <ele>2796.61</ele>
        <time>2022-09-04T14:35:59Z</time>
      </trkpt>
      <trkpt lat="44.81394" lon="6.75048">
        <ele>2796.13</ele>
        <time>2022-09-04T14:36:00Z</time>
      </trkpt>
      <trkpt lat="44.81394" lon="6.75057">
        <ele>2793.73</ele>
        <time>2022-09-04T14:36:04Z</time>
      </trkpt>
      <trkpt lat="44.81394" lon="6.7507">
        <ele>2792.29</ele>
        <time>2022-09-04T14:36:09Z</time>
      </trkpt>
      <trkpt lat="44.81394" lon="6.75076">
        <ele>2791.81</ele>
        <time>2022-09-04T14:36:12Z</time>
      </trkpt>
      <trkpt lat="44.81394" lon="6.75078">
        <ele>2790.84</ele>
        <time>2022-09-04T14:36:13Z</time>
      </trkpt>
      <trkpt lat="44.81392" lon="6.75088">
        <ele>2787.96</ele>
        <time>2022-09-04T14:36:18Z</time>
      </trkpt>
      <trkpt lat="44.81389" lon="6.75099">
        <ele>2784.6</ele>
        <time>2022-09-04T14:36:25Z</time>
      </trkpt>
      <trkpt lat="44.81386" lon="6.75111">
        <ele>2780.75</ele>
        <time>2022-09-04T14:36:33Z</time>
      </trkpt>
      <trkpt lat="44.81381" lon="6.75126">
        <ele>2777.87</ele>
        <time>2022-09-04T14:36:40Z</time>
      </trkpt>
      <trkpt lat="44.81379" lon="6.75136">
        <ele>2775.46</ele>
        <time>2022-09-04T14:36:45Z</time>
      </trkpt>
      <trkpt lat="44.81376" lon="6.75147">
        <ele>2773.54</ele>
        <time>2022-09-04T14:36:50Z</time>
      </trkpt>
      <trkpt lat="44.81375" lon="6.75147">
        <ele>2772.1</ele>
        <time>2022-09-04T14:36:52Z</time>
      </trkpt>
      <trkpt lat="44.81373" lon="6.75145">
        <ele>2771.62</ele>
        <time>2022-09-04T14:36:53Z</time>
      </trkpt>
      <trkpt lat="44.81373" lon="6.75144">
        <ele>2771.62</ele>
        <time>2022-09-04T14:36:54Z</time>
      </trkpt>
      <trkpt lat="44.81367" lon="6.75134">
        <ele>2768.73</ele>
        <time>2022-09-04T14:37:01Z</time>
      </trkpt>
      <trkpt lat="44.8136" lon="6.75124">
        <ele>2765.85</ele>
        <time>2022-09-04T14:37:10Z</time>
      </trkpt>
      <trkpt lat="44.81358" lon="6.75123">
        <ele>2764.89</ele>
        <time>2022-09-04T14:37:12Z</time>
      </trkpt>
      <trkpt lat="44.81357" lon="6.75122">
        <ele>2763.45</ele>
        <time>2022-09-04T14:37:13Z</time>
      </trkpt>
      <trkpt lat="44.81356" lon="6.7512">
        <ele>2762.97</ele>
        <time>2022-09-04T14:37:14Z</time>
      </trkpt>
      <trkpt lat="44.81351" lon="6.75115">
        <ele>2761.52</ele>
        <time>2022-09-04T14:37:18Z</time>
      </trkpt>
      <trkpt lat="44.81345" lon="6.75111">
        <ele>2760.08</ele>
        <time>2022-09-04T14:37:22Z</time>
      </trkpt>
      <trkpt lat="44.81343" lon="6.75109">
        <ele>2758.16</ele>
        <time>2022-09-04T14:37:24Z</time>
      </trkpt>
      <trkpt lat="44.81333" lon="6.75103">
        <ele>2755.28</ele>
        <time>2022-09-04T14:37:31Z</time>
      </trkpt>
      <trkpt lat="44.81331" lon="6.75101">
        <ele>2754.31</ele>
        <time>2022-09-04T14:37:33Z</time>
      </trkpt>
      <trkpt lat="44.81322" lon="6.75096">
        <ele>2751.43</ele>
        <time>2022-09-04T14:37:40Z</time>
      </trkpt>
      <trkpt lat="44.81318" lon="6.75097">
        <ele>2750.47</ele>
        <time>2022-09-04T14:37:43Z</time>
      </trkpt>
      <trkpt lat="44.81315" lon="6.75098">
        <ele>2749.03</ele>
        <time>2022-09-04T14:37:46Z</time>
      </trkpt>
      <trkpt lat="44.81314" lon="6.75098">
        <ele>2748.07</ele>
        <time>2022-09-04T14:37:47Z</time>
      </trkpt>
      <trkpt lat="44.81313" lon="6.75097">
        <ele>2747.1</ele>
        <time>2022-09-04T14:37:48Z</time>
      </trkpt>
      <trkpt lat="44.81311" lon="6.75096">
        <ele>2747.1</ele>
        <time>2022-09-04T14:37:49Z</time>
      </trkpt>
      <trkpt lat="44.81309" lon="6.75095">
        <ele>2747.1</ele>
        <time>2022-09-04T14:37:50Z</time>
      </trkpt>
      <trkpt lat="44.81307" lon="6.75094">
        <ele>2747.1</ele>
        <time>2022-09-04T14:37:51Z</time>
      </trkpt>
      <trkpt lat="44.81303" lon="6.75093">
        <ele>2745.66</ele>
        <time>2022-09-04T14:37:53Z</time>
      </trkpt>
      <trkpt lat="44.81299" lon="6.75093">
        <ele>2744.22</ele>
        <time>2022-09-04T14:37:55Z</time>
      </trkpt>
      <trkpt lat="44.81292" lon="6.75096">
        <ele>2743.26</ele>
        <time>2022-09-04T14:37:59Z</time>
      </trkpt>
      <trkpt lat="44.81291" lon="6.75098">
        <ele>2743.26</ele>
        <time>2022-09-04T14:38:00Z</time>
      </trkpt>
      <trkpt lat="44.81291" lon="6.751">
        <ele>2743.26</ele>
        <time>2022-09-04T14:38:01Z</time>
      </trkpt>
      <trkpt lat="44.81291" lon="6.75101">
        <ele>2741.82</ele>
        <time>2022-09-04T14:38:02Z</time>
      </trkpt>
      <trkpt lat="44.81292" lon="6.75102">
        <ele>2741.82</ele>
        <time>2022-09-04T14:38:03Z</time>
      </trkpt>
      <trkpt lat="44.81292" lon="6.75104">
        <ele>2740.86</ele>
        <time>2022-09-04T14:38:04Z</time>
      </trkpt>
      <trkpt lat="44.81294" lon="6.75107">
        <ele>2740.38</ele>
        <time>2022-09-04T14:38:06Z</time>
      </trkpt>
      <trkpt lat="44.81293" lon="6.7511">
        <ele>2739.41</ele>
        <time>2022-09-04T14:38:07Z</time>
      </trkpt>
      <trkpt lat="44.81293" lon="6.75112">
        <ele>2738.93</ele>
        <time>2022-09-04T14:38:08Z</time>
      </trkpt>
      <trkpt lat="44.81293" lon="6.75113">
        <ele>2738.93</ele>
        <time>2022-09-04T14:38:09Z</time>
      </trkpt>
      <trkpt lat="44.81292" lon="6.75115">
        <ele>2737.97</ele>
        <time>2022-09-04T14:38:10Z</time>
      </trkpt>
      <trkpt lat="44.8129" lon="6.75121">
        <ele>2737.01</ele>
        <time>2022-09-04T14:38:15Z</time>
      </trkpt>
      <trkpt lat="44.8129" lon="6.75124">
        <ele>2736.53</ele>
        <time>2022-09-04T14:38:17Z</time>
      </trkpt>
      <trkpt lat="44.8129" lon="6.75126">
        <ele>2735.09</ele>
        <time>2022-09-04T14:38:18Z</time>
      </trkpt>
      <trkpt lat="44.8129" lon="6.7513">
        <ele>2734.61</ele>
        <time>2022-09-04T14:38:20Z</time>
      </trkpt>
      <trkpt lat="44.81289" lon="6.75131">
        <ele>2734.13</ele>
        <time>2022-09-04T14:38:21Z</time>
      </trkpt>
      <trkpt lat="44.81289" lon="6.75133">
        <ele>2734.13</ele>
        <time>2022-09-04T14:38:22Z</time>
      </trkpt>
      <trkpt lat="44.81288" lon="6.75134">
        <ele>2733.65</ele>
        <time>2022-09-04T14:38:23Z</time>
      </trkpt>
      <trkpt lat="44.81287" lon="6.75135">
        <ele>2731.24</ele>
        <time>2022-09-04T14:38:24Z</time>
      </trkpt>
      <trkpt lat="44.81286" lon="6.75135">
        <ele>2730.28</ele>
        <time>2022-09-04T14:38:25Z</time>
      </trkpt>
      <trkpt lat="44.81286" lon="6.75134">
        <ele>2729.8</ele>
        <time>2022-09-04T14:38:26Z</time>
      </trkpt>
      <trkpt lat="44.81284" lon="6.75137">
        <ele>2729.8</ele>
        <time>2022-09-04T14:38:29Z</time>
      </trkpt>
      <trkpt lat="44.81283" lon="6.75139">
        <ele>2729.8</ele>
        <time>2022-09-04T14:38:30Z</time>
      </trkpt>
      <trkpt lat="44.81282" lon="6.75139">
        <ele>2728.36</ele>
        <time>2022-09-04T14:38:31Z</time>
      </trkpt>
      <trkpt lat="44.81281" lon="6.75139">
        <ele>2726.92</ele>
        <time>2022-09-04T14:38:32Z</time>
      </trkpt>
      <trkpt lat="44.8128" lon="6.75139">
        <ele>2726.92</ele>
        <time>2022-09-04T14:38:33Z</time>
      </trkpt>
      <trkpt lat="44.81279" lon="6.75141">
        <ele>2726.92</ele>
        <time>2022-09-04T14:38:35Z</time>
      </trkpt>
      <trkpt lat="44.81279" lon="6.75143">
        <ele>2726.92</ele>
        <time>2022-09-04T14:38:36Z</time>
      </trkpt>
      <trkpt lat="44.81278" lon="6.75145">
        <ele>2726.44</ele>
        <time>2022-09-04T14:38:38Z</time>
      </trkpt>
      <trkpt lat="44.81277" lon="6.75146">
        <ele>2724.51</ele>
        <time>2022-09-04T14:38:39Z</time>
      </trkpt>
      <trkpt lat="44.81275" lon="6.75147">
        <ele>2723.07</ele>
        <time>2022-09-04T14:38:41Z</time>
      </trkpt>
      <trkpt lat="44.81275" lon="6.75148">
        <ele>2723.07</ele>
        <time>2022-09-04T14:38:42Z</time>
      </trkpt>
      <trkpt lat="44.81273" lon="6.75151">
        <ele>2721.63</ele>
        <time>2022-09-04T14:38:45Z</time>
      </trkpt>
      <trkpt lat="44.81272" lon="6.75152">
        <ele>2721.63</ele>
        <time>2022-09-04T14:38:46Z</time>
      </trkpt>
      <trkpt lat="44.81272" lon="6.75154">
        <ele>2720.67</ele>
        <time>2022-09-04T14:38:48Z</time>
      </trkpt>
      <trkpt lat="44.81272" lon="6.75156">
        <ele>2720.19</ele>
        <time>2022-09-04T14:38:49Z</time>
      </trkpt>
      <trkpt lat="44.81272" lon="6.75158">
        <ele>2719.23</ele>
        <time>2022-09-04T14:38:51Z</time>
      </trkpt>
      <trkpt lat="44.8127" lon="6.75159">
        <ele>2717.78</ele>
        <time>2022-09-04T14:38:52Z</time>
      </trkpt>
      <trkpt lat="44.81269" lon="6.75158">
        <ele>2717.78</ele>
        <time>2022-09-04T14:38:53Z</time>
      </trkpt>
      <trkpt lat="44.81269" lon="6.7516">
        <ele>2717.78</ele>
        <time>2022-09-04T14:38:55Z</time>
      </trkpt>
      <trkpt lat="44.81268" lon="6.75162">
        <ele>2717.3</ele>
        <time>2022-09-04T14:38:56Z</time>
      </trkpt>
      <trkpt lat="44.81268" lon="6.75164">
        <ele>2716.34</ele>
        <time>2022-09-04T14:38:57Z</time>
      </trkpt>
      <trkpt lat="44.81265" lon="6.7517">
        <ele>2714.9</ele>
        <time>2022-09-04T14:39:01Z</time>
      </trkpt>
      <trkpt lat="44.81263" lon="6.75174">
        <ele>2713.46</ele>
        <time>2022-09-04T14:39:03Z</time>
      </trkpt>
      <trkpt lat="44.81261" lon="6.75175">
        <ele>2713.46</ele>
        <time>2022-09-04T14:39:04Z</time>
      </trkpt>
      <trkpt lat="44.8126" lon="6.75175">
        <ele>2712.02</ele>
        <time>2022-09-04T14:39:05Z</time>
      </trkpt>
      <trkpt lat="44.81259" lon="6.75176">
        <ele>2712.02</ele>
        <time>2022-09-04T14:39:06Z</time>
      </trkpt>
      <trkpt lat="44.81258" lon="6.75177">
        <ele>2711.54</ele>
        <time>2022-09-04T14:39:07Z</time>
      </trkpt>
      <trkpt lat="44.81256" lon="6.75178">
        <ele>2710.09</ele>
        <time>2022-09-04T14:39:09Z</time>
      </trkpt>
      <trkpt lat="44.81253" lon="6.75181">
        <ele>2709.13</ele>
        <time>2022-09-04T14:39:12Z</time>
      </trkpt>
      <trkpt lat="44.81252" lon="6.75182">
        <ele>2708.17</ele>
        <time>2022-09-04T14:39:13Z</time>
      </trkpt>
      <trkpt lat="44.81252" lon="6.75183">
        <ele>2708.17</ele>
        <time>2022-09-04T14:39:14Z</time>
      </trkpt>
      <trkpt lat="44.81253" lon="6.75185">
        <ele>2708.17</ele>
        <time>2022-09-04T14:39:15Z</time>
      </trkpt>
      <trkpt lat="44.81252" lon="6.75187">
        <ele>2708.17</ele>
        <time>2022-09-04T14:39:16Z</time>
      </trkpt>
      <trkpt lat="44.81252" lon="6.75188">
        <ele>2707.21</ele>
        <time>2022-09-04T14:39:17Z</time>
      </trkpt>
      <trkpt lat="44.81251" lon="6.75191">
        <ele>2704.81</ele>
        <time>2022-09-04T14:39:19Z</time>
      </trkpt>
      <trkpt lat="44.81249" lon="6.75191">
        <ele>2705.29</ele>
        <time>2022-09-04T14:39:20Z</time>
      </trkpt>
      <trkpt lat="44.81245" lon="6.75194">
        <ele>2701.44</ele>
        <time>2022-09-04T14:39:25Z</time>
      </trkpt>
      <trkpt lat="44.81243" lon="6.75194">
        <ele>2701.44</ele>
        <time>2022-09-04T14:39:26Z</time>
      </trkpt>
      <trkpt lat="44.81241" lon="6.75194">
        <ele>2700.48</ele>
        <time>2022-09-04T14:39:28Z</time>
      </trkpt>
      <trkpt lat="44.8124" lon="6.75195">
        <ele>2700.48</ele>
        <time>2022-09-04T14:39:29Z</time>
      </trkpt>
      <trkpt lat="44.81239" lon="6.75198">
        <ele>2699.52</ele>
        <time>2022-09-04T14:39:31Z</time>
      </trkpt>
      <trkpt lat="44.81239" lon="6.752">
        <ele>2699.04</ele>
        <time>2022-09-04T14:39:32Z</time>
      </trkpt>
      <trkpt lat="44.81239" lon="6.75201">
        <ele>2699.04</ele>
        <time>2022-09-04T14:39:33Z</time>
      </trkpt>
      <trkpt lat="44.81237" lon="6.75202">
        <ele>2698.56</ele>
        <time>2022-09-04T14:39:34Z</time>
      </trkpt>
      <trkpt lat="44.81236" lon="6.75202">
        <ele>2697.12</ele>
        <time>2022-09-04T14:39:35Z</time>
      </trkpt>
      <trkpt lat="44.81235" lon="6.75201">
        <ele>2696.15</ele>
        <time>2022-09-04T14:39:36Z</time>
      </trkpt>
      <trkpt lat="44.81233" lon="6.75202">
        <ele>2695.19</ele>
        <time>2022-09-04T14:39:37Z</time>
      </trkpt>
      <trkpt lat="44.81232" lon="6.75202">
        <ele>2695.19</ele>
        <time>2022-09-04T14:39:38Z</time>
      </trkpt>
      <trkpt lat="44.8123" lon="6.75204">
        <ele>2695.19</ele>
        <time>2022-09-04T14:39:40Z</time>
      </trkpt>
      <trkpt lat="44.81229" lon="6.75205">
        <ele>2694.23</ele>
        <time>2022-09-04T14:39:41Z</time>
      </trkpt>
      <trkpt lat="44.81228" lon="6.75206">
        <ele>2693.75</ele>
        <time>2022-09-04T14:39:42Z</time>
      </trkpt>
      <trkpt lat="44.81227" lon="6.75207">
        <ele>2693.27</ele>
        <time>2022-09-04T14:39:43Z</time>
      </trkpt>
      <trkpt lat="44.81226" lon="6.75209">
        <ele>2693.27</ele>
        <time>2022-09-04T14:39:44Z</time>
      </trkpt>
      <trkpt lat="44.81225" lon="6.7521">
        <ele>2692.31</ele>
        <time>2022-09-04T14:39:45Z</time>
      </trkpt>
      <trkpt lat="44.81223" lon="6.75209">
        <ele>2690.87</ele>
        <time>2022-09-04T14:39:47Z</time>
      </trkpt>
      <trkpt lat="44.81218" lon="6.75211">
        <ele>2689.91</ele>
        <time>2022-09-04T14:39:51Z</time>
      </trkpt>
      <trkpt lat="44.81218" lon="6.75214">
        <ele>2687.98</ele>
        <time>2022-09-04T14:39:54Z</time>
      </trkpt>
      <trkpt lat="44.81217" lon="6.75216">
        <ele>2687.98</ele>
        <time>2022-09-04T14:39:55Z</time>
      </trkpt>
      <trkpt lat="44.81216" lon="6.75216">
        <ele>2687.02</ele>
        <time>2022-09-04T14:39:56Z</time>
      </trkpt>
      <trkpt lat="44.81215" lon="6.75217">
        <ele>2686.06</ele>
        <time>2022-09-04T14:39:59Z</time>
      </trkpt>
      <trkpt lat="44.81215" lon="6.75218">
        <ele>2685.58</ele>
        <time>2022-09-04T14:40:00Z</time>
      </trkpt>
      <trkpt lat="44.81214" lon="6.7522">
        <ele>2683.66</ele>
        <time>2022-09-04T14:40:02Z</time>
      </trkpt>
      <trkpt lat="44.81213" lon="6.7522">
        <ele>2683.66</ele>
        <time>2022-09-04T14:40:03Z</time>
      </trkpt>
      <trkpt lat="44.81212" lon="6.75222">
        <ele>2683.66</ele>
        <time>2022-09-04T14:40:04Z</time>
      </trkpt>
      <trkpt lat="44.81212" lon="6.75224">
        <ele>2683.66</ele>
        <time>2022-09-04T14:40:05Z</time>
      </trkpt>
      <trkpt lat="44.81212" lon="6.75226">
        <ele>2683.66</ele>
        <time>2022-09-04T14:40:06Z</time>
      </trkpt>
      <trkpt lat="44.81211" lon="6.75228">
        <ele>2683.66</ele>
        <time>2022-09-04T14:40:07Z</time>
      </trkpt>
      <trkpt lat="44.8121" lon="6.7523">
        <ele>2682.22</ele>
        <time>2022-09-04T14:40:08Z</time>
      </trkpt>
      <trkpt lat="44.8121" lon="6.75231">
        <ele>2682.22</ele>
        <time>2022-09-04T14:40:09Z</time>
      </trkpt>
      <trkpt lat="44.81209" lon="6.75237">
        <ele>2679.33</ele>
        <time>2022-09-04T14:40:13Z</time>
      </trkpt>
      <trkpt lat="44.81208" lon="6.75239">
        <ele>2679.33</ele>
        <time>2022-09-04T14:40:14Z</time>
      </trkpt>
      <trkpt lat="44.81207" lon="6.75243">
        <ele>2677.89</ele>
        <time>2022-09-04T14:40:17Z</time>
      </trkpt>
      <trkpt lat="44.81205" lon="6.75249">
        <ele>2674.52</ele>
        <time>2022-09-04T14:40:21Z</time>
      </trkpt>
      <trkpt lat="44.81204" lon="6.75252">
        <ele>2673.56</ele>
        <time>2022-09-04T14:40:23Z</time>
      </trkpt>
      <trkpt lat="44.81202" lon="6.75258">
        <ele>2671.16</ele>
        <time>2022-09-04T14:40:28Z</time>
      </trkpt>
      <trkpt lat="44.81201" lon="6.75259">
        <ele>2671.16</ele>
        <time>2022-09-04T14:40:29Z</time>
      </trkpt>
      <trkpt lat="44.812" lon="6.7526">
        <ele>2670.2</ele>
        <time>2022-09-04T14:40:30Z</time>
      </trkpt>
      <trkpt lat="44.81199" lon="6.75264">
        <ele>2669.72</ele>
        <time>2022-09-04T14:40:32Z</time>
      </trkpt>
      <trkpt lat="44.81197" lon="6.75272">
        <ele>2667.31</ele>
        <time>2022-09-04T14:40:36Z</time>
      </trkpt>
      <trkpt lat="44.81193" lon="6.75275">
        <ele>2664.43</ele>
        <time>2022-09-04T14:40:40Z</time>
      </trkpt>
      <trkpt lat="44.81191" lon="6.75278">
        <ele>2664.43</ele>
        <time>2022-09-04T14:40:43Z</time>
      </trkpt>
      <trkpt lat="44.81188" lon="6.7528">
        <ele>2662.99</ele>
        <time>2022-09-04T14:40:46Z</time>
      </trkpt>
      <trkpt lat="44.81187" lon="6.75282">
        <ele>2660.11</ele>
        <time>2022-09-04T14:40:48Z</time>
      </trkpt>
      <trkpt lat="44.81185" lon="6.75282">
        <ele>2660.11</ele>
        <time>2022-09-04T14:40:49Z</time>
      </trkpt>
      <trkpt lat="44.81184" lon="6.75284">
        <ele>2659.62</ele>
        <time>2022-09-04T14:40:51Z</time>
      </trkpt>
      <trkpt lat="44.81183" lon="6.75286">
        <ele>2659.62</ele>
        <time>2022-09-04T14:40:53Z</time>
      </trkpt>
      <trkpt lat="44.81182" lon="6.75287">
        <ele>2659.62</ele>
        <time>2022-09-04T14:40:54Z</time>
      </trkpt>
      <trkpt lat="44.81181" lon="6.75289">
        <ele>2659.14</ele>
        <time>2022-09-04T14:40:55Z</time>
      </trkpt>
      <trkpt lat="44.8118" lon="6.75291">
        <ele>2658.66</ele>
        <time>2022-09-04T14:40:56Z</time>
      </trkpt>
      <trkpt lat="44.81179" lon="6.75292">
        <ele>2657.7</ele>
        <time>2022-09-04T14:40:57Z</time>
      </trkpt>
      <trkpt lat="44.81178" lon="6.75293">
        <ele>2657.7</ele>
        <time>2022-09-04T14:40:58Z</time>
      </trkpt>
      <trkpt lat="44.81177" lon="6.75294">
        <ele>2656.26</ele>
        <time>2022-09-04T14:40:59Z</time>
      </trkpt>
      <trkpt lat="44.81177" lon="6.75296">
        <ele>2656.74</ele>
        <time>2022-09-04T14:41:00Z</time>
      </trkpt>
      <trkpt lat="44.81176" lon="6.75297">
        <ele>2656.26</ele>
        <time>2022-09-04T14:41:01Z</time>
      </trkpt>
      <trkpt lat="44.81175" lon="6.75299">
        <ele>2655.3</ele>
        <time>2022-09-04T14:41:02Z</time>
      </trkpt>
      <trkpt lat="44.81174" lon="6.75301">
        <ele>2654.34</ele>
        <time>2022-09-04T14:41:03Z</time>
      </trkpt>
      <trkpt lat="44.81172" lon="6.75302">
        <ele>2653.38</ele>
        <time>2022-09-04T14:41:04Z</time>
      </trkpt>
      <trkpt lat="44.81171" lon="6.75304">
        <ele>2652.9</ele>
        <time>2022-09-04T14:41:05Z</time>
      </trkpt>
      <trkpt lat="44.81168" lon="6.75308">
        <ele>2651.93</ele>
        <time>2022-09-04T14:41:07Z</time>
      </trkpt>
      <trkpt lat="44.81165" lon="6.75313">
        <ele>2648.57</ele>
        <time>2022-09-04T14:41:10Z</time>
      </trkpt>
      <trkpt lat="44.81164" lon="6.75315">
        <ele>2648.57</ele>
        <time>2022-09-04T14:41:11Z</time>
      </trkpt>
      <trkpt lat="44.81161" lon="6.7532">
        <ele>2647.13</ele>
        <time>2022-09-04T14:41:14Z</time>
      </trkpt>
      <trkpt lat="44.81158" lon="6.75323">
        <ele>2644.72</ele>
        <time>2022-09-04T14:41:17Z</time>
      </trkpt>
      <trkpt lat="44.81156" lon="6.75324">
        <ele>2644.72</ele>
        <time>2022-09-04T14:41:19Z</time>
      </trkpt>
      <trkpt lat="44.81155" lon="6.75323">
        <ele>2643.76</ele>
        <time>2022-09-04T14:41:20Z</time>
      </trkpt>
      <trkpt lat="44.81154" lon="6.75323">
        <ele>2643.28</ele>
        <time>2022-09-04T14:41:21Z</time>
      </trkpt>
      <trkpt lat="44.81153" lon="6.75321">
        <ele>2642.32</ele>
        <time>2022-09-04T14:41:22Z</time>
      </trkpt>
      <trkpt lat="44.81153" lon="6.75318">
        <ele>2640.88</ele>
        <time>2022-09-04T14:41:23Z</time>
      </trkpt>
      <trkpt lat="44.81152" lon="6.75314">
        <ele>2640.88</ele>
        <time>2022-09-04T14:41:25Z</time>
      </trkpt>
      <trkpt lat="44.81148" lon="6.7531">
        <ele>2639.44</ele>
        <time>2022-09-04T14:41:28Z</time>
      </trkpt>
      <trkpt lat="44.81144" lon="6.75308">
        <ele>2635.11</ele>
        <time>2022-09-04T14:41:31Z</time>
      </trkpt>
      <trkpt lat="44.81138" lon="6.75306">
        <ele>2632.71</ele>
        <time>2022-09-04T14:41:34Z</time>
      </trkpt>
      <trkpt lat="44.81137" lon="6.75305">
        <ele>2631.75</ele>
        <time>2022-09-04T14:41:35Z</time>
      </trkpt>
      <trkpt lat="44.81131" lon="6.75303">
        <ele>2627.9</ele>
        <time>2022-09-04T14:41:39Z</time>
      </trkpt>
      <trkpt lat="44.81124" lon="6.75301">
        <ele>2624.06</ele>
        <time>2022-09-04T14:41:43Z</time>
      </trkpt>
      <trkpt lat="44.81118" lon="6.753">
        <ele>2621.17</ele>
        <time>2022-09-04T14:41:46Z</time>
      </trkpt>
      <trkpt lat="44.81113" lon="6.75301">
        <ele>2618.77</ele>
        <time>2022-09-04T14:41:49Z</time>
      </trkpt>
      <trkpt lat="44.81112" lon="6.75303">
        <ele>2618.29</ele>
        <time>2022-09-04T14:41:50Z</time>
      </trkpt>
      <trkpt lat="44.8111" lon="6.75304">
        <ele>2617.81</ele>
        <time>2022-09-04T14:41:51Z</time>
      </trkpt>
      <trkpt lat="44.81109" lon="6.75304">
        <ele>2617.33</ele>
        <time>2022-09-04T14:41:52Z</time>
      </trkpt>
      <trkpt lat="44.81107" lon="6.75304">
        <ele>2616.85</ele>
        <time>2022-09-04T14:41:53Z</time>
      </trkpt>
      <trkpt lat="44.81105" lon="6.75304">
        <ele>2615.88</ele>
        <time>2022-09-04T14:41:54Z</time>
      </trkpt>
      <trkpt lat="44.81104" lon="6.75304">
        <ele>2615.88</ele>
        <time>2022-09-04T14:41:55Z</time>
      </trkpt>
      <trkpt lat="44.81102" lon="6.75304">
        <ele>2614.92</ele>
        <time>2022-09-04T14:41:56Z</time>
      </trkpt>
      <trkpt lat="44.81101" lon="6.75305">
        <ele>2613.96</ele>
        <time>2022-09-04T14:41:57Z</time>
      </trkpt>
      <trkpt lat="44.81099" lon="6.75305">
        <ele>2613.96</ele>
        <time>2022-09-04T14:41:58Z</time>
      </trkpt>
      <trkpt lat="44.81093" lon="6.75308">
        <ele>2612.52</ele>
        <time>2022-09-04T14:42:02Z</time>
      </trkpt>
      <trkpt lat="44.81092" lon="6.75309">
        <ele>2611.56</ele>
        <time>2022-09-04T14:42:03Z</time>
      </trkpt>
      <trkpt lat="44.8109" lon="6.75309">
        <ele>2611.08</ele>
        <time>2022-09-04T14:42:04Z</time>
      </trkpt>
      <trkpt lat="44.81088" lon="6.75309">
        <ele>2610.6</ele>
        <time>2022-09-04T14:42:05Z</time>
      </trkpt>
      <trkpt lat="44.81087" lon="6.75309">
        <ele>2609.64</ele>
        <time>2022-09-04T14:42:06Z</time>
      </trkpt>
      <trkpt lat="44.81086" lon="6.75308">
        <ele>2609.16</ele>
        <time>2022-09-04T14:42:08Z</time>
      </trkpt>
      <trkpt lat="44.81084" lon="6.7531">
        <ele>2608.19</ele>
        <time>2022-09-04T14:42:10Z</time>
      </trkpt>
      <trkpt lat="44.81081" lon="6.75309">
        <ele>2607.23</ele>
        <time>2022-09-04T14:42:13Z</time>
      </trkpt>
      <trkpt lat="44.81079" lon="6.75309">
        <ele>2606.27</ele>
        <time>2022-09-04T14:42:14Z</time>
      </trkpt>
      <trkpt lat="44.81077" lon="6.75309">
        <ele>2605.79</ele>
        <time>2022-09-04T14:42:15Z</time>
      </trkpt>
      <trkpt lat="44.81076" lon="6.7531">
        <ele>2604.83</ele>
        <time>2022-09-04T14:42:16Z</time>
      </trkpt>
      <trkpt lat="44.81074" lon="6.7531">
        <ele>2604.83</ele>
        <time>2022-09-04T14:42:17Z</time>
      </trkpt>
      <trkpt lat="44.81072" lon="6.75311">
        <ele>2603.87</ele>
        <time>2022-09-04T14:42:18Z</time>
      </trkpt>
      <trkpt lat="44.81071" lon="6.75312">
        <ele>2602.91</ele>
        <time>2022-09-04T14:42:19Z</time>
      </trkpt>
      <trkpt lat="44.81068" lon="6.75313">
        <ele>2602.91</ele>
        <time>2022-09-04T14:42:20Z</time>
      </trkpt>
      <trkpt lat="44.81067" lon="6.75312">
        <ele>2602.43</ele>
        <time>2022-09-04T14:42:21Z</time>
      </trkpt>
      <trkpt lat="44.81065" lon="6.75312">
        <ele>2601.46</ele>
        <time>2022-09-04T14:42:22Z</time>
      </trkpt>
      <trkpt lat="44.81061" lon="6.75311">
        <ele>2600.5</ele>
        <time>2022-09-04T14:42:24Z</time>
      </trkpt>
      <trkpt lat="44.81055" lon="6.75313">
        <ele>2597.62</ele>
        <time>2022-09-04T14:42:27Z</time>
      </trkpt>
      <trkpt lat="44.81053" lon="6.75314">
        <ele>2597.14</ele>
        <time>2022-09-04T14:42:28Z</time>
      </trkpt>
      <trkpt lat="44.81048" lon="6.75315">
        <ele>2595.7</ele>
        <time>2022-09-04T14:42:32Z</time>
      </trkpt>
      <trkpt lat="44.81046" lon="6.75314">
        <ele>2595.22</ele>
        <time>2022-09-04T14:42:33Z</time>
      </trkpt>
      <trkpt lat="44.81042" lon="6.75308">
        <ele>2592.81</ele>
        <time>2022-09-04T14:42:37Z</time>
      </trkpt>
      <trkpt lat="44.81038" lon="6.75304">
        <ele>2591.37</ele>
        <time>2022-09-04T14:42:40Z</time>
      </trkpt>
      <trkpt lat="44.81036" lon="6.75305">
        <ele>2591.37</ele>
        <time>2022-09-04T14:42:42Z</time>
      </trkpt>
      <trkpt lat="44.81035" lon="6.75305">
        <ele>2590.41</ele>
        <time>2022-09-04T14:42:43Z</time>
      </trkpt>
      <trkpt lat="44.81034" lon="6.75306">
        <ele>2589.45</ele>
        <time>2022-09-04T14:42:44Z</time>
      </trkpt>
      <trkpt lat="44.81032" lon="6.75306">
        <ele>2588.49</ele>
        <time>2022-09-04T14:42:46Z</time>
      </trkpt>
      <trkpt lat="44.8103" lon="6.75306">
        <ele>2588.49</ele>
        <time>2022-09-04T14:42:47Z</time>
      </trkpt>
      <trkpt lat="44.81028" lon="6.75305">
        <ele>2588.01</ele>
        <time>2022-09-04T14:42:48Z</time>
      </trkpt>
      <trkpt lat="44.81024" lon="6.75305">
        <ele>2587.04</ele>
        <time>2022-09-04T14:42:50Z</time>
      </trkpt>
      <trkpt lat="44.81015" lon="6.75305">
        <ele>2584.16</ele>
        <time>2022-09-04T14:42:56Z</time>
      </trkpt>
      <trkpt lat="44.81014" lon="6.75306">
        <ele>2584.16</ele>
        <time>2022-09-04T14:42:57Z</time>
      </trkpt>
      <trkpt lat="44.81013" lon="6.75307">
        <ele>2583.2</ele>
        <time>2022-09-04T14:42:58Z</time>
      </trkpt>
      <trkpt lat="44.81011" lon="6.75308">
        <ele>2581.76</ele>
        <time>2022-09-04T14:42:59Z</time>
      </trkpt>
      <trkpt lat="44.81009" lon="6.75309">
        <ele>2581.76</ele>
        <time>2022-09-04T14:43:00Z</time>
      </trkpt>
      <trkpt lat="44.81007" lon="6.7531">
        <ele>2581.28</ele>
        <time>2022-09-04T14:43:01Z</time>
      </trkpt>
      <trkpt lat="44.81005" lon="6.7531">
        <ele>2580.8</ele>
        <time>2022-09-04T14:43:02Z</time>
      </trkpt>
      <trkpt lat="44.81003" lon="6.75311">
        <ele>2580.32</ele>
        <time>2022-09-04T14:43:03Z</time>
      </trkpt>
      <trkpt lat="44.81" lon="6.75311">
        <ele>2579.35</ele>
        <time>2022-09-04T14:43:04Z</time>
      </trkpt>
      <trkpt lat="44.80998" lon="6.75312">
        <ele>2579.84</ele>
        <time>2022-09-04T14:43:05Z</time>
      </trkpt>
      <trkpt lat="44.80995" lon="6.75314">
        <ele>2578.87</ele>
        <time>2022-09-04T14:43:06Z</time>
      </trkpt>
      <trkpt lat="44.80978" lon="6.75323">
        <ele>2576.95</ele>
        <time>2022-09-04T14:43:13Z</time>
      </trkpt>
      <trkpt lat="44.80972" lon="6.75328">
        <ele>2575.51</ele>
        <time>2022-09-04T14:43:16Z</time>
      </trkpt>
      <trkpt lat="44.80956" lon="6.75333">
        <ele>2573.11</ele>
        <time>2022-09-04T14:43:24Z</time>
      </trkpt>
      <trkpt lat="44.80951" lon="6.7534">
        <ele>2572.14</ele>
        <time>2022-09-04T14:43:28Z</time>
      </trkpt>
      <trkpt lat="44.80938" lon="6.75344">
        <ele>2568.78</ele>
        <time>2022-09-04T14:43:34Z</time>
      </trkpt>
      <trkpt lat="44.80935" lon="6.75347">
        <ele>2567.82</ele>
        <time>2022-09-04T14:43:38Z</time>
      </trkpt>
      <trkpt lat="44.80934" lon="6.75349">
        <ele>2565.42</ele>
        <time>2022-09-04T14:43:40Z</time>
      </trkpt>
      <trkpt lat="44.80933" lon="6.75349">
        <ele>2565.42</ele>
        <time>2022-09-04T14:43:41Z</time>
      </trkpt>
      <trkpt lat="44.80931" lon="6.7535">
        <ele>2564.45</ele>
        <time>2022-09-04T14:43:42Z</time>
      </trkpt>
      <trkpt lat="44.80929" lon="6.75352">
        <ele>2564.45</ele>
        <time>2022-09-04T14:43:43Z</time>
      </trkpt>
      <trkpt lat="44.80928" lon="6.75354">
        <ele>2562.53</ele>
        <time>2022-09-04T14:43:44Z</time>
      </trkpt>
      <trkpt lat="44.80926" lon="6.75356">
        <ele>2562.53</ele>
        <time>2022-09-04T14:43:45Z</time>
      </trkpt>
      <trkpt lat="44.80925" lon="6.75357">
        <ele>2563.97</ele>
        <time>2022-09-04T14:43:46Z</time>
      </trkpt>
      <trkpt lat="44.80924" lon="6.75359">
        <ele>2561.57</ele>
        <time>2022-09-04T14:43:47Z</time>
      </trkpt>
      <trkpt lat="44.80923" lon="6.75361">
        <ele>2561.57</ele>
        <time>2022-09-04T14:43:48Z</time>
      </trkpt>
      <trkpt lat="44.80921" lon="6.75364">
        <ele>2560.61</ele>
        <time>2022-09-04T14:43:50Z</time>
      </trkpt>
      <trkpt lat="44.80914" lon="6.75378">
        <ele>2555.8</ele>
        <time>2022-09-04T14:43:59Z</time>
      </trkpt>
      <trkpt lat="44.80914" lon="6.75379">
        <ele>2554.84</ele>
        <time>2022-09-04T14:44:00Z</time>
      </trkpt>
      <trkpt lat="44.80914" lon="6.75381">
        <ele>2554.36</ele>
        <time>2022-09-04T14:44:01Z</time>
      </trkpt>
      <trkpt lat="44.80913" lon="6.75384">
        <ele>2553.88</ele>
        <time>2022-09-04T14:44:02Z</time>
      </trkpt>
      <trkpt lat="44.80911" lon="6.75386">
        <ele>2553.88</ele>
        <time>2022-09-04T14:44:03Z</time>
      </trkpt>
      <trkpt lat="44.8091" lon="6.75388">
        <ele>2553.88</ele>
        <time>2022-09-04T14:44:04Z</time>
      </trkpt>
      <trkpt lat="44.80908" lon="6.75391">
        <ele>2552.44</ele>
        <time>2022-09-04T14:44:05Z</time>
      </trkpt>
      <trkpt lat="44.80907" lon="6.75393">
        <ele>2551.48</ele>
        <time>2022-09-04T14:44:06Z</time>
      </trkpt>
      <trkpt lat="44.80905" lon="6.75396">
        <ele>2550.51</ele>
        <time>2022-09-04T14:44:08Z</time>
      </trkpt>
      <trkpt lat="44.80904" lon="6.75398">
        <ele>2548.59</ele>
        <time>2022-09-04T14:44:09Z</time>
      </trkpt>
      <trkpt lat="44.80903" lon="6.754">
        <ele>2548.59</ele>
        <time>2022-09-04T14:44:10Z</time>
      </trkpt>
      <trkpt lat="44.80901" lon="6.75407">
        <ele>2546.19</ele>
        <time>2022-09-04T14:44:14Z</time>
      </trkpt>
      <trkpt lat="44.809" lon="6.75409">
        <ele>2546.19</ele>
        <time>2022-09-04T14:44:15Z</time>
      </trkpt>
      <trkpt lat="44.80899" lon="6.75411">
        <ele>2545.23</ele>
        <time>2022-09-04T14:44:16Z</time>
      </trkpt>
      <trkpt lat="44.80898" lon="6.75413">
        <ele>2544.75</ele>
        <time>2022-09-04T14:44:17Z</time>
      </trkpt>
      <trkpt lat="44.80897" lon="6.75415">
        <ele>2544.75</ele>
        <time>2022-09-04T14:44:18Z</time>
      </trkpt>
      <trkpt lat="44.80896" lon="6.75416">
        <ele>2543.31</ele>
        <time>2022-09-04T14:44:19Z</time>
      </trkpt>
      <trkpt lat="44.80894" lon="6.75417">
        <ele>2543.31</ele>
        <time>2022-09-04T14:44:20Z</time>
      </trkpt>
      <trkpt lat="44.80894" lon="6.75419">
        <ele>2543.31</ele>
        <time>2022-09-04T14:44:21Z</time>
      </trkpt>
      <trkpt lat="44.80893" lon="6.7542">
        <ele>2542.82</ele>
        <time>2022-09-04T14:44:22Z</time>
      </trkpt>
      <trkpt lat="44.80892" lon="6.75422">
        <ele>2542.82</ele>
        <time>2022-09-04T14:44:23Z</time>
      </trkpt>
      <trkpt lat="44.80892" lon="6.75424">
        <ele>2542.82</ele>
        <time>2022-09-04T14:44:24Z</time>
      </trkpt>
      <trkpt lat="44.80892" lon="6.75427">
        <ele>2541.86</ele>
        <time>2022-09-04T14:44:25Z</time>
      </trkpt>
      <trkpt lat="44.80892" lon="6.7543">
        <ele>2541.86</ele>
        <time>2022-09-04T14:44:26Z</time>
      </trkpt>
      <trkpt lat="44.80891" lon="6.75432">
        <ele>2540.9</ele>
        <time>2022-09-04T14:44:27Z</time>
      </trkpt>
      <trkpt lat="44.8089" lon="6.75433">
        <ele>2542.34</ele>
        <time>2022-09-04T14:44:28Z</time>
      </trkpt>
      <trkpt lat="44.80886" lon="6.75438">
        <ele>2538.5</ele>
        <time>2022-09-04T14:44:31Z</time>
      </trkpt>
      <trkpt lat="44.80885" lon="6.75439">
        <ele>2538.5</ele>
        <time>2022-09-04T14:44:32Z</time>
      </trkpt>
      <trkpt lat="44.80884" lon="6.7544">
        <ele>2537.54</ele>
        <time>2022-09-04T14:44:33Z</time>
      </trkpt>
      <trkpt lat="44.80883" lon="6.75439">
        <ele>2536.58</ele>
        <time>2022-09-04T14:44:34Z</time>
      </trkpt>
      <trkpt lat="44.80881" lon="6.7544">
        <ele>2536.58</ele>
        <time>2022-09-04T14:44:35Z</time>
      </trkpt>
      <trkpt lat="44.8088" lon="6.75441">
        <ele>2536.58</ele>
        <time>2022-09-04T14:44:36Z</time>
      </trkpt>
      <trkpt lat="44.80878" lon="6.75441">
        <ele>2535.61</ele>
        <time>2022-09-04T14:44:37Z</time>
      </trkpt>
      <trkpt lat="44.80877" lon="6.75442">
        <ele>2535.13</ele>
        <time>2022-09-04T14:44:38Z</time>
      </trkpt>
      <trkpt lat="44.80876" lon="6.75443">
        <ele>2534.65</ele>
        <time>2022-09-04T14:44:39Z</time>
      </trkpt>
      <trkpt lat="44.80875" lon="6.75444">
        <ele>2534.65</ele>
        <time>2022-09-04T14:44:40Z</time>
      </trkpt>
      <trkpt lat="44.80874" lon="6.75445">
        <ele>2534.65</ele>
        <time>2022-09-04T14:44:41Z</time>
      </trkpt>
      <trkpt lat="44.80872" lon="6.75448">
        <ele>2534.65</ele>
        <time>2022-09-04T14:44:43Z</time>
      </trkpt>
      <trkpt lat="44.80871" lon="6.7545">
        <ele>2537.06</ele>
        <time>2022-09-04T14:44:44Z</time>
      </trkpt>
      <trkpt lat="44.8087" lon="6.75451">
        <ele>2535.13</ele>
        <time>2022-09-04T14:44:45Z</time>
      </trkpt>
      <trkpt lat="44.80866" lon="6.75455">
        <ele>2531.77</ele>
        <time>2022-09-04T14:44:48Z</time>
      </trkpt>
      <trkpt lat="44.80866" lon="6.75457">
        <ele>2530.33</ele>
        <time>2022-09-04T14:44:49Z</time>
      </trkpt>
      <trkpt lat="44.80865" lon="6.75459">
        <ele>2527.92</ele>
        <time>2022-09-04T14:44:50Z</time>
      </trkpt>
      <trkpt lat="44.80865" lon="6.75461">
        <ele>2527.92</ele>
        <time>2022-09-04T14:44:51Z</time>
      </trkpt>
      <trkpt lat="44.80865" lon="6.75463">
        <ele>2526.96</ele>
        <time>2022-09-04T14:44:52Z</time>
      </trkpt>
      <trkpt lat="44.80865" lon="6.75466">
        <ele>2526.48</ele>
        <time>2022-09-04T14:44:53Z</time>
      </trkpt>
      <trkpt lat="44.80864" lon="6.75469">
        <ele>2526.48</ele>
        <time>2022-09-04T14:44:54Z</time>
      </trkpt>
      <trkpt lat="44.80863" lon="6.75471">
        <ele>2526</ele>
        <time>2022-09-04T14:44:55Z</time>
      </trkpt>
      <trkpt lat="44.80858" lon="6.7548">
        <ele>2523.12</ele>
        <time>2022-09-04T14:44:59Z</time>
      </trkpt>
      <trkpt lat="44.80852" lon="6.75488">
        <ele>2520.71</ele>
        <time>2022-09-04T14:45:03Z</time>
      </trkpt>
      <trkpt lat="44.80846" lon="6.75494">
        <ele>2517.35</ele>
        <time>2022-09-04T14:45:07Z</time>
      </trkpt>
      <trkpt lat="44.80846" lon="6.75496">
        <ele>2520.71</ele>
        <time>2022-09-04T14:45:08Z</time>
      </trkpt>
      <trkpt lat="44.80845" lon="6.75499">
        <ele>2520.71</ele>
        <time>2022-09-04T14:45:09Z</time>
      </trkpt>
      <trkpt lat="44.80842" lon="6.7551">
        <ele>2516.39</ele>
        <time>2022-09-04T14:45:13Z</time>
      </trkpt>
      <trkpt lat="44.80841" lon="6.75512">
        <ele>2516.39</ele>
        <time>2022-09-04T14:45:14Z</time>
      </trkpt>
      <trkpt lat="44.80829" lon="6.75529">
        <ele>2512.54</ele>
        <time>2022-09-04T14:45:23Z</time>
      </trkpt>
      <trkpt lat="44.80822" lon="6.7553">
        <ele>2509.18</ele>
        <time>2022-09-04T14:45:26Z</time>
      </trkpt>
      <trkpt lat="44.8082" lon="6.75531">
        <ele>2509.18</ele>
        <time>2022-09-04T14:45:27Z</time>
      </trkpt>
      <trkpt lat="44.80819" lon="6.75532">
        <ele>2510.14</ele>
        <time>2022-09-04T14:45:28Z</time>
      </trkpt>
      <trkpt lat="44.80818" lon="6.75534">
        <ele>2510.14</ele>
        <time>2022-09-04T14:45:29Z</time>
      </trkpt>
      <trkpt lat="44.80814" lon="6.75541">
        <ele>2506.77</ele>
        <time>2022-09-04T14:45:32Z</time>
      </trkpt>
      <trkpt lat="44.80804" lon="6.75563">
        <ele>2505.81</ele>
        <time>2022-09-04T14:45:41Z</time>
      </trkpt>
      <trkpt lat="44.80801" lon="6.75573">
        <ele>2502.45</ele>
        <time>2022-09-04T14:45:45Z</time>
      </trkpt>
      <trkpt lat="44.808" lon="6.75575">
        <ele>2502.45</ele>
        <time>2022-09-04T14:45:46Z</time>
      </trkpt>
      <trkpt lat="44.80795" lon="6.75583">
        <ele>2502.45</ele>
        <time>2022-09-04T14:45:49Z</time>
      </trkpt>
      <trkpt lat="44.80786" lon="6.75591">
        <ele>2500.05</ele>
        <time>2022-09-04T14:45:56Z</time>
      </trkpt>
      <trkpt lat="44.80777" lon="6.75616">
        <ele>2498.6</ele>
        <time>2022-09-04T14:46:05Z</time>
      </trkpt>
      <trkpt lat="44.80774" lon="6.75626">
        <ele>2497.16</ele>
        <time>2022-09-04T14:46:08Z</time>
      </trkpt>
      <trkpt lat="44.80765" lon="6.75655">
        <ele>2496.2</ele>
        <time>2022-09-04T14:46:17Z</time>
      </trkpt>
      <trkpt lat="44.80755" lon="6.75671">
        <ele>2496.2</ele>
        <time>2022-09-04T14:46:27Z</time>
      </trkpt>
      <trkpt lat="44.80741" lon="6.7568">
        <ele>2494.76</ele>
        <time>2022-09-04T14:46:39Z</time>
      </trkpt>
      <trkpt lat="44.80736" lon="6.75682">
        <ele>2494.76</ele>
        <time>2022-09-04T14:46:44Z</time>
      </trkpt>
      <trkpt lat="44.80735" lon="6.75683">
        <ele>2494.76</ele>
        <time>2022-09-04T14:46:45Z</time>
      </trkpt>
      <trkpt lat="44.80728" lon="6.75684">
        <ele>2494.76</ele>
        <time>2022-09-04T14:46:51Z</time>
      </trkpt>
      <trkpt lat="44.80727" lon="6.75684">
        <ele>2494.76</ele>
        <time>2022-09-04T14:46:52Z</time>
      </trkpt>
      <trkpt lat="44.80724" lon="6.75685">
        <ele>2496.2</ele>
        <time>2022-09-04T14:46:57Z</time>
      </trkpt>
      <trkpt lat="44.80721" lon="6.75686">
        <ele>2496.2</ele>
        <time>2022-09-04T14:47:13Z</time>
      </trkpt>
      <trkpt lat="44.80719" lon="6.75686">
        <ele>2496.2</ele>
        <time>2022-09-04T14:47:35Z</time>
      </trkpt>
      <trkpt lat="44.80723" lon="6.7569">
        <ele>2495.72</ele>
        <time>2022-09-04T14:47:57Z</time>
      </trkpt>
      <trkpt lat="44.80723" lon="6.75691">
        <ele>2495.72</ele>
        <time>2022-09-04T14:48:12Z</time>
      </trkpt>
      <trkpt lat="44.80721" lon="6.75692">
        <ele>2496.2</ele>
        <time>2022-09-04T14:48:28Z</time>
      </trkpt>
      <trkpt lat="44.80717" lon="6.75688">
        <ele>2496.68</ele>
        <time>2022-09-04T14:48:38Z</time>
      </trkpt>
      <trkpt lat="44.80714" lon="6.75685">
        <ele>2496.2</ele>
        <time>2022-09-04T14:48:51Z</time>
      </trkpt>
      <trkpt lat="44.80711" lon="6.75685">
        <ele>2496.68</ele>
        <time>2022-09-04T14:49:10Z</time>
      </trkpt>
      <trkpt lat="44.8071" lon="6.75686">
        <ele>2497.64</ele>
        <time>2022-09-04T14:49:13Z</time>
      </trkpt>
      <trkpt lat="44.80709" lon="6.75682">
        <ele>2497.64</ele>
        <time>2022-09-04T14:49:28Z</time>
      </trkpt>
      <trkpt lat="44.80711" lon="6.75682">
        <ele>2497.64</ele>
        <time>2022-09-04T14:49:57Z</time>
      </trkpt>
      <trkpt lat="44.80712" lon="6.7568">
        <ele>2497.64</ele>
        <time>2022-09-04T14:50:23Z</time>
      </trkpt>
      <trkpt lat="44.80711" lon="6.75677">
        <ele>2498.12</ele>
        <time>2022-09-04T14:50:49Z</time>
      </trkpt>
      <trkpt lat="44.8071" lon="6.75674">
        <ele>2496.68</ele>
        <time>2022-09-04T14:50:54Z</time>
      </trkpt>
      <trkpt lat="44.80708" lon="6.75673">
        <ele>2496.68</ele>
        <time>2022-09-04T14:51:06Z</time>
      </trkpt>
      <trkpt lat="44.80707" lon="6.75674">
        <ele>2496.2</ele>
        <time>2022-09-04T14:51:26Z</time>
      </trkpt>
      <trkpt lat="44.80707" lon="6.75675">
        <ele>2496.2</ele>
        <time>2022-09-04T14:51:57Z</time>
      </trkpt>
      <trkpt lat="44.80706" lon="6.75676">
        <ele>2495.72</ele>
        <time>2022-09-04T14:52:24Z</time>
      </trkpt>
      <trkpt lat="44.80708" lon="6.75675">
        <ele>2495.72</ele>
        <time>2022-09-04T14:52:56Z</time>
      </trkpt>
      <trkpt lat="44.80707" lon="6.75674">
        <ele>2495.24</ele>
        <time>2022-09-04T14:53:19Z</time>
      </trkpt>
      <trkpt lat="44.80705" lon="6.75675">
        <ele>2494.76</ele>
        <time>2022-09-04T14:53:49Z</time>
      </trkpt>
      <trkpt lat="44.80707" lon="6.75674">
        <ele>2494.76</ele>
        <time>2022-09-04T14:54:14Z</time>
      </trkpt>
      <trkpt lat="44.80701" lon="6.75672">
        <ele>2494.28</ele>
        <time>2022-09-04T14:54:36Z</time>
      </trkpt>
      <trkpt lat="44.80704" lon="6.75668">
        <ele>2494.28</ele>
        <time>2022-09-04T14:54:55Z</time>
      </trkpt>
      <trkpt lat="44.80703" lon="6.75665">
        <ele>2494.28</ele>
        <time>2022-09-04T14:54:56Z</time>
      </trkpt>
      <trkpt lat="44.80702" lon="6.75665">
        <ele>2494.28</ele>
        <time>2022-09-04T14:54:57Z</time>
      </trkpt>
      <trkpt lat="44.80699" lon="6.75662">
        <ele>2493.8</ele>
        <time>2022-09-04T14:55:01Z</time>
      </trkpt>
      <trkpt lat="44.80684" lon="6.75662">
        <ele>2492.84</ele>
        <time>2022-09-04T14:55:14Z</time>
      </trkpt>
      <trkpt lat="44.80674" lon="6.75659">
        <ele>2491.87</ele>
        <time>2022-09-04T14:55:23Z</time>
      </trkpt>
      <trkpt lat="44.80672" lon="6.75658">
        <ele>2493.32</ele>
        <time>2022-09-04T14:55:25Z</time>
      </trkpt>
      <trkpt lat="44.80658" lon="6.75648">
        <ele>2491.87</ele>
        <time>2022-09-04T14:55:33Z</time>
      </trkpt>
      <trkpt lat="44.80639" lon="6.75644">
        <ele>2490.43</ele>
        <time>2022-09-04T14:55:45Z</time>
      </trkpt>
      <trkpt lat="44.80623" lon="6.75648">
        <ele>2487.07</ele>
        <time>2022-09-04T14:55:56Z</time>
      </trkpt>
      <trkpt lat="44.80621" lon="6.75648">
        <ele>2486.11</ele>
        <time>2022-09-04T14:55:58Z</time>
      </trkpt>
      <trkpt lat="44.80615" lon="6.75651">
        <ele>2484.18</ele>
        <time>2022-09-04T14:56:03Z</time>
      </trkpt>
      <trkpt lat="44.80611" lon="6.75654">
        <ele>2482.26</ele>
        <time>2022-09-04T14:56:07Z</time>
      </trkpt>
      <trkpt lat="44.8061" lon="6.75655">
        <ele>2481.78</ele>
        <time>2022-09-04T14:56:08Z</time>
      </trkpt>
      <trkpt lat="44.80609" lon="6.75656">
        <ele>2481.78</ele>
        <time>2022-09-04T14:56:09Z</time>
      </trkpt>
      <trkpt lat="44.80608" lon="6.75656">
        <ele>2481.3</ele>
        <time>2022-09-04T14:56:10Z</time>
      </trkpt>
      <trkpt lat="44.80607" lon="6.75657">
        <ele>2480.34</ele>
        <time>2022-09-04T14:56:11Z</time>
      </trkpt>
      <trkpt lat="44.80601" lon="6.75659">
        <ele>2479.38</ele>
        <time>2022-09-04T14:56:15Z</time>
      </trkpt>
      <trkpt lat="44.806" lon="6.75659">
        <ele>2478.42</ele>
        <time>2022-09-04T14:56:16Z</time>
      </trkpt>
      <trkpt lat="44.80599" lon="6.75658">
        <ele>2478.42</ele>
        <time>2022-09-04T14:56:17Z</time>
      </trkpt>
      <trkpt lat="44.80588" lon="6.75653">
        <ele>2474.57</ele>
        <time>2022-09-04T14:56:25Z</time>
      </trkpt>
      <trkpt lat="44.80576" lon="6.75649">
        <ele>2471.69</ele>
        <time>2022-09-04T14:56:33Z</time>
      </trkpt>
      <trkpt lat="44.80561" lon="6.75643">
        <ele>2468.32</ele>
        <time>2022-09-04T14:56:43Z</time>
      </trkpt>
      <trkpt lat="44.8055" lon="6.75638">
        <ele>2465.44</ele>
        <time>2022-09-04T14:56:50Z</time>
      </trkpt>
      <trkpt lat="44.80545" lon="6.75636">
        <ele>2464</ele>
        <time>2022-09-04T14:56:53Z</time>
      </trkpt>
      <trkpt lat="44.8054" lon="6.75636">
        <ele>2463.04</ele>
        <time>2022-09-04T14:56:57Z</time>
      </trkpt>
      <trkpt lat="44.80535" lon="6.75635">
        <ele>2461.11</ele>
        <time>2022-09-04T14:57:00Z</time>
      </trkpt>
      <trkpt lat="44.80525" lon="6.7563">
        <ele>2459.67</ele>
        <time>2022-09-04T14:57:06Z</time>
      </trkpt>
      <trkpt lat="44.80507" lon="6.75618">
        <ele>2457.27</ele>
        <time>2022-09-04T14:57:17Z</time>
      </trkpt>
      <trkpt lat="44.80496" lon="6.75607">
        <ele>2454.38</ele>
        <time>2022-09-04T14:57:25Z</time>
      </trkpt>
      <trkpt lat="44.80485" lon="6.75595">
        <ele>2452.46</ele>
        <time>2022-09-04T14:57:36Z</time>
      </trkpt>
      <trkpt lat="44.80472" lon="6.75581">
        <ele>2449.1</ele>
        <time>2022-09-04T14:57:48Z</time>
      </trkpt>
      <trkpt lat="44.80462" lon="6.75569">
        <ele>2445.25</ele>
        <time>2022-09-04T14:57:56Z</time>
      </trkpt>
      <trkpt lat="44.80451" lon="6.75561">
        <ele>2441.89</ele>
        <time>2022-09-04T14:58:05Z</time>
      </trkpt>
      <trkpt lat="44.80439" lon="6.75548">
        <ele>2437.56</ele>
        <time>2022-09-04T14:58:15Z</time>
      </trkpt>
      <trkpt lat="44.80438" lon="6.75547">
        <ele>2436.6</ele>
        <time>2022-09-04T14:58:16Z</time>
      </trkpt>
      <trkpt lat="44.80438" lon="6.75545">
        <ele>2436.6</ele>
        <time>2022-09-04T14:58:17Z</time>
      </trkpt>
      <trkpt lat="44.80436" lon="6.75542">
        <ele>2435.64</ele>
        <time>2022-09-04T14:58:19Z</time>
      </trkpt>
      <trkpt lat="44.80435" lon="6.7554">
        <ele>2435.64</ele>
        <time>2022-09-04T14:58:20Z</time>
      </trkpt>
      <trkpt lat="44.80427" lon="6.75525">
        <ele>2432.75</ele>
        <time>2022-09-04T14:58:28Z</time>
      </trkpt>
      <trkpt lat="44.80427" lon="6.75523">
        <ele>2432.75</ele>
        <time>2022-09-04T14:58:29Z</time>
      </trkpt>
      <trkpt lat="44.80424" lon="6.75513">
        <ele>2430.35</ele>
        <time>2022-09-04T14:58:35Z</time>
      </trkpt>
      <trkpt lat="44.80423" lon="6.7551">
        <ele>2430.35</ele>
        <time>2022-09-04T14:58:36Z</time>
      </trkpt>
      <trkpt lat="44.80423" lon="6.75508">
        <ele>2429.87</ele>
        <time>2022-09-04T14:58:37Z</time>
      </trkpt>
      <trkpt lat="44.80422" lon="6.75506">
        <ele>2429.87</ele>
        <time>2022-09-04T14:58:38Z</time>
      </trkpt>
      <trkpt lat="44.80422" lon="6.75505">
        <ele>2429.87</ele>
        <time>2022-09-04T14:58:39Z</time>
      </trkpt>
      <trkpt lat="44.80421" lon="6.75503">
        <ele>2428.43</ele>
        <time>2022-09-04T14:58:40Z</time>
      </trkpt>
      <trkpt lat="44.8042" lon="6.75501">
        <ele>2428.43</ele>
        <time>2022-09-04T14:58:41Z</time>
      </trkpt>
      <trkpt lat="44.80419" lon="6.75498">
        <ele>2428.43</ele>
        <time>2022-09-04T14:58:42Z</time>
      </trkpt>
      <trkpt lat="44.80414" lon="6.75486">
        <ele>2426.5</ele>
        <time>2022-09-04T14:58:48Z</time>
      </trkpt>
      <trkpt lat="44.80414" lon="6.75484">
        <ele>2426.02</ele>
        <time>2022-09-04T14:58:49Z</time>
      </trkpt>
      <trkpt lat="44.80413" lon="6.75482">
        <ele>2426.02</ele>
        <time>2022-09-04T14:58:50Z</time>
      </trkpt>
      <trkpt lat="44.80412" lon="6.7548">
        <ele>2426.02</ele>
        <time>2022-09-04T14:58:51Z</time>
      </trkpt>
      <trkpt lat="44.80411" lon="6.75478">
        <ele>2425.54</ele>
        <time>2022-09-04T14:58:52Z</time>
      </trkpt>
      <trkpt lat="44.80409" lon="6.75477">
        <ele>2425.54</ele>
        <time>2022-09-04T14:58:53Z</time>
      </trkpt>
      <trkpt lat="44.80408" lon="6.75476">
        <ele>2425.54</ele>
        <time>2022-09-04T14:58:54Z</time>
      </trkpt>
      <trkpt lat="44.80406" lon="6.75473">
        <ele>2424.58</ele>
        <time>2022-09-04T14:58:57Z</time>
      </trkpt>
      <trkpt lat="44.80405" lon="6.75472">
        <ele>2424.58</ele>
        <time>2022-09-04T14:58:58Z</time>
      </trkpt>
      <trkpt lat="44.80395" lon="6.75459">
        <ele>2420.74</ele>
        <time>2022-09-04T14:59:07Z</time>
      </trkpt>
      <trkpt lat="44.80393" lon="6.75456">
        <ele>2419.78</ele>
        <time>2022-09-04T14:59:09Z</time>
      </trkpt>
      <trkpt lat="44.80391" lon="6.75445">
        <ele>2415.93</ele>
        <time>2022-09-04T14:59:16Z</time>
      </trkpt>
      <trkpt lat="44.80391" lon="6.75434">
        <ele>2413.05</ele>
        <time>2022-09-04T14:59:22Z</time>
      </trkpt>
      <trkpt lat="44.80391" lon="6.75432">
        <ele>2413.05</ele>
        <time>2022-09-04T14:59:23Z</time>
      </trkpt>
      <trkpt lat="44.80391" lon="6.7543">
        <ele>2412.57</ele>
        <time>2022-09-04T14:59:24Z</time>
      </trkpt>
      <trkpt lat="44.80391" lon="6.75429">
        <ele>2412.57</ele>
        <time>2022-09-04T14:59:25Z</time>
      </trkpt>
      <trkpt lat="44.80393" lon="6.75422">
        <ele>2410.16</ele>
        <time>2022-09-04T14:59:29Z</time>
      </trkpt>
      <trkpt lat="44.80396" lon="6.75386">
        <ele>2410.16</ele>
        <time>2022-09-04T14:59:42Z</time>
      </trkpt>
      <trkpt lat="44.80388" lon="6.75358">
        <ele>2408.72</ele>
        <time>2022-09-04T14:59:54Z</time>
      </trkpt>
      <trkpt lat="44.80383" lon="6.75345">
        <ele>2405.36</ele>
        <time>2022-09-04T15:00:02Z</time>
      </trkpt>
      <trkpt lat="44.80382" lon="6.75344">
        <ele>2405.36</ele>
        <time>2022-09-04T15:00:03Z</time>
      </trkpt>
      <trkpt lat="44.80381" lon="6.75337">
        <ele>2403.43</ele>
        <time>2022-09-04T15:00:07Z</time>
      </trkpt>
      <trkpt lat="44.80381" lon="6.75335">
        <ele>2402.47</ele>
        <time>2022-09-04T15:00:08Z</time>
      </trkpt>
      <trkpt lat="44.80381" lon="6.75333">
        <ele>2402.47</ele>
        <time>2022-09-04T15:00:09Z</time>
      </trkpt>
      <trkpt lat="44.8038" lon="6.75332">
        <ele>2402.47</ele>
        <time>2022-09-04T15:00:10Z</time>
      </trkpt>
      <trkpt lat="44.8038" lon="6.75331">
        <ele>2402.47</ele>
        <time>2022-09-04T15:00:11Z</time>
      </trkpt>
      <trkpt lat="44.8038" lon="6.75329">
        <ele>2401.51</ele>
        <time>2022-09-04T15:00:12Z</time>
      </trkpt>
      <trkpt lat="44.80379" lon="6.75327">
        <ele>2401.51</ele>
        <time>2022-09-04T15:00:13Z</time>
      </trkpt>
      <trkpt lat="44.80379" lon="6.75324">
        <ele>2401.51</ele>
        <time>2022-09-04T15:00:14Z</time>
      </trkpt>
      <trkpt lat="44.80373" lon="6.75292">
        <ele>2399.59</ele>
        <time>2022-09-04T15:00:28Z</time>
      </trkpt>
      <trkpt lat="44.80361" lon="6.7527">
        <ele>2398.15</ele>
        <time>2022-09-04T15:00:41Z</time>
      </trkpt>
      <trkpt lat="44.80357" lon="6.7526">
        <ele>2397.67</ele>
        <time>2022-09-04T15:00:46Z</time>
      </trkpt>
      <trkpt lat="44.80357" lon="6.75257">
        <ele>2397.67</ele>
        <time>2022-09-04T15:00:47Z</time>
      </trkpt>
      <trkpt lat="44.80357" lon="6.75255">
        <ele>2397.67</ele>
        <time>2022-09-04T15:00:48Z</time>
      </trkpt>
      <trkpt lat="44.80358" lon="6.75234">
        <ele>2394.78</ele>
        <time>2022-09-04T15:00:59Z</time>
      </trkpt>
      <trkpt lat="44.80358" lon="6.75231">
        <ele>2394.78</ele>
        <time>2022-09-04T15:01:02Z</time>
      </trkpt>
      <trkpt lat="44.80358" lon="6.7523">
        <ele>2394.78</ele>
        <time>2022-09-04T15:01:03Z</time>
      </trkpt>
      <trkpt lat="44.80357" lon="6.75228">
        <ele>2394.78</ele>
        <time>2022-09-04T15:01:04Z</time>
      </trkpt>
      <trkpt lat="44.80361" lon="6.75221">
        <ele>2391.42</ele>
        <time>2022-09-04T15:01:09Z</time>
      </trkpt>
      <trkpt lat="44.8036" lon="6.75215">
        <ele>2389.97</ele>
        <time>2022-09-04T15:01:12Z</time>
      </trkpt>
      <trkpt lat="44.8036" lon="6.75212">
        <ele>2388.53</ele>
        <time>2022-09-04T15:01:13Z</time>
      </trkpt>
      <trkpt lat="44.8036" lon="6.7521">
        <ele>2387.57</ele>
        <time>2022-09-04T15:01:14Z</time>
      </trkpt>
      <trkpt lat="44.80359" lon="6.75207">
        <ele>2387.57</ele>
        <time>2022-09-04T15:01:15Z</time>
      </trkpt>
      <trkpt lat="44.80356" lon="6.75198">
        <ele>2388.53</ele>
        <time>2022-09-04T15:01:22Z</time>
      </trkpt>
      <trkpt lat="44.80354" lon="6.75194">
        <ele>2387.09</ele>
        <time>2022-09-04T15:01:25Z</time>
      </trkpt>
      <trkpt lat="44.80352" lon="6.7519">
        <ele>2387.09</ele>
        <time>2022-09-04T15:01:28Z</time>
      </trkpt>
      <trkpt lat="44.80342" lon="6.75186">
        <ele>2386.13</ele>
        <time>2022-09-04T15:01:36Z</time>
      </trkpt>
      <trkpt lat="44.80341" lon="6.75185">
        <ele>2386.13</ele>
        <time>2022-09-04T15:01:37Z</time>
      </trkpt>
      <trkpt lat="44.8034" lon="6.75184">
        <ele>2386.13</ele>
        <time>2022-09-04T15:01:38Z</time>
      </trkpt>
      <trkpt lat="44.80339" lon="6.75182">
        <ele>2385.65</ele>
        <time>2022-09-04T15:01:39Z</time>
      </trkpt>
      <trkpt lat="44.80338" lon="6.75178">
        <ele>2385.65</ele>
        <time>2022-09-04T15:01:42Z</time>
      </trkpt>
      <trkpt lat="44.80337" lon="6.75176">
        <ele>2385.65</ele>
        <time>2022-09-04T15:01:43Z</time>
      </trkpt>
      <trkpt lat="44.80337" lon="6.75174">
        <ele>2385.65</ele>
        <time>2022-09-04T15:01:44Z</time>
      </trkpt>
      <trkpt lat="44.80336" lon="6.75172">
        <ele>2385.17</ele>
        <time>2022-09-04T15:01:45Z</time>
      </trkpt>
      <trkpt lat="44.80335" lon="6.7517">
        <ele>2385.17</ele>
        <time>2022-09-04T15:01:46Z</time>
      </trkpt>
      <trkpt lat="44.80334" lon="6.75168">
        <ele>2385.17</ele>
        <time>2022-09-04T15:01:47Z</time>
      </trkpt>
      <trkpt lat="44.80333" lon="6.75166">
        <ele>2385.17</ele>
        <time>2022-09-04T15:01:48Z</time>
      </trkpt>
      <trkpt lat="44.80332" lon="6.75162">
        <ele>2384.21</ele>
        <time>2022-09-04T15:01:51Z</time>
      </trkpt>
      <trkpt lat="44.80332" lon="6.7516">
        <ele>2383.25</ele>
        <time>2022-09-04T15:01:52Z</time>
      </trkpt>
      <trkpt lat="44.80331" lon="6.75157">
        <ele>2383.25</ele>
        <time>2022-09-04T15:01:53Z</time>
      </trkpt>
      <trkpt lat="44.80331" lon="6.75155">
        <ele>2383.25</ele>
        <time>2022-09-04T15:01:54Z</time>
      </trkpt>
      <trkpt lat="44.80331" lon="6.75153">
        <ele>2383.25</ele>
        <time>2022-09-04T15:01:55Z</time>
      </trkpt>
      <trkpt lat="44.80329" lon="6.75152">
        <ele>2383.25</ele>
        <time>2022-09-04T15:01:56Z</time>
      </trkpt>
      <trkpt lat="44.80328" lon="6.7515">
        <ele>2383.25</ele>
        <time>2022-09-04T15:01:57Z</time>
      </trkpt>
      <trkpt lat="44.80326" lon="6.7515">
        <ele>2383.25</ele>
        <time>2022-09-04T15:01:58Z</time>
      </trkpt>
      <trkpt lat="44.80323" lon="6.75147">
        <ele>2382.28</ele>
        <time>2022-09-04T15:02:00Z</time>
      </trkpt>
      <trkpt lat="44.80323" lon="6.75145">
        <ele>2380.84</ele>
        <time>2022-09-04T15:02:01Z</time>
      </trkpt>
      <trkpt lat="44.80322" lon="6.75142">
        <ele>2380.36</ele>
        <time>2022-09-04T15:02:02Z</time>
      </trkpt>
      <trkpt lat="44.80321" lon="6.7514">
        <ele>2380.36</ele>
        <time>2022-09-04T15:02:03Z</time>
      </trkpt>
      <trkpt lat="44.8032" lon="6.75138">
        <ele>2380.36</ele>
        <time>2022-09-04T15:02:04Z</time>
      </trkpt>
      <trkpt lat="44.80319" lon="6.75136">
        <ele>2380.36</ele>
        <time>2022-09-04T15:02:05Z</time>
      </trkpt>
      <trkpt lat="44.80317" lon="6.75134">
        <ele>2379.4</ele>
        <time>2022-09-04T15:02:06Z</time>
      </trkpt>
      <trkpt lat="44.80316" lon="6.75131">
        <ele>2378.92</ele>
        <time>2022-09-04T15:02:07Z</time>
      </trkpt>
      <trkpt lat="44.80314" lon="6.75129">
        <ele>2378.92</ele>
        <time>2022-09-04T15:02:08Z</time>
      </trkpt>
      <trkpt lat="44.80313" lon="6.75127">
        <ele>2378.92</ele>
        <time>2022-09-04T15:02:09Z</time>
      </trkpt>
      <trkpt lat="44.80311" lon="6.75126">
        <ele>2377.96</ele>
        <time>2022-09-04T15:02:10Z</time>
      </trkpt>
      <trkpt lat="44.8031" lon="6.75125">
        <ele>2377.96</ele>
        <time>2022-09-04T15:02:11Z</time>
      </trkpt>
      <trkpt lat="44.80295" lon="6.75115">
        <ele>2376.04</ele>
        <time>2022-09-04T15:02:23Z</time>
      </trkpt>
      <trkpt lat="44.80294" lon="6.75113">
        <ele>2376.04</ele>
        <time>2022-09-04T15:02:24Z</time>
      </trkpt>
      <trkpt lat="44.80292" lon="6.75111">
        <ele>2376.04</ele>
        <time>2022-09-04T15:02:25Z</time>
      </trkpt>
      <trkpt lat="44.80291" lon="6.7511">
        <ele>2376.04</ele>
        <time>2022-09-04T15:02:26Z</time>
      </trkpt>
      <trkpt lat="44.80289" lon="6.75108">
        <ele>2375.55</ele>
        <time>2022-09-04T15:02:27Z</time>
      </trkpt>
      <trkpt lat="44.80288" lon="6.75106">
        <ele>2375.55</ele>
        <time>2022-09-04T15:02:28Z</time>
      </trkpt>
      <trkpt lat="44.80287" lon="6.75105">
        <ele>2375.55</ele>
        <time>2022-09-04T15:02:29Z</time>
      </trkpt>
      <trkpt lat="44.80285" lon="6.75104">
        <ele>2375.55</ele>
        <time>2022-09-04T15:02:30Z</time>
      </trkpt>
      <trkpt lat="44.80284" lon="6.75102">
        <ele>2375.55</ele>
        <time>2022-09-04T15:02:31Z</time>
      </trkpt>
      <trkpt lat="44.80283" lon="6.75101">
        <ele>2374.59</ele>
        <time>2022-09-04T15:02:32Z</time>
      </trkpt>
      <trkpt lat="44.80275" lon="6.75096">
        <ele>2374.11</ele>
        <time>2022-09-04T15:02:38Z</time>
      </trkpt>
      <trkpt lat="44.80272" lon="6.75097">
        <ele>2373.63</ele>
        <time>2022-09-04T15:02:41Z</time>
      </trkpt>
      <trkpt lat="44.8027" lon="6.75097">
        <ele>2373.63</ele>
        <time>2022-09-04T15:02:42Z</time>
      </trkpt>
      <trkpt lat="44.80269" lon="6.75098">
        <ele>2373.15</ele>
        <time>2022-09-04T15:02:43Z</time>
      </trkpt>
      <trkpt lat="44.80267" lon="6.75097">
        <ele>2372.19</ele>
        <time>2022-09-04T15:02:45Z</time>
      </trkpt>
      <trkpt lat="44.80246" lon="6.75092">
        <ele>2368.35</ele>
        <time>2022-09-04T15:02:59Z</time>
      </trkpt>
      <trkpt lat="44.80245" lon="6.75092">
        <ele>2368.35</ele>
        <time>2022-09-04T15:03:00Z</time>
      </trkpt>
      <trkpt lat="44.80238" lon="6.75091">
        <ele>2366.42</ele>
        <time>2022-09-04T15:03:04Z</time>
      </trkpt>
      <trkpt lat="44.80237" lon="6.7509">
        <ele>2365.94</ele>
        <time>2022-09-04T15:03:05Z</time>
      </trkpt>
      <trkpt lat="44.80235" lon="6.75089">
        <ele>2365.46</ele>
        <time>2022-09-04T15:03:06Z</time>
      </trkpt>
      <trkpt lat="44.80235" lon="6.75088">
        <ele>2365.46</ele>
        <time>2022-09-04T15:03:07Z</time>
      </trkpt>
      <trkpt lat="44.80234" lon="6.75086">
        <ele>2365.46</ele>
        <time>2022-09-04T15:03:08Z</time>
      </trkpt>
      <trkpt lat="44.80232" lon="6.75083">
        <ele>2364.98</ele>
        <time>2022-09-04T15:03:10Z</time>
      </trkpt>
      <trkpt lat="44.80231" lon="6.75083">
        <ele>2364.98</ele>
        <time>2022-09-04T15:03:11Z</time>
      </trkpt>
      <trkpt lat="44.80229" lon="6.75084">
        <ele>2364.5</ele>
        <time>2022-09-04T15:03:12Z</time>
      </trkpt>
      <trkpt lat="44.80228" lon="6.75083">
        <ele>2364.5</ele>
        <time>2022-09-04T15:03:13Z</time>
      </trkpt>
      <trkpt lat="44.80227" lon="6.75083">
        <ele>2364.5</ele>
        <time>2022-09-04T15:03:14Z</time>
      </trkpt>
      <trkpt lat="44.80226" lon="6.75083">
        <ele>2364.5</ele>
        <time>2022-09-04T15:03:15Z</time>
      </trkpt>
      <trkpt lat="44.80225" lon="6.75082">
        <ele>2364.5</ele>
        <time>2022-09-04T15:03:16Z</time>
      </trkpt>
      <trkpt lat="44.80224" lon="6.75082">
        <ele>2364.02</ele>
        <time>2022-09-04T15:03:17Z</time>
      </trkpt>
      <trkpt lat="44.80222" lon="6.75082">
        <ele>2363.06</ele>
        <time>2022-09-04T15:03:18Z</time>
      </trkpt>
      <trkpt lat="44.80221" lon="6.7508">
        <ele>2363.06</ele>
        <time>2022-09-04T15:03:19Z</time>
      </trkpt>
      <trkpt lat="44.80221" lon="6.75079">
        <ele>2362.58</ele>
        <time>2022-09-04T15:03:20Z</time>
      </trkpt>
      <trkpt lat="44.8022" lon="6.75078">
        <ele>2362.58</ele>
        <time>2022-09-04T15:03:21Z</time>
      </trkpt>
      <trkpt lat="44.80206" lon="6.75058">
        <ele>2361.62</ele>
        <time>2022-09-04T15:03:38Z</time>
      </trkpt>
      <trkpt lat="44.80192" lon="6.75048">
        <ele>2360.65</ele>
        <time>2022-09-04T15:03:50Z</time>
      </trkpt>
      <trkpt lat="44.80192" lon="6.75046">
        <ele>2360.65</ele>
        <time>2022-09-04T15:03:51Z</time>
      </trkpt>
      <trkpt lat="44.80191" lon="6.75044">
        <ele>2360.65</ele>
        <time>2022-09-04T15:03:52Z</time>
      </trkpt>
      <trkpt lat="44.8019" lon="6.75041">
        <ele>2360.65</ele>
        <time>2022-09-04T15:03:54Z</time>
      </trkpt>
      <trkpt lat="44.80189" lon="6.75033">
        <ele>2360.65</ele>
        <time>2022-09-04T15:03:59Z</time>
      </trkpt>
      <trkpt lat="44.80183" lon="6.75016">
        <ele>2360.65</ele>
        <time>2022-09-04T15:04:10Z</time>
      </trkpt>
      <trkpt lat="44.80182" lon="6.75014">
        <ele>2360.65</ele>
        <time>2022-09-04T15:04:11Z</time>
      </trkpt>
      <trkpt lat="44.80181" lon="6.75013">
        <ele>2360.65</ele>
        <time>2022-09-04T15:04:12Z</time>
      </trkpt>
      <trkpt lat="44.8018" lon="6.75011">
        <ele>2360.65</ele>
        <time>2022-09-04T15:04:13Z</time>
      </trkpt>
      <trkpt lat="44.80179" lon="6.75009">
        <ele>2360.17</ele>
        <time>2022-09-04T15:04:14Z</time>
      </trkpt>
      <trkpt lat="44.80179" lon="6.75008">
        <ele>2360.17</ele>
        <time>2022-09-04T15:04:15Z</time>
      </trkpt>
      <trkpt lat="44.80179" lon="6.75006">
        <ele>2360.17</ele>
        <time>2022-09-04T15:04:16Z</time>
      </trkpt>
      <trkpt lat="44.80179" lon="6.75004">
        <ele>2360.17</ele>
        <time>2022-09-04T15:04:17Z</time>
      </trkpt>
      <trkpt lat="44.80173" lon="6.74977">
        <ele>2359.69</ele>
        <time>2022-09-04T15:04:31Z</time>
      </trkpt>
      <trkpt lat="44.80173" lon="6.74966">
        <ele>2357.77</ele>
        <time>2022-09-04T15:04:38Z</time>
      </trkpt>
      <trkpt lat="44.80174" lon="6.74962">
        <ele>2356.33</ele>
        <time>2022-09-04T15:04:41Z</time>
      </trkpt>
      <trkpt lat="44.80175" lon="6.74961">
        <ele>2356.33</ele>
        <time>2022-09-04T15:04:42Z</time>
      </trkpt>
      <trkpt lat="44.80181" lon="6.7495">
        <ele>2352.96</ele>
        <time>2022-09-04T15:04:49Z</time>
      </trkpt>
      <trkpt lat="44.80182" lon="6.74945">
        <ele>2352</ele>
        <time>2022-09-04T15:04:51Z</time>
      </trkpt>
      <trkpt lat="44.80184" lon="6.74938">
        <ele>2350.08</ele>
        <time>2022-09-04T15:04:55Z</time>
      </trkpt>
      <trkpt lat="44.80184" lon="6.74937">
        <ele>2350.08</ele>
        <time>2022-09-04T15:04:56Z</time>
      </trkpt>
      <trkpt lat="44.80183" lon="6.74934">
        <ele>2350.08</ele>
        <time>2022-09-04T15:04:57Z</time>
      </trkpt>
      <trkpt lat="44.80182" lon="6.74932">
        <ele>2349.12</ele>
        <time>2022-09-04T15:04:58Z</time>
      </trkpt>
      <trkpt lat="44.80181" lon="6.7493">
        <ele>2349.12</ele>
        <time>2022-09-04T15:04:59Z</time>
      </trkpt>
      <trkpt lat="44.8018" lon="6.74928">
        <ele>2349.12</ele>
        <time>2022-09-04T15:05:00Z</time>
      </trkpt>
      <trkpt lat="44.80178" lon="6.74925">
        <ele>2347.68</ele>
        <time>2022-09-04T15:05:02Z</time>
      </trkpt>
      <trkpt lat="44.80171" lon="6.74906">
        <ele>2346.23</ele>
        <time>2022-09-04T15:05:14Z</time>
      </trkpt>
      <trkpt lat="44.80168" lon="6.74891">
        <ele>2343.35</ele>
        <time>2022-09-04T15:05:21Z</time>
      </trkpt>
      <trkpt lat="44.80164" lon="6.74879">
        <ele>2342.39</ele>
        <time>2022-09-04T15:05:26Z</time>
      </trkpt>
      <trkpt lat="44.80163" lon="6.74868">
        <ele>2339.99</ele>
        <time>2022-09-04T15:05:32Z</time>
      </trkpt>
      <trkpt lat="44.8016" lon="6.74862">
        <ele>2339.02</ele>
        <time>2022-09-04T15:05:46Z</time>
      </trkpt>
      <trkpt lat="44.80157" lon="6.74856">
        <ele>2339.02</ele>
        <time>2022-09-04T15:05:54Z</time>
      </trkpt>
      <trkpt lat="44.80159" lon="6.74854">
        <ele>2339.02</ele>
        <time>2022-09-04T15:06:06Z</time>
      </trkpt>
      <trkpt lat="44.8016" lon="6.74857">
        <ele>2339.02</ele>
        <time>2022-09-04T15:06:18Z</time>
      </trkpt>
      <trkpt lat="44.8016" lon="6.74858">
        <ele>2338.54</ele>
        <time>2022-09-04T15:06:32Z</time>
      </trkpt>
      <trkpt lat="44.8016" lon="6.74857">
        <ele>2338.54</ele>
        <time>2022-09-04T15:06:53Z</time>
      </trkpt>
      <trkpt lat="44.8016" lon="6.74859">
        <ele>2338.54</ele>
        <time>2022-09-04T15:07:23Z</time>
      </trkpt>
      <trkpt lat="44.8016" lon="6.7486">
        <ele>2338.06</ele>
        <time>2022-09-04T15:07:50Z</time>
      </trkpt>
      <trkpt lat="44.8016" lon="6.74858">
        <ele>2338.06</ele>
        <time>2022-09-04T15:08:23Z</time>
      </trkpt>
      <trkpt lat="44.80161" lon="6.74861">
        <ele>2337.58</ele>
        <time>2022-09-04T15:08:45Z</time>
      </trkpt>
      <trkpt lat="44.80162" lon="6.7486">
        <ele>2337.58</ele>
        <time>2022-09-04T15:09:25Z</time>
      </trkpt>
      <trkpt lat="44.80162" lon="6.74858">
        <ele>2337.1</ele>
        <time>2022-09-04T15:09:54Z</time>
      </trkpt>
      <trkpt lat="44.80159" lon="6.74861">
        <ele>2337.1</ele>
        <time>2022-09-04T15:10:25Z</time>
      </trkpt>
      <trkpt lat="44.8016" lon="6.74861">
        <ele>2336.62</ele>
        <time>2022-09-04T15:11:06Z</time>
      </trkpt>
      <trkpt lat="44.80161" lon="6.74862">
        <ele>2336.62</ele>
        <time>2022-09-04T15:11:27Z</time>
      </trkpt>
      <trkpt lat="44.80157" lon="6.7486">
        <ele>2336.14</ele>
        <time>2022-09-04T15:12:02Z</time>
      </trkpt>
      <trkpt lat="44.80158" lon="6.74856">
        <ele>2336.14</ele>
        <time>2022-09-04T15:12:18Z</time>
      </trkpt>
      <trkpt lat="44.80158" lon="6.74861">
        <ele>2336.14</ele>
        <time>2022-09-04T15:12:32Z</time>
      </trkpt>
      <trkpt lat="44.80158" lon="6.7486">
        <ele>2336.14</ele>
        <time>2022-09-04T15:13:00Z</time>
      </trkpt>
      <trkpt lat="44.80158" lon="6.74864">
        <ele>2335.18</ele>
        <time>2022-09-04T15:13:32Z</time>
      </trkpt>
      <trkpt lat="44.80159" lon="6.74875">
        <ele>2334.7</ele>
        <time>2022-09-04T15:13:45Z</time>
      </trkpt>
      <trkpt lat="44.80159" lon="6.74878">
        <ele>2334.7</ele>
        <time>2022-09-04T15:13:48Z</time>
      </trkpt>
      <trkpt lat="44.8016" lon="6.7488">
        <ele>2334.7</ele>
        <time>2022-09-04T15:13:49Z</time>
      </trkpt>
      <trkpt lat="44.8016" lon="6.74881">
        <ele>2334.7</ele>
        <time>2022-09-04T15:13:50Z</time>
      </trkpt>
      <trkpt lat="44.80163" lon="6.74898">
        <ele>2336.14</ele>
        <time>2022-09-04T15:14:02Z</time>
      </trkpt>
      <trkpt lat="44.80162" lon="6.74905">
        <ele>2336.62</ele>
        <time>2022-09-04T15:14:07Z</time>
      </trkpt>
      <trkpt lat="44.80162" lon="6.74907">
        <ele>2336.62</ele>
        <time>2022-09-04T15:14:08Z</time>
      </trkpt>
      <trkpt lat="44.80162" lon="6.74927">
        <ele>2337.58</ele>
        <time>2022-09-04T15:14:21Z</time>
      </trkpt>
      <trkpt lat="44.80165" lon="6.74937">
        <ele>2338.06</ele>
        <time>2022-09-04T15:14:32Z</time>
      </trkpt>
      <trkpt lat="44.80164" lon="6.74939">
        <ele>2338.06</ele>
        <time>2022-09-04T15:14:33Z</time>
      </trkpt>
      <trkpt lat="44.80164" lon="6.74941">
        <ele>2338.54</ele>
        <time>2022-09-04T15:14:34Z</time>
      </trkpt>
      <trkpt lat="44.80162" lon="6.74948">
        <ele>2339.02</ele>
        <time>2022-09-04T15:14:39Z</time>
      </trkpt>
      <trkpt lat="44.8016" lon="6.74952">
        <ele>2339.02</ele>
        <time>2022-09-04T15:14:43Z</time>
      </trkpt>
      <trkpt lat="44.80159" lon="6.74954">
        <ele>2339.51</ele>
        <time>2022-09-04T15:14:44Z</time>
      </trkpt>
      <trkpt lat="44.80154" lon="6.74966">
        <ele>2341.43</ele>
        <time>2022-09-04T15:14:56Z</time>
      </trkpt>
      <trkpt lat="44.80146" lon="6.74981">
        <ele>2341.43</ele>
        <time>2022-09-04T15:15:08Z</time>
      </trkpt>
      <trkpt lat="44.80139" lon="6.74991">
        <ele>2342.39</ele>
        <time>2022-09-04T15:15:17Z</time>
      </trkpt>
      <trkpt lat="44.80138" lon="6.74994">
        <ele>2342.87</ele>
        <time>2022-09-04T15:15:20Z</time>
      </trkpt>
      <trkpt lat="44.80138" lon="6.74995">
        <ele>2343.35</ele>
        <time>2022-09-04T15:15:21Z</time>
      </trkpt>
      <trkpt lat="44.80136" lon="6.75">
        <ele>2343.35</ele>
        <time>2022-09-04T15:15:25Z</time>
      </trkpt>
      <trkpt lat="44.80136" lon="6.75001">
        <ele>2343.35</ele>
        <time>2022-09-04T15:15:26Z</time>
      </trkpt>
      <trkpt lat="44.80135" lon="6.75017">
        <ele>2342.87</ele>
        <time>2022-09-04T15:15:37Z</time>
      </trkpt>
      <trkpt lat="44.80144" lon="6.75037">
        <ele>2340.95</ele>
        <time>2022-09-04T15:15:51Z</time>
      </trkpt>
      <trkpt lat="44.80144" lon="6.75039">
        <ele>2340.95</ele>
        <time>2022-09-04T15:15:52Z</time>
      </trkpt>
      <trkpt lat="44.80143" lon="6.75041">
        <ele>2340.95</ele>
        <time>2022-09-04T15:15:53Z</time>
      </trkpt>
      <trkpt lat="44.80142" lon="6.75043">
        <ele>2340.95</ele>
        <time>2022-09-04T15:15:54Z</time>
      </trkpt>
      <trkpt lat="44.80141" lon="6.75046">
        <ele>2339.02</ele>
        <time>2022-09-04T15:15:59Z</time>
      </trkpt>
      <trkpt lat="44.80138" lon="6.75053">
        <ele>2339.99</ele>
        <time>2022-09-04T15:16:17Z</time>
      </trkpt>
      <trkpt lat="44.80138" lon="6.75055">
        <ele>2338.54</ele>
        <time>2022-09-04T15:16:19Z</time>
      </trkpt>
      <trkpt lat="44.80138" lon="6.75056">
        <ele>2338.54</ele>
        <time>2022-09-04T15:16:20Z</time>
      </trkpt>
      <trkpt lat="44.80132" lon="6.75073">
        <ele>2339.51</ele>
        <time>2022-09-04T15:16:30Z</time>
      </trkpt>
      <trkpt lat="44.80131" lon="6.75076">
        <ele>2337.58</ele>
        <time>2022-09-04T15:16:32Z</time>
      </trkpt>
      <trkpt lat="44.80125" lon="6.75085">
        <ele>2337.1</ele>
        <time>2022-09-04T15:16:39Z</time>
      </trkpt>
      <trkpt lat="44.80124" lon="6.75086">
        <ele>2337.1</ele>
        <time>2022-09-04T15:16:40Z</time>
      </trkpt>
      <trkpt lat="44.80123" lon="6.75087">
        <ele>2337.1</ele>
        <time>2022-09-04T15:16:41Z</time>
      </trkpt>
      <trkpt lat="44.80122" lon="6.75088">
        <ele>2336.62</ele>
        <time>2022-09-04T15:16:42Z</time>
      </trkpt>
      <trkpt lat="44.80121" lon="6.75089">
        <ele>2335.66</ele>
        <time>2022-09-04T15:16:43Z</time>
      </trkpt>
      <trkpt lat="44.8012" lon="6.7509">
        <ele>2335.66</ele>
        <time>2022-09-04T15:16:44Z</time>
      </trkpt>
      <trkpt lat="44.80119" lon="6.75091">
        <ele>2335.66</ele>
        <time>2022-09-04T15:16:45Z</time>
      </trkpt>
      <trkpt lat="44.80119" lon="6.75092">
        <ele>2335.66</ele>
        <time>2022-09-04T15:16:46Z</time>
      </trkpt>
      <trkpt lat="44.80118" lon="6.75093">
        <ele>2335.66</ele>
        <time>2022-09-04T15:16:47Z</time>
      </trkpt>
      <trkpt lat="44.80118" lon="6.75095">
        <ele>2335.66</ele>
        <time>2022-09-04T15:16:48Z</time>
      </trkpt>
      <trkpt lat="44.80118" lon="6.75096">
        <ele>2335.66</ele>
        <time>2022-09-04T15:16:49Z</time>
      </trkpt>
      <trkpt lat="44.80117" lon="6.75098">
        <ele>2335.66</ele>
        <time>2022-09-04T15:16:50Z</time>
      </trkpt>
      <trkpt lat="44.80115" lon="6.75103">
        <ele>2335.66</ele>
        <time>2022-09-04T15:16:54Z</time>
      </trkpt>
      <trkpt lat="44.80114" lon="6.75107">
        <ele>2335.66</ele>
        <time>2022-09-04T15:16:56Z</time>
      </trkpt>
      <trkpt lat="44.80113" lon="6.75108">
        <ele>2335.66</ele>
        <time>2022-09-04T15:16:57Z</time>
      </trkpt>
      <trkpt lat="44.80111" lon="6.75109">
        <ele>2335.66</ele>
        <time>2022-09-04T15:16:58Z</time>
      </trkpt>
      <trkpt lat="44.80104" lon="6.75109">
        <ele>2335.66</ele>
        <time>2022-09-04T15:17:04Z</time>
      </trkpt>
      <trkpt lat="44.80103" lon="6.75108">
        <ele>2335.66</ele>
        <time>2022-09-04T15:17:05Z</time>
      </trkpt>
      <trkpt lat="44.80102" lon="6.75108">
        <ele>2335.66</ele>
        <time>2022-09-04T15:17:06Z</time>
      </trkpt>
      <trkpt lat="44.801" lon="6.75103">
        <ele>2335.18</ele>
        <time>2022-09-04T15:17:15Z</time>
      </trkpt>
      <trkpt lat="44.801" lon="6.75104">
        <ele>2335.18</ele>
        <time>2022-09-04T15:17:19Z</time>
      </trkpt>
      <trkpt lat="44.80093" lon="6.75122">
        <ele>2334.22</ele>
        <time>2022-09-04T15:17:32Z</time>
      </trkpt>
      <trkpt lat="44.80088" lon="6.75132">
        <ele>2333.74</ele>
        <time>2022-09-04T15:17:38Z</time>
      </trkpt>
      <trkpt lat="44.80082" lon="6.75137">
        <ele>2332.3</ele>
        <time>2022-09-04T15:17:45Z</time>
      </trkpt>
      <trkpt lat="44.80078" lon="6.75138">
        <ele>2331.33</ele>
        <time>2022-09-04T15:17:49Z</time>
      </trkpt>
      <trkpt lat="44.8007" lon="6.75142">
        <ele>2333.26</ele>
        <time>2022-09-04T15:17:58Z</time>
      </trkpt>
      <trkpt lat="44.80067" lon="6.75146">
        <ele>2330.85</ele>
        <time>2022-09-04T15:18:02Z</time>
      </trkpt>
      <trkpt lat="44.80065" lon="6.7515">
        <ele>2328.93</ele>
        <time>2022-09-04T15:18:07Z</time>
      </trkpt>
      <trkpt lat="44.80063" lon="6.75154">
        <ele>2327.49</ele>
        <time>2022-09-04T15:18:11Z</time>
      </trkpt>
      <trkpt lat="44.8006" lon="6.75157">
        <ele>2324.61</ele>
        <time>2022-09-04T15:18:16Z</time>
      </trkpt>
      <trkpt lat="44.80056" lon="6.75165">
        <ele>2322.68</ele>
        <time>2022-09-04T15:18:23Z</time>
      </trkpt>
      <trkpt lat="44.80054" lon="6.75173">
        <ele>2320.28</ele>
        <time>2022-09-04T15:18:29Z</time>
      </trkpt>
      <trkpt lat="44.80052" lon="6.75174">
        <ele>2319.8</ele>
        <time>2022-09-04T15:18:31Z</time>
      </trkpt>
      <trkpt lat="44.8005" lon="6.75178">
        <ele>2317.88</ele>
        <time>2022-09-04T15:18:35Z</time>
      </trkpt>
      <trkpt lat="44.80036" lon="6.75197">
        <ele>2315.95</ele>
        <time>2022-09-04T15:18:46Z</time>
      </trkpt>
      <trkpt lat="44.80033" lon="6.75205">
        <ele>2315.47</ele>
        <time>2022-09-04T15:18:50Z</time>
      </trkpt>
      <trkpt lat="44.80032" lon="6.75207">
        <ele>2314.99</ele>
        <time>2022-09-04T15:18:51Z</time>
      </trkpt>
      <trkpt lat="44.80031" lon="6.75208">
        <ele>2314.51</ele>
        <time>2022-09-04T15:18:52Z</time>
      </trkpt>
      <trkpt lat="44.8003" lon="6.7521">
        <ele>2314.51</ele>
        <time>2022-09-04T15:18:53Z</time>
      </trkpt>
      <trkpt lat="44.80029" lon="6.75211">
        <ele>2314.51</ele>
        <time>2022-09-04T15:18:54Z</time>
      </trkpt>
      <trkpt lat="44.8002" lon="6.75222">
        <ele>2311.63</ele>
        <time>2022-09-04T15:19:04Z</time>
      </trkpt>
      <trkpt lat="44.8001" lon="6.75244">
        <ele>2309.7</ele>
        <time>2022-09-04T15:19:20Z</time>
      </trkpt>
      <trkpt lat="44.79994" lon="6.75261">
        <ele>2308.26</ele>
        <time>2022-09-04T15:19:34Z</time>
      </trkpt>
      <trkpt lat="44.79992" lon="6.75264">
        <ele>2307.78</ele>
        <time>2022-09-04T15:19:48Z</time>
      </trkpt>
      <trkpt lat="44.79981" lon="6.75273">
        <ele>2307.3</ele>
        <time>2022-09-04T15:19:59Z</time>
      </trkpt>
      <trkpt lat="44.79978" lon="6.75278">
        <ele>2307.3</ele>
        <time>2022-09-04T15:20:04Z</time>
      </trkpt>
      <trkpt lat="44.79975" lon="6.75281">
        <ele>2307.3</ele>
        <time>2022-09-04T15:20:06Z</time>
      </trkpt>
      <trkpt lat="44.79974" lon="6.75282">
        <ele>2307.3</ele>
        <time>2022-09-04T15:20:07Z</time>
      </trkpt>
      <trkpt lat="44.79973" lon="6.75284">
        <ele>2308.26</ele>
        <time>2022-09-04T15:20:08Z</time>
      </trkpt>
      <trkpt lat="44.79972" lon="6.75286">
        <ele>2308.26</ele>
        <time>2022-09-04T15:20:09Z</time>
      </trkpt>
      <trkpt lat="44.79971" lon="6.75288">
        <ele>2308.74</ele>
        <time>2022-09-04T15:20:10Z</time>
      </trkpt>
      <trkpt lat="44.79964" lon="6.75302">
        <ele>2307.3</ele>
        <time>2022-09-04T15:20:20Z</time>
      </trkpt>
      <trkpt lat="44.79955" lon="6.75326">
        <ele>2307.3</ele>
        <time>2022-09-04T15:20:34Z</time>
      </trkpt>
      <trkpt lat="44.79943" lon="6.75335">
        <ele>2307.3</ele>
        <time>2022-09-04T15:20:46Z</time>
      </trkpt>
      <trkpt lat="44.79938" lon="6.75338">
        <ele>2309.22</ele>
        <time>2022-09-04T15:20:50Z</time>
      </trkpt>
      <trkpt lat="44.79921" lon="6.75349">
        <ele>2311.15</ele>
        <time>2022-09-04T15:21:06Z</time>
      </trkpt>
      <trkpt lat="44.7992" lon="6.7535">
        <ele>2311.63</ele>
        <time>2022-09-04T15:21:07Z</time>
      </trkpt>
      <trkpt lat="44.79909" lon="6.7536">
        <ele>2311.63</ele>
        <time>2022-09-04T15:21:18Z</time>
      </trkpt>
      <trkpt lat="44.79903" lon="6.75364">
        <ele>2312.11</ele>
        <time>2022-09-04T15:21:25Z</time>
      </trkpt>
      <trkpt lat="44.79901" lon="6.75365">
        <ele>2312.11</ele>
        <time>2022-09-04T15:21:26Z</time>
      </trkpt>
      <trkpt lat="44.799" lon="6.75366">
        <ele>2312.11</ele>
        <time>2022-09-04T15:21:27Z</time>
      </trkpt>
      <trkpt lat="44.79894" lon="6.7537">
        <ele>2312.11</ele>
        <time>2022-09-04T15:21:32Z</time>
      </trkpt>
      <trkpt lat="44.79894" lon="6.75372">
        <ele>2312.11</ele>
        <time>2022-09-04T15:21:33Z</time>
      </trkpt>
      <trkpt lat="44.79893" lon="6.75373">
        <ele>2312.59</ele>
        <time>2022-09-04T15:21:34Z</time>
      </trkpt>
      <trkpt lat="44.79886" lon="6.75388">
        <ele>2313.55</ele>
        <time>2022-09-04T15:21:45Z</time>
      </trkpt>
      <trkpt lat="44.79885" lon="6.75391">
        <ele>2314.03</ele>
        <time>2022-09-04T15:21:47Z</time>
      </trkpt>
      <trkpt lat="44.79884" lon="6.75392">
        <ele>2314.03</ele>
        <time>2022-09-04T15:21:48Z</time>
      </trkpt>
      <trkpt lat="44.79884" lon="6.75394">
        <ele>2314.03</ele>
        <time>2022-09-04T15:21:49Z</time>
      </trkpt>
      <trkpt lat="44.79883" lon="6.75397">
        <ele>2314.03</ele>
        <time>2022-09-04T15:21:51Z</time>
      </trkpt>
      <trkpt lat="44.79882" lon="6.75398">
        <ele>2314.51</ele>
        <time>2022-09-04T15:21:52Z</time>
      </trkpt>
      <trkpt lat="44.79874" lon="6.75414">
        <ele>2315.95</ele>
        <time>2022-09-04T15:22:05Z</time>
      </trkpt>
      <trkpt lat="44.79868" lon="6.75425">
        <ele>2316.43</ele>
        <time>2022-09-04T15:22:16Z</time>
      </trkpt>
      <trkpt lat="44.79867" lon="6.75426">
        <ele>2315.47</ele>
        <time>2022-09-04T15:22:17Z</time>
      </trkpt>
      <trkpt lat="44.79866" lon="6.75428">
        <ele>2315.47</ele>
        <time>2022-09-04T15:22:18Z</time>
      </trkpt>
      <trkpt lat="44.79857" lon="6.7545">
        <ele>2315.47</ele>
        <time>2022-09-04T15:22:31Z</time>
      </trkpt>
      <trkpt lat="44.79856" lon="6.75453">
        <ele>2316.43</ele>
        <time>2022-09-04T15:22:33Z</time>
      </trkpt>
      <trkpt lat="44.79855" lon="6.75454">
        <ele>2316.43</ele>
        <time>2022-09-04T15:22:34Z</time>
      </trkpt>
      <trkpt lat="44.79855" lon="6.75456">
        <ele>2316.43</ele>
        <time>2022-09-04T15:22:35Z</time>
      </trkpt>
      <trkpt lat="44.79854" lon="6.75457">
        <ele>2316.43</ele>
        <time>2022-09-04T15:22:36Z</time>
      </trkpt>
      <trkpt lat="44.79852" lon="6.75459">
        <ele>2316.43</ele>
        <time>2022-09-04T15:22:37Z</time>
      </trkpt>
      <trkpt lat="44.79851" lon="6.7546">
        <ele>2314.99</ele>
        <time>2022-09-04T15:22:38Z</time>
      </trkpt>
      <trkpt lat="44.7985" lon="6.75461">
        <ele>2314.99</ele>
        <time>2022-09-04T15:22:39Z</time>
      </trkpt>
      <trkpt lat="44.79848" lon="6.75462">
        <ele>2314.99</ele>
        <time>2022-09-04T15:22:40Z</time>
      </trkpt>
      <trkpt lat="44.79847" lon="6.75463">
        <ele>2314.99</ele>
        <time>2022-09-04T15:22:41Z</time>
      </trkpt>
      <trkpt lat="44.79844" lon="6.75469">
        <ele>2314.03</ele>
        <time>2022-09-04T15:22:47Z</time>
      </trkpt>
      <trkpt lat="44.79843" lon="6.75471">
        <ele>2314.03</ele>
        <time>2022-09-04T15:22:49Z</time>
      </trkpt>
      <trkpt lat="44.79842" lon="6.75472">
        <ele>2314.03</ele>
        <time>2022-09-04T15:22:50Z</time>
      </trkpt>
      <trkpt lat="44.79841" lon="6.75473">
        <ele>2313.55</ele>
        <time>2022-09-04T15:22:51Z</time>
      </trkpt>
      <trkpt lat="44.79834" lon="6.7549">
        <ele>2310.19</ele>
        <time>2022-09-04T15:23:02Z</time>
      </trkpt>
      <trkpt lat="44.79823" lon="6.75498">
        <ele>2307.78</ele>
        <time>2022-09-04T15:23:13Z</time>
      </trkpt>
      <trkpt lat="44.79823" lon="6.75492">
        <ele>2307.78</ele>
        <time>2022-09-04T15:23:25Z</time>
      </trkpt>
      <trkpt lat="44.79823" lon="6.75488">
        <ele>2307.3</ele>
        <time>2022-09-04T15:23:35Z</time>
      </trkpt>
      <trkpt lat="44.79824" lon="6.75475">
        <ele>2305.86</ele>
        <time>2022-09-04T15:23:41Z</time>
      </trkpt>
      <trkpt lat="44.79823" lon="6.75469">
        <ele>2307.3</ele>
        <time>2022-09-04T15:23:44Z</time>
      </trkpt>
      <trkpt lat="44.79823" lon="6.75454">
        <ele>2305.86</ele>
        <time>2022-09-04T15:23:52Z</time>
      </trkpt>
      <trkpt lat="44.79824" lon="6.75417">
        <ele>2303.46</ele>
        <time>2022-09-04T15:24:13Z</time>
      </trkpt>
      <trkpt lat="44.79824" lon="6.75413">
        <ele>2303.46</ele>
        <time>2022-09-04T15:24:16Z</time>
      </trkpt>
      <trkpt lat="44.79824" lon="6.75412">
        <ele>2303.46</ele>
        <time>2022-09-04T15:24:17Z</time>
      </trkpt>
      <trkpt lat="44.79825" lon="6.7539">
        <ele>2300.57</ele>
        <time>2022-09-04T15:24:35Z</time>
      </trkpt>
      <trkpt lat="44.79824" lon="6.75364">
        <ele>2299.13</ele>
        <time>2022-09-04T15:24:50Z</time>
      </trkpt>
      <trkpt lat="44.79825" lon="6.75362">
        <ele>2299.13</ele>
        <time>2022-09-04T15:24:51Z</time>
      </trkpt>
      <trkpt lat="44.79826" lon="6.7536">
        <ele>2298.65</ele>
        <time>2022-09-04T15:24:52Z</time>
      </trkpt>
      <trkpt lat="44.79826" lon="6.75359">
        <ele>2298.65</ele>
        <time>2022-09-04T15:24:53Z</time>
      </trkpt>
      <trkpt lat="44.79826" lon="6.75357">
        <ele>2298.65</ele>
        <time>2022-09-04T15:24:54Z</time>
      </trkpt>
      <trkpt lat="44.79818" lon="6.75341">
        <ele>2296.73</ele>
        <time>2022-09-04T15:25:05Z</time>
      </trkpt>
      <trkpt lat="44.79818" lon="6.75339">
        <ele>2296.73</ele>
        <time>2022-09-04T15:25:06Z</time>
      </trkpt>
      <trkpt lat="44.79818" lon="6.75337">
        <ele>2296.73</ele>
        <time>2022-09-04T15:25:07Z</time>
      </trkpt>
      <trkpt lat="44.79808" lon="6.75328">
        <ele>2293.36</ele>
        <time>2022-09-04T15:25:19Z</time>
      </trkpt>
      <trkpt lat="44.79793" lon="6.75338">
        <ele>2290</ele>
        <time>2022-09-04T15:25:33Z</time>
      </trkpt>
      <trkpt lat="44.79792" lon="6.75339">
        <ele>2290</ele>
        <time>2022-09-04T15:25:34Z</time>
      </trkpt>
      <trkpt lat="44.79792" lon="6.7534">
        <ele>2290</ele>
        <time>2022-09-04T15:25:35Z</time>
      </trkpt>
      <trkpt lat="44.79791" lon="6.75341">
        <ele>2289.52</ele>
        <time>2022-09-04T15:25:36Z</time>
      </trkpt>
      <trkpt lat="44.7979" lon="6.75342">
        <ele>2289.52</ele>
        <time>2022-09-04T15:25:37Z</time>
      </trkpt>
      <trkpt lat="44.79783" lon="6.75349">
        <ele>2286.15</ele>
        <time>2022-09-04T15:25:46Z</time>
      </trkpt>
      <trkpt lat="44.79775" lon="6.75355">
        <ele>2283.75</ele>
        <time>2022-09-04T15:25:54Z</time>
      </trkpt>
      <trkpt lat="44.7977" lon="6.75358">
        <ele>2281.35</ele>
        <time>2022-09-04T15:26:01Z</time>
      </trkpt>
      <trkpt lat="44.7976" lon="6.7537">
        <ele>2278.46</ele>
        <time>2022-09-04T15:26:13Z</time>
      </trkpt>
      <trkpt lat="44.79759" lon="6.75371">
        <ele>2278.46</ele>
        <time>2022-09-04T15:26:14Z</time>
      </trkpt>
      <trkpt lat="44.7975" lon="6.75377">
        <ele>2275.1</ele>
        <time>2022-09-04T15:26:22Z</time>
      </trkpt>
      <trkpt lat="44.79733" lon="6.75383">
        <ele>2271.73</ele>
        <time>2022-09-04T15:26:34Z</time>
      </trkpt>
      <trkpt lat="44.79717" lon="6.75379">
        <ele>2268.37</ele>
        <time>2022-09-04T15:26:47Z</time>
      </trkpt>
      <trkpt lat="44.7971" lon="6.75379">
        <ele>2265.48</ele>
        <time>2022-09-04T15:26:55Z</time>
      </trkpt>
      <trkpt lat="44.79709" lon="6.75379">
        <ele>2265.48</ele>
        <time>2022-09-04T15:26:56Z</time>
      </trkpt>
      <trkpt lat="44.79708" lon="6.7538">
        <ele>2264.52</ele>
        <time>2022-09-04T15:26:57Z</time>
      </trkpt>
      <trkpt lat="44.797" lon="6.75385">
        <ele>2261.64</ele>
        <time>2022-09-04T15:27:07Z</time>
      </trkpt>
      <trkpt lat="44.79689" lon="6.75387">
        <ele>2257.79</ele>
        <time>2022-09-04T15:27:16Z</time>
      </trkpt>
      <trkpt lat="44.79676" lon="6.75387">
        <ele>2254.43</ele>
        <time>2022-09-04T15:27:29Z</time>
      </trkpt>
      <trkpt lat="44.79675" lon="6.75386">
        <ele>2254.43</ele>
        <time>2022-09-04T15:27:30Z</time>
      </trkpt>
      <trkpt lat="44.79674" lon="6.75386">
        <ele>2253.95</ele>
        <time>2022-09-04T15:27:31Z</time>
      </trkpt>
      <trkpt lat="44.79667" lon="6.75383">
        <ele>2252.03</ele>
        <time>2022-09-04T15:27:38Z</time>
      </trkpt>
      <trkpt lat="44.79665" lon="6.75381">
        <ele>2251.06</ele>
        <time>2022-09-04T15:27:40Z</time>
      </trkpt>
      <trkpt lat="44.79664" lon="6.75381">
        <ele>2251.06</ele>
        <time>2022-09-04T15:27:41Z</time>
      </trkpt>
      <trkpt lat="44.79663" lon="6.7538">
        <ele>2250.1</ele>
        <time>2022-09-04T15:27:42Z</time>
      </trkpt>
      <trkpt lat="44.79657" lon="6.75379">
        <ele>2248.66</ele>
        <time>2022-09-04T15:27:47Z</time>
      </trkpt>
      <trkpt lat="44.79655" lon="6.75378">
        <ele>2247.7</ele>
        <time>2022-09-04T15:27:48Z</time>
      </trkpt>
      <trkpt lat="44.79654" lon="6.75377">
        <ele>2247.22</ele>
        <time>2022-09-04T15:27:49Z</time>
      </trkpt>
      <trkpt lat="44.79644" lon="6.75371">
        <ele>2243.85</ele>
        <time>2022-09-04T15:27:59Z</time>
      </trkpt>
      <trkpt lat="44.79644" lon="6.75364">
        <ele>2244.33</ele>
        <time>2022-09-04T15:28:08Z</time>
      </trkpt>
      <trkpt lat="44.79639" lon="6.75354">
        <ele>2240.49</ele>
        <time>2022-09-04T15:28:16Z</time>
      </trkpt>
      <trkpt lat="44.79636" lon="6.75344">
        <ele>2238.09</ele>
        <time>2022-09-04T15:28:23Z</time>
      </trkpt>
      <trkpt lat="44.79638" lon="6.75333">
        <ele>2235.2</ele>
        <time>2022-09-04T15:28:29Z</time>
      </trkpt>
      <trkpt lat="44.79638" lon="6.75331">
        <ele>2235.2</ele>
        <time>2022-09-04T15:28:30Z</time>
      </trkpt>
      <trkpt lat="44.79638" lon="6.75316">
        <ele>2232.32</ele>
        <time>2022-09-04T15:28:39Z</time>
      </trkpt>
      <trkpt lat="44.79638" lon="6.75299">
        <ele>2227.99</ele>
        <time>2022-09-04T15:28:48Z</time>
      </trkpt>
      <trkpt lat="44.79638" lon="6.75285">
        <ele>2226.55</ele>
        <time>2022-09-04T15:29:01Z</time>
      </trkpt>
      <trkpt lat="44.79636" lon="6.75285">
        <ele>2226.55</ele>
        <time>2022-09-04T15:29:14Z</time>
      </trkpt>
      <trkpt lat="44.79636" lon="6.75288">
        <ele>2226.55</ele>
        <time>2022-09-04T15:29:26Z</time>
      </trkpt>
      <trkpt lat="44.79638" lon="6.7529">
        <ele>2226.55</ele>
        <time>2022-09-04T15:29:46Z</time>
      </trkpt>
      <trkpt lat="44.79639" lon="6.75288">
        <ele>2226.07</ele>
        <time>2022-09-04T15:30:05Z</time>
      </trkpt>
      <trkpt lat="44.79637" lon="6.75284">
        <ele>2226.07</ele>
        <time>2022-09-04T15:30:25Z</time>
      </trkpt>
      <trkpt lat="44.79636" lon="6.75282">
        <ele>2226.07</ele>
        <time>2022-09-04T15:30:47Z</time>
      </trkpt>
      <trkpt lat="44.79637" lon="6.75284">
        <ele>2226.07</ele>
        <time>2022-09-04T15:31:22Z</time>
      </trkpt>
      <trkpt lat="44.79636" lon="6.75285">
        <ele>2226.07</ele>
        <time>2022-09-04T15:31:47Z</time>
      </trkpt>
      <trkpt lat="44.79635" lon="6.75287">
        <ele>2225.59</ele>
        <time>2022-09-04T15:32:10Z</time>
      </trkpt>
      <trkpt lat="44.79635" lon="6.75289">
        <ele>2225.59</ele>
        <time>2022-09-04T15:32:39Z</time>
      </trkpt>
      <trkpt lat="44.79633" lon="6.75289">
        <ele>2225.59</ele>
        <time>2022-09-04T15:33:06Z</time>
      </trkpt>
      <trkpt lat="44.79635" lon="6.75287">
        <ele>2225.11</ele>
        <time>2022-09-04T15:33:20Z</time>
      </trkpt>
      <trkpt lat="44.79635" lon="6.75288">
        <ele>2225.11</ele>
        <time>2022-09-04T15:33:36Z</time>
      </trkpt>
      <trkpt lat="44.79636" lon="6.75289">
        <ele>2224.63</ele>
        <time>2022-09-04T15:33:52Z</time>
      </trkpt>
      <trkpt lat="44.79634" lon="6.75285">
        <ele>2224.63</ele>
        <time>2022-09-04T15:34:15Z</time>
      </trkpt>
      <trkpt lat="44.79622" lon="6.7527">
        <ele>2223.67</ele>
        <time>2022-09-04T15:34:28Z</time>
      </trkpt>
      <trkpt lat="44.79605" lon="6.75259">
        <ele>2219.82</ele>
        <time>2022-09-04T15:34:40Z</time>
      </trkpt>
      <trkpt lat="44.79591" lon="6.75255">
        <ele>2217.9</ele>
        <time>2022-09-04T15:34:54Z</time>
      </trkpt>
      <trkpt lat="44.79588" lon="6.75255">
        <ele>2217.9</ele>
        <time>2022-09-04T15:35:01Z</time>
      </trkpt>
      <trkpt lat="44.79573" lon="6.7525">
        <ele>2215.01</ele>
        <time>2022-09-04T15:35:13Z</time>
      </trkpt>
      <trkpt lat="44.79569" lon="6.75252">
        <ele>2214.05</ele>
        <time>2022-09-04T15:35:27Z</time>
      </trkpt>
      <trkpt lat="44.79567" lon="6.7525">
        <ele>2213.57</ele>
        <time>2022-09-04T15:35:54Z</time>
      </trkpt>
      <trkpt lat="44.7956" lon="6.75249">
        <ele>2212.13</ele>
        <time>2022-09-04T15:36:09Z</time>
      </trkpt>
      <trkpt lat="44.79552" lon="6.75255">
        <ele>2208.77</ele>
        <time>2022-09-04T15:36:20Z</time>
      </trkpt>
      <trkpt lat="44.79546" lon="6.75264">
        <ele>2205.88</ele>
        <time>2022-09-04T15:36:25Z</time>
      </trkpt>
      <trkpt lat="44.79543" lon="6.7527">
        <ele>2203.96</ele>
        <time>2022-09-04T15:36:29Z</time>
      </trkpt>
      <trkpt lat="44.7954" lon="6.75274">
        <ele>2203.96</ele>
        <time>2022-09-04T15:36:31Z</time>
      </trkpt>
      <trkpt lat="44.79534" lon="6.75266">
        <ele>2201.56</ele>
        <time>2022-09-04T15:36:38Z</time>
      </trkpt>
      <trkpt lat="44.79531" lon="6.7526">
        <ele>2200.11</ele>
        <time>2022-09-04T15:36:42Z</time>
      </trkpt>
      <trkpt lat="44.7953" lon="6.75251">
        <ele>2199.15</ele>
        <time>2022-09-04T15:36:46Z</time>
      </trkpt>
      <trkpt lat="44.7952" lon="6.7523">
        <ele>2194.83</ele>
        <time>2022-09-04T15:37:01Z</time>
      </trkpt>
      <trkpt lat="44.79509" lon="6.75217">
        <ele>2191.94</ele>
        <time>2022-09-04T15:37:10Z</time>
      </trkpt>
      <trkpt lat="44.79496" lon="6.75203">
        <ele>2188.1</ele>
        <time>2022-09-04T15:37:21Z</time>
      </trkpt>
      <trkpt lat="44.79494" lon="6.75201">
        <ele>2187.62</ele>
        <time>2022-09-04T15:37:23Z</time>
      </trkpt>
      <trkpt lat="44.79485" lon="6.75195">
        <ele>2184.25</ele>
        <time>2022-09-04T15:37:34Z</time>
      </trkpt>
      <trkpt lat="44.79481" lon="6.75193">
        <ele>2182.33</ele>
        <time>2022-09-04T15:37:38Z</time>
      </trkpt>
      <trkpt lat="44.7948" lon="6.75191">
        <ele>2180.89</ele>
        <time>2022-09-04T15:37:40Z</time>
      </trkpt>
      <trkpt lat="44.79477" lon="6.75183">
        <ele>2179.45</ele>
        <time>2022-09-04T15:37:45Z</time>
      </trkpt>
      <trkpt lat="44.79473" lon="6.75168">
        <ele>2177.04</ele>
        <time>2022-09-04T15:37:57Z</time>
      </trkpt>
      <trkpt lat="44.79465" lon="6.75156">
        <ele>2173.68</ele>
        <time>2022-09-04T15:38:06Z</time>
      </trkpt>
      <trkpt lat="44.79462" lon="6.75154">
        <ele>2172.24</ele>
        <time>2022-09-04T15:38:08Z</time>
      </trkpt>
      <trkpt lat="44.79453" lon="6.75139">
        <ele>2170.31</ele>
        <time>2022-09-04T15:38:15Z</time>
      </trkpt>
      <trkpt lat="44.79447" lon="6.75133">
        <ele>2168.87</ele>
        <time>2022-09-04T15:38:19Z</time>
      </trkpt>
      <trkpt lat="44.79437" lon="6.75123">
        <ele>2166.95</ele>
        <time>2022-09-04T15:38:27Z</time>
      </trkpt>
      <trkpt lat="44.79433" lon="6.75121">
        <ele>2165.51</ele>
        <time>2022-09-04T15:38:31Z</time>
      </trkpt>
      <trkpt lat="44.79421" lon="6.75112">
        <ele>2161.66</ele>
        <time>2022-09-04T15:38:45Z</time>
      </trkpt>
      <trkpt lat="44.79416" lon="6.75108">
        <ele>2160.22</ele>
        <time>2022-09-04T15:38:49Z</time>
      </trkpt>
      <trkpt lat="44.79409" lon="6.75098">
        <ele>2156.86</ele>
        <time>2022-09-04T15:38:56Z</time>
      </trkpt>
      <trkpt lat="44.79408" lon="6.75096">
        <ele>2156.86</ele>
        <time>2022-09-04T15:38:57Z</time>
      </trkpt>
      <trkpt lat="44.79398" lon="6.75086">
        <ele>2153.97</ele>
        <time>2022-09-04T15:39:03Z</time>
      </trkpt>
      <trkpt lat="44.79396" lon="6.75085">
        <ele>2154.45</ele>
        <time>2022-09-04T15:39:04Z</time>
      </trkpt>
      <trkpt lat="44.79386" lon="6.75076">
        <ele>2151.09</ele>
        <time>2022-09-04T15:39:10Z</time>
      </trkpt>
      <trkpt lat="44.79385" lon="6.75076">
        <ele>2151.09</ele>
        <time>2022-09-04T15:39:11Z</time>
      </trkpt>
      <trkpt lat="44.79367" lon="6.75067">
        <ele>2148.2</ele>
        <time>2022-09-04T15:39:25Z</time>
      </trkpt>
      <trkpt lat="44.79352" lon="6.75056">
        <ele>2144.84</ele>
        <time>2022-09-04T15:39:34Z</time>
      </trkpt>
      <trkpt lat="44.79351" lon="6.75055">
        <ele>2144.36</ele>
        <time>2022-09-04T15:39:35Z</time>
      </trkpt>
      <trkpt lat="44.79347" lon="6.7505">
        <ele>2142.92</ele>
        <time>2022-09-04T15:39:38Z</time>
      </trkpt>
      <trkpt lat="44.79337" lon="6.75041">
        <ele>2140.51</ele>
        <time>2022-09-04T15:39:49Z</time>
      </trkpt>
      <trkpt lat="44.79339" lon="6.75034">
        <ele>2139.07</ele>
        <time>2022-09-04T15:39:53Z</time>
      </trkpt>
      <trkpt lat="44.79336" lon="6.75013">
        <ele>2135.23</ele>
        <time>2022-09-04T15:40:05Z</time>
      </trkpt>
      <trkpt lat="44.79336" lon="6.75008">
        <ele>2133.78</ele>
        <time>2022-09-04T15:40:08Z</time>
      </trkpt>
      <trkpt lat="44.79339" lon="6.74998">
        <ele>2130.9</ele>
        <time>2022-09-04T15:40:19Z</time>
      </trkpt>
      <trkpt lat="44.79343" lon="6.74985">
        <ele>2127.53</ele>
        <time>2022-09-04T15:40:32Z</time>
      </trkpt>
      <trkpt lat="44.79342" lon="6.74974">
        <ele>2124.65</ele>
        <time>2022-09-04T15:40:41Z</time>
      </trkpt>
      <trkpt lat="44.79342" lon="6.74973">
        <ele>2124.65</ele>
        <time>2022-09-04T15:40:42Z</time>
      </trkpt>
      <trkpt lat="44.79342" lon="6.74963">
        <ele>2123.21</ele>
        <time>2022-09-04T15:40:48Z</time>
      </trkpt>
      <trkpt lat="44.79333" lon="6.74935">
        <ele>2119.36</ele>
        <time>2022-09-04T15:41:00Z</time>
      </trkpt>
      <trkpt lat="44.79324" lon="6.74907">
        <ele>2117.44</ele>
        <time>2022-09-04T15:41:13Z</time>
      </trkpt>
      <trkpt lat="44.79321" lon="6.749">
        <ele>2116.48</ele>
        <time>2022-09-04T15:41:18Z</time>
      </trkpt>
      <trkpt lat="44.79319" lon="6.74893">
        <ele>2115.04</ele>
        <time>2022-09-04T15:41:21Z</time>
      </trkpt>
      <trkpt lat="44.79319" lon="6.74891">
        <ele>2115.04</ele>
        <time>2022-09-04T15:41:22Z</time>
      </trkpt>
      <trkpt lat="44.79319" lon="6.74881">
        <ele>2113.6</ele>
        <time>2022-09-04T15:41:26Z</time>
      </trkpt>
      <trkpt lat="44.79318" lon="6.74876">
        <ele>2113.6</ele>
        <time>2022-09-04T15:41:28Z</time>
      </trkpt>
      <trkpt lat="44.79312" lon="6.74867">
        <ele>2111.19</ele>
        <time>2022-09-04T15:41:34Z</time>
      </trkpt>
      <trkpt lat="44.79309" lon="6.74862">
        <ele>2110.71</ele>
        <time>2022-09-04T15:41:40Z</time>
      </trkpt>
      <trkpt lat="44.79296" lon="6.74847">
        <ele>2107.83</ele>
        <time>2022-09-04T15:41:58Z</time>
      </trkpt>
      <trkpt lat="44.79292" lon="6.74838">
        <ele>2106.87</ele>
        <time>2022-09-04T15:42:05Z</time>
      </trkpt>
      <trkpt lat="44.79285" lon="6.74826">
        <ele>2104.46</ele>
        <time>2022-09-04T15:42:16Z</time>
      </trkpt>
      <trkpt lat="44.79277" lon="6.74818">
        <ele>2102.06</ele>
        <time>2022-09-04T15:42:33Z</time>
      </trkpt>
      <trkpt lat="44.79272" lon="6.74808">
        <ele>2098.7</ele>
        <time>2022-09-04T15:42:42Z</time>
      </trkpt>
      <trkpt lat="44.79262" lon="6.74798">
        <ele>2096.29</ele>
        <time>2022-09-04T15:42:53Z</time>
      </trkpt>
      <trkpt lat="44.79246" lon="6.74783">
        <ele>2093.41</ele>
        <time>2022-09-04T15:43:07Z</time>
      </trkpt>
      <trkpt lat="44.79244" lon="6.7478">
        <ele>2091.97</ele>
        <time>2022-09-04T15:43:10Z</time>
      </trkpt>
      <trkpt lat="44.7924" lon="6.74762">
        <ele>2089.08</ele>
        <time>2022-09-04T15:43:23Z</time>
      </trkpt>
      <trkpt lat="44.79235" lon="6.74756">
        <ele>2088.12</ele>
        <time>2022-09-04T15:43:26Z</time>
      </trkpt>
      <trkpt lat="44.79224" lon="6.74749">
        <ele>2086.2</ele>
        <time>2022-09-04T15:43:37Z</time>
      </trkpt>
      <trkpt lat="44.79204" lon="6.74741">
        <ele>2082.83</ele>
        <time>2022-09-04T15:43:53Z</time>
      </trkpt>
      <trkpt lat="44.79188" lon="6.74738">
        <ele>2080.91</ele>
        <time>2022-09-04T15:44:06Z</time>
      </trkpt>
      <trkpt lat="44.7919" lon="6.74729">
        <ele>2078.03</ele>
        <time>2022-09-04T15:44:15Z</time>
      </trkpt>
      <trkpt lat="44.792" lon="6.74711">
        <ele>2074.66</ele>
        <time>2022-09-04T15:44:30Z</time>
      </trkpt>
      <trkpt lat="44.79201" lon="6.7471">
        <ele>2074.18</ele>
        <time>2022-09-04T15:44:31Z</time>
      </trkpt>
      <trkpt lat="44.79206" lon="6.74703">
        <ele>2073.22</ele>
        <time>2022-09-04T15:44:36Z</time>
      </trkpt>
      <trkpt lat="44.79213" lon="6.74689">
        <ele>2071.3</ele>
        <time>2022-09-04T15:44:50Z</time>
      </trkpt>
      <trkpt lat="44.79212" lon="6.74687">
        <ele>2070.82</ele>
        <time>2022-09-04T15:44:52Z</time>
      </trkpt>
      <trkpt lat="44.79194" lon="6.74684">
        <ele>2067.45</ele>
        <time>2022-09-04T15:45:08Z</time>
      </trkpt>
      <trkpt lat="44.79188" lon="6.74683">
        <ele>2066.01</ele>
        <time>2022-09-04T15:45:13Z</time>
      </trkpt>
      <trkpt lat="44.79186" lon="6.74683">
        <ele>2066.49</ele>
        <time>2022-09-04T15:45:15Z</time>
      </trkpt>
      <trkpt lat="44.79173" lon="6.74685">
        <ele>2063.13</ele>
        <time>2022-09-04T15:45:25Z</time>
      </trkpt>
      <trkpt lat="44.79163" lon="6.74685">
        <ele>2061.68</ele>
        <time>2022-09-04T15:45:33Z</time>
      </trkpt>
      <trkpt lat="44.79154" lon="6.74687">
        <ele>2057.84</ele>
        <time>2022-09-04T15:45:45Z</time>
      </trkpt>
      <trkpt lat="44.79152" lon="6.74686">
        <ele>2057.36</ele>
        <time>2022-09-04T15:45:47Z</time>
      </trkpt>
      <trkpt lat="44.7915" lon="6.74675">
        <ele>2053.51</ele>
        <time>2022-09-04T15:45:56Z</time>
      </trkpt>
      <trkpt lat="44.79152" lon="6.74663">
        <ele>2052.55</ele>
        <time>2022-09-04T15:46:02Z</time>
      </trkpt>
      <trkpt lat="44.79152" lon="6.74649">
        <ele>2049.19</ele>
        <time>2022-09-04T15:46:14Z</time>
      </trkpt>
      <trkpt lat="44.79152" lon="6.74637">
        <ele>2047.26</ele>
        <time>2022-09-04T15:46:21Z</time>
      </trkpt>
      <trkpt lat="44.79149" lon="6.74632">
        <ele>2046.3</ele>
        <time>2022-09-04T15:46:25Z</time>
      </trkpt>
      <trkpt lat="44.79147" lon="6.74625">
        <ele>2043.9</ele>
        <time>2022-09-04T15:46:31Z</time>
      </trkpt>
      <trkpt lat="44.79141" lon="6.74614">
        <ele>2041.02</ele>
        <time>2022-09-04T15:46:44Z</time>
      </trkpt>
      <trkpt lat="44.79137" lon="6.74612">
        <ele>2040.05</ele>
        <time>2022-09-04T15:46:49Z</time>
      </trkpt>
      <trkpt lat="44.79133" lon="6.74608">
        <ele>2038.61</ele>
        <time>2022-09-04T15:46:53Z</time>
      </trkpt>
      <trkpt lat="44.79132" lon="6.74605">
        <ele>2037.65</ele>
        <time>2022-09-04T15:46:55Z</time>
      </trkpt>
      <trkpt lat="44.7913" lon="6.74602">
        <ele>2036.21</ele>
        <time>2022-09-04T15:46:58Z</time>
      </trkpt>
      <trkpt lat="44.79135" lon="6.74577">
        <ele>2033.33</ele>
        <time>2022-09-04T15:47:12Z</time>
      </trkpt>
      <trkpt lat="44.79134" lon="6.74567">
        <ele>2032.36</ele>
        <time>2022-09-04T15:47:16Z</time>
      </trkpt>
      <trkpt lat="44.79128" lon="6.74564">
        <ele>2031.4</ele>
        <time>2022-09-04T15:47:21Z</time>
      </trkpt>
      <trkpt lat="44.79114" lon="6.74573">
        <ele>2028.52</ele>
        <time>2022-09-04T15:47:36Z</time>
      </trkpt>
      <trkpt lat="44.79104" lon="6.7458">
        <ele>2025.15</ele>
        <time>2022-09-04T15:47:48Z</time>
      </trkpt>
      <trkpt lat="44.79097" lon="6.74591">
        <ele>2021.79</ele>
        <time>2022-09-04T15:47:59Z</time>
      </trkpt>
      <trkpt lat="44.79096" lon="6.74592">
        <ele>2021.79</ele>
        <time>2022-09-04T15:48:00Z</time>
      </trkpt>
      <trkpt lat="44.79091" lon="6.74604">
        <ele>2018.91</ele>
        <time>2022-09-04T15:48:10Z</time>
      </trkpt>
      <trkpt lat="44.79083" lon="6.74616">
        <ele>2015.54</ele>
        <time>2022-09-04T15:48:24Z</time>
      </trkpt>
      <trkpt lat="44.7907" lon="6.74632">
        <ele>2011.7</ele>
        <time>2022-09-04T15:48:39Z</time>
      </trkpt>
      <trkpt lat="44.79063" lon="6.74639">
        <ele>2010.25</ele>
        <time>2022-09-04T15:48:46Z</time>
      </trkpt>
      <trkpt lat="44.79052" lon="6.74647">
        <ele>2007.85</ele>
        <time>2022-09-04T15:48:58Z</time>
      </trkpt>
      <trkpt lat="44.79049" lon="6.74655">
        <ele>2006.89</ele>
        <time>2022-09-04T15:49:14Z</time>
      </trkpt>
      <trkpt lat="44.79047" lon="6.7466">
        <ele>2005.93</ele>
        <time>2022-09-04T15:49:19Z</time>
      </trkpt>
      <trkpt lat="44.79044" lon="6.74665">
        <ele>2005.93</ele>
        <time>2022-09-04T15:49:23Z</time>
      </trkpt>
      <trkpt lat="44.79035" lon="6.74679">
        <ele>2004.01</ele>
        <time>2022-09-04T15:49:36Z</time>
      </trkpt>
      <trkpt lat="44.79033" lon="6.74684">
        <ele>2003.52</ele>
        <time>2022-09-04T15:49:40Z</time>
      </trkpt>
      <trkpt lat="44.79024" lon="6.7471">
        <ele>2002.08</ele>
        <time>2022-09-04T15:49:57Z</time>
      </trkpt>
      <trkpt lat="44.7902" lon="6.74726">
        <ele>1998.72</ele>
        <time>2022-09-04T15:50:10Z</time>
      </trkpt>
      <trkpt lat="44.79017" lon="6.7473">
        <ele>1998.24</ele>
        <time>2022-09-04T15:50:14Z</time>
      </trkpt>
      <trkpt lat="44.7901" lon="6.74745">
        <ele>1995.35</ele>
        <time>2022-09-04T15:50:27Z</time>
      </trkpt>
      <trkpt lat="44.79001" lon="6.7475">
        <ele>1994.39</ele>
        <time>2022-09-04T15:50:36Z</time>
      </trkpt>
      <trkpt lat="44.78995" lon="6.74751">
        <ele>1993.43</ele>
        <time>2022-09-04T15:50:41Z</time>
      </trkpt>
      <trkpt lat="44.78984" lon="6.74758">
        <ele>1990.07</ele>
        <time>2022-09-04T15:50:53Z</time>
      </trkpt>
      <trkpt lat="44.78979" lon="6.74759">
        <ele>1988.62</ele>
        <time>2022-09-04T15:50:58Z</time>
      </trkpt>
      <trkpt lat="44.7897" lon="6.74759">
        <ele>1986.22</ele>
        <time>2022-09-04T15:51:07Z</time>
      </trkpt>
      <trkpt lat="44.78965" lon="6.74754">
        <ele>1984.78</ele>
        <time>2022-09-04T15:51:12Z</time>
      </trkpt>
      <trkpt lat="44.78958" lon="6.74738">
        <ele>1981.41</ele>
        <time>2022-09-04T15:51:25Z</time>
      </trkpt>
      <trkpt lat="44.78951" lon="6.74726">
        <ele>1978.53</ele>
        <time>2022-09-04T15:51:37Z</time>
      </trkpt>
      <trkpt lat="44.78943" lon="6.74718">
        <ele>1975.17</ele>
        <time>2022-09-04T15:51:49Z</time>
      </trkpt>
      <trkpt lat="44.78936" lon="6.74709">
        <ele>1973.72</ele>
        <time>2022-09-04T15:51:59Z</time>
      </trkpt>
      <trkpt lat="44.78933" lon="6.74704">
        <ele>1972.28</ele>
        <time>2022-09-04T15:52:02Z</time>
      </trkpt>
      <trkpt lat="44.78926" lon="6.7469">
        <ele>1970.84</ele>
        <time>2022-09-04T15:52:15Z</time>
      </trkpt>
      <trkpt lat="44.78917" lon="6.74684">
        <ele>1967.48</ele>
        <time>2022-09-04T15:52:24Z</time>
      </trkpt>
      <trkpt lat="44.78907" lon="6.7468">
        <ele>1966.51</ele>
        <time>2022-09-04T15:52:36Z</time>
      </trkpt>
      <trkpt lat="44.789" lon="6.74695">
        <ele>1964.11</ele>
        <time>2022-09-04T15:52:48Z</time>
      </trkpt>
      <trkpt lat="44.7889" lon="6.74686">
        <ele>1960.75</ele>
        <time>2022-09-04T15:53:02Z</time>
      </trkpt>
      <trkpt lat="44.78889" lon="6.74684">
        <ele>1960.27</ele>
        <time>2022-09-04T15:53:03Z</time>
      </trkpt>
      <trkpt lat="44.78889" lon="6.74675">
        <ele>1958.82</ele>
        <time>2022-09-04T15:53:08Z</time>
      </trkpt>
      <trkpt lat="44.78889" lon="6.74654">
        <ele>1957.38</ele>
        <time>2022-09-04T15:53:22Z</time>
      </trkpt>
      <trkpt lat="44.78883" lon="6.74631">
        <ele>1954.98</ele>
        <time>2022-09-04T15:53:38Z</time>
      </trkpt>
      <trkpt lat="44.78873" lon="6.74616">
        <ele>1952.09</ele>
        <time>2022-09-04T15:53:52Z</time>
      </trkpt>
      <trkpt lat="44.78873" lon="6.74615">
        <ele>1951.13</ele>
        <time>2022-09-04T15:53:53Z</time>
      </trkpt>
      <trkpt lat="44.78871" lon="6.74611">
        <ele>1951.13</ele>
        <time>2022-09-04T15:53:56Z</time>
      </trkpt>
      <trkpt lat="44.78866" lon="6.74596">
        <ele>1946.81</ele>
        <time>2022-09-04T15:54:11Z</time>
      </trkpt>
      <trkpt lat="44.78859" lon="6.74586">
        <ele>1943.92</ele>
        <time>2022-09-04T15:54:22Z</time>
      </trkpt>
      <trkpt lat="44.78851" lon="6.74568">
        <ele>1940.56</ele>
        <time>2022-09-04T15:54:34Z</time>
      </trkpt>
      <trkpt lat="44.7885" lon="6.74564">
        <ele>1940.56</ele>
        <time>2022-09-04T15:54:37Z</time>
      </trkpt>
      <trkpt lat="44.78841" lon="6.74549">
        <ele>1936.71</ele>
        <time>2022-09-04T15:54:49Z</time>
      </trkpt>
      <trkpt lat="44.78838" lon="6.74539">
        <ele>1935.27</ele>
        <time>2022-09-04T15:54:55Z</time>
      </trkpt>
      <trkpt lat="44.78832" lon="6.74524">
        <ele>1931.91</ele>
        <time>2022-09-04T15:55:08Z</time>
      </trkpt>
      <trkpt lat="44.7882" lon="6.74515">
        <ele>1928.06</ele>
        <time>2022-09-04T15:55:22Z</time>
      </trkpt>
      <trkpt lat="44.78819" lon="6.74514">
        <ele>1928.06</ele>
        <time>2022-09-04T15:55:23Z</time>
      </trkpt>
      <trkpt lat="44.78808" lon="6.74509">
        <ele>1925.66</ele>
        <time>2022-09-04T15:55:34Z</time>
      </trkpt>
      <trkpt lat="44.78801" lon="6.74506">
        <ele>1924.22</ele>
        <time>2022-09-04T15:55:40Z</time>
      </trkpt>
      <trkpt lat="44.78795" lon="6.74503">
        <ele>1923.25</ele>
        <time>2022-09-04T15:55:44Z</time>
      </trkpt>
      <trkpt lat="44.78781" lon="6.74495">
        <ele>1919.89</ele>
        <time>2022-09-04T15:55:57Z</time>
      </trkpt>
      <trkpt lat="44.78776" lon="6.74493">
        <ele>1918.45</ele>
        <time>2022-09-04T15:56:02Z</time>
      </trkpt>
      <trkpt lat="44.78766" lon="6.7449">
        <ele>1915.56</ele>
        <time>2022-09-04T15:56:14Z</time>
      </trkpt>
      <trkpt lat="44.78754" lon="6.74483">
        <ele>1912.2</ele>
        <time>2022-09-04T15:56:26Z</time>
      </trkpt>
      <trkpt lat="44.78746" lon="6.74479">
        <ele>1911.24</ele>
        <time>2022-09-04T15:56:33Z</time>
      </trkpt>
      <trkpt lat="44.78741" lon="6.7447">
        <ele>1910.28</ele>
        <time>2022-09-04T15:56:40Z</time>
      </trkpt>
      <trkpt lat="44.78724" lon="6.74451">
        <ele>1907.39</ele>
        <time>2022-09-04T15:56:58Z</time>
      </trkpt>
      <trkpt lat="44.78714" lon="6.74444">
        <ele>1904.51</ele>
        <time>2022-09-04T15:57:09Z</time>
      </trkpt>
      <trkpt lat="44.78696" lon="6.74435">
        <ele>1902.59</ele>
        <time>2022-09-04T15:57:25Z</time>
      </trkpt>
      <trkpt lat="44.78683" lon="6.74431">
        <ele>1900.66</ele>
        <time>2022-09-04T15:57:39Z</time>
      </trkpt>
      <trkpt lat="44.78674" lon="6.74433">
        <ele>1899.7</ele>
        <time>2022-09-04T15:57:47Z</time>
      </trkpt>
      <trkpt lat="44.7866" lon="6.74429">
        <ele>1897.3</ele>
        <time>2022-09-04T15:58:01Z</time>
      </trkpt>
      <trkpt lat="44.78656" lon="6.74426">
        <ele>1896.82</ele>
        <time>2022-09-04T15:58:05Z</time>
      </trkpt>
      <trkpt lat="44.78642" lon="6.7442">
        <ele>1894.9</ele>
        <time>2022-09-04T15:58:17Z</time>
      </trkpt>
      <trkpt lat="44.78641" lon="6.74407">
        <ele>1893.45</ele>
        <time>2022-09-04T15:58:32Z</time>
      </trkpt>
      <trkpt lat="44.78641" lon="6.74407">
        <ele>1893.45</ele>
        <time>2022-09-04T15:58:54Z</time>
      </trkpt>
      <trkpt lat="44.7864" lon="6.74405">
        <ele>1892.97</ele>
        <time>2022-09-04T15:59:15Z</time>
      </trkpt>
      <trkpt lat="44.78642" lon="6.74405">
        <ele>1892.97</ele>
        <time>2022-09-04T15:59:34Z</time>
      </trkpt>
      <trkpt lat="44.78644" lon="6.74407">
        <ele>1892.49</ele>
        <time>2022-09-04T16:00:01Z</time>
      </trkpt>
      <trkpt lat="44.78642" lon="6.74405">
        <ele>1892.49</ele>
        <time>2022-09-04T16:00:18Z</time>
      </trkpt>
      <trkpt lat="44.78642" lon="6.74406">
        <ele>1892.49</ele>
        <time>2022-09-04T16:00:36Z</time>
      </trkpt>
      <trkpt lat="44.78641" lon="6.74409">
        <ele>1892.01</ele>
        <time>2022-09-04T16:01:09Z</time>
      </trkpt>
      <trkpt lat="44.78644" lon="6.74408">
        <ele>1892.01</ele>
        <time>2022-09-04T16:01:44Z</time>
      </trkpt>
      <trkpt lat="44.7864" lon="6.74405">
        <ele>1891.53</ele>
        <time>2022-09-04T16:02:11Z</time>
      </trkpt>
      <trkpt lat="44.78642" lon="6.74405">
        <ele>1890.57</ele>
        <time>2022-09-04T16:02:45Z</time>
      </trkpt>
      <trkpt lat="44.78633" lon="6.74404">
        <ele>1889.13</ele>
        <time>2022-09-04T16:03:01Z</time>
      </trkpt>
      <trkpt lat="44.78621" lon="6.74396">
        <ele>1886.72</ele>
        <time>2022-09-04T16:03:18Z</time>
      </trkpt>
      <trkpt lat="44.78615" lon="6.74387">
        <ele>1883.36</ele>
        <time>2022-09-04T16:03:26Z</time>
      </trkpt>
      <trkpt lat="44.78606" lon="6.74369">
        <ele>1880.48</ele>
        <time>2022-09-04T16:03:40Z</time>
      </trkpt>
      <trkpt lat="44.786" lon="6.74362">
        <ele>1878.07</ele>
        <time>2022-09-04T16:03:54Z</time>
      </trkpt>
      <trkpt lat="44.78595" lon="6.74355">
        <ele>1876.15</ele>
        <time>2022-09-04T16:04:05Z</time>
      </trkpt>
      <trkpt lat="44.78592" lon="6.74352">
        <ele>1875.19</ele>
        <time>2022-09-04T16:04:08Z</time>
      </trkpt>
      <trkpt lat="44.7859" lon="6.74345">
        <ele>1873.27</ele>
        <time>2022-09-04T16:04:12Z</time>
      </trkpt>
      <trkpt lat="44.78589" lon="6.74342">
        <ele>1872.79</ele>
        <time>2022-09-04T16:04:14Z</time>
      </trkpt>
      <trkpt lat="44.78587" lon="6.74335">
        <ele>1871.34</ele>
        <time>2022-09-04T16:04:18Z</time>
      </trkpt>
      <trkpt lat="44.78585" lon="6.74327">
        <ele>1869.42</ele>
        <time>2022-09-04T16:04:24Z</time>
      </trkpt>
      <trkpt lat="44.7858" lon="6.74318">
        <ele>1866.06</ele>
        <time>2022-09-04T16:04:32Z</time>
      </trkpt>
      <trkpt lat="44.78577" lon="6.74313">
        <ele>1864.61</ele>
        <time>2022-09-04T16:04:36Z</time>
      </trkpt>
      <trkpt lat="44.78569" lon="6.74305">
        <ele>1863.17</ele>
        <time>2022-09-04T16:04:43Z</time>
      </trkpt>
      <trkpt lat="44.78553" lon="6.74304">
        <ele>1861.25</ele>
        <time>2022-09-04T16:04:56Z</time>
      </trkpt>
      <trkpt lat="44.78547" lon="6.74308">
        <ele>1860.29</ele>
        <time>2022-09-04T16:05:03Z</time>
      </trkpt>
      <trkpt lat="44.78545" lon="6.74315">
        <ele>1858.85</ele>
        <time>2022-09-04T16:05:07Z</time>
      </trkpt>
      <trkpt lat="44.7854" lon="6.74336">
        <ele>1857.89</ele>
        <time>2022-09-04T16:05:21Z</time>
      </trkpt>
      <trkpt lat="44.78538" lon="6.74354">
        <ele>1855.96</ele>
        <time>2022-09-04T16:05:32Z</time>
      </trkpt>
      <trkpt lat="44.78536" lon="6.74371">
        <ele>1854.52</ele>
        <time>2022-09-04T16:05:43Z</time>
      </trkpt>
      <trkpt lat="44.78533" lon="6.74386">
        <ele>1854.04</ele>
        <time>2022-09-04T16:05:51Z</time>
      </trkpt>
      <trkpt lat="44.78529" lon="6.74406">
        <ele>1852.6</ele>
        <time>2022-09-04T16:06:06Z</time>
      </trkpt>
      <trkpt lat="44.78524" lon="6.74421">
        <ele>1851.16</ele>
        <time>2022-09-04T16:06:20Z</time>
      </trkpt>
      <trkpt lat="44.78519" lon="6.74444">
        <ele>1848.27</ele>
        <time>2022-09-04T16:06:34Z</time>
      </trkpt>
      <trkpt lat="44.78518" lon="6.7445">
        <ele>1848.27</ele>
        <time>2022-09-04T16:06:38Z</time>
      </trkpt>
      <trkpt lat="44.78517" lon="6.74453">
        <ele>1846.83</ele>
        <time>2022-09-04T16:06:40Z</time>
      </trkpt>
      <trkpt lat="44.78511" lon="6.74471">
        <ele>1846.35</ele>
        <time>2022-09-04T16:06:52Z</time>
      </trkpt>
      <trkpt lat="44.78502" lon="6.74488">
        <ele>1844.43</ele>
        <time>2022-09-04T16:07:05Z</time>
      </trkpt>
      <trkpt lat="44.78491" lon="6.74503">
        <ele>1841.54</ele>
        <time>2022-09-04T16:07:19Z</time>
      </trkpt>
      <trkpt lat="44.78483" lon="6.74509">
        <ele>1840.1</ele>
        <time>2022-09-04T16:07:29Z</time>
      </trkpt>
      <trkpt lat="44.78483" lon="6.74496">
        <ele>1837.7</ele>
        <time>2022-09-04T16:07:40Z</time>
      </trkpt>
      <trkpt lat="44.78483" lon="6.74494">
        <ele>1838.18</ele>
        <time>2022-09-04T16:07:41Z</time>
      </trkpt>
      <trkpt lat="44.78479" lon="6.74486">
        <ele>1836.26</ele>
        <time>2022-09-04T16:07:48Z</time>
      </trkpt>
      <trkpt lat="44.78464" lon="6.74489">
        <ele>1833.37</ele>
        <time>2022-09-04T16:08:02Z</time>
      </trkpt>
      <trkpt lat="44.78457" lon="6.74489">
        <ele>1831.93</ele>
        <time>2022-09-04T16:08:09Z</time>
      </trkpt>
      <trkpt lat="44.78452" lon="6.74491">
        <ele>1831.45</ele>
        <time>2022-09-04T16:08:13Z</time>
      </trkpt>
      <trkpt lat="44.78435" lon="6.74499">
        <ele>1829.05</ele>
        <time>2022-09-04T16:08:28Z</time>
      </trkpt>
      <trkpt lat="44.78432" lon="6.74502">
        <ele>1828.56</ele>
        <time>2022-09-04T16:08:32Z</time>
      </trkpt>
      <trkpt lat="44.7843" lon="6.74505">
        <ele>1828.08</ele>
        <time>2022-09-04T16:08:35Z</time>
      </trkpt>
      <trkpt lat="44.78426" lon="6.74517">
        <ele>1826.16</ele>
        <time>2022-09-04T16:08:49Z</time>
      </trkpt>
      <trkpt lat="44.78429" lon="6.74526">
        <ele>1825.2</ele>
        <time>2022-09-04T16:08:57Z</time>
      </trkpt>
      <trkpt lat="44.78431" lon="6.74533">
        <ele>1824.72</ele>
        <time>2022-09-04T16:09:02Z</time>
      </trkpt>
      <trkpt lat="44.7843" lon="6.74544">
        <ele>1824.72</ele>
        <time>2022-09-04T16:09:09Z</time>
      </trkpt>
      <trkpt lat="44.78422" lon="6.74547">
        <ele>1824.72</ele>
        <time>2022-09-04T16:09:20Z</time>
      </trkpt>
      <trkpt lat="44.78411" lon="6.74533">
        <ele>1824.72</ele>
        <time>2022-09-04T16:09:33Z</time>
      </trkpt>
      <trkpt lat="44.7841" lon="6.74532">
        <ele>1824.72</ele>
        <time>2022-09-04T16:09:34Z</time>
      </trkpt>
      <trkpt lat="44.78406" lon="6.74523">
        <ele>1824.24</ele>
        <time>2022-09-04T16:09:44Z</time>
      </trkpt>
      <trkpt lat="44.784" lon="6.74509">
        <ele>1822.32</ele>
        <time>2022-09-04T16:09:55Z</time>
      </trkpt>
      <trkpt lat="44.784" lon="6.74506">
        <ele>1821.84</ele>
        <time>2022-09-04T16:09:57Z</time>
      </trkpt>
      <trkpt lat="44.78396" lon="6.74493">
        <ele>1819.91</ele>
        <time>2022-09-04T16:10:06Z</time>
      </trkpt>
      <trkpt lat="44.78391" lon="6.74473">
        <ele>1817.51</ele>
        <time>2022-09-04T16:10:19Z</time>
      </trkpt>
      <trkpt lat="44.7839" lon="6.74467">
        <ele>1816.55</ele>
        <time>2022-09-04T16:10:22Z</time>
      </trkpt>
      <trkpt lat="44.78385" lon="6.74447">
        <ele>1813.66</ele>
        <time>2022-09-04T16:10:35Z</time>
      </trkpt>
      <trkpt lat="44.78383" lon="6.74444">
        <ele>1812.7</ele>
        <time>2022-09-04T16:10:39Z</time>
      </trkpt>
      <trkpt lat="44.78378" lon="6.74424">
        <ele>1809.34</ele>
        <time>2022-09-04T16:10:52Z</time>
      </trkpt>
      <trkpt lat="44.78377" lon="6.74417">
        <ele>1808.86</ele>
        <time>2022-09-04T16:10:56Z</time>
      </trkpt>
      <trkpt lat="44.78372" lon="6.744">
        <ele>1806.45</ele>
        <time>2022-09-04T16:11:08Z</time>
      </trkpt>
      <trkpt lat="44.78372" lon="6.74396">
        <ele>1805.49</ele>
        <time>2022-09-04T16:11:10Z</time>
      </trkpt>
      <trkpt lat="44.78369" lon="6.74381">
        <ele>1803.57</ele>
        <time>2022-09-04T16:11:20Z</time>
      </trkpt>
      <trkpt lat="44.7837" lon="6.74358">
        <ele>1801.65</ele>
        <time>2022-09-04T16:11:34Z</time>
      </trkpt>
      <trkpt lat="44.78369" lon="6.74355">
        <ele>1801.17</ele>
        <time>2022-09-04T16:11:36Z</time>
      </trkpt>
      <trkpt lat="44.7837" lon="6.74345">
        <ele>1799.24</ele>
        <time>2022-09-04T16:11:44Z</time>
      </trkpt>
      <trkpt lat="44.78371" lon="6.74339">
        <ele>1799.24</ele>
        <time>2022-09-04T16:11:48Z</time>
      </trkpt>
      <trkpt lat="44.78369" lon="6.74316">
        <ele>1796.36</ele>
        <time>2022-09-04T16:12:03Z</time>
      </trkpt>
      <trkpt lat="44.78363" lon="6.74302">
        <ele>1795.4</ele>
        <time>2022-09-04T16:12:14Z</time>
      </trkpt>
      <trkpt lat="44.78357" lon="6.74279">
        <ele>1793</ele>
        <time>2022-09-04T16:12:28Z</time>
      </trkpt>
      <trkpt lat="44.78353" lon="6.74254">
        <ele>1790.11</ele>
        <time>2022-09-04T16:12:45Z</time>
      </trkpt>
      <trkpt lat="44.78352" lon="6.7423">
        <ele>1786.75</ele>
        <time>2022-09-04T16:13:00Z</time>
      </trkpt>
      <trkpt lat="44.78351" lon="6.74226">
        <ele>1784.82</ele>
        <time>2022-09-04T16:13:13Z</time>
      </trkpt>
      <trkpt lat="44.78349" lon="6.74212">
        <ele>1783.86</ele>
        <time>2022-09-04T16:13:28Z</time>
      </trkpt>
      <trkpt lat="44.78344" lon="6.74192">
        <ele>1780.5</ele>
        <time>2022-09-04T16:13:41Z</time>
      </trkpt>
      <trkpt lat="44.78342" lon="6.74178">
        <ele>1779.54</ele>
        <time>2022-09-04T16:13:51Z</time>
      </trkpt>
      <trkpt lat="44.78334" lon="6.74161">
        <ele>1777.13</ele>
        <time>2022-09-04T16:14:07Z</time>
      </trkpt>
      <trkpt lat="44.78328" lon="6.74144">
        <ele>1774.25</ele>
        <time>2022-09-04T16:14:20Z</time>
      </trkpt>
      <trkpt lat="44.78327" lon="6.74143">
        <ele>1774.25</ele>
        <time>2022-09-04T16:14:21Z</time>
      </trkpt>
      <trkpt lat="44.78323" lon="6.74127">
        <ele>1771.37</ele>
        <time>2022-09-04T16:14:33Z</time>
      </trkpt>
      <trkpt lat="44.78318" lon="6.74118">
        <ele>1769.44</ele>
        <time>2022-09-04T16:14:40Z</time>
      </trkpt>
      <trkpt lat="44.78316" lon="6.74113">
        <ele>1769.44</ele>
        <time>2022-09-04T16:14:43Z</time>
      </trkpt>
      <trkpt lat="44.78312" lon="6.74105">
        <ele>1768</ele>
        <time>2022-09-04T16:14:50Z</time>
      </trkpt>
      <trkpt lat="44.78303" lon="6.74086">
        <ele>1765.6</ele>
        <time>2022-09-04T16:15:04Z</time>
      </trkpt>
      <trkpt lat="44.78296" lon="6.74066">
        <ele>1762.71</ele>
        <time>2022-09-04T16:15:19Z</time>
      </trkpt>
      <trkpt lat="44.78287" lon="6.7405">
        <ele>1760.31</ele>
        <time>2022-09-04T16:15:31Z</time>
      </trkpt>
      <trkpt lat="44.78282" lon="6.74033">
        <ele>1757.91</ele>
        <time>2022-09-04T16:15:45Z</time>
      </trkpt>
      <trkpt lat="44.78281" lon="6.74033">
        <ele>1757.91</ele>
        <time>2022-09-04T16:15:46Z</time>
      </trkpt>
      <trkpt lat="44.78275" lon="6.74029">
        <ele>1756.95</ele>
        <time>2022-09-04T16:15:56Z</time>
      </trkpt>
      <trkpt lat="44.78271" lon="6.74022">
        <ele>1756.47</ele>
        <time>2022-09-04T16:16:02Z</time>
      </trkpt>
      <trkpt lat="44.78265" lon="6.74009">
        <ele>1755.02</ele>
        <time>2022-09-04T16:16:12Z</time>
      </trkpt>
      <trkpt lat="44.78254" lon="6.73987">
        <ele>1753.58</ele>
        <time>2022-09-04T16:16:28Z</time>
      </trkpt>
      <trkpt lat="44.78244" lon="6.73971">
        <ele>1752.14</ele>
        <time>2022-09-04T16:16:41Z</time>
      </trkpt>
      <trkpt lat="44.78235" lon="6.73954">
        <ele>1748.78</ele>
        <time>2022-09-04T16:16:54Z</time>
      </trkpt>
      <trkpt lat="44.78229" lon="6.73932">
        <ele>1746.37</ele>
        <time>2022-09-04T16:17:08Z</time>
      </trkpt>
      <trkpt lat="44.78223" lon="6.73908">
        <ele>1744.45</ele>
        <time>2022-09-04T16:17:25Z</time>
      </trkpt>
      <trkpt lat="44.78221" lon="6.73897">
        <ele>1743.49</ele>
        <time>2022-09-04T16:17:32Z</time>
      </trkpt>
      <trkpt lat="44.78221" lon="6.73888">
        <ele>1742.53</ele>
        <time>2022-09-04T16:17:39Z</time>
      </trkpt>
      <trkpt lat="44.78219" lon="6.73883">
        <ele>1742.05</ele>
        <time>2022-09-04T16:17:43Z</time>
      </trkpt>
      <trkpt lat="44.78217" lon="6.73859">
        <ele>1739.16</ele>
        <time>2022-09-04T16:17:59Z</time>
      </trkpt>
      <trkpt lat="44.78213" lon="6.73835">
        <ele>1735.8</ele>
        <time>2022-09-04T16:18:15Z</time>
      </trkpt>
      <trkpt lat="44.78205" lon="6.73809">
        <ele>1732.91</ele>
        <time>2022-09-04T16:18:33Z</time>
      </trkpt>
      <trkpt lat="44.78194" lon="6.73782">
        <ele>1730.03</ele>
        <time>2022-09-04T16:18:51Z</time>
      </trkpt>
      <trkpt lat="44.78184" lon="6.73761">
        <ele>1727.63</ele>
        <time>2022-09-04T16:19:07Z</time>
      </trkpt>
      <trkpt lat="44.78176" lon="6.73737">
        <ele>1724.74</ele>
        <time>2022-09-04T16:19:24Z</time>
      </trkpt>
      <trkpt lat="44.78169" lon="6.73715">
        <ele>1721.86</ele>
        <time>2022-09-04T16:19:39Z</time>
      </trkpt>
      <trkpt lat="44.78162" lon="6.7369">
        <ele>1718.49</ele>
        <time>2022-09-04T16:19:57Z</time>
      </trkpt>
      <trkpt lat="44.78155" lon="6.73661">
        <ele>1716.09</ele>
        <time>2022-09-04T16:20:17Z</time>
      </trkpt>
      <trkpt lat="44.78143" lon="6.73635">
        <ele>1712.73</ele>
        <time>2022-09-04T16:20:37Z</time>
      </trkpt>
      <trkpt lat="44.78141" lon="6.73631">
        <ele>1712.25</ele>
        <time>2022-09-04T16:20:41Z</time>
      </trkpt>
      <trkpt lat="44.78126" lon="6.73614">
        <ele>1708.88</ele>
        <time>2022-09-04T16:20:59Z</time>
      </trkpt>
      <trkpt lat="44.78121" lon="6.73596">
        <ele>1707.44</ele>
        <time>2022-09-04T16:21:14Z</time>
      </trkpt>
      <trkpt lat="44.78121" lon="6.73584">
        <ele>1706.96</ele>
        <time>2022-09-04T16:21:25Z</time>
      </trkpt>
      <trkpt lat="44.78123" lon="6.73581">
        <ele>1706.48</ele>
        <time>2022-09-04T16:21:29Z</time>
      </trkpt>
      <trkpt lat="44.78126" lon="6.73577">
        <ele>1706</ele>
        <time>2022-09-04T16:21:35Z</time>
      </trkpt>
      <trkpt lat="44.78135" lon="6.73554">
        <ele>1705.04</ele>
        <time>2022-09-04T16:21:49Z</time>
      </trkpt>
      <trkpt lat="44.78139" lon="6.73538">
        <ele>1703.59</ele>
        <time>2022-09-04T16:22:01Z</time>
      </trkpt>
      <trkpt lat="44.78141" lon="6.7352">
        <ele>1702.15</ele>
        <time>2022-09-04T16:22:14Z</time>
      </trkpt>
      <trkpt lat="44.78141" lon="6.73517">
        <ele>1701.67</ele>
        <time>2022-09-04T16:22:26Z</time>
      </trkpt>
      <trkpt lat="44.78141" lon="6.73517">
        <ele>1701.19</ele>
        <time>2022-09-04T16:22:53Z</time>
      </trkpt>
      <trkpt lat="44.78142" lon="6.73516">
        <ele>1700.71</ele>
        <time>2022-09-04T16:23:31Z</time>
      </trkpt>
      <trkpt lat="44.78141" lon="6.73516">
        <ele>1700.71</ele>
        <time>2022-09-04T16:24:00Z</time>
      </trkpt>
      <trkpt lat="44.78142" lon="6.73516">
        <ele>1700.23</ele>
        <time>2022-09-04T16:24:17Z</time>
      </trkpt>
      <trkpt lat="44.78141" lon="6.73514">
        <ele>1699.75</ele>
        <time>2022-09-04T16:24:48Z</time>
      </trkpt>
      <trkpt lat="44.7814" lon="6.73513">
        <ele>1699.75</ele>
        <time>2022-09-04T16:25:18Z</time>
      </trkpt>
      <trkpt lat="44.78142" lon="6.73515">
        <ele>1699.75</ele>
        <time>2022-09-04T16:25:33Z</time>
      </trkpt>
      <trkpt lat="44.78143" lon="6.73516">
        <ele>1699.27</ele>
        <time>2022-09-04T16:26:00Z</time>
      </trkpt>
      <trkpt lat="44.78142" lon="6.73514">
        <ele>1699.27</ele>
        <time>2022-09-04T16:26:29Z</time>
      </trkpt>
      <trkpt lat="44.78143" lon="6.73514">
        <ele>1698.79</ele>
        <time>2022-09-04T16:26:59Z</time>
      </trkpt>
      <trkpt lat="44.78137" lon="6.73513">
        <ele>1698.31</ele>
        <time>2022-09-04T16:27:14Z</time>
      </trkpt>
      <trkpt lat="44.78134" lon="6.73513">
        <ele>1697.83</ele>
        <time>2022-09-04T16:27:28Z</time>
      </trkpt>
      <trkpt lat="44.78127" lon="6.73506">
        <ele>1696.86</ele>
        <time>2022-09-04T16:27:39Z</time>
      </trkpt>
      <trkpt lat="44.78125" lon="6.73507">
        <ele>1696.38</ele>
        <time>2022-09-04T16:27:41Z</time>
      </trkpt>
      <trkpt lat="44.78112" lon="6.73508">
        <ele>1695.42</ele>
        <time>2022-09-04T16:27:55Z</time>
      </trkpt>
      <trkpt lat="44.7811" lon="6.73508">
        <ele>1695.42</ele>
        <time>2022-09-04T16:28:00Z</time>
      </trkpt>
      <trkpt lat="44.78108" lon="6.73502">
        <ele>1694.46</ele>
        <time>2022-09-04T16:28:11Z</time>
      </trkpt>
      <trkpt lat="44.78105" lon="6.73498">
        <ele>1693.98</ele>
        <time>2022-09-04T16:28:17Z</time>
      </trkpt>
      <trkpt lat="44.78102" lon="6.73484">
        <ele>1693.02</ele>
        <time>2022-09-04T16:28:26Z</time>
      </trkpt>
      <trkpt lat="44.78101" lon="6.73474">
        <ele>1691.58</ele>
        <time>2022-09-04T16:28:33Z</time>
      </trkpt>
      <trkpt lat="44.78096" lon="6.7346">
        <ele>1690.14</ele>
        <time>2022-09-04T16:28:46Z</time>
      </trkpt>
      <trkpt lat="44.78093" lon="6.73448">
        <ele>1688.69</ele>
        <time>2022-09-04T16:28:59Z</time>
      </trkpt>
      <trkpt lat="44.78089" lon="6.73437">
        <ele>1687.25</ele>
        <time>2022-09-04T16:29:07Z</time>
      </trkpt>
      <trkpt lat="44.78078" lon="6.73429">
        <ele>1685.81</ele>
        <time>2022-09-04T16:29:19Z</time>
      </trkpt>
      <trkpt lat="44.78074" lon="6.73425">
        <ele>1685.33</ele>
        <time>2022-09-04T16:29:24Z</time>
      </trkpt>
      <trkpt lat="44.78063" lon="6.73417">
        <ele>1683.89</ele>
        <time>2022-09-04T16:29:37Z</time>
      </trkpt>
      <trkpt lat="44.78054" lon="6.73411">
        <ele>1681.96</ele>
        <time>2022-09-04T16:29:49Z</time>
      </trkpt>
      <trkpt lat="44.78052" lon="6.7341">
        <ele>1681.96</ele>
        <time>2022-09-04T16:29:51Z</time>
      </trkpt>
      <trkpt lat="44.78047" lon="6.73412">
        <ele>1681.48</ele>
        <time>2022-09-04T16:29:56Z</time>
      </trkpt>
      <trkpt lat="44.78044" lon="6.73422">
        <ele>1681</ele>
        <time>2022-09-04T16:30:14Z</time>
      </trkpt>
      <trkpt lat="44.78042" lon="6.73423">
        <ele>1681</ele>
        <time>2022-09-04T16:30:41Z</time>
      </trkpt>
      <trkpt lat="44.78035" lon="6.73429">
        <ele>1681</ele>
        <time>2022-09-04T16:31:01Z</time>
      </trkpt>
    </trkseg>
  </trk>
</gpx>